<?xml version="1.0" encoding="UTF-8" standalone="no" ?>
<gpx xmlns="http://www.topografix.com/GPX/1/1" xmlns:xsi="http://www.w3.org/2001/XMLSchema-instance" xsi:schemaLocation="http://www.topografix.com/GPX/1/1 http://www.topografix.com/GPX/1/1/gpx.xsd" version="1.1" creator="VisuGPX - https://www.visugpx.com">
  <metadata>
    <name>Bancillon - St Romain de Popey</name>
    <desc><![CDATA[Départ de Sarcey jusqu\'au Cret d\'Arjoux]]></desc>
  </metadata>
  <wpt lat="45.87923" lon="4.55965">
    <ele>369</ele>
    <name><![CDATA[Pause à 9/6 13:45]]></name>
    <desc><![CDATA[Pause de 9min 1s]]></desc>
  </wpt>
  <wpt lat="45.85124" lon="4.50802">
    <ele>525</ele>
    <name><![CDATA[Pause à 9/6 14:25]]></name>
    <desc><![CDATA[Pause de 2min 57s]]></desc>
  </wpt>
  <wpt lat="45.84772" lon="4.51067">
    <ele>593</ele>
    <name><![CDATA[Pause à 9/6 14:35]]></name>
    <desc><![CDATA[Pause de 2min 46s]]></desc>
  </wpt>
  <wpt lat="45.8341" lon="4.50441">
    <ele>588</ele>
    <name><![CDATA[Pause à 9/6 14:43]]></name>
    <desc><![CDATA[Pause de 2min 15s]]></desc>
  </wpt>
  <wpt lat="45.83215" lon="4.49305">
    <ele>568</ele>
    <name><![CDATA[Pause à 9/6 14:50]]></name>
    <desc><![CDATA[Pause de 2min 7s]]></desc>
  </wpt>
  <wpt lat="45.81712" lon="4.49879">
    <ele>658</ele>
    <name><![CDATA[Pause à 9/6 15:10]]></name>
    <desc><![CDATA[Pause de 3min 4s]]></desc>
  </wpt>
  <wpt lat="45.81519" lon="4.50166">
    <ele>718</ele>
    <name><![CDATA[Pause à 9/6 15:20]]></name>
    <desc><![CDATA[Pause de 4min 34s]]></desc>
  </wpt>
  <wpt lat="45.80939" lon="4.50519">
    <ele>779</ele>
    <name><![CDATA[Pause à 9/6 15:32]]></name>
    <desc><![CDATA[Pause de 4min 0s]]></desc>
  </wpt>
  <wpt lat="45.82597" lon="4.51308">
    <ele>746</ele>
    <name><![CDATA[Pause à 9/6 15:48]]></name>
    <desc><![CDATA[Pause de 4min 2s]]></desc>
  </wpt>
  <wpt lat="45.82381" lon="4.51358">
    <ele>766</ele>
    <name><![CDATA[Pause à 9/6 15:53]]></name>
    <desc><![CDATA[Pause de 13min 56s]]></desc>
  </wpt>
  <wpt lat="45.81746" lon="4.50974">
    <ele>712</ele>
    <name><![CDATA[Pause à 9/6 16:10]]></name>
    <desc><![CDATA[Pause de 3min 14s]]></desc>
  </wpt>
  <wpt lat="45.81554" lon="4.51761">
    <ele>673</ele>
    <name><![CDATA[Pause à 9/6 16:16]]></name>
    <desc><![CDATA[Pause de 2min 27s]]></desc>
  </wpt>
  <wpt lat="45.84731" lon="4.53056">
    <ele>428</ele>
    <name><![CDATA[Pause à 9/6 16:36]]></name>
    <desc><![CDATA[Pause de 4min 7s]]></desc>
  </wpt>
  <trk>
    <name><![CDATA[Le Bancillon, 69490 Saint-Romain-de-Popey, France]]></name>
    <trkseg>
      <trkpt lat="45.87923" lon="4.55965">
        <ele>365</ele>
        <time>2015-06-09T11:42:58Z</time>
      </trkpt>
      <trkpt lat="45.87923" lon="4.55965">
        <ele>365</ele>
        <time>2015-06-09T11:43:15Z</time>
      </trkpt>
      <trkpt lat="45.87923" lon="4.55964">
        <ele>365</ele>
        <time>2015-06-09T11:43:30Z</time>
      </trkpt>
      <trkpt lat="45.87923" lon="4.55964">
        <ele>365</ele>
        <time>2015-06-09T11:43:45Z</time>
      </trkpt>
      <trkpt lat="45.87923" lon="4.55964">
        <ele>365</ele>
        <time>2015-06-09T11:44:01Z</time>
      </trkpt>
      <trkpt lat="45.87923" lon="4.55964">
        <ele>365</ele>
        <time>2015-06-09T11:44:17Z</time>
      </trkpt>
      <trkpt lat="45.87924" lon="4.55964">
        <ele>365</ele>
        <time>2015-06-09T11:44:32Z</time>
      </trkpt>
      <trkpt lat="45.87924" lon="4.55964">
        <ele>365</ele>
        <time>2015-06-09T11:44:49Z</time>
      </trkpt>
      <trkpt lat="45.87906" lon="4.55904">
        <ele>362</ele>
        <time>2015-06-09T11:51:59Z</time>
      </trkpt>
      <trkpt lat="45.87907" lon="4.55894">
        <ele>362</ele>
        <time>2015-06-09T11:52:01Z</time>
      </trkpt>
      <trkpt lat="45.87908" lon="4.55882">
        <ele>361</ele>
        <time>2015-06-09T11:52:03Z</time>
      </trkpt>
      <trkpt lat="45.87907" lon="4.55875">
        <ele>361</ele>
        <time>2015-06-09T11:52:04Z</time>
      </trkpt>
      <trkpt lat="45.87903" lon="4.55862">
        <ele>361</ele>
        <time>2015-06-09T11:52:06Z</time>
      </trkpt>
      <trkpt lat="45.87899" lon="4.55847">
        <ele>360</ele>
        <time>2015-06-09T11:52:08Z</time>
      </trkpt>
      <trkpt lat="45.87898" lon="4.55838">
        <ele>360</ele>
        <time>2015-06-09T11:52:09Z</time>
      </trkpt>
      <trkpt lat="45.87897" lon="4.55831">
        <ele>360</ele>
        <time>2015-06-09T11:52:10Z</time>
      </trkpt>
      <trkpt lat="45.87895" lon="4.55822">
        <ele>359</ele>
        <time>2015-06-09T11:52:11Z</time>
      </trkpt>
      <trkpt lat="45.87894" lon="4.55815">
        <ele>359</ele>
        <time>2015-06-09T11:52:12Z</time>
      </trkpt>
      <trkpt lat="45.87893" lon="4.55808">
        <ele>359</ele>
        <time>2015-06-09T11:52:13Z</time>
      </trkpt>
      <trkpt lat="45.87892" lon="4.55799">
        <ele>359</ele>
        <time>2015-06-09T11:52:14Z</time>
      </trkpt>
      <trkpt lat="45.87892" lon="4.5579">
        <ele>358</ele>
        <time>2015-06-09T11:52:15Z</time>
      </trkpt>
      <trkpt lat="45.87891" lon="4.55782">
        <ele>358</ele>
        <time>2015-06-09T11:52:16Z</time>
      </trkpt>
      <trkpt lat="45.87892" lon="4.55773">
        <ele>358</ele>
        <time>2015-06-09T11:52:17Z</time>
      </trkpt>
      <trkpt lat="45.87891" lon="4.55764">
        <ele>358</ele>
        <time>2015-06-09T11:52:18Z</time>
      </trkpt>
      <trkpt lat="45.87893" lon="4.55756">
        <ele>358</ele>
        <time>2015-06-09T11:52:19Z</time>
      </trkpt>
      <trkpt lat="45.87892" lon="4.55747">
        <ele>358</ele>
        <time>2015-06-09T11:52:20Z</time>
      </trkpt>
      <trkpt lat="45.87892" lon="4.55738">
        <ele>358</ele>
        <time>2015-06-09T11:52:21Z</time>
      </trkpt>
      <trkpt lat="45.87891" lon="4.5573">
        <ele>358</ele>
        <time>2015-06-09T11:52:22Z</time>
      </trkpt>
      <trkpt lat="45.8789" lon="4.55721">
        <ele>357</ele>
        <time>2015-06-09T11:52:23Z</time>
      </trkpt>
      <trkpt lat="45.87887" lon="4.55714">
        <ele>357</ele>
        <time>2015-06-09T11:52:24Z</time>
      </trkpt>
      <trkpt lat="45.87882" lon="4.55711">
        <ele>357</ele>
        <time>2015-06-09T11:52:25Z</time>
      </trkpt>
      <trkpt lat="45.87876" lon="4.55708">
        <ele>357</ele>
        <time>2015-06-09T11:52:26Z</time>
      </trkpt>
      <trkpt lat="45.8787" lon="4.55705">
        <ele>357</ele>
        <time>2015-06-09T11:52:27Z</time>
      </trkpt>
      <trkpt lat="45.87864" lon="4.55702">
        <ele>358</ele>
        <time>2015-06-09T11:52:28Z</time>
      </trkpt>
      <trkpt lat="45.87859" lon="4.55699">
        <ele>358</ele>
        <time>2015-06-09T11:52:29Z</time>
      </trkpt>
      <trkpt lat="45.87853" lon="4.55695">
        <ele>358</ele>
        <time>2015-06-09T11:52:30Z</time>
      </trkpt>
      <trkpt lat="45.87846" lon="4.55691">
        <ele>358</ele>
        <time>2015-06-09T11:52:31Z</time>
      </trkpt>
      <trkpt lat="45.8784" lon="4.55688">
        <ele>358</ele>
        <time>2015-06-09T11:52:32Z</time>
      </trkpt>
      <trkpt lat="45.87835" lon="4.55684">
        <ele>358</ele>
        <time>2015-06-09T11:52:33Z</time>
      </trkpt>
      <trkpt lat="45.87829" lon="4.55681">
        <ele>358</ele>
        <time>2015-06-09T11:52:34Z</time>
      </trkpt>
      <trkpt lat="45.87822" lon="4.55676">
        <ele>358</ele>
        <time>2015-06-09T11:52:35Z</time>
      </trkpt>
      <trkpt lat="45.87816" lon="4.55671">
        <ele>357</ele>
        <time>2015-06-09T11:52:36Z</time>
      </trkpt>
      <trkpt lat="45.8781" lon="4.55667">
        <ele>357</ele>
        <time>2015-06-09T11:52:37Z</time>
      </trkpt>
      <trkpt lat="45.87803" lon="4.55662">
        <ele>357</ele>
        <time>2015-06-09T11:52:38Z</time>
      </trkpt>
      <trkpt lat="45.87797" lon="4.55658">
        <ele>356</ele>
        <time>2015-06-09T11:52:39Z</time>
      </trkpt>
      <trkpt lat="45.8779" lon="4.55654">
        <ele>356</ele>
        <time>2015-06-09T11:52:40Z</time>
      </trkpt>
      <trkpt lat="45.87784" lon="4.55649">
        <ele>356</ele>
        <time>2015-06-09T11:52:41Z</time>
      </trkpt>
      <trkpt lat="45.87778" lon="4.55644">
        <ele>355</ele>
        <time>2015-06-09T11:52:42Z</time>
      </trkpt>
      <trkpt lat="45.87771" lon="4.55638">
        <ele>355</ele>
        <time>2015-06-09T11:52:43Z</time>
      </trkpt>
      <trkpt lat="45.87763" lon="4.55633">
        <ele>355</ele>
        <time>2015-06-09T11:52:44Z</time>
      </trkpt>
      <trkpt lat="45.8775" lon="4.55624">
        <ele>354</ele>
        <time>2015-06-09T11:52:46Z</time>
      </trkpt>
      <trkpt lat="45.87743" lon="4.55619">
        <ele>354</ele>
        <time>2015-06-09T11:52:47Z</time>
      </trkpt>
      <trkpt lat="45.87736" lon="4.55613">
        <ele>354</ele>
        <time>2015-06-09T11:52:48Z</time>
      </trkpt>
      <trkpt lat="45.87729" lon="4.55608">
        <ele>354</ele>
        <time>2015-06-09T11:52:49Z</time>
      </trkpt>
      <trkpt lat="45.87723" lon="4.55603">
        <ele>353</ele>
        <time>2015-06-09T11:52:50Z</time>
      </trkpt>
      <trkpt lat="45.87716" lon="4.55598">
        <ele>353</ele>
        <time>2015-06-09T11:52:51Z</time>
      </trkpt>
      <trkpt lat="45.87709" lon="4.55593">
        <ele>353</ele>
        <time>2015-06-09T11:52:52Z</time>
      </trkpt>
      <trkpt lat="45.87701" lon="4.55588">
        <ele>352</ele>
        <time>2015-06-09T11:52:53Z</time>
      </trkpt>
      <trkpt lat="45.87693" lon="4.55581">
        <ele>352</ele>
        <time>2015-06-09T11:52:54Z</time>
      </trkpt>
      <trkpt lat="45.87686" lon="4.55576">
        <ele>351</ele>
        <time>2015-06-09T11:52:55Z</time>
      </trkpt>
      <trkpt lat="45.8767" lon="4.55566">
        <ele>351</ele>
        <time>2015-06-09T11:52:57Z</time>
      </trkpt>
      <trkpt lat="45.87662" lon="4.5556">
        <ele>350</ele>
        <time>2015-06-09T11:52:58Z</time>
      </trkpt>
      <trkpt lat="45.87654" lon="4.55554">
        <ele>350</ele>
        <time>2015-06-09T11:52:59Z</time>
      </trkpt>
      <trkpt lat="45.87646" lon="4.55549">
        <ele>350</ele>
        <time>2015-06-09T11:53:00Z</time>
      </trkpt>
      <trkpt lat="45.87638" lon="4.55543">
        <ele>349</ele>
        <time>2015-06-09T11:53:01Z</time>
      </trkpt>
      <trkpt lat="45.8763" lon="4.55537">
        <ele>349</ele>
        <time>2015-06-09T11:53:02Z</time>
      </trkpt>
      <trkpt lat="45.87623" lon="4.55532">
        <ele>349</ele>
        <time>2015-06-09T11:53:03Z</time>
      </trkpt>
      <trkpt lat="45.87615" lon="4.55526">
        <ele>349</ele>
        <time>2015-06-09T11:53:04Z</time>
      </trkpt>
      <trkpt lat="45.87607" lon="4.55521">
        <ele>348</ele>
        <time>2015-06-09T11:53:05Z</time>
      </trkpt>
      <trkpt lat="45.87599" lon="4.55514">
        <ele>348</ele>
        <time>2015-06-09T11:53:06Z</time>
      </trkpt>
      <trkpt lat="45.87583" lon="4.55503">
        <ele>347</ele>
        <time>2015-06-09T11:53:08Z</time>
      </trkpt>
      <trkpt lat="45.87576" lon="4.55497">
        <ele>347</ele>
        <time>2015-06-09T11:53:09Z</time>
      </trkpt>
      <trkpt lat="45.87568" lon="4.55491">
        <ele>347</ele>
        <time>2015-06-09T11:53:10Z</time>
      </trkpt>
      <trkpt lat="45.8756" lon="4.55486">
        <ele>346</ele>
        <time>2015-06-09T11:53:11Z</time>
      </trkpt>
      <trkpt lat="45.87552" lon="4.5548">
        <ele>346</ele>
        <time>2015-06-09T11:53:12Z</time>
      </trkpt>
      <trkpt lat="45.87544" lon="4.55474">
        <ele>346</ele>
        <time>2015-06-09T11:53:13Z</time>
      </trkpt>
      <trkpt lat="45.87537" lon="4.55468">
        <ele>345</ele>
        <time>2015-06-09T11:53:14Z</time>
      </trkpt>
      <trkpt lat="45.87529" lon="4.55463">
        <ele>345</ele>
        <time>2015-06-09T11:53:15Z</time>
      </trkpt>
      <trkpt lat="45.87521" lon="4.55457">
        <ele>344</ele>
        <time>2015-06-09T11:53:16Z</time>
      </trkpt>
      <trkpt lat="45.87514" lon="4.55452">
        <ele>344</ele>
        <time>2015-06-09T11:53:17Z</time>
      </trkpt>
      <trkpt lat="45.87507" lon="4.55447">
        <ele>343</ele>
        <time>2015-06-09T11:53:18Z</time>
      </trkpt>
      <trkpt lat="45.87499" lon="4.55441">
        <ele>343</ele>
        <time>2015-06-09T11:53:19Z</time>
      </trkpt>
      <trkpt lat="45.87491" lon="4.55436">
        <ele>342</ele>
        <time>2015-06-09T11:53:20Z</time>
      </trkpt>
      <trkpt lat="45.87482" lon="4.5543">
        <ele>342</ele>
        <time>2015-06-09T11:53:21Z</time>
      </trkpt>
      <trkpt lat="45.87474" lon="4.55424">
        <ele>341</ele>
        <time>2015-06-09T11:53:22Z</time>
      </trkpt>
      <trkpt lat="45.87466" lon="4.55419">
        <ele>341</ele>
        <time>2015-06-09T11:53:23Z</time>
      </trkpt>
      <trkpt lat="45.87458" lon="4.55413">
        <ele>341</ele>
        <time>2015-06-09T11:53:24Z</time>
      </trkpt>
      <trkpt lat="45.8745" lon="4.55409">
        <ele>341</ele>
        <time>2015-06-09T11:53:25Z</time>
      </trkpt>
      <trkpt lat="45.87443" lon="4.55404">
        <ele>341</ele>
        <time>2015-06-09T11:53:26Z</time>
      </trkpt>
      <trkpt lat="45.87436" lon="4.55398">
        <ele>340</ele>
        <time>2015-06-09T11:53:27Z</time>
      </trkpt>
      <trkpt lat="45.87428" lon="4.55392">
        <ele>340</ele>
        <time>2015-06-09T11:53:28Z</time>
      </trkpt>
      <trkpt lat="45.87421" lon="4.55387">
        <ele>340</ele>
        <time>2015-06-09T11:53:29Z</time>
      </trkpt>
      <trkpt lat="45.87413" lon="4.55382">
        <ele>340</ele>
        <time>2015-06-09T11:53:30Z</time>
      </trkpt>
      <trkpt lat="45.87405" lon="4.55376">
        <ele>340</ele>
        <time>2015-06-09T11:53:31Z</time>
      </trkpt>
      <trkpt lat="45.87398" lon="4.55371">
        <ele>339</ele>
        <time>2015-06-09T11:53:32Z</time>
      </trkpt>
      <trkpt lat="45.87391" lon="4.55365">
        <ele>339</ele>
        <time>2015-06-09T11:53:33Z</time>
      </trkpt>
      <trkpt lat="45.87382" lon="4.55361">
        <ele>339</ele>
        <time>2015-06-09T11:53:34Z</time>
      </trkpt>
      <trkpt lat="45.87374" lon="4.55355">
        <ele>339</ele>
        <time>2015-06-09T11:53:35Z</time>
      </trkpt>
      <trkpt lat="45.87367" lon="4.55349">
        <ele>339</ele>
        <time>2015-06-09T11:53:36Z</time>
      </trkpt>
      <trkpt lat="45.87359" lon="4.55344">
        <ele>338</ele>
        <time>2015-06-09T11:53:37Z</time>
      </trkpt>
      <trkpt lat="45.87351" lon="4.55339">
        <ele>338</ele>
        <time>2015-06-09T11:53:38Z</time>
      </trkpt>
      <trkpt lat="45.87343" lon="4.55332">
        <ele>338</ele>
        <time>2015-06-09T11:53:39Z</time>
      </trkpt>
      <trkpt lat="45.87334" lon="4.55326">
        <ele>337</ele>
        <time>2015-06-09T11:53:40Z</time>
      </trkpt>
      <trkpt lat="45.87326" lon="4.55321">
        <ele>337</ele>
        <time>2015-06-09T11:53:41Z</time>
      </trkpt>
      <trkpt lat="45.87319" lon="4.55315">
        <ele>337</ele>
        <time>2015-06-09T11:53:42Z</time>
      </trkpt>
      <trkpt lat="45.87312" lon="4.5531">
        <ele>337</ele>
        <time>2015-06-09T11:53:43Z</time>
      </trkpt>
      <trkpt lat="45.87296" lon="4.55299">
        <ele>336</ele>
        <time>2015-06-09T11:53:45Z</time>
      </trkpt>
      <trkpt lat="45.87288" lon="4.55292">
        <ele>336</ele>
        <time>2015-06-09T11:53:46Z</time>
      </trkpt>
      <trkpt lat="45.8728" lon="4.55287">
        <ele>335</ele>
        <time>2015-06-09T11:53:47Z</time>
      </trkpt>
      <trkpt lat="45.87271" lon="4.55281">
        <ele>335</ele>
        <time>2015-06-09T11:53:48Z</time>
      </trkpt>
      <trkpt lat="45.87264" lon="4.55276">
        <ele>335</ele>
        <time>2015-06-09T11:53:49Z</time>
      </trkpt>
      <trkpt lat="45.87255" lon="4.5527">
        <ele>335</ele>
        <time>2015-06-09T11:53:50Z</time>
      </trkpt>
      <trkpt lat="45.87248" lon="4.55264">
        <ele>334</ele>
        <time>2015-06-09T11:53:51Z</time>
      </trkpt>
      <trkpt lat="45.8724" lon="4.55258">
        <ele>334</ele>
        <time>2015-06-09T11:53:52Z</time>
      </trkpt>
      <trkpt lat="45.87231" lon="4.55253">
        <ele>334</ele>
        <time>2015-06-09T11:53:53Z</time>
      </trkpt>
      <trkpt lat="45.87223" lon="4.55246">
        <ele>334</ele>
        <time>2015-06-09T11:53:54Z</time>
      </trkpt>
      <trkpt lat="45.8721" lon="4.55235">
        <ele>333</ele>
        <time>2015-06-09T11:53:56Z</time>
      </trkpt>
      <trkpt lat="45.87204" lon="4.5523">
        <ele>333</ele>
        <time>2015-06-09T11:53:57Z</time>
      </trkpt>
      <trkpt lat="45.87197" lon="4.55223">
        <ele>333</ele>
        <time>2015-06-09T11:53:58Z</time>
      </trkpt>
      <trkpt lat="45.8719" lon="4.55216">
        <ele>333</ele>
        <time>2015-06-09T11:53:59Z</time>
      </trkpt>
      <trkpt lat="45.87184" lon="4.55209">
        <ele>333</ele>
        <time>2015-06-09T11:54:00Z</time>
      </trkpt>
      <trkpt lat="45.87178" lon="4.55202">
        <ele>333</ele>
        <time>2015-06-09T11:54:01Z</time>
      </trkpt>
      <trkpt lat="45.87172" lon="4.55194">
        <ele>333</ele>
        <time>2015-06-09T11:54:02Z</time>
      </trkpt>
      <trkpt lat="45.87166" lon="4.55187">
        <ele>333</ele>
        <time>2015-06-09T11:54:03Z</time>
      </trkpt>
      <trkpt lat="45.87162" lon="4.5518">
        <ele>333</ele>
        <time>2015-06-09T11:54:04Z</time>
      </trkpt>
      <trkpt lat="45.87156" lon="4.55173">
        <ele>333</ele>
        <time>2015-06-09T11:54:05Z</time>
      </trkpt>
      <trkpt lat="45.87145" lon="4.5516">
        <ele>332</ele>
        <time>2015-06-09T11:54:07Z</time>
      </trkpt>
      <trkpt lat="45.87136" lon="4.55151">
        <ele>332</ele>
        <time>2015-06-09T11:54:08Z</time>
      </trkpt>
      <trkpt lat="45.8713" lon="4.55145">
        <ele>332</ele>
        <time>2015-06-09T11:54:09Z</time>
      </trkpt>
      <trkpt lat="45.87125" lon="4.55132">
        <ele>331</ele>
        <time>2015-06-09T11:54:10Z</time>
      </trkpt>
      <trkpt lat="45.87117" lon="4.55124">
        <ele>330</ele>
        <time>2015-06-09T11:54:11Z</time>
      </trkpt>
      <trkpt lat="45.87112" lon="4.55117">
        <ele>329</ele>
        <time>2015-06-09T11:54:12Z</time>
      </trkpt>
      <trkpt lat="45.87105" lon="4.5511">
        <ele>329</ele>
        <time>2015-06-09T11:54:13Z</time>
      </trkpt>
      <trkpt lat="45.87098" lon="4.55103">
        <ele>328</ele>
        <time>2015-06-09T11:54:14Z</time>
      </trkpt>
      <trkpt lat="45.87092" lon="4.55096">
        <ele>328</ele>
        <time>2015-06-09T11:54:15Z</time>
      </trkpt>
      <trkpt lat="45.87085" lon="4.55089">
        <ele>327</ele>
        <time>2015-06-09T11:54:16Z</time>
      </trkpt>
      <trkpt lat="45.87078" lon="4.55082">
        <ele>327</ele>
        <time>2015-06-09T11:54:17Z</time>
      </trkpt>
      <trkpt lat="45.87071" lon="4.55075">
        <ele>327</ele>
        <time>2015-06-09T11:54:18Z</time>
      </trkpt>
      <trkpt lat="45.87064" lon="4.55066">
        <ele>326</ele>
        <time>2015-06-09T11:54:19Z</time>
      </trkpt>
      <trkpt lat="45.87057" lon="4.55057">
        <ele>326</ele>
        <time>2015-06-09T11:54:20Z</time>
      </trkpt>
      <trkpt lat="45.8705" lon="4.55049">
        <ele>325</ele>
        <time>2015-06-09T11:54:21Z</time>
      </trkpt>
      <trkpt lat="45.87043" lon="4.55041">
        <ele>325</ele>
        <time>2015-06-09T11:54:22Z</time>
      </trkpt>
      <trkpt lat="45.87036" lon="4.55033">
        <ele>325</ele>
        <time>2015-06-09T11:54:23Z</time>
      </trkpt>
      <trkpt lat="45.87031" lon="4.55025">
        <ele>324</ele>
        <time>2015-06-09T11:54:24Z</time>
      </trkpt>
      <trkpt lat="45.87024" lon="4.55017">
        <ele>324</ele>
        <time>2015-06-09T11:54:25Z</time>
      </trkpt>
      <trkpt lat="45.87018" lon="4.55009">
        <ele>324</ele>
        <time>2015-06-09T11:54:26Z</time>
      </trkpt>
      <trkpt lat="45.87011" lon="4.55001">
        <ele>323</ele>
        <time>2015-06-09T11:54:27Z</time>
      </trkpt>
      <trkpt lat="45.87004" lon="4.54993">
        <ele>323</ele>
        <time>2015-06-09T11:54:28Z</time>
      </trkpt>
      <trkpt lat="45.86997" lon="4.54985">
        <ele>323</ele>
        <time>2015-06-09T11:54:29Z</time>
      </trkpt>
      <trkpt lat="45.8699" lon="4.54976">
        <ele>322</ele>
        <time>2015-06-09T11:54:30Z</time>
      </trkpt>
      <trkpt lat="45.86984" lon="4.54968">
        <ele>322</ele>
        <time>2015-06-09T11:54:31Z</time>
      </trkpt>
      <trkpt lat="45.86977" lon="4.5496">
        <ele>322</ele>
        <time>2015-06-09T11:54:32Z</time>
      </trkpt>
      <trkpt lat="45.8697" lon="4.54952">
        <ele>322</ele>
        <time>2015-06-09T11:54:33Z</time>
      </trkpt>
      <trkpt lat="45.86963" lon="4.54944">
        <ele>321</ele>
        <time>2015-06-09T11:54:34Z</time>
      </trkpt>
      <trkpt lat="45.86956" lon="4.54935">
        <ele>321</ele>
        <time>2015-06-09T11:54:35Z</time>
      </trkpt>
      <trkpt lat="45.86949" lon="4.54927">
        <ele>321</ele>
        <time>2015-06-09T11:54:36Z</time>
      </trkpt>
      <trkpt lat="45.86942" lon="4.54918">
        <ele>320</ele>
        <time>2015-06-09T11:54:37Z</time>
      </trkpt>
      <trkpt lat="45.86929" lon="4.54901">
        <ele>319</ele>
        <time>2015-06-09T11:54:39Z</time>
      </trkpt>
      <trkpt lat="45.8692" lon="4.54893">
        <ele>319</ele>
        <time>2015-06-09T11:54:40Z</time>
      </trkpt>
      <trkpt lat="45.86914" lon="4.54885">
        <ele>319</ele>
        <time>2015-06-09T11:54:41Z</time>
      </trkpt>
      <trkpt lat="45.86908" lon="4.54876">
        <ele>319</ele>
        <time>2015-06-09T11:54:42Z</time>
      </trkpt>
      <trkpt lat="45.86902" lon="4.54868">
        <ele>318</ele>
        <time>2015-06-09T11:54:43Z</time>
      </trkpt>
      <trkpt lat="45.86895" lon="4.5486">
        <ele>318</ele>
        <time>2015-06-09T11:54:44Z</time>
      </trkpt>
      <trkpt lat="45.86888" lon="4.54853">
        <ele>318</ele>
        <time>2015-06-09T11:54:45Z</time>
      </trkpt>
      <trkpt lat="45.86881" lon="4.54844">
        <ele>317</ele>
        <time>2015-06-09T11:54:46Z</time>
      </trkpt>
      <trkpt lat="45.86874" lon="4.54835">
        <ele>317</ele>
        <time>2015-06-09T11:54:47Z</time>
      </trkpt>
      <trkpt lat="45.86867" lon="4.54827">
        <ele>317</ele>
        <time>2015-06-09T11:54:48Z</time>
      </trkpt>
      <trkpt lat="45.86852" lon="4.5481">
        <ele>316</ele>
        <time>2015-06-09T11:54:50Z</time>
      </trkpt>
      <trkpt lat="45.86845" lon="4.54802">
        <ele>316</ele>
        <time>2015-06-09T11:54:51Z</time>
      </trkpt>
      <trkpt lat="45.86839" lon="4.54794">
        <ele>316</ele>
        <time>2015-06-09T11:54:52Z</time>
      </trkpt>
      <trkpt lat="45.86832" lon="4.54786">
        <ele>316</ele>
        <time>2015-06-09T11:54:53Z</time>
      </trkpt>
      <trkpt lat="45.86824" lon="4.54777">
        <ele>316</ele>
        <time>2015-06-09T11:54:54Z</time>
      </trkpt>
      <trkpt lat="45.86818" lon="4.54769">
        <ele>316</ele>
        <time>2015-06-09T11:54:55Z</time>
      </trkpt>
      <trkpt lat="45.86811" lon="4.54761">
        <ele>316</ele>
        <time>2015-06-09T11:54:56Z</time>
      </trkpt>
      <trkpt lat="45.86805" lon="4.54754">
        <ele>316</ele>
        <time>2015-06-09T11:54:57Z</time>
      </trkpt>
      <trkpt lat="45.86799" lon="4.54747">
        <ele>316</ele>
        <time>2015-06-09T11:54:58Z</time>
      </trkpt>
      <trkpt lat="45.86793" lon="4.54739">
        <ele>316</ele>
        <time>2015-06-09T11:54:59Z</time>
      </trkpt>
      <trkpt lat="45.86786" lon="4.54732">
        <ele>315</ele>
        <time>2015-06-09T11:55:00Z</time>
      </trkpt>
      <trkpt lat="45.86781" lon="4.54724">
        <ele>315</ele>
        <time>2015-06-09T11:55:01Z</time>
      </trkpt>
      <trkpt lat="45.86776" lon="4.54717">
        <ele>315</ele>
        <time>2015-06-09T11:55:02Z</time>
      </trkpt>
      <trkpt lat="45.8677" lon="4.5471">
        <ele>315</ele>
        <time>2015-06-09T11:55:03Z</time>
      </trkpt>
      <trkpt lat="45.86764" lon="4.54704">
        <ele>315</ele>
        <time>2015-06-09T11:55:04Z</time>
      </trkpt>
      <trkpt lat="45.86759" lon="4.54697">
        <ele>315</ele>
        <time>2015-06-09T11:55:05Z</time>
      </trkpt>
      <trkpt lat="45.86753" lon="4.5469">
        <ele>314</ele>
        <time>2015-06-09T11:55:06Z</time>
      </trkpt>
      <trkpt lat="45.86747" lon="4.54684">
        <ele>314</ele>
        <time>2015-06-09T11:55:07Z</time>
      </trkpt>
      <trkpt lat="45.86742" lon="4.54678">
        <ele>314</ele>
        <time>2015-06-09T11:55:08Z</time>
      </trkpt>
      <trkpt lat="45.86737" lon="4.54672">
        <ele>314</ele>
        <time>2015-06-09T11:55:09Z</time>
      </trkpt>
      <trkpt lat="45.86732" lon="4.54665">
        <ele>314</ele>
        <time>2015-06-09T11:55:10Z</time>
      </trkpt>
      <trkpt lat="45.86727" lon="4.54659">
        <ele>314</ele>
        <time>2015-06-09T11:55:11Z</time>
      </trkpt>
      <trkpt lat="45.86722" lon="4.54652">
        <ele>313</ele>
        <time>2015-06-09T11:55:12Z</time>
      </trkpt>
      <trkpt lat="45.86718" lon="4.54648">
        <ele>313</ele>
        <time>2015-06-09T11:55:13Z</time>
      </trkpt>
      <trkpt lat="45.86714" lon="4.54643">
        <ele>313</ele>
        <time>2015-06-09T11:55:14Z</time>
      </trkpt>
      <trkpt lat="45.86709" lon="4.54638">
        <ele>313</ele>
        <time>2015-06-09T11:55:16Z</time>
      </trkpt>
      <trkpt lat="45.86707" lon="4.54632">
        <ele>313</ele>
        <time>2015-06-09T11:55:27Z</time>
      </trkpt>
      <trkpt lat="45.86702" lon="4.54626">
        <ele>313</ele>
        <time>2015-06-09T11:55:29Z</time>
      </trkpt>
      <trkpt lat="45.86694" lon="4.54619">
        <ele>312</ele>
        <time>2015-06-09T11:55:31Z</time>
      </trkpt>
      <trkpt lat="45.86689" lon="4.54614">
        <ele>312</ele>
        <time>2015-06-09T11:55:32Z</time>
      </trkpt>
      <trkpt lat="45.86685" lon="4.54609">
        <ele>312</ele>
        <time>2015-06-09T11:55:33Z</time>
      </trkpt>
      <trkpt lat="45.8668" lon="4.54604">
        <ele>312</ele>
        <time>2015-06-09T11:55:34Z</time>
      </trkpt>
      <trkpt lat="45.86676" lon="4.54599">
        <ele>312</ele>
        <time>2015-06-09T11:55:35Z</time>
      </trkpt>
      <trkpt lat="45.8667" lon="4.54594">
        <ele>312</ele>
        <time>2015-06-09T11:55:36Z</time>
      </trkpt>
      <trkpt lat="45.86664" lon="4.54588">
        <ele>311</ele>
        <time>2015-06-09T11:55:37Z</time>
      </trkpt>
      <trkpt lat="45.86659" lon="4.54583">
        <ele>311</ele>
        <time>2015-06-09T11:55:38Z</time>
      </trkpt>
      <trkpt lat="45.86654" lon="4.54579">
        <ele>311</ele>
        <time>2015-06-09T11:55:39Z</time>
      </trkpt>
      <trkpt lat="45.86649" lon="4.54574">
        <ele>311</ele>
        <time>2015-06-09T11:55:40Z</time>
      </trkpt>
      <trkpt lat="45.86642" lon="4.54569">
        <ele>310</ele>
        <time>2015-06-09T11:55:41Z</time>
      </trkpt>
      <trkpt lat="45.86637" lon="4.54564">
        <ele>310</ele>
        <time>2015-06-09T11:55:42Z</time>
      </trkpt>
      <trkpt lat="45.8663" lon="4.54559">
        <ele>310</ele>
        <time>2015-06-09T11:55:43Z</time>
      </trkpt>
      <trkpt lat="45.86624" lon="4.54553">
        <ele>309</ele>
        <time>2015-06-09T11:55:44Z</time>
      </trkpt>
      <trkpt lat="45.86618" lon="4.54547">
        <ele>309</ele>
        <time>2015-06-09T11:55:45Z</time>
      </trkpt>
      <trkpt lat="45.86611" lon="4.54541">
        <ele>309</ele>
        <time>2015-06-09T11:55:46Z</time>
      </trkpt>
      <trkpt lat="45.86603" lon="4.54534">
        <ele>308</ele>
        <time>2015-06-09T11:55:47Z</time>
      </trkpt>
      <trkpt lat="45.86596" lon="4.54528">
        <ele>308</ele>
        <time>2015-06-09T11:55:48Z</time>
      </trkpt>
      <trkpt lat="45.86588" lon="4.54521">
        <ele>308</ele>
        <time>2015-06-09T11:55:49Z</time>
      </trkpt>
      <trkpt lat="45.8658" lon="4.54515">
        <ele>307</ele>
        <time>2015-06-09T11:55:50Z</time>
      </trkpt>
      <trkpt lat="45.86571" lon="4.5451">
        <ele>306</ele>
        <time>2015-06-09T11:55:51Z</time>
      </trkpt>
      <trkpt lat="45.86562" lon="4.54504">
        <ele>306</ele>
        <time>2015-06-09T11:55:52Z</time>
      </trkpt>
      <trkpt lat="45.86552" lon="4.54499">
        <ele>305</ele>
        <time>2015-06-09T11:55:53Z</time>
      </trkpt>
      <trkpt lat="45.86542" lon="4.54493">
        <ele>304</ele>
        <time>2015-06-09T11:55:54Z</time>
      </trkpt>
      <trkpt lat="45.86532" lon="4.54488">
        <ele>303</ele>
        <time>2015-06-09T11:55:55Z</time>
      </trkpt>
      <trkpt lat="45.86522" lon="4.54484">
        <ele>302</ele>
        <time>2015-06-09T11:55:56Z</time>
      </trkpt>
      <trkpt lat="45.86512" lon="4.5448">
        <ele>301</ele>
        <time>2015-06-09T11:55:57Z</time>
      </trkpt>
      <trkpt lat="45.86502" lon="4.54477">
        <ele>299</ele>
        <time>2015-06-09T11:55:58Z</time>
      </trkpt>
      <trkpt lat="45.86491" lon="4.54474">
        <ele>298</ele>
        <time>2015-06-09T11:55:59Z</time>
      </trkpt>
      <trkpt lat="45.8648" lon="4.54472">
        <ele>297</ele>
        <time>2015-06-09T11:56:00Z</time>
      </trkpt>
      <trkpt lat="45.86469" lon="4.54469">
        <ele>296</ele>
        <time>2015-06-09T11:56:01Z</time>
      </trkpt>
      <trkpt lat="45.86457" lon="4.54467">
        <ele>295</ele>
        <time>2015-06-09T11:56:02Z</time>
      </trkpt>
      <trkpt lat="45.86445" lon="4.54465">
        <ele>294</ele>
        <time>2015-06-09T11:56:03Z</time>
      </trkpt>
      <trkpt lat="45.86433" lon="4.54464">
        <ele>294</ele>
        <time>2015-06-09T11:56:04Z</time>
      </trkpt>
      <trkpt lat="45.86423" lon="4.54463">
        <ele>294</ele>
        <time>2015-06-09T11:56:05Z</time>
      </trkpt>
      <trkpt lat="45.86412" lon="4.5446">
        <ele>294</ele>
        <time>2015-06-09T11:56:06Z</time>
      </trkpt>
      <trkpt lat="45.86401" lon="4.54458">
        <ele>294</ele>
        <time>2015-06-09T11:56:07Z</time>
      </trkpt>
      <trkpt lat="45.8639" lon="4.54456">
        <ele>293</ele>
        <time>2015-06-09T11:56:08Z</time>
      </trkpt>
      <trkpt lat="45.86379" lon="4.54453">
        <ele>293</ele>
        <time>2015-06-09T11:56:09Z</time>
      </trkpt>
      <trkpt lat="45.86369" lon="4.54451">
        <ele>294</ele>
        <time>2015-06-09T11:56:10Z</time>
      </trkpt>
      <trkpt lat="45.8636" lon="4.54449">
        <ele>295</ele>
        <time>2015-06-09T11:56:11Z</time>
      </trkpt>
      <trkpt lat="45.86351" lon="4.54448">
        <ele>296</ele>
        <time>2015-06-09T11:56:12Z</time>
      </trkpt>
      <trkpt lat="45.86344" lon="4.54445">
        <ele>296</ele>
        <time>2015-06-09T11:56:13Z</time>
      </trkpt>
      <trkpt lat="45.86335" lon="4.54443">
        <ele>297</ele>
        <time>2015-06-09T11:56:15Z</time>
      </trkpt>
      <trkpt lat="45.8633" lon="4.54442">
        <ele>297</ele>
        <time>2015-06-09T11:56:16Z</time>
      </trkpt>
      <trkpt lat="45.86322" lon="4.54438">
        <ele>297</ele>
        <time>2015-06-09T11:56:18Z</time>
      </trkpt>
      <trkpt lat="45.86315" lon="4.54436">
        <ele>298</ele>
        <time>2015-06-09T11:56:20Z</time>
      </trkpt>
      <trkpt lat="45.86309" lon="4.54435">
        <ele>298</ele>
        <time>2015-06-09T11:56:22Z</time>
      </trkpt>
      <trkpt lat="45.86303" lon="4.54431">
        <ele>299</ele>
        <time>2015-06-09T11:56:25Z</time>
      </trkpt>
      <trkpt lat="45.86298" lon="4.54428">
        <ele>299</ele>
        <time>2015-06-09T11:56:27Z</time>
      </trkpt>
      <trkpt lat="45.86292" lon="4.54425">
        <ele>300</ele>
        <time>2015-06-09T11:56:29Z</time>
      </trkpt>
      <trkpt lat="45.86285" lon="4.54421">
        <ele>301</ele>
        <time>2015-06-09T11:56:31Z</time>
      </trkpt>
      <trkpt lat="45.86279" lon="4.54418">
        <ele>302</ele>
        <time>2015-06-09T11:56:33Z</time>
      </trkpt>
      <trkpt lat="45.86273" lon="4.54415">
        <ele>303</ele>
        <time>2015-06-09T11:56:35Z</time>
      </trkpt>
      <trkpt lat="45.86266" lon="4.54411">
        <ele>304</ele>
        <time>2015-06-09T11:56:37Z</time>
      </trkpt>
      <trkpt lat="45.8626" lon="4.54408">
        <ele>304</ele>
        <time>2015-06-09T11:56:39Z</time>
      </trkpt>
      <trkpt lat="45.86255" lon="4.54404">
        <ele>305</ele>
        <time>2015-06-09T11:56:41Z</time>
      </trkpt>
      <trkpt lat="45.86252" lon="4.54398">
        <ele>306</ele>
        <time>2015-06-09T11:56:44Z</time>
      </trkpt>
      <trkpt lat="45.86248" lon="4.54395">
        <ele>306</ele>
        <time>2015-06-09T11:56:46Z</time>
      </trkpt>
      <trkpt lat="45.86242" lon="4.54392">
        <ele>307</ele>
        <time>2015-06-09T11:56:48Z</time>
      </trkpt>
      <trkpt lat="45.86235" lon="4.54388">
        <ele>308</ele>
        <time>2015-06-09T11:56:50Z</time>
      </trkpt>
      <trkpt lat="45.86229" lon="4.54383">
        <ele>308</ele>
        <time>2015-06-09T11:56:52Z</time>
      </trkpt>
      <trkpt lat="45.86224" lon="4.54378">
        <ele>309</ele>
        <time>2015-06-09T11:56:54Z</time>
      </trkpt>
      <trkpt lat="45.86218" lon="4.54374">
        <ele>309</ele>
        <time>2015-06-09T11:56:56Z</time>
      </trkpt>
      <trkpt lat="45.86212" lon="4.5437">
        <ele>310</ele>
        <time>2015-06-09T11:56:58Z</time>
      </trkpt>
      <trkpt lat="45.86206" lon="4.54365">
        <ele>310</ele>
        <time>2015-06-09T11:57:00Z</time>
      </trkpt>
      <trkpt lat="45.862" lon="4.54361">
        <ele>311</ele>
        <time>2015-06-09T11:57:02Z</time>
      </trkpt>
      <trkpt lat="45.86194" lon="4.54356">
        <ele>312</ele>
        <time>2015-06-09T11:57:04Z</time>
      </trkpt>
      <trkpt lat="45.86188" lon="4.54351">
        <ele>312</ele>
        <time>2015-06-09T11:57:06Z</time>
      </trkpt>
      <trkpt lat="45.86183" lon="4.54347">
        <ele>313</ele>
        <time>2015-06-09T11:57:08Z</time>
      </trkpt>
      <trkpt lat="45.86177" lon="4.54342">
        <ele>313</ele>
        <time>2015-06-09T11:57:10Z</time>
      </trkpt>
      <trkpt lat="45.86172" lon="4.54337">
        <ele>314</ele>
        <time>2015-06-09T11:57:12Z</time>
      </trkpt>
      <trkpt lat="45.86167" lon="4.54332">
        <ele>314</ele>
        <time>2015-06-09T11:57:14Z</time>
      </trkpt>
      <trkpt lat="45.86162" lon="4.54327">
        <ele>314</ele>
        <time>2015-06-09T11:57:16Z</time>
      </trkpt>
      <trkpt lat="45.86157" lon="4.54322">
        <ele>314</ele>
        <time>2015-06-09T11:57:18Z</time>
      </trkpt>
      <trkpt lat="45.86152" lon="4.54317">
        <ele>315</ele>
        <time>2015-06-09T11:57:20Z</time>
      </trkpt>
      <trkpt lat="45.86147" lon="4.54312">
        <ele>315</ele>
        <time>2015-06-09T11:57:22Z</time>
      </trkpt>
      <trkpt lat="45.86142" lon="4.54306">
        <ele>315</ele>
        <time>2015-06-09T11:57:24Z</time>
      </trkpt>
      <trkpt lat="45.86138" lon="4.54301">
        <ele>316</ele>
        <time>2015-06-09T11:57:26Z</time>
      </trkpt>
      <trkpt lat="45.86133" lon="4.54295">
        <ele>316</ele>
        <time>2015-06-09T11:57:28Z</time>
      </trkpt>
      <trkpt lat="45.86128" lon="4.54289">
        <ele>317</ele>
        <time>2015-06-09T11:57:30Z</time>
      </trkpt>
      <trkpt lat="45.86123" lon="4.54283">
        <ele>318</ele>
        <time>2015-06-09T11:57:32Z</time>
      </trkpt>
      <trkpt lat="45.86118" lon="4.54277">
        <ele>318</ele>
        <time>2015-06-09T11:57:34Z</time>
      </trkpt>
      <trkpt lat="45.86112" lon="4.5427">
        <ele>319</ele>
        <time>2015-06-09T11:57:36Z</time>
      </trkpt>
      <trkpt lat="45.86107" lon="4.54264">
        <ele>320</ele>
        <time>2015-06-09T11:57:38Z</time>
      </trkpt>
      <trkpt lat="45.86103" lon="4.54256">
        <ele>320</ele>
        <time>2015-06-09T11:57:40Z</time>
      </trkpt>
      <trkpt lat="45.861" lon="4.54248">
        <ele>321</ele>
        <time>2015-06-09T11:57:42Z</time>
      </trkpt>
      <trkpt lat="45.861" lon="4.54239">
        <ele>321</ele>
        <time>2015-06-09T11:57:44Z</time>
      </trkpt>
      <trkpt lat="45.86102" lon="4.54231">
        <ele>322</ele>
        <time>2015-06-09T11:57:46Z</time>
      </trkpt>
      <trkpt lat="45.86104" lon="4.54224">
        <ele>322</ele>
        <time>2015-06-09T11:57:48Z</time>
      </trkpt>
      <trkpt lat="45.86106" lon="4.54217">
        <ele>322</ele>
        <time>2015-06-09T11:57:50Z</time>
      </trkpt>
      <trkpt lat="45.86107" lon="4.54211">
        <ele>323</ele>
        <time>2015-06-09T11:57:52Z</time>
      </trkpt>
      <trkpt lat="45.86108" lon="4.54202">
        <ele>323</ele>
        <time>2015-06-09T11:57:55Z</time>
      </trkpt>
      <trkpt lat="45.86105" lon="4.54194">
        <ele>324</ele>
        <time>2015-06-09T11:57:58Z</time>
      </trkpt>
      <trkpt lat="45.86104" lon="4.54185">
        <ele>324</ele>
        <time>2015-06-09T11:58:01Z</time>
      </trkpt>
      <trkpt lat="45.86102" lon="4.54176">
        <ele>325</ele>
        <time>2015-06-09T11:58:04Z</time>
      </trkpt>
      <trkpt lat="45.86098" lon="4.54168">
        <ele>325</ele>
        <time>2015-06-09T11:58:07Z</time>
      </trkpt>
      <trkpt lat="45.86095" lon="4.54162">
        <ele>325</ele>
        <time>2015-06-09T11:58:09Z</time>
      </trkpt>
      <trkpt lat="45.86094" lon="4.54156">
        <ele>326</ele>
        <time>2015-06-09T11:58:11Z</time>
      </trkpt>
      <trkpt lat="45.86093" lon="4.54149">
        <ele>326</ele>
        <time>2015-06-09T11:58:13Z</time>
      </trkpt>
      <trkpt lat="45.86091" lon="4.54143">
        <ele>326</ele>
        <time>2015-06-09T11:58:15Z</time>
      </trkpt>
      <trkpt lat="45.86088" lon="4.54136">
        <ele>327</ele>
        <time>2015-06-09T11:58:17Z</time>
      </trkpt>
      <trkpt lat="45.86086" lon="4.54128">
        <ele>327</ele>
        <time>2015-06-09T11:58:19Z</time>
      </trkpt>
      <trkpt lat="45.86084" lon="4.5412">
        <ele>328</ele>
        <time>2015-06-09T11:58:21Z</time>
      </trkpt>
      <trkpt lat="45.86083" lon="4.54112">
        <ele>328</ele>
        <time>2015-06-09T11:58:23Z</time>
      </trkpt>
      <trkpt lat="45.86082" lon="4.54104">
        <ele>328</ele>
        <time>2015-06-09T11:58:25Z</time>
      </trkpt>
      <trkpt lat="45.86079" lon="4.54097">
        <ele>329</ele>
        <time>2015-06-09T11:58:27Z</time>
      </trkpt>
      <trkpt lat="45.86076" lon="4.54091">
        <ele>329</ele>
        <time>2015-06-09T11:58:29Z</time>
      </trkpt>
      <trkpt lat="45.86073" lon="4.54084">
        <ele>330</ele>
        <time>2015-06-09T11:58:31Z</time>
      </trkpt>
      <trkpt lat="45.86071" lon="4.54078">
        <ele>330</ele>
        <time>2015-06-09T11:58:33Z</time>
      </trkpt>
      <trkpt lat="45.8607" lon="4.5407">
        <ele>330</ele>
        <time>2015-06-09T11:58:35Z</time>
      </trkpt>
      <trkpt lat="45.86069" lon="4.54062">
        <ele>331</ele>
        <time>2015-06-09T11:58:37Z</time>
      </trkpt>
      <trkpt lat="45.86067" lon="4.54055">
        <ele>331</ele>
        <time>2015-06-09T11:58:39Z</time>
      </trkpt>
      <trkpt lat="45.86065" lon="4.54048">
        <ele>331</ele>
        <time>2015-06-09T11:58:41Z</time>
      </trkpt>
      <trkpt lat="45.86063" lon="4.54041">
        <ele>331</ele>
        <time>2015-06-09T11:58:43Z</time>
      </trkpt>
      <trkpt lat="45.86062" lon="4.5403">
        <ele>332</ele>
        <time>2015-06-09T11:58:45Z</time>
      </trkpt>
      <trkpt lat="45.8606" lon="4.54018">
        <ele>332</ele>
        <time>2015-06-09T11:58:47Z</time>
      </trkpt>
      <trkpt lat="45.86057" lon="4.54009">
        <ele>333</ele>
        <time>2015-06-09T11:58:49Z</time>
      </trkpt>
      <trkpt lat="45.86054" lon="4.53999">
        <ele>333</ele>
        <time>2015-06-09T11:58:51Z</time>
      </trkpt>
      <trkpt lat="45.86052" lon="4.53989">
        <ele>334</ele>
        <time>2015-06-09T11:58:53Z</time>
      </trkpt>
      <trkpt lat="45.86051" lon="4.5398">
        <ele>334</ele>
        <time>2015-06-09T11:58:55Z</time>
      </trkpt>
      <trkpt lat="45.86049" lon="4.5397">
        <ele>334</ele>
        <time>2015-06-09T11:58:57Z</time>
      </trkpt>
      <trkpt lat="45.86047" lon="4.53961">
        <ele>335</ele>
        <time>2015-06-09T11:58:59Z</time>
      </trkpt>
      <trkpt lat="45.86045" lon="4.53953">
        <ele>335</ele>
        <time>2015-06-09T11:59:01Z</time>
      </trkpt>
      <trkpt lat="45.86043" lon="4.53944">
        <ele>336</ele>
        <time>2015-06-09T11:59:03Z</time>
      </trkpt>
      <trkpt lat="45.8604" lon="4.53935">
        <ele>336</ele>
        <time>2015-06-09T11:59:05Z</time>
      </trkpt>
      <trkpt lat="45.86039" lon="4.53926">
        <ele>336</ele>
        <time>2015-06-09T11:59:07Z</time>
      </trkpt>
      <trkpt lat="45.86036" lon="4.53918">
        <ele>336</ele>
        <time>2015-06-09T11:59:09Z</time>
      </trkpt>
      <trkpt lat="45.86032" lon="4.53909">
        <ele>335</ele>
        <time>2015-06-09T11:59:11Z</time>
      </trkpt>
      <trkpt lat="45.86028" lon="4.53899">
        <ele>335</ele>
        <time>2015-06-09T11:59:13Z</time>
      </trkpt>
      <trkpt lat="45.86025" lon="4.53888">
        <ele>335</ele>
        <time>2015-06-09T11:59:15Z</time>
      </trkpt>
      <trkpt lat="45.86022" lon="4.53877">
        <ele>335</ele>
        <time>2015-06-09T11:59:17Z</time>
      </trkpt>
      <trkpt lat="45.8602" lon="4.53867">
        <ele>335</ele>
        <time>2015-06-09T11:59:19Z</time>
      </trkpt>
      <trkpt lat="45.86018" lon="4.53855">
        <ele>334</ele>
        <time>2015-06-09T11:59:21Z</time>
      </trkpt>
      <trkpt lat="45.86018" lon="4.53848">
        <ele>335</ele>
        <time>2015-06-09T11:59:22Z</time>
      </trkpt>
      <trkpt lat="45.86017" lon="4.53837">
        <ele>335</ele>
        <time>2015-06-09T11:59:23Z</time>
      </trkpt>
      <trkpt lat="45.86014" lon="4.53824">
        <ele>334</ele>
        <time>2015-06-09T11:59:25Z</time>
      </trkpt>
      <trkpt lat="45.86012" lon="4.53818">
        <ele>334</ele>
        <time>2015-06-09T11:59:26Z</time>
      </trkpt>
      <trkpt lat="45.86011" lon="4.53811">
        <ele>334</ele>
        <time>2015-06-09T11:59:27Z</time>
      </trkpt>
      <trkpt lat="45.86009" lon="4.53799">
        <ele>334</ele>
        <time>2015-06-09T11:59:29Z</time>
      </trkpt>
      <trkpt lat="45.86005" lon="4.53787">
        <ele>334</ele>
        <time>2015-06-09T11:59:31Z</time>
      </trkpt>
      <trkpt lat="45.86002" lon="4.53775">
        <ele>334</ele>
        <time>2015-06-09T11:59:33Z</time>
      </trkpt>
      <trkpt lat="45.86" lon="4.53762">
        <ele>334</ele>
        <time>2015-06-09T11:59:35Z</time>
      </trkpt>
      <trkpt lat="45.85999" lon="4.53756">
        <ele>334</ele>
        <time>2015-06-09T11:59:36Z</time>
      </trkpt>
      <trkpt lat="45.85998" lon="4.53749">
        <ele>334</ele>
        <time>2015-06-09T11:59:37Z</time>
      </trkpt>
      <trkpt lat="45.85997" lon="4.53742">
        <ele>334</ele>
        <time>2015-06-09T11:59:38Z</time>
      </trkpt>
      <trkpt lat="45.85993" lon="4.53731">
        <ele>334</ele>
        <time>2015-06-09T11:59:40Z</time>
      </trkpt>
      <trkpt lat="45.8599" lon="4.53724">
        <ele>334</ele>
        <time>2015-06-09T11:59:41Z</time>
      </trkpt>
      <trkpt lat="45.85988" lon="4.53716">
        <ele>334</ele>
        <time>2015-06-09T11:59:42Z</time>
      </trkpt>
      <trkpt lat="45.85986" lon="4.5371">
        <ele>334</ele>
        <time>2015-06-09T11:59:43Z</time>
      </trkpt>
      <trkpt lat="45.85986" lon="4.53702">
        <ele>335</ele>
        <time>2015-06-09T11:59:44Z</time>
      </trkpt>
      <trkpt lat="45.85984" lon="4.53695">
        <ele>335</ele>
        <time>2015-06-09T11:59:45Z</time>
      </trkpt>
      <trkpt lat="45.85983" lon="4.53684">
        <ele>335</ele>
        <time>2015-06-09T11:59:47Z</time>
      </trkpt>
      <trkpt lat="45.85982" lon="4.53677">
        <ele>335</ele>
        <time>2015-06-09T11:59:49Z</time>
      </trkpt>
      <trkpt lat="45.85985" lon="4.53669">
        <ele>335</ele>
        <time>2015-06-09T11:59:51Z</time>
      </trkpt>
      <trkpt lat="45.85989" lon="4.53664">
        <ele>336</ele>
        <time>2015-06-09T11:59:54Z</time>
      </trkpt>
      <trkpt lat="45.85993" lon="4.53659">
        <ele>336</ele>
        <time>2015-06-09T11:59:57Z</time>
      </trkpt>
      <trkpt lat="45.85999" lon="4.53654">
        <ele>336</ele>
        <time>2015-06-09T12:00:00Z</time>
      </trkpt>
      <trkpt lat="45.86004" lon="4.53648">
        <ele>337</ele>
        <time>2015-06-09T12:00:02Z</time>
      </trkpt>
      <trkpt lat="45.86008" lon="4.53643">
        <ele>337</ele>
        <time>2015-06-09T12:00:04Z</time>
      </trkpt>
      <trkpt lat="45.86013" lon="4.53638">
        <ele>338</ele>
        <time>2015-06-09T12:00:06Z</time>
      </trkpt>
      <trkpt lat="45.86018" lon="4.53634">
        <ele>338</ele>
        <time>2015-06-09T12:00:08Z</time>
      </trkpt>
      <trkpt lat="45.86022" lon="4.53628">
        <ele>339</ele>
        <time>2015-06-09T12:00:10Z</time>
      </trkpt>
      <trkpt lat="45.86027" lon="4.53623">
        <ele>339</ele>
        <time>2015-06-09T12:00:12Z</time>
      </trkpt>
      <trkpt lat="45.86032" lon="4.53619">
        <ele>340</ele>
        <time>2015-06-09T12:00:14Z</time>
      </trkpt>
      <trkpt lat="45.86036" lon="4.53614">
        <ele>340</ele>
        <time>2015-06-09T12:00:16Z</time>
      </trkpt>
      <trkpt lat="45.86041" lon="4.53609">
        <ele>340</ele>
        <time>2015-06-09T12:00:18Z</time>
      </trkpt>
      <trkpt lat="45.86045" lon="4.53604">
        <ele>341</ele>
        <time>2015-06-09T12:00:20Z</time>
      </trkpt>
      <trkpt lat="45.86049" lon="4.536">
        <ele>341</ele>
        <time>2015-06-09T12:00:22Z</time>
      </trkpt>
      <trkpt lat="45.86054" lon="4.53595">
        <ele>342</ele>
        <time>2015-06-09T12:00:24Z</time>
      </trkpt>
      <trkpt lat="45.86058" lon="4.53591">
        <ele>342</ele>
        <time>2015-06-09T12:00:26Z</time>
      </trkpt>
      <trkpt lat="45.86062" lon="4.53586">
        <ele>343</ele>
        <time>2015-06-09T12:00:28Z</time>
      </trkpt>
      <trkpt lat="45.86065" lon="4.53579">
        <ele>343</ele>
        <time>2015-06-09T12:00:30Z</time>
      </trkpt>
      <trkpt lat="45.86065" lon="4.53569">
        <ele>343</ele>
        <time>2015-06-09T12:00:32Z</time>
      </trkpt>
      <trkpt lat="45.86063" lon="4.53559">
        <ele>343</ele>
        <time>2015-06-09T12:00:34Z</time>
      </trkpt>
      <trkpt lat="45.8606" lon="4.53549">
        <ele>343</ele>
        <time>2015-06-09T12:00:36Z</time>
      </trkpt>
      <trkpt lat="45.86059" lon="4.53539">
        <ele>344</ele>
        <time>2015-06-09T12:00:38Z</time>
      </trkpt>
      <trkpt lat="45.86057" lon="4.53527">
        <ele>344</ele>
        <time>2015-06-09T12:00:40Z</time>
      </trkpt>
      <trkpt lat="45.86055" lon="4.53516">
        <ele>344</ele>
        <time>2015-06-09T12:00:42Z</time>
      </trkpt>
      <trkpt lat="45.86054" lon="4.53505">
        <ele>344</ele>
        <time>2015-06-09T12:00:44Z</time>
      </trkpt>
      <trkpt lat="45.86052" lon="4.53493">
        <ele>344</ele>
        <time>2015-06-09T12:00:46Z</time>
      </trkpt>
      <trkpt lat="45.8605" lon="4.5348">
        <ele>344</ele>
        <time>2015-06-09T12:00:48Z</time>
      </trkpt>
      <trkpt lat="45.8605" lon="4.53474">
        <ele>344</ele>
        <time>2015-06-09T12:00:49Z</time>
      </trkpt>
      <trkpt lat="45.86049" lon="4.53467">
        <ele>344</ele>
        <time>2015-06-09T12:00:50Z</time>
      </trkpt>
      <trkpt lat="45.86048" lon="4.53461">
        <ele>344</ele>
        <time>2015-06-09T12:00:51Z</time>
      </trkpt>
      <trkpt lat="45.86047" lon="4.53454">
        <ele>344</ele>
        <time>2015-06-09T12:00:52Z</time>
      </trkpt>
      <trkpt lat="45.86047" lon="4.53446">
        <ele>344</ele>
        <time>2015-06-09T12:00:53Z</time>
      </trkpt>
      <trkpt lat="45.86046" lon="4.53439">
        <ele>344</ele>
        <time>2015-06-09T12:00:54Z</time>
      </trkpt>
      <trkpt lat="45.86045" lon="4.53432">
        <ele>344</ele>
        <time>2015-06-09T12:00:55Z</time>
      </trkpt>
      <trkpt lat="45.86044" lon="4.53424">
        <ele>344</ele>
        <time>2015-06-09T12:00:56Z</time>
      </trkpt>
      <trkpt lat="45.86043" lon="4.53417">
        <ele>344</ele>
        <time>2015-06-09T12:00:57Z</time>
      </trkpt>
      <trkpt lat="45.86042" lon="4.53409">
        <ele>344</ele>
        <time>2015-06-09T12:00:58Z</time>
      </trkpt>
      <trkpt lat="45.86041" lon="4.53402">
        <ele>344</ele>
        <time>2015-06-09T12:00:59Z</time>
      </trkpt>
      <trkpt lat="45.8604" lon="4.53394">
        <ele>344</ele>
        <time>2015-06-09T12:01:00Z</time>
      </trkpt>
      <trkpt lat="45.86039" lon="4.53386">
        <ele>344</ele>
        <time>2015-06-09T12:01:01Z</time>
      </trkpt>
      <trkpt lat="45.86038" lon="4.53378">
        <ele>344</ele>
        <time>2015-06-09T12:01:02Z</time>
      </trkpt>
      <trkpt lat="45.86037" lon="4.53369">
        <ele>344</ele>
        <time>2015-06-09T12:01:03Z</time>
      </trkpt>
      <trkpt lat="45.86036" lon="4.53353">
        <ele>343</ele>
        <time>2015-06-09T12:01:05Z</time>
      </trkpt>
      <trkpt lat="45.86034" lon="4.53345">
        <ele>343</ele>
        <time>2015-06-09T12:01:06Z</time>
      </trkpt>
      <trkpt lat="45.86034" lon="4.53337">
        <ele>343</ele>
        <time>2015-06-09T12:01:07Z</time>
      </trkpt>
      <trkpt lat="45.86033" lon="4.53328">
        <ele>343</ele>
        <time>2015-06-09T12:01:08Z</time>
      </trkpt>
      <trkpt lat="45.86031" lon="4.5332">
        <ele>343</ele>
        <time>2015-06-09T12:01:09Z</time>
      </trkpt>
      <trkpt lat="45.86031" lon="4.53311">
        <ele>343</ele>
        <time>2015-06-09T12:01:10Z</time>
      </trkpt>
      <trkpt lat="45.8603" lon="4.53302">
        <ele>343</ele>
        <time>2015-06-09T12:01:11Z</time>
      </trkpt>
      <trkpt lat="45.86029" lon="4.53294">
        <ele>343</ele>
        <time>2015-06-09T12:01:12Z</time>
      </trkpt>
      <trkpt lat="45.86029" lon="4.53285">
        <ele>343</ele>
        <time>2015-06-09T12:01:13Z</time>
      </trkpt>
      <trkpt lat="45.86029" lon="4.53276">
        <ele>344</ele>
        <time>2015-06-09T12:01:14Z</time>
      </trkpt>
      <trkpt lat="45.86029" lon="4.53259">
        <ele>344</ele>
        <time>2015-06-09T12:01:16Z</time>
      </trkpt>
      <trkpt lat="45.86029" lon="4.53251">
        <ele>344</ele>
        <time>2015-06-09T12:01:17Z</time>
      </trkpt>
      <trkpt lat="45.86029" lon="4.53242">
        <ele>344</ele>
        <time>2015-06-09T12:01:18Z</time>
      </trkpt>
      <trkpt lat="45.86031" lon="4.53234">
        <ele>345</ele>
        <time>2015-06-09T12:01:19Z</time>
      </trkpt>
      <trkpt lat="45.86031" lon="4.53226">
        <ele>345</ele>
        <time>2015-06-09T12:01:20Z</time>
      </trkpt>
      <trkpt lat="45.86031" lon="4.53218">
        <ele>345</ele>
        <time>2015-06-09T12:01:21Z</time>
      </trkpt>
      <trkpt lat="45.86033" lon="4.5321">
        <ele>345</ele>
        <time>2015-06-09T12:01:22Z</time>
      </trkpt>
      <trkpt lat="45.86034" lon="4.53201">
        <ele>346</ele>
        <time>2015-06-09T12:01:23Z</time>
      </trkpt>
      <trkpt lat="45.86034" lon="4.53194">
        <ele>346</ele>
        <time>2015-06-09T12:01:24Z</time>
      </trkpt>
      <trkpt lat="45.86035" lon="4.53187">
        <ele>346</ele>
        <time>2015-06-09T12:01:25Z</time>
      </trkpt>
      <trkpt lat="45.86036" lon="4.5318">
        <ele>347</ele>
        <time>2015-06-09T12:01:26Z</time>
      </trkpt>
      <trkpt lat="45.86036" lon="4.53172">
        <ele>347</ele>
        <time>2015-06-09T12:01:27Z</time>
      </trkpt>
      <trkpt lat="45.86036" lon="4.53165">
        <ele>347</ele>
        <time>2015-06-09T12:01:28Z</time>
      </trkpt>
      <trkpt lat="45.86036" lon="4.53159">
        <ele>347</ele>
        <time>2015-06-09T12:01:29Z</time>
      </trkpt>
      <trkpt lat="45.86035" lon="4.53146">
        <ele>348</ele>
        <time>2015-06-09T12:01:31Z</time>
      </trkpt>
      <trkpt lat="45.86032" lon="4.53133">
        <ele>348</ele>
        <time>2015-06-09T12:01:33Z</time>
      </trkpt>
      <trkpt lat="45.86031" lon="4.53127">
        <ele>348</ele>
        <time>2015-06-09T12:01:34Z</time>
      </trkpt>
      <trkpt lat="45.86028" lon="4.53115">
        <ele>348</ele>
        <time>2015-06-09T12:01:36Z</time>
      </trkpt>
      <trkpt lat="45.86026" lon="4.53104">
        <ele>348</ele>
        <time>2015-06-09T12:01:38Z</time>
      </trkpt>
      <trkpt lat="45.86023" lon="4.53093">
        <ele>348</ele>
        <time>2015-06-09T12:01:40Z</time>
      </trkpt>
      <trkpt lat="45.86021" lon="4.53087">
        <ele>348</ele>
        <time>2015-06-09T12:01:41Z</time>
      </trkpt>
      <trkpt lat="45.8602" lon="4.53081">
        <ele>348</ele>
        <time>2015-06-09T12:01:42Z</time>
      </trkpt>
      <trkpt lat="45.86018" lon="4.53069">
        <ele>349</ele>
        <time>2015-06-09T12:01:44Z</time>
      </trkpt>
      <trkpt lat="45.86015" lon="4.53058">
        <ele>349</ele>
        <time>2015-06-09T12:01:46Z</time>
      </trkpt>
      <trkpt lat="45.86013" lon="4.53047">
        <ele>349</ele>
        <time>2015-06-09T12:01:48Z</time>
      </trkpt>
      <trkpt lat="45.8601" lon="4.53036">
        <ele>349</ele>
        <time>2015-06-09T12:01:50Z</time>
      </trkpt>
      <trkpt lat="45.86008" lon="4.53025">
        <ele>349</ele>
        <time>2015-06-09T12:01:52Z</time>
      </trkpt>
      <trkpt lat="45.86006" lon="4.53014">
        <ele>349</ele>
        <time>2015-06-09T12:01:54Z</time>
      </trkpt>
      <trkpt lat="45.86005" lon="4.53003">
        <ele>350</ele>
        <time>2015-06-09T12:01:56Z</time>
      </trkpt>
      <trkpt lat="45.86003" lon="4.52992">
        <ele>350</ele>
        <time>2015-06-09T12:01:58Z</time>
      </trkpt>
      <trkpt lat="45.86001" lon="4.5298">
        <ele>350</ele>
        <time>2015-06-09T12:02:00Z</time>
      </trkpt>
      <trkpt lat="45.86" lon="4.52968">
        <ele>350</ele>
        <time>2015-06-09T12:02:02Z</time>
      </trkpt>
      <trkpt lat="45.85999" lon="4.52959">
        <ele>350</ele>
        <time>2015-06-09T12:02:03Z</time>
      </trkpt>
      <trkpt lat="45.85998" lon="4.52952">
        <ele>350</ele>
        <time>2015-06-09T12:02:04Z</time>
      </trkpt>
      <trkpt lat="45.85997" lon="4.52945">
        <ele>350</ele>
        <time>2015-06-09T12:02:05Z</time>
      </trkpt>
      <trkpt lat="45.85996" lon="4.52938">
        <ele>350</ele>
        <time>2015-06-09T12:02:06Z</time>
      </trkpt>
      <trkpt lat="45.85995" lon="4.5293">
        <ele>350</ele>
        <time>2015-06-09T12:02:07Z</time>
      </trkpt>
      <trkpt lat="45.85995" lon="4.52922">
        <ele>350</ele>
        <time>2015-06-09T12:02:08Z</time>
      </trkpt>
      <trkpt lat="45.85994" lon="4.52914">
        <ele>350</ele>
        <time>2015-06-09T12:02:09Z</time>
      </trkpt>
      <trkpt lat="45.85992" lon="4.52906">
        <ele>350</ele>
        <time>2015-06-09T12:02:10Z</time>
      </trkpt>
      <trkpt lat="45.85992" lon="4.52896">
        <ele>350</ele>
        <time>2015-06-09T12:02:11Z</time>
      </trkpt>
      <trkpt lat="45.85991" lon="4.52888">
        <ele>350</ele>
        <time>2015-06-09T12:02:12Z</time>
      </trkpt>
      <trkpt lat="45.8599" lon="4.52879">
        <ele>350</ele>
        <time>2015-06-09T12:02:13Z</time>
      </trkpt>
      <trkpt lat="45.8599" lon="4.52871">
        <ele>350</ele>
        <time>2015-06-09T12:02:14Z</time>
      </trkpt>
      <trkpt lat="45.85991" lon="4.52862">
        <ele>349</ele>
        <time>2015-06-09T12:02:15Z</time>
      </trkpt>
      <trkpt lat="45.85991" lon="4.52854">
        <ele>349</ele>
        <time>2015-06-09T12:02:16Z</time>
      </trkpt>
      <trkpt lat="45.85992" lon="4.52845">
        <ele>349</ele>
        <time>2015-06-09T12:02:17Z</time>
      </trkpt>
      <trkpt lat="45.85992" lon="4.52837">
        <ele>349</ele>
        <time>2015-06-09T12:02:18Z</time>
      </trkpt>
      <trkpt lat="45.85994" lon="4.52829">
        <ele>349</ele>
        <time>2015-06-09T12:02:19Z</time>
      </trkpt>
      <trkpt lat="45.85996" lon="4.52821">
        <ele>350</ele>
        <time>2015-06-09T12:02:20Z</time>
      </trkpt>
      <trkpt lat="45.85998" lon="4.52812">
        <ele>350</ele>
        <time>2015-06-09T12:02:21Z</time>
      </trkpt>
      <trkpt lat="45.86" lon="4.52804">
        <ele>350</ele>
        <time>2015-06-09T12:02:22Z</time>
      </trkpt>
      <trkpt lat="45.86" lon="4.52796">
        <ele>350</ele>
        <time>2015-06-09T12:02:23Z</time>
      </trkpt>
      <trkpt lat="45.86002" lon="4.5278">
        <ele>350</ele>
        <time>2015-06-09T12:02:25Z</time>
      </trkpt>
      <trkpt lat="45.86002" lon="4.52772">
        <ele>350</ele>
        <time>2015-06-09T12:02:26Z</time>
      </trkpt>
      <trkpt lat="45.86003" lon="4.52765">
        <ele>350</ele>
        <time>2015-06-09T12:02:27Z</time>
      </trkpt>
      <trkpt lat="45.86004" lon="4.52757">
        <ele>350</ele>
        <time>2015-06-09T12:02:28Z</time>
      </trkpt>
      <trkpt lat="45.86004" lon="4.52749">
        <ele>350</ele>
        <time>2015-06-09T12:02:29Z</time>
      </trkpt>
      <trkpt lat="45.86005" lon="4.52742">
        <ele>350</ele>
        <time>2015-06-09T12:02:30Z</time>
      </trkpt>
      <trkpt lat="45.86005" lon="4.52734">
        <ele>350</ele>
        <time>2015-06-09T12:02:31Z</time>
      </trkpt>
      <trkpt lat="45.86006" lon="4.52727">
        <ele>350</ele>
        <time>2015-06-09T12:02:32Z</time>
      </trkpt>
      <trkpt lat="45.86007" lon="4.5272">
        <ele>350</ele>
        <time>2015-06-09T12:02:33Z</time>
      </trkpt>
      <trkpt lat="45.86008" lon="4.52713">
        <ele>350</ele>
        <time>2015-06-09T12:02:34Z</time>
      </trkpt>
      <trkpt lat="45.86009" lon="4.52705">
        <ele>350</ele>
        <time>2015-06-09T12:02:35Z</time>
      </trkpt>
      <trkpt lat="45.86009" lon="4.52698">
        <ele>351</ele>
        <time>2015-06-09T12:02:36Z</time>
      </trkpt>
      <trkpt lat="45.8601" lon="4.52691">
        <ele>351</ele>
        <time>2015-06-09T12:02:37Z</time>
      </trkpt>
      <trkpt lat="45.8601" lon="4.52683">
        <ele>351</ele>
        <time>2015-06-09T12:02:38Z</time>
      </trkpt>
      <trkpt lat="45.86012" lon="4.52676">
        <ele>351</ele>
        <time>2015-06-09T12:02:39Z</time>
      </trkpt>
      <trkpt lat="45.86013" lon="4.52669">
        <ele>351</ele>
        <time>2015-06-09T12:02:40Z</time>
      </trkpt>
      <trkpt lat="45.86013" lon="4.52662">
        <ele>351</ele>
        <time>2015-06-09T12:02:41Z</time>
      </trkpt>
      <trkpt lat="45.86015" lon="4.52655">
        <ele>351</ele>
        <time>2015-06-09T12:02:42Z</time>
      </trkpt>
      <trkpt lat="45.86016" lon="4.52643">
        <ele>351</ele>
        <time>2015-06-09T12:02:44Z</time>
      </trkpt>
      <trkpt lat="45.86017" lon="4.5263">
        <ele>352</ele>
        <time>2015-06-09T12:02:46Z</time>
      </trkpt>
      <trkpt lat="45.86018" lon="4.52618">
        <ele>352</ele>
        <time>2015-06-09T12:02:48Z</time>
      </trkpt>
      <trkpt lat="45.8602" lon="4.52607">
        <ele>352</ele>
        <time>2015-06-09T12:02:50Z</time>
      </trkpt>
      <trkpt lat="45.86021" lon="4.52596">
        <ele>353</ele>
        <time>2015-06-09T12:02:52Z</time>
      </trkpt>
      <trkpt lat="45.86023" lon="4.52585">
        <ele>353</ele>
        <time>2015-06-09T12:02:54Z</time>
      </trkpt>
      <trkpt lat="45.86024" lon="4.52574">
        <ele>354</ele>
        <time>2015-06-09T12:02:56Z</time>
      </trkpt>
      <trkpt lat="45.86025" lon="4.52565">
        <ele>354</ele>
        <time>2015-06-09T12:02:58Z</time>
      </trkpt>
      <trkpt lat="45.86025" lon="4.52556">
        <ele>354</ele>
        <time>2015-06-09T12:03:00Z</time>
      </trkpt>
      <trkpt lat="45.86026" lon="4.52548">
        <ele>355</ele>
        <time>2015-06-09T12:03:02Z</time>
      </trkpt>
      <trkpt lat="45.86028" lon="4.52539">
        <ele>355</ele>
        <time>2015-06-09T12:03:04Z</time>
      </trkpt>
      <trkpt lat="45.86028" lon="4.52533">
        <ele>356</ele>
        <time>2015-06-09T12:03:06Z</time>
      </trkpt>
      <trkpt lat="45.86029" lon="4.52523">
        <ele>356</ele>
        <time>2015-06-09T12:03:09Z</time>
      </trkpt>
      <trkpt lat="45.8603" lon="4.52516">
        <ele>356</ele>
        <time>2015-06-09T12:03:11Z</time>
      </trkpt>
      <trkpt lat="45.8603" lon="4.52508">
        <ele>357</ele>
        <time>2015-06-09T12:03:13Z</time>
      </trkpt>
      <trkpt lat="45.86031" lon="4.525">
        <ele>357</ele>
        <time>2015-06-09T12:03:15Z</time>
      </trkpt>
      <trkpt lat="45.86031" lon="4.52492">
        <ele>358</ele>
        <time>2015-06-09T12:03:17Z</time>
      </trkpt>
      <trkpt lat="45.86032" lon="4.52483">
        <ele>358</ele>
        <time>2015-06-09T12:03:19Z</time>
      </trkpt>
      <trkpt lat="45.86033" lon="4.52475">
        <ele>359</ele>
        <time>2015-06-09T12:03:21Z</time>
      </trkpt>
      <trkpt lat="45.86034" lon="4.52467">
        <ele>360</ele>
        <time>2015-06-09T12:03:23Z</time>
      </trkpt>
      <trkpt lat="45.86035" lon="4.52459">
        <ele>360</ele>
        <time>2015-06-09T12:03:25Z</time>
      </trkpt>
      <trkpt lat="45.86035" lon="4.52451">
        <ele>361</ele>
        <time>2015-06-09T12:03:27Z</time>
      </trkpt>
      <trkpt lat="45.86035" lon="4.52444">
        <ele>361</ele>
        <time>2015-06-09T12:03:29Z</time>
      </trkpt>
      <trkpt lat="45.86036" lon="4.52436">
        <ele>362</ele>
        <time>2015-06-09T12:03:31Z</time>
      </trkpt>
      <trkpt lat="45.86036" lon="4.52429">
        <ele>363</ele>
        <time>2015-06-09T12:03:33Z</time>
      </trkpt>
      <trkpt lat="45.86037" lon="4.52422">
        <ele>363</ele>
        <time>2015-06-09T12:03:35Z</time>
      </trkpt>
      <trkpt lat="45.86039" lon="4.52415">
        <ele>364</ele>
        <time>2015-06-09T12:03:37Z</time>
      </trkpt>
      <trkpt lat="45.86041" lon="4.52408">
        <ele>364</ele>
        <time>2015-06-09T12:03:39Z</time>
      </trkpt>
      <trkpt lat="45.86041" lon="4.524">
        <ele>365</ele>
        <time>2015-06-09T12:03:41Z</time>
      </trkpt>
      <trkpt lat="45.86041" lon="4.52393">
        <ele>365</ele>
        <time>2015-06-09T12:03:43Z</time>
      </trkpt>
      <trkpt lat="45.8604" lon="4.52386">
        <ele>366</ele>
        <time>2015-06-09T12:03:45Z</time>
      </trkpt>
      <trkpt lat="45.86041" lon="4.52379">
        <ele>366</ele>
        <time>2015-06-09T12:03:47Z</time>
      </trkpt>
      <trkpt lat="45.86041" lon="4.52371">
        <ele>367</ele>
        <time>2015-06-09T12:03:49Z</time>
      </trkpt>
      <trkpt lat="45.86041" lon="4.52364">
        <ele>368</ele>
        <time>2015-06-09T12:03:51Z</time>
      </trkpt>
      <trkpt lat="45.8604" lon="4.52356">
        <ele>368</ele>
        <time>2015-06-09T12:03:53Z</time>
      </trkpt>
      <trkpt lat="45.86039" lon="4.52349">
        <ele>368</ele>
        <time>2015-06-09T12:03:55Z</time>
      </trkpt>
      <trkpt lat="45.86038" lon="4.52342">
        <ele>368</ele>
        <time>2015-06-09T12:03:57Z</time>
      </trkpt>
      <trkpt lat="45.86037" lon="4.52334">
        <ele>369</ele>
        <time>2015-06-09T12:03:59Z</time>
      </trkpt>
      <trkpt lat="45.86036" lon="4.52327">
        <ele>369</ele>
        <time>2015-06-09T12:04:01Z</time>
      </trkpt>
      <trkpt lat="45.86036" lon="4.5232">
        <ele>369</ele>
        <time>2015-06-09T12:04:03Z</time>
      </trkpt>
      <trkpt lat="45.86035" lon="4.52313">
        <ele>370</ele>
        <time>2015-06-09T12:04:05Z</time>
      </trkpt>
      <trkpt lat="45.86035" lon="4.52305">
        <ele>370</ele>
        <time>2015-06-09T12:04:07Z</time>
      </trkpt>
      <trkpt lat="45.86034" lon="4.52298">
        <ele>370</ele>
        <time>2015-06-09T12:04:09Z</time>
      </trkpt>
      <trkpt lat="45.86032" lon="4.52291">
        <ele>370</ele>
        <time>2015-06-09T12:04:11Z</time>
      </trkpt>
      <trkpt lat="45.86029" lon="4.52284">
        <ele>370</ele>
        <time>2015-06-09T12:04:13Z</time>
      </trkpt>
      <trkpt lat="45.86027" lon="4.52277">
        <ele>370</ele>
        <time>2015-06-09T12:04:15Z</time>
      </trkpt>
      <trkpt lat="45.86025" lon="4.5227">
        <ele>370</ele>
        <time>2015-06-09T12:04:17Z</time>
      </trkpt>
      <trkpt lat="45.86023" lon="4.52263">
        <ele>370</ele>
        <time>2015-06-09T12:04:19Z</time>
      </trkpt>
      <trkpt lat="45.86021" lon="4.52256">
        <ele>370</ele>
        <time>2015-06-09T12:04:21Z</time>
      </trkpt>
      <trkpt lat="45.8602" lon="4.52248">
        <ele>370</ele>
        <time>2015-06-09T12:04:23Z</time>
      </trkpt>
      <trkpt lat="45.86019" lon="4.52239">
        <ele>370</ele>
        <time>2015-06-09T12:04:25Z</time>
      </trkpt>
      <trkpt lat="45.86019" lon="4.5223">
        <ele>370</ele>
        <time>2015-06-09T12:04:27Z</time>
      </trkpt>
      <trkpt lat="45.86019" lon="4.52221">
        <ele>370</ele>
        <time>2015-06-09T12:04:29Z</time>
      </trkpt>
      <trkpt lat="45.86019" lon="4.52212">
        <ele>370</ele>
        <time>2015-06-09T12:04:31Z</time>
      </trkpt>
      <trkpt lat="45.8602" lon="4.52203">
        <ele>371</ele>
        <time>2015-06-09T12:04:33Z</time>
      </trkpt>
      <trkpt lat="45.86021" lon="4.52194">
        <ele>371</ele>
        <time>2015-06-09T12:04:35Z</time>
      </trkpt>
      <trkpt lat="45.86021" lon="4.52185">
        <ele>371</ele>
        <time>2015-06-09T12:04:37Z</time>
      </trkpt>
      <trkpt lat="45.86022" lon="4.52175">
        <ele>371</ele>
        <time>2015-06-09T12:04:39Z</time>
      </trkpt>
      <trkpt lat="45.86023" lon="4.52164">
        <ele>372</ele>
        <time>2015-06-09T12:04:41Z</time>
      </trkpt>
      <trkpt lat="45.86023" lon="4.52155">
        <ele>372</ele>
        <time>2015-06-09T12:04:43Z</time>
      </trkpt>
      <trkpt lat="45.86024" lon="4.52147">
        <ele>372</ele>
        <time>2015-06-09T12:04:44Z</time>
      </trkpt>
      <trkpt lat="45.86025" lon="4.52135">
        <ele>373</ele>
        <time>2015-06-09T12:04:46Z</time>
      </trkpt>
      <trkpt lat="45.86026" lon="4.52127">
        <ele>373</ele>
        <time>2015-06-09T12:04:47Z</time>
      </trkpt>
      <trkpt lat="45.86028" lon="4.52121">
        <ele>373</ele>
        <time>2015-06-09T12:04:48Z</time>
      </trkpt>
      <trkpt lat="45.86028" lon="4.52108">
        <ele>373</ele>
        <time>2015-06-09T12:04:50Z</time>
      </trkpt>
      <trkpt lat="45.86029" lon="4.52096">
        <ele>374</ele>
        <time>2015-06-09T12:04:52Z</time>
      </trkpt>
      <trkpt lat="45.8603" lon="4.52083">
        <ele>374</ele>
        <time>2015-06-09T12:04:54Z</time>
      </trkpt>
      <trkpt lat="45.86031" lon="4.52071">
        <ele>374</ele>
        <time>2015-06-09T12:04:56Z</time>
      </trkpt>
      <trkpt lat="45.86031" lon="4.52063">
        <ele>374</ele>
        <time>2015-06-09T12:04:57Z</time>
      </trkpt>
      <trkpt lat="45.86031" lon="4.52057">
        <ele>374</ele>
        <time>2015-06-09T12:04:58Z</time>
      </trkpt>
      <trkpt lat="45.86032" lon="4.5205">
        <ele>374</ele>
        <time>2015-06-09T12:04:59Z</time>
      </trkpt>
      <trkpt lat="45.86033" lon="4.52038">
        <ele>373</ele>
        <time>2015-06-09T12:05:01Z</time>
      </trkpt>
      <trkpt lat="45.86033" lon="4.52031">
        <ele>373</ele>
        <time>2015-06-09T12:05:02Z</time>
      </trkpt>
      <trkpt lat="45.86033" lon="4.52024">
        <ele>373</ele>
        <time>2015-06-09T12:05:03Z</time>
      </trkpt>
      <trkpt lat="45.86033" lon="4.52017">
        <ele>373</ele>
        <time>2015-06-09T12:05:04Z</time>
      </trkpt>
      <trkpt lat="45.86033" lon="4.52004">
        <ele>373</ele>
        <time>2015-06-09T12:05:06Z</time>
      </trkpt>
      <trkpt lat="45.86033" lon="4.51998">
        <ele>373</ele>
        <time>2015-06-09T12:05:07Z</time>
      </trkpt>
      <trkpt lat="45.86033" lon="4.51985">
        <ele>373</ele>
        <time>2015-06-09T12:05:09Z</time>
      </trkpt>
      <trkpt lat="45.86033" lon="4.51979">
        <ele>373</ele>
        <time>2015-06-09T12:05:10Z</time>
      </trkpt>
      <trkpt lat="45.86033" lon="4.51971">
        <ele>373</ele>
        <time>2015-06-09T12:05:11Z</time>
      </trkpt>
      <trkpt lat="45.86033" lon="4.51964">
        <ele>373</ele>
        <time>2015-06-09T12:05:12Z</time>
      </trkpt>
      <trkpt lat="45.86034" lon="4.51957">
        <ele>373</ele>
        <time>2015-06-09T12:05:13Z</time>
      </trkpt>
      <trkpt lat="45.86035" lon="4.5195">
        <ele>373</ele>
        <time>2015-06-09T12:05:14Z</time>
      </trkpt>
      <trkpt lat="45.86036" lon="4.51943">
        <ele>373</ele>
        <time>2015-06-09T12:05:15Z</time>
      </trkpt>
      <trkpt lat="45.86037" lon="4.51931">
        <ele>373</ele>
        <time>2015-06-09T12:05:17Z</time>
      </trkpt>
      <trkpt lat="45.86038" lon="4.51924">
        <ele>373</ele>
        <time>2015-06-09T12:05:18Z</time>
      </trkpt>
      <trkpt lat="45.86039" lon="4.51918">
        <ele>373</ele>
        <time>2015-06-09T12:05:19Z</time>
      </trkpt>
      <trkpt lat="45.86039" lon="4.51911">
        <ele>373</ele>
        <time>2015-06-09T12:05:20Z</time>
      </trkpt>
      <trkpt lat="45.8604" lon="4.51904">
        <ele>373</ele>
        <time>2015-06-09T12:05:21Z</time>
      </trkpt>
      <trkpt lat="45.86041" lon="4.51897">
        <ele>373</ele>
        <time>2015-06-09T12:05:22Z</time>
      </trkpt>
      <trkpt lat="45.86041" lon="4.51885">
        <ele>373</ele>
        <time>2015-06-09T12:05:24Z</time>
      </trkpt>
      <trkpt lat="45.86042" lon="4.51871">
        <ele>373</ele>
        <time>2015-06-09T12:05:26Z</time>
      </trkpt>
      <trkpt lat="45.86042" lon="4.51863">
        <ele>373</ele>
        <time>2015-06-09T12:05:27Z</time>
      </trkpt>
      <trkpt lat="45.86042" lon="4.51856">
        <ele>373</ele>
        <time>2015-06-09T12:05:28Z</time>
      </trkpt>
      <trkpt lat="45.86041" lon="4.51849">
        <ele>373</ele>
        <time>2015-06-09T12:05:29Z</time>
      </trkpt>
      <trkpt lat="45.86039" lon="4.5184">
        <ele>373</ele>
        <time>2015-06-09T12:05:30Z</time>
      </trkpt>
      <trkpt lat="45.86036" lon="4.51828">
        <ele>373</ele>
        <time>2015-06-09T12:05:32Z</time>
      </trkpt>
      <trkpt lat="45.86033" lon="4.51816">
        <ele>373</ele>
        <time>2015-06-09T12:05:34Z</time>
      </trkpt>
      <trkpt lat="45.86029" lon="4.51807">
        <ele>373</ele>
        <time>2015-06-09T12:05:36Z</time>
      </trkpt>
      <trkpt lat="45.86026" lon="4.51796">
        <ele>373</ele>
        <time>2015-06-09T12:05:38Z</time>
      </trkpt>
      <trkpt lat="45.86023" lon="4.51791">
        <ele>373</ele>
        <time>2015-06-09T12:05:39Z</time>
      </trkpt>
      <trkpt lat="45.86019" lon="4.51785">
        <ele>373</ele>
        <time>2015-06-09T12:05:40Z</time>
      </trkpt>
      <trkpt lat="45.86015" lon="4.5178">
        <ele>373</ele>
        <time>2015-06-09T12:05:41Z</time>
      </trkpt>
      <trkpt lat="45.86012" lon="4.51775">
        <ele>373</ele>
        <time>2015-06-09T12:05:42Z</time>
      </trkpt>
      <trkpt lat="45.86005" lon="4.5177">
        <ele>373</ele>
        <time>2015-06-09T12:05:44Z</time>
      </trkpt>
      <trkpt lat="45.85997" lon="4.51764">
        <ele>373</ele>
        <time>2015-06-09T12:05:46Z</time>
      </trkpt>
      <trkpt lat="45.85992" lon="4.51762">
        <ele>373</ele>
        <time>2015-06-09T12:05:47Z</time>
      </trkpt>
      <trkpt lat="45.85984" lon="4.51757">
        <ele>373</ele>
        <time>2015-06-09T12:05:49Z</time>
      </trkpt>
      <trkpt lat="45.85979" lon="4.51753">
        <ele>373</ele>
        <time>2015-06-09T12:05:50Z</time>
      </trkpt>
      <trkpt lat="45.85971" lon="4.51746">
        <ele>373</ele>
        <time>2015-06-09T12:05:52Z</time>
      </trkpt>
      <trkpt lat="45.85968" lon="4.51741">
        <ele>373</ele>
        <time>2015-06-09T12:05:53Z</time>
      </trkpt>
      <trkpt lat="45.85964" lon="4.51736">
        <ele>373</ele>
        <time>2015-06-09T12:05:54Z</time>
      </trkpt>
      <trkpt lat="45.85957" lon="4.51727">
        <ele>373</ele>
        <time>2015-06-09T12:05:56Z</time>
      </trkpt>
      <trkpt lat="45.85953" lon="4.51722">
        <ele>372</ele>
        <time>2015-06-09T12:05:57Z</time>
      </trkpt>
      <trkpt lat="45.8595" lon="4.51717">
        <ele>373</ele>
        <time>2015-06-09T12:05:58Z</time>
      </trkpt>
      <trkpt lat="45.85947" lon="4.51712">
        <ele>373</ele>
        <time>2015-06-09T12:05:59Z</time>
      </trkpt>
      <trkpt lat="45.85944" lon="4.51705">
        <ele>373</ele>
        <time>2015-06-09T12:06:00Z</time>
      </trkpt>
      <trkpt lat="45.8594" lon="4.51695">
        <ele>373</ele>
        <time>2015-06-09T12:06:02Z</time>
      </trkpt>
      <trkpt lat="45.85936" lon="4.51684">
        <ele>373</ele>
        <time>2015-06-09T12:06:04Z</time>
      </trkpt>
      <trkpt lat="45.85933" lon="4.51673">
        <ele>373</ele>
        <time>2015-06-09T12:06:06Z</time>
      </trkpt>
      <trkpt lat="45.85931" lon="4.51662">
        <ele>373</ele>
        <time>2015-06-09T12:06:08Z</time>
      </trkpt>
      <trkpt lat="45.85929" lon="4.51651">
        <ele>374</ele>
        <time>2015-06-09T12:06:10Z</time>
      </trkpt>
      <trkpt lat="45.85927" lon="4.5164">
        <ele>374</ele>
        <time>2015-06-09T12:06:12Z</time>
      </trkpt>
      <trkpt lat="45.85925" lon="4.51628">
        <ele>374</ele>
        <time>2015-06-09T12:06:14Z</time>
      </trkpt>
      <trkpt lat="45.85923" lon="4.51617">
        <ele>374</ele>
        <time>2015-06-09T12:06:16Z</time>
      </trkpt>
      <trkpt lat="45.85922" lon="4.51606">
        <ele>375</ele>
        <time>2015-06-09T12:06:18Z</time>
      </trkpt>
      <trkpt lat="45.85921" lon="4.51594">
        <ele>375</ele>
        <time>2015-06-09T12:06:20Z</time>
      </trkpt>
      <trkpt lat="45.8592" lon="4.51583">
        <ele>376</ele>
        <time>2015-06-09T12:06:22Z</time>
      </trkpt>
      <trkpt lat="45.85919" lon="4.51571">
        <ele>376</ele>
        <time>2015-06-09T12:06:24Z</time>
      </trkpt>
      <trkpt lat="45.85918" lon="4.5156">
        <ele>377</ele>
        <time>2015-06-09T12:06:26Z</time>
      </trkpt>
      <trkpt lat="45.85918" lon="4.51549">
        <ele>377</ele>
        <time>2015-06-09T12:06:28Z</time>
      </trkpt>
      <trkpt lat="45.85917" lon="4.51538">
        <ele>378</ele>
        <time>2015-06-09T12:06:30Z</time>
      </trkpt>
      <trkpt lat="45.85917" lon="4.51528">
        <ele>378</ele>
        <time>2015-06-09T12:06:32Z</time>
      </trkpt>
      <trkpt lat="45.85916" lon="4.51517">
        <ele>379</ele>
        <time>2015-06-09T12:06:34Z</time>
      </trkpt>
      <trkpt lat="45.85916" lon="4.51507">
        <ele>379</ele>
        <time>2015-06-09T12:06:36Z</time>
      </trkpt>
      <trkpt lat="45.85916" lon="4.51498">
        <ele>380</ele>
        <time>2015-06-09T12:06:38Z</time>
      </trkpt>
      <trkpt lat="45.85916" lon="4.5149">
        <ele>380</ele>
        <time>2015-06-09T12:06:40Z</time>
      </trkpt>
      <trkpt lat="45.85918" lon="4.51482">
        <ele>381</ele>
        <time>2015-06-09T12:06:43Z</time>
      </trkpt>
      <trkpt lat="45.85919" lon="4.51474">
        <ele>381</ele>
        <time>2015-06-09T12:06:46Z</time>
      </trkpt>
      <trkpt lat="45.85918" lon="4.51468">
        <ele>381</ele>
        <time>2015-06-09T12:06:48Z</time>
      </trkpt>
      <trkpt lat="45.85917" lon="4.5146">
        <ele>381</ele>
        <time>2015-06-09T12:06:50Z</time>
      </trkpt>
      <trkpt lat="45.85916" lon="4.5145">
        <ele>382</ele>
        <time>2015-06-09T12:06:52Z</time>
      </trkpt>
      <trkpt lat="45.85914" lon="4.5144">
        <ele>382</ele>
        <time>2015-06-09T12:06:54Z</time>
      </trkpt>
      <trkpt lat="45.85912" lon="4.5143">
        <ele>382</ele>
        <time>2015-06-09T12:06:56Z</time>
      </trkpt>
      <trkpt lat="45.85909" lon="4.51419">
        <ele>382</ele>
        <time>2015-06-09T12:06:58Z</time>
      </trkpt>
      <trkpt lat="45.85906" lon="4.51409">
        <ele>382</ele>
        <time>2015-06-09T12:07:00Z</time>
      </trkpt>
      <trkpt lat="45.85904" lon="4.51398">
        <ele>382</ele>
        <time>2015-06-09T12:07:02Z</time>
      </trkpt>
      <trkpt lat="45.85901" lon="4.51387">
        <ele>382</ele>
        <time>2015-06-09T12:07:04Z</time>
      </trkpt>
      <trkpt lat="45.85901" lon="4.51376">
        <ele>382</ele>
        <time>2015-06-09T12:07:06Z</time>
      </trkpt>
      <trkpt lat="45.85901" lon="4.51362">
        <ele>382</ele>
        <time>2015-06-09T12:07:08Z</time>
      </trkpt>
      <trkpt lat="45.85901" lon="4.51353">
        <ele>382</ele>
        <time>2015-06-09T12:07:09Z</time>
      </trkpt>
      <trkpt lat="45.85902" lon="4.51346">
        <ele>382</ele>
        <time>2015-06-09T12:07:10Z</time>
      </trkpt>
      <trkpt lat="45.85902" lon="4.51339">
        <ele>382</ele>
        <time>2015-06-09T12:07:11Z</time>
      </trkpt>
      <trkpt lat="45.85902" lon="4.51332">
        <ele>382</ele>
        <time>2015-06-09T12:07:12Z</time>
      </trkpt>
      <trkpt lat="45.85902" lon="4.51325">
        <ele>382</ele>
        <time>2015-06-09T12:07:13Z</time>
      </trkpt>
      <trkpt lat="45.85901" lon="4.51314">
        <ele>382</ele>
        <time>2015-06-09T12:07:15Z</time>
      </trkpt>
      <trkpt lat="45.859" lon="4.51307">
        <ele>382</ele>
        <time>2015-06-09T12:07:16Z</time>
      </trkpt>
      <trkpt lat="45.859" lon="4.51301">
        <ele>382</ele>
        <time>2015-06-09T12:07:17Z</time>
      </trkpt>
      <trkpt lat="45.85899" lon="4.51294">
        <ele>382</ele>
        <time>2015-06-09T12:07:18Z</time>
      </trkpt>
      <trkpt lat="45.85899" lon="4.51286">
        <ele>382</ele>
        <time>2015-06-09T12:07:19Z</time>
      </trkpt>
      <trkpt lat="45.85899" lon="4.51274">
        <ele>382</ele>
        <time>2015-06-09T12:07:21Z</time>
      </trkpt>
      <trkpt lat="45.85899" lon="4.51262">
        <ele>382</ele>
        <time>2015-06-09T12:07:23Z</time>
      </trkpt>
      <trkpt lat="45.85896" lon="4.5125">
        <ele>382</ele>
        <time>2015-06-09T12:07:25Z</time>
      </trkpt>
      <trkpt lat="45.85895" lon="4.51244">
        <ele>383</ele>
        <time>2015-06-09T12:07:26Z</time>
      </trkpt>
      <trkpt lat="45.85895" lon="4.51232">
        <ele>383</ele>
        <time>2015-06-09T12:07:28Z</time>
      </trkpt>
      <trkpt lat="45.85895" lon="4.51223">
        <ele>383</ele>
        <time>2015-06-09T12:07:30Z</time>
      </trkpt>
      <trkpt lat="45.85896" lon="4.51211">
        <ele>383</ele>
        <time>2015-06-09T12:07:32Z</time>
      </trkpt>
      <trkpt lat="45.85896" lon="4.51199">
        <ele>383</ele>
        <time>2015-06-09T12:07:34Z</time>
      </trkpt>
      <trkpt lat="45.85898" lon="4.51188">
        <ele>384</ele>
        <time>2015-06-09T12:07:36Z</time>
      </trkpt>
      <trkpt lat="45.85898" lon="4.51177">
        <ele>384</ele>
        <time>2015-06-09T12:07:38Z</time>
      </trkpt>
      <trkpt lat="45.85899" lon="4.51167">
        <ele>385</ele>
        <time>2015-06-09T12:07:40Z</time>
      </trkpt>
      <trkpt lat="45.85894" lon="4.51157">
        <ele>385</ele>
        <time>2015-06-09T12:07:42Z</time>
      </trkpt>
      <trkpt lat="45.85892" lon="4.51146">
        <ele>385</ele>
        <time>2015-06-09T12:07:44Z</time>
      </trkpt>
      <trkpt lat="45.85889" lon="4.51136">
        <ele>386</ele>
        <time>2015-06-09T12:07:46Z</time>
      </trkpt>
      <trkpt lat="45.85886" lon="4.51125">
        <ele>386</ele>
        <time>2015-06-09T12:07:48Z</time>
      </trkpt>
      <trkpt lat="45.85883" lon="4.51114">
        <ele>387</ele>
        <time>2015-06-09T12:07:50Z</time>
      </trkpt>
      <trkpt lat="45.85879" lon="4.51104">
        <ele>387</ele>
        <time>2015-06-09T12:07:52Z</time>
      </trkpt>
      <trkpt lat="45.85875" lon="4.51095">
        <ele>387</ele>
        <time>2015-06-09T12:07:54Z</time>
      </trkpt>
      <trkpt lat="45.85871" lon="4.51086">
        <ele>387</ele>
        <time>2015-06-09T12:07:56Z</time>
      </trkpt>
      <trkpt lat="45.85868" lon="4.51076">
        <ele>388</ele>
        <time>2015-06-09T12:07:58Z</time>
      </trkpt>
      <trkpt lat="45.85865" lon="4.51067">
        <ele>388</ele>
        <time>2015-06-09T12:08:00Z</time>
      </trkpt>
      <trkpt lat="45.85863" lon="4.51059">
        <ele>388</ele>
        <time>2015-06-09T12:08:02Z</time>
      </trkpt>
      <trkpt lat="45.8586" lon="4.5105">
        <ele>389</ele>
        <time>2015-06-09T12:08:04Z</time>
      </trkpt>
      <trkpt lat="45.85859" lon="4.51042">
        <ele>389</ele>
        <time>2015-06-09T12:08:06Z</time>
      </trkpt>
      <trkpt lat="45.85858" lon="4.51034">
        <ele>389</ele>
        <time>2015-06-09T12:08:08Z</time>
      </trkpt>
      <trkpt lat="45.85857" lon="4.51027">
        <ele>389</ele>
        <time>2015-06-09T12:08:10Z</time>
      </trkpt>
      <trkpt lat="45.85856" lon="4.51019">
        <ele>390</ele>
        <time>2015-06-09T12:08:12Z</time>
      </trkpt>
      <trkpt lat="45.85854" lon="4.51012">
        <ele>390</ele>
        <time>2015-06-09T12:08:14Z</time>
      </trkpt>
      <trkpt lat="45.85854" lon="4.51004">
        <ele>390</ele>
        <time>2015-06-09T12:08:16Z</time>
      </trkpt>
      <trkpt lat="45.85854" lon="4.50997">
        <ele>391</ele>
        <time>2015-06-09T12:08:18Z</time>
      </trkpt>
      <trkpt lat="45.85852" lon="4.50989">
        <ele>391</ele>
        <time>2015-06-09T12:08:20Z</time>
      </trkpt>
      <trkpt lat="45.85849" lon="4.50981">
        <ele>391</ele>
        <time>2015-06-09T12:08:22Z</time>
      </trkpt>
      <trkpt lat="45.85847" lon="4.50974">
        <ele>392</ele>
        <time>2015-06-09T12:08:24Z</time>
      </trkpt>
      <trkpt lat="45.85844" lon="4.50966">
        <ele>392</ele>
        <time>2015-06-09T12:08:26Z</time>
      </trkpt>
      <trkpt lat="45.8584" lon="4.50958">
        <ele>393</ele>
        <time>2015-06-09T12:08:28Z</time>
      </trkpt>
      <trkpt lat="45.85836" lon="4.50949">
        <ele>393</ele>
        <time>2015-06-09T12:08:30Z</time>
      </trkpt>
      <trkpt lat="45.85833" lon="4.5094">
        <ele>394</ele>
        <time>2015-06-09T12:08:32Z</time>
      </trkpt>
      <trkpt lat="45.85828" lon="4.5093">
        <ele>395</ele>
        <time>2015-06-09T12:08:34Z</time>
      </trkpt>
      <trkpt lat="45.85824" lon="4.50919">
        <ele>395</ele>
        <time>2015-06-09T12:08:36Z</time>
      </trkpt>
      <trkpt lat="45.85819" lon="4.50908">
        <ele>395</ele>
        <time>2015-06-09T12:08:38Z</time>
      </trkpt>
      <trkpt lat="45.85815" lon="4.50897">
        <ele>396</ele>
        <time>2015-06-09T12:08:40Z</time>
      </trkpt>
      <trkpt lat="45.85811" lon="4.50886">
        <ele>396</ele>
        <time>2015-06-09T12:08:42Z</time>
      </trkpt>
      <trkpt lat="45.85806" lon="4.50875">
        <ele>396</ele>
        <time>2015-06-09T12:08:44Z</time>
      </trkpt>
      <trkpt lat="45.85802" lon="4.50869">
        <ele>396</ele>
        <time>2015-06-09T12:08:45Z</time>
      </trkpt>
      <trkpt lat="45.85797" lon="4.50858">
        <ele>396</ele>
        <time>2015-06-09T12:08:47Z</time>
      </trkpt>
      <trkpt lat="45.85795" lon="4.50852">
        <ele>396</ele>
        <time>2015-06-09T12:08:48Z</time>
      </trkpt>
      <trkpt lat="45.85793" lon="4.50845">
        <ele>397</ele>
        <time>2015-06-09T12:08:49Z</time>
      </trkpt>
      <trkpt lat="45.8579" lon="4.50833">
        <ele>397</ele>
        <time>2015-06-09T12:08:51Z</time>
      </trkpt>
      <trkpt lat="45.85788" lon="4.50826">
        <ele>397</ele>
        <time>2015-06-09T12:08:52Z</time>
      </trkpt>
      <trkpt lat="45.85788" lon="4.50815">
        <ele>398</ele>
        <time>2015-06-09T12:08:54Z</time>
      </trkpt>
      <trkpt lat="45.85785" lon="4.50809">
        <ele>398</ele>
        <time>2015-06-09T12:08:55Z</time>
      </trkpt>
      <trkpt lat="45.85786" lon="4.50799">
        <ele>398</ele>
        <time>2015-06-09T12:08:57Z</time>
      </trkpt>
      <trkpt lat="45.85783" lon="4.50786">
        <ele>399</ele>
        <time>2015-06-09T12:08:59Z</time>
      </trkpt>
      <trkpt lat="45.85782" lon="4.50775">
        <ele>399</ele>
        <time>2015-06-09T12:09:01Z</time>
      </trkpt>
      <trkpt lat="45.8578" lon="4.50764">
        <ele>399</ele>
        <time>2015-06-09T12:09:03Z</time>
      </trkpt>
      <trkpt lat="45.85778" lon="4.50754">
        <ele>399</ele>
        <time>2015-06-09T12:09:05Z</time>
      </trkpt>
      <trkpt lat="45.85774" lon="4.50744">
        <ele>399</ele>
        <time>2015-06-09T12:09:07Z</time>
      </trkpt>
      <trkpt lat="45.8577" lon="4.50735">
        <ele>399</ele>
        <time>2015-06-09T12:09:09Z</time>
      </trkpt>
      <trkpt lat="45.85767" lon="4.50726">
        <ele>399</ele>
        <time>2015-06-09T12:09:11Z</time>
      </trkpt>
      <trkpt lat="45.85764" lon="4.50716">
        <ele>399</ele>
        <time>2015-06-09T12:09:13Z</time>
      </trkpt>
      <trkpt lat="45.85761" lon="4.50705">
        <ele>399</ele>
        <time>2015-06-09T12:09:15Z</time>
      </trkpt>
      <trkpt lat="45.85758" lon="4.50693">
        <ele>400</ele>
        <time>2015-06-09T12:09:17Z</time>
      </trkpt>
      <trkpt lat="45.85756" lon="4.50681">
        <ele>400</ele>
        <time>2015-06-09T12:09:19Z</time>
      </trkpt>
      <trkpt lat="45.85753" lon="4.5067">
        <ele>401</ele>
        <time>2015-06-09T12:09:21Z</time>
      </trkpt>
      <trkpt lat="45.85751" lon="4.50659">
        <ele>401</ele>
        <time>2015-06-09T12:09:23Z</time>
      </trkpt>
      <trkpt lat="45.85751" lon="4.50649">
        <ele>402</ele>
        <time>2015-06-09T12:09:25Z</time>
      </trkpt>
      <trkpt lat="45.85752" lon="4.50637">
        <ele>402</ele>
        <time>2015-06-09T12:09:27Z</time>
      </trkpt>
      <trkpt lat="45.85753" lon="4.50625">
        <ele>403</ele>
        <time>2015-06-09T12:09:29Z</time>
      </trkpt>
      <trkpt lat="45.85756" lon="4.50613">
        <ele>403</ele>
        <time>2015-06-09T12:09:31Z</time>
      </trkpt>
      <trkpt lat="45.85758" lon="4.50603">
        <ele>404</ele>
        <time>2015-06-09T12:09:33Z</time>
      </trkpt>
      <trkpt lat="45.85761" lon="4.50594">
        <ele>404</ele>
        <time>2015-06-09T12:09:35Z</time>
      </trkpt>
      <trkpt lat="45.85764" lon="4.50585">
        <ele>405</ele>
        <time>2015-06-09T12:09:37Z</time>
      </trkpt>
      <trkpt lat="45.85767" lon="4.50579">
        <ele>406</ele>
        <time>2015-06-09T12:09:39Z</time>
      </trkpt>
      <trkpt lat="45.8577" lon="4.50574">
        <ele>407</ele>
        <time>2015-06-09T12:09:41Z</time>
      </trkpt>
      <trkpt lat="45.85772" lon="4.50567">
        <ele>408</ele>
        <time>2015-06-09T12:09:43Z</time>
      </trkpt>
      <trkpt lat="45.85775" lon="4.50561">
        <ele>409</ele>
        <time>2015-06-09T12:09:45Z</time>
      </trkpt>
      <trkpt lat="45.85778" lon="4.50555">
        <ele>410</ele>
        <time>2015-06-09T12:09:47Z</time>
      </trkpt>
      <trkpt lat="45.85781" lon="4.50546">
        <ele>411</ele>
        <time>2015-06-09T12:09:50Z</time>
      </trkpt>
      <trkpt lat="45.85782" lon="4.50537">
        <ele>412</ele>
        <time>2015-06-09T12:09:53Z</time>
      </trkpt>
      <trkpt lat="45.85782" lon="4.5053">
        <ele>412</ele>
        <time>2015-06-09T12:09:55Z</time>
      </trkpt>
      <trkpt lat="45.85782" lon="4.50523">
        <ele>413</ele>
        <time>2015-06-09T12:09:57Z</time>
      </trkpt>
      <trkpt lat="45.85781" lon="4.50515">
        <ele>413</ele>
        <time>2015-06-09T12:09:59Z</time>
      </trkpt>
      <trkpt lat="45.85781" lon="4.50508">
        <ele>414</ele>
        <time>2015-06-09T12:10:01Z</time>
      </trkpt>
      <trkpt lat="45.85782" lon="4.505">
        <ele>415</ele>
        <time>2015-06-09T12:10:03Z</time>
      </trkpt>
      <trkpt lat="45.85783" lon="4.50492">
        <ele>415</ele>
        <time>2015-06-09T12:10:05Z</time>
      </trkpt>
      <trkpt lat="45.85785" lon="4.50485">
        <ele>416</ele>
        <time>2015-06-09T12:10:07Z</time>
      </trkpt>
      <trkpt lat="45.85786" lon="4.50477">
        <ele>417</ele>
        <time>2015-06-09T12:10:09Z</time>
      </trkpt>
      <trkpt lat="45.85787" lon="4.50469">
        <ele>417</ele>
        <time>2015-06-09T12:10:11Z</time>
      </trkpt>
      <trkpt lat="45.85786" lon="4.50461">
        <ele>418</ele>
        <time>2015-06-09T12:10:13Z</time>
      </trkpt>
      <trkpt lat="45.85785" lon="4.50454">
        <ele>418</ele>
        <time>2015-06-09T12:10:15Z</time>
      </trkpt>
      <trkpt lat="45.85782" lon="4.50449">
        <ele>418</ele>
        <time>2015-06-09T12:10:17Z</time>
      </trkpt>
      <trkpt lat="45.85777" lon="4.50444">
        <ele>417</ele>
        <time>2015-06-09T12:10:19Z</time>
      </trkpt>
      <trkpt lat="45.85772" lon="4.50443">
        <ele>417</ele>
        <time>2015-06-09T12:10:21Z</time>
      </trkpt>
      <trkpt lat="45.85767" lon="4.50446">
        <ele>416</ele>
        <time>2015-06-09T12:10:23Z</time>
      </trkpt>
      <trkpt lat="45.85762" lon="4.5045">
        <ele>415</ele>
        <time>2015-06-09T12:10:25Z</time>
      </trkpt>
      <trkpt lat="45.85757" lon="4.50456">
        <ele>414</ele>
        <time>2015-06-09T12:10:27Z</time>
      </trkpt>
      <trkpt lat="45.85754" lon="4.50462">
        <ele>414</ele>
        <time>2015-06-09T12:10:29Z</time>
      </trkpt>
      <trkpt lat="45.8575" lon="4.50467">
        <ele>413</ele>
        <time>2015-06-09T12:10:31Z</time>
      </trkpt>
      <trkpt lat="45.85746" lon="4.50472">
        <ele>413</ele>
        <time>2015-06-09T12:10:33Z</time>
      </trkpt>
      <trkpt lat="45.85742" lon="4.50477">
        <ele>412</ele>
        <time>2015-06-09T12:10:35Z</time>
      </trkpt>
      <trkpt lat="45.85738" lon="4.5048">
        <ele>412</ele>
        <time>2015-06-09T12:10:37Z</time>
      </trkpt>
      <trkpt lat="45.85733" lon="4.50482">
        <ele>411</ele>
        <time>2015-06-09T12:10:39Z</time>
      </trkpt>
      <trkpt lat="45.85729" lon="4.50482">
        <ele>411</ele>
        <time>2015-06-09T12:10:41Z</time>
      </trkpt>
      <trkpt lat="45.85723" lon="4.50481">
        <ele>411</ele>
        <time>2015-06-09T12:10:43Z</time>
      </trkpt>
      <trkpt lat="45.85718" lon="4.50479">
        <ele>411</ele>
        <time>2015-06-09T12:10:45Z</time>
      </trkpt>
      <trkpt lat="45.85713" lon="4.50477">
        <ele>411</ele>
        <time>2015-06-09T12:10:47Z</time>
      </trkpt>
      <trkpt lat="45.85708" lon="4.50473">
        <ele>411</ele>
        <time>2015-06-09T12:10:49Z</time>
      </trkpt>
      <trkpt lat="45.85703" lon="4.50469">
        <ele>412</ele>
        <time>2015-06-09T12:10:51Z</time>
      </trkpt>
      <trkpt lat="45.85698" lon="4.50464">
        <ele>412</ele>
        <time>2015-06-09T12:10:53Z</time>
      </trkpt>
      <trkpt lat="45.85694" lon="4.5046">
        <ele>413</ele>
        <time>2015-06-09T12:10:55Z</time>
      </trkpt>
      <trkpt lat="45.8569" lon="4.50455">
        <ele>413</ele>
        <time>2015-06-09T12:10:57Z</time>
      </trkpt>
      <trkpt lat="45.85687" lon="4.50452">
        <ele>413</ele>
        <time>2015-06-09T12:10:59Z</time>
      </trkpt>
      <trkpt lat="45.85682" lon="4.50446">
        <ele>414</ele>
        <time>2015-06-09T12:11:02Z</time>
      </trkpt>
      <trkpt lat="45.85679" lon="4.5044">
        <ele>414</ele>
        <time>2015-06-09T12:11:04Z</time>
      </trkpt>
      <trkpt lat="45.85674" lon="4.50434">
        <ele>415</ele>
        <time>2015-06-09T12:11:07Z</time>
      </trkpt>
      <trkpt lat="45.85669" lon="4.50429">
        <ele>416</ele>
        <time>2015-06-09T12:11:10Z</time>
      </trkpt>
      <trkpt lat="45.85666" lon="4.50424">
        <ele>416</ele>
        <time>2015-06-09T12:11:12Z</time>
      </trkpt>
      <trkpt lat="45.85662" lon="4.5042">
        <ele>417</ele>
        <time>2015-06-09T12:11:14Z</time>
      </trkpt>
      <trkpt lat="45.85658" lon="4.50416">
        <ele>417</ele>
        <time>2015-06-09T12:11:16Z</time>
      </trkpt>
      <trkpt lat="45.85654" lon="4.50413">
        <ele>418</ele>
        <time>2015-06-09T12:11:18Z</time>
      </trkpt>
      <trkpt lat="45.8565" lon="4.50409">
        <ele>418</ele>
        <time>2015-06-09T12:11:20Z</time>
      </trkpt>
      <trkpt lat="45.85645" lon="4.50404">
        <ele>419</ele>
        <time>2015-06-09T12:11:23Z</time>
      </trkpt>
      <trkpt lat="45.8564" lon="4.50398">
        <ele>419</ele>
        <time>2015-06-09T12:11:26Z</time>
      </trkpt>
      <trkpt lat="45.85636" lon="4.50391">
        <ele>420</ele>
        <time>2015-06-09T12:11:29Z</time>
      </trkpt>
      <trkpt lat="45.85632" lon="4.50384">
        <ele>421</ele>
        <time>2015-06-09T12:11:32Z</time>
      </trkpt>
      <trkpt lat="45.85628" lon="4.5038">
        <ele>421</ele>
        <time>2015-06-09T12:11:34Z</time>
      </trkpt>
      <trkpt lat="45.85624" lon="4.50376">
        <ele>422</ele>
        <time>2015-06-09T12:11:36Z</time>
      </trkpt>
      <trkpt lat="45.8562" lon="4.50371">
        <ele>422</ele>
        <time>2015-06-09T12:11:38Z</time>
      </trkpt>
      <trkpt lat="45.85617" lon="4.50365">
        <ele>423</ele>
        <time>2015-06-09T12:11:40Z</time>
      </trkpt>
      <trkpt lat="45.85614" lon="4.5036">
        <ele>424</ele>
        <time>2015-06-09T12:11:42Z</time>
      </trkpt>
      <trkpt lat="45.85611" lon="4.50355">
        <ele>424</ele>
        <time>2015-06-09T12:11:44Z</time>
      </trkpt>
      <trkpt lat="45.85607" lon="4.50348">
        <ele>425</ele>
        <time>2015-06-09T12:11:47Z</time>
      </trkpt>
      <trkpt lat="45.85603" lon="4.50345">
        <ele>426</ele>
        <time>2015-06-09T12:11:49Z</time>
      </trkpt>
      <trkpt lat="45.856" lon="4.5034">
        <ele>426</ele>
        <time>2015-06-09T12:11:51Z</time>
      </trkpt>
      <trkpt lat="45.85595" lon="4.50336">
        <ele>426</ele>
        <time>2015-06-09T12:11:53Z</time>
      </trkpt>
      <trkpt lat="45.85591" lon="4.50333">
        <ele>427</ele>
        <time>2015-06-09T12:11:55Z</time>
      </trkpt>
      <trkpt lat="45.85586" lon="4.50329">
        <ele>427</ele>
        <time>2015-06-09T12:11:57Z</time>
      </trkpt>
      <trkpt lat="45.85581" lon="4.50326">
        <ele>427</ele>
        <time>2015-06-09T12:11:59Z</time>
      </trkpt>
      <trkpt lat="45.85576" lon="4.50324">
        <ele>427</ele>
        <time>2015-06-09T12:12:01Z</time>
      </trkpt>
      <trkpt lat="45.85571" lon="4.50323">
        <ele>427</ele>
        <time>2015-06-09T12:12:03Z</time>
      </trkpt>
      <trkpt lat="45.85564" lon="4.5032">
        <ele>427</ele>
        <time>2015-06-09T12:12:05Z</time>
      </trkpt>
      <trkpt lat="45.85558" lon="4.50317">
        <ele>428</ele>
        <time>2015-06-09T12:12:07Z</time>
      </trkpt>
      <trkpt lat="45.85551" lon="4.50314">
        <ele>428</ele>
        <time>2015-06-09T12:12:09Z</time>
      </trkpt>
      <trkpt lat="45.85545" lon="4.50311">
        <ele>428</ele>
        <time>2015-06-09T12:12:11Z</time>
      </trkpt>
      <trkpt lat="45.85539" lon="4.50307">
        <ele>428</ele>
        <time>2015-06-09T12:12:13Z</time>
      </trkpt>
      <trkpt lat="45.85533" lon="4.50303">
        <ele>428</ele>
        <time>2015-06-09T12:12:15Z</time>
      </trkpt>
      <trkpt lat="45.85527" lon="4.50299">
        <ele>429</ele>
        <time>2015-06-09T12:12:17Z</time>
      </trkpt>
      <trkpt lat="45.85522" lon="4.50294">
        <ele>429</ele>
        <time>2015-06-09T12:12:19Z</time>
      </trkpt>
      <trkpt lat="45.85517" lon="4.5029">
        <ele>430</ele>
        <time>2015-06-09T12:12:21Z</time>
      </trkpt>
      <trkpt lat="45.85512" lon="4.50284">
        <ele>430</ele>
        <time>2015-06-09T12:12:23Z</time>
      </trkpt>
      <trkpt lat="45.85507" lon="4.50277">
        <ele>431</ele>
        <time>2015-06-09T12:12:25Z</time>
      </trkpt>
      <trkpt lat="45.85502" lon="4.50272">
        <ele>432</ele>
        <time>2015-06-09T12:12:27Z</time>
      </trkpt>
      <trkpt lat="45.85497" lon="4.50266">
        <ele>432</ele>
        <time>2015-06-09T12:12:29Z</time>
      </trkpt>
      <trkpt lat="45.85492" lon="4.50261">
        <ele>433</ele>
        <time>2015-06-09T12:12:31Z</time>
      </trkpt>
      <trkpt lat="45.85487" lon="4.50255">
        <ele>433</ele>
        <time>2015-06-09T12:12:33Z</time>
      </trkpt>
      <trkpt lat="45.85482" lon="4.50249">
        <ele>434</ele>
        <time>2015-06-09T12:12:35Z</time>
      </trkpt>
      <trkpt lat="45.85477" lon="4.50243">
        <ele>434</ele>
        <time>2015-06-09T12:12:37Z</time>
      </trkpt>
      <trkpt lat="45.85473" lon="4.50237">
        <ele>434</ele>
        <time>2015-06-09T12:12:39Z</time>
      </trkpt>
      <trkpt lat="45.85469" lon="4.5023">
        <ele>435</ele>
        <time>2015-06-09T12:12:41Z</time>
      </trkpt>
      <trkpt lat="45.85465" lon="4.50223">
        <ele>435</ele>
        <time>2015-06-09T12:12:43Z</time>
      </trkpt>
      <trkpt lat="45.8546" lon="4.50216">
        <ele>436</ele>
        <time>2015-06-09T12:12:45Z</time>
      </trkpt>
      <trkpt lat="45.85457" lon="4.50208">
        <ele>437</ele>
        <time>2015-06-09T12:12:47Z</time>
      </trkpt>
      <trkpt lat="45.85452" lon="4.50201">
        <ele>437</ele>
        <time>2015-06-09T12:12:49Z</time>
      </trkpt>
      <trkpt lat="45.85449" lon="4.50195">
        <ele>438</ele>
        <time>2015-06-09T12:12:51Z</time>
      </trkpt>
      <trkpt lat="45.85445" lon="4.50188">
        <ele>438</ele>
        <time>2015-06-09T12:12:53Z</time>
      </trkpt>
      <trkpt lat="45.85441" lon="4.50182">
        <ele>439</ele>
        <time>2015-06-09T12:12:55Z</time>
      </trkpt>
      <trkpt lat="45.85436" lon="4.50176">
        <ele>439</ele>
        <time>2015-06-09T12:12:57Z</time>
      </trkpt>
      <trkpt lat="45.85432" lon="4.50169">
        <ele>440</ele>
        <time>2015-06-09T12:12:59Z</time>
      </trkpt>
      <trkpt lat="45.85428" lon="4.50163">
        <ele>440</ele>
        <time>2015-06-09T12:13:01Z</time>
      </trkpt>
      <trkpt lat="45.85423" lon="4.50158">
        <ele>440</ele>
        <time>2015-06-09T12:13:03Z</time>
      </trkpt>
      <trkpt lat="45.85417" lon="4.50153">
        <ele>440</ele>
        <time>2015-06-09T12:13:05Z</time>
      </trkpt>
      <trkpt lat="45.85412" lon="4.50148">
        <ele>440</ele>
        <time>2015-06-09T12:13:07Z</time>
      </trkpt>
      <trkpt lat="45.85406" lon="4.50144">
        <ele>440</ele>
        <time>2015-06-09T12:13:09Z</time>
      </trkpt>
      <trkpt lat="45.85399" lon="4.50139">
        <ele>441</ele>
        <time>2015-06-09T12:13:11Z</time>
      </trkpt>
      <trkpt lat="45.85393" lon="4.50134">
        <ele>441</ele>
        <time>2015-06-09T12:13:13Z</time>
      </trkpt>
      <trkpt lat="45.85387" lon="4.50128">
        <ele>442</ele>
        <time>2015-06-09T12:13:15Z</time>
      </trkpt>
      <trkpt lat="45.85381" lon="4.50123">
        <ele>442</ele>
        <time>2015-06-09T12:13:17Z</time>
      </trkpt>
      <trkpt lat="45.85375" lon="4.50119">
        <ele>442</ele>
        <time>2015-06-09T12:13:19Z</time>
      </trkpt>
      <trkpt lat="45.85368" lon="4.50114">
        <ele>443</ele>
        <time>2015-06-09T12:13:21Z</time>
      </trkpt>
      <trkpt lat="45.8536" lon="4.5011">
        <ele>443</ele>
        <time>2015-06-09T12:13:23Z</time>
      </trkpt>
      <trkpt lat="45.85353" lon="4.50107">
        <ele>443</ele>
        <time>2015-06-09T12:13:25Z</time>
      </trkpt>
      <trkpt lat="45.85346" lon="4.50103">
        <ele>443</ele>
        <time>2015-06-09T12:13:27Z</time>
      </trkpt>
      <trkpt lat="45.85339" lon="4.50098">
        <ele>443</ele>
        <time>2015-06-09T12:13:29Z</time>
      </trkpt>
      <trkpt lat="45.85333" lon="4.50093">
        <ele>443</ele>
        <time>2015-06-09T12:13:31Z</time>
      </trkpt>
      <trkpt lat="45.85327" lon="4.50088">
        <ele>444</ele>
        <time>2015-06-09T12:13:33Z</time>
      </trkpt>
      <trkpt lat="45.85321" lon="4.50083">
        <ele>444</ele>
        <time>2015-06-09T12:13:35Z</time>
      </trkpt>
      <trkpt lat="45.85315" lon="4.50077">
        <ele>444</ele>
        <time>2015-06-09T12:13:37Z</time>
      </trkpt>
      <trkpt lat="45.85309" lon="4.50072">
        <ele>444</ele>
        <time>2015-06-09T12:13:39Z</time>
      </trkpt>
      <trkpt lat="45.85304" lon="4.50066">
        <ele>445</ele>
        <time>2015-06-09T12:13:41Z</time>
      </trkpt>
      <trkpt lat="45.85298" lon="4.50062">
        <ele>445</ele>
        <time>2015-06-09T12:13:43Z</time>
      </trkpt>
      <trkpt lat="45.85293" lon="4.50057">
        <ele>446</ele>
        <time>2015-06-09T12:13:45Z</time>
      </trkpt>
      <trkpt lat="45.85289" lon="4.50051">
        <ele>446</ele>
        <time>2015-06-09T12:13:47Z</time>
      </trkpt>
      <trkpt lat="45.85286" lon="4.50045">
        <ele>447</ele>
        <time>2015-06-09T12:13:49Z</time>
      </trkpt>
      <trkpt lat="45.85282" lon="4.5004">
        <ele>448</ele>
        <time>2015-06-09T12:13:51Z</time>
      </trkpt>
      <trkpt lat="45.85279" lon="4.50034">
        <ele>448</ele>
        <time>2015-06-09T12:13:53Z</time>
      </trkpt>
      <trkpt lat="45.85275" lon="4.50028">
        <ele>449</ele>
        <time>2015-06-09T12:13:55Z</time>
      </trkpt>
      <trkpt lat="45.85271" lon="4.50024">
        <ele>449</ele>
        <time>2015-06-09T12:13:57Z</time>
      </trkpt>
      <trkpt lat="45.85267" lon="4.50019">
        <ele>450</ele>
        <time>2015-06-09T12:13:59Z</time>
      </trkpt>
      <trkpt lat="45.85262" lon="4.50015">
        <ele>450</ele>
        <time>2015-06-09T12:14:01Z</time>
      </trkpt>
      <trkpt lat="45.85256" lon="4.50012">
        <ele>451</ele>
        <time>2015-06-09T12:14:03Z</time>
      </trkpt>
      <trkpt lat="45.8525" lon="4.5001">
        <ele>451</ele>
        <time>2015-06-09T12:14:05Z</time>
      </trkpt>
      <trkpt lat="45.85244" lon="4.50008">
        <ele>451</ele>
        <time>2015-06-09T12:14:07Z</time>
      </trkpt>
      <trkpt lat="45.85238" lon="4.50006">
        <ele>451</ele>
        <time>2015-06-09T12:14:09Z</time>
      </trkpt>
      <trkpt lat="45.85231" lon="4.50006">
        <ele>450</ele>
        <time>2015-06-09T12:14:11Z</time>
      </trkpt>
      <trkpt lat="45.85222" lon="4.50008">
        <ele>450</ele>
        <time>2015-06-09T12:14:13Z</time>
      </trkpt>
      <trkpt lat="45.85211" lon="4.50006">
        <ele>449</ele>
        <time>2015-06-09T12:14:15Z</time>
      </trkpt>
      <trkpt lat="45.85202" lon="4.50004">
        <ele>449</ele>
        <time>2015-06-09T12:14:17Z</time>
      </trkpt>
      <trkpt lat="45.85196" lon="4.50001">
        <ele>449</ele>
        <time>2015-06-09T12:14:18Z</time>
      </trkpt>
      <trkpt lat="45.85189" lon="4.49999">
        <ele>449</ele>
        <time>2015-06-09T12:14:19Z</time>
      </trkpt>
      <trkpt lat="45.85184" lon="4.49996">
        <ele>449</ele>
        <time>2015-06-09T12:14:20Z</time>
      </trkpt>
      <trkpt lat="45.85178" lon="4.49991">
        <ele>450</ele>
        <time>2015-06-09T12:14:21Z</time>
      </trkpt>
      <trkpt lat="45.85171" lon="4.49989">
        <ele>450</ele>
        <time>2015-06-09T12:14:22Z</time>
      </trkpt>
      <trkpt lat="45.85166" lon="4.49986">
        <ele>450</ele>
        <time>2015-06-09T12:14:23Z</time>
      </trkpt>
      <trkpt lat="45.8516" lon="4.49983">
        <ele>450</ele>
        <time>2015-06-09T12:14:24Z</time>
      </trkpt>
      <trkpt lat="45.85154" lon="4.49979">
        <ele>450</ele>
        <time>2015-06-09T12:14:25Z</time>
      </trkpt>
      <trkpt lat="45.85148" lon="4.49975">
        <ele>450</ele>
        <time>2015-06-09T12:14:26Z</time>
      </trkpt>
      <trkpt lat="45.85142" lon="4.49971">
        <ele>450</ele>
        <time>2015-06-09T12:14:27Z</time>
      </trkpt>
      <trkpt lat="45.85137" lon="4.49968">
        <ele>450</ele>
        <time>2015-06-09T12:14:28Z</time>
      </trkpt>
      <trkpt lat="45.85133" lon="4.49964">
        <ele>450</ele>
        <time>2015-06-09T12:14:29Z</time>
      </trkpt>
      <trkpt lat="45.85128" lon="4.49961">
        <ele>450</ele>
        <time>2015-06-09T12:14:30Z</time>
      </trkpt>
      <trkpt lat="45.85124" lon="4.49954">
        <ele>451</ele>
        <time>2015-06-09T12:14:31Z</time>
      </trkpt>
      <trkpt lat="45.85117" lon="4.49944">
        <ele>451</ele>
        <time>2015-06-09T12:14:33Z</time>
      </trkpt>
      <trkpt lat="45.85114" lon="4.49939">
        <ele>451</ele>
        <time>2015-06-09T12:14:34Z</time>
      </trkpt>
      <trkpt lat="45.85111" lon="4.49935">
        <ele>451</ele>
        <time>2015-06-09T12:14:35Z</time>
      </trkpt>
      <trkpt lat="45.85104" lon="4.49925">
        <ele>451</ele>
        <time>2015-06-09T12:14:37Z</time>
      </trkpt>
      <trkpt lat="45.85099" lon="4.49917">
        <ele>451</ele>
        <time>2015-06-09T12:14:39Z</time>
      </trkpt>
      <trkpt lat="45.85094" lon="4.49908">
        <ele>451</ele>
        <time>2015-06-09T12:14:41Z</time>
      </trkpt>
      <trkpt lat="45.85089" lon="4.49897">
        <ele>450</ele>
        <time>2015-06-09T12:14:43Z</time>
      </trkpt>
      <trkpt lat="45.85085" lon="4.49893">
        <ele>450</ele>
        <time>2015-06-09T12:14:44Z</time>
      </trkpt>
      <trkpt lat="45.85078" lon="4.49884">
        <ele>449</ele>
        <time>2015-06-09T12:14:46Z</time>
      </trkpt>
      <trkpt lat="45.85075" lon="4.49878">
        <ele>449</ele>
        <time>2015-06-09T12:14:47Z</time>
      </trkpt>
      <trkpt lat="45.8507" lon="4.49867">
        <ele>450</ele>
        <time>2015-06-09T12:14:49Z</time>
      </trkpt>
      <trkpt lat="45.85066" lon="4.49863">
        <ele>450</ele>
        <time>2015-06-09T12:14:50Z</time>
      </trkpt>
      <trkpt lat="45.85064" lon="4.49857">
        <ele>451</ele>
        <time>2015-06-09T12:14:51Z</time>
      </trkpt>
      <trkpt lat="45.85059" lon="4.4985">
        <ele>451</ele>
        <time>2015-06-09T12:14:53Z</time>
      </trkpt>
      <trkpt lat="45.85053" lon="4.49844">
        <ele>451</ele>
        <time>2015-06-09T12:14:55Z</time>
      </trkpt>
      <trkpt lat="45.85048" lon="4.49834">
        <ele>451</ele>
        <time>2015-06-09T12:14:57Z</time>
      </trkpt>
      <trkpt lat="45.85043" lon="4.49828">
        <ele>451</ele>
        <time>2015-06-09T12:14:58Z</time>
      </trkpt>
      <trkpt lat="45.85041" lon="4.49822">
        <ele>451</ele>
        <time>2015-06-09T12:14:59Z</time>
      </trkpt>
      <trkpt lat="45.85037" lon="4.49817">
        <ele>452</ele>
        <time>2015-06-09T12:15:00Z</time>
      </trkpt>
      <trkpt lat="45.85027" lon="4.49815">
        <ele>451</ele>
        <time>2015-06-09T12:15:02Z</time>
      </trkpt>
      <trkpt lat="45.85019" lon="4.49818">
        <ele>450</ele>
        <time>2015-06-09T12:15:03Z</time>
      </trkpt>
      <trkpt lat="45.85013" lon="4.49821">
        <ele>450</ele>
        <time>2015-06-09T12:15:04Z</time>
      </trkpt>
      <trkpt lat="45.85008" lon="4.49824">
        <ele>450</ele>
        <time>2015-06-09T12:15:05Z</time>
      </trkpt>
      <trkpt lat="45.85008" lon="4.49832">
        <ele>450</ele>
        <time>2015-06-09T12:15:06Z</time>
      </trkpt>
      <trkpt lat="45.85008" lon="4.49842">
        <ele>450</ele>
        <time>2015-06-09T12:15:07Z</time>
      </trkpt>
      <trkpt lat="45.85007" lon="4.4985">
        <ele>450</ele>
        <time>2015-06-09T12:15:08Z</time>
      </trkpt>
      <trkpt lat="45.85005" lon="4.49856">
        <ele>450</ele>
        <time>2015-06-09T12:15:09Z</time>
      </trkpt>
      <trkpt lat="45.85003" lon="4.49866">
        <ele>450</ele>
        <time>2015-06-09T12:15:11Z</time>
      </trkpt>
      <trkpt lat="45.85001" lon="4.49874">
        <ele>450</ele>
        <time>2015-06-09T12:15:13Z</time>
      </trkpt>
      <trkpt lat="45.84999" lon="4.49882">
        <ele>450</ele>
        <time>2015-06-09T12:15:16Z</time>
      </trkpt>
      <trkpt lat="45.84998" lon="4.49888">
        <ele>450</ele>
        <time>2015-06-09T12:15:18Z</time>
      </trkpt>
      <trkpt lat="45.84996" lon="4.49897">
        <ele>451</ele>
        <time>2015-06-09T12:15:21Z</time>
      </trkpt>
      <trkpt lat="45.84997" lon="4.49906">
        <ele>452</ele>
        <time>2015-06-09T12:15:24Z</time>
      </trkpt>
      <trkpt lat="45.85001" lon="4.49914">
        <ele>453</ele>
        <time>2015-06-09T12:15:27Z</time>
      </trkpt>
      <trkpt lat="45.85004" lon="4.49918">
        <ele>453</ele>
        <time>2015-06-09T12:15:29Z</time>
      </trkpt>
      <trkpt lat="45.85009" lon="4.49923">
        <ele>453</ele>
        <time>2015-06-09T12:15:31Z</time>
      </trkpt>
      <trkpt lat="45.85012" lon="4.49928">
        <ele>453</ele>
        <time>2015-06-09T12:15:33Z</time>
      </trkpt>
      <trkpt lat="45.85015" lon="4.49933">
        <ele>453</ele>
        <time>2015-06-09T12:15:35Z</time>
      </trkpt>
      <trkpt lat="45.85019" lon="4.49941">
        <ele>453</ele>
        <time>2015-06-09T12:15:38Z</time>
      </trkpt>
      <trkpt lat="45.85024" lon="4.49948">
        <ele>454</ele>
        <time>2015-06-09T12:15:41Z</time>
      </trkpt>
      <trkpt lat="45.85027" lon="4.49953">
        <ele>453</ele>
        <time>2015-06-09T12:15:43Z</time>
      </trkpt>
      <trkpt lat="45.85032" lon="4.49958">
        <ele>453</ele>
        <time>2015-06-09T12:15:46Z</time>
      </trkpt>
      <trkpt lat="45.85035" lon="4.49966">
        <ele>453</ele>
        <time>2015-06-09T12:15:49Z</time>
      </trkpt>
      <trkpt lat="45.85037" lon="4.49974">
        <ele>454</ele>
        <time>2015-06-09T12:15:52Z</time>
      </trkpt>
      <trkpt lat="45.8504" lon="4.49982">
        <ele>454</ele>
        <time>2015-06-09T12:15:56Z</time>
      </trkpt>
      <trkpt lat="45.85042" lon="4.49989">
        <ele>454</ele>
        <time>2015-06-09T12:15:59Z</time>
      </trkpt>
      <trkpt lat="45.85043" lon="4.49997">
        <ele>455</ele>
        <time>2015-06-09T12:16:02Z</time>
      </trkpt>
      <trkpt lat="45.85046" lon="4.50005">
        <ele>455</ele>
        <time>2015-06-09T12:16:05Z</time>
      </trkpt>
      <trkpt lat="45.85048" lon="4.50013">
        <ele>455</ele>
        <time>2015-06-09T12:16:08Z</time>
      </trkpt>
      <trkpt lat="45.85049" lon="4.5002">
        <ele>455</ele>
        <time>2015-06-09T12:16:11Z</time>
      </trkpt>
      <trkpt lat="45.85052" lon="4.50026">
        <ele>455</ele>
        <time>2015-06-09T12:16:14Z</time>
      </trkpt>
      <trkpt lat="45.85054" lon="4.50033">
        <ele>455</ele>
        <time>2015-06-09T12:16:17Z</time>
      </trkpt>
      <trkpt lat="45.85056" lon="4.5004">
        <ele>455</ele>
        <time>2015-06-09T12:16:20Z</time>
      </trkpt>
      <trkpt lat="45.85057" lon="4.50047">
        <ele>455</ele>
        <time>2015-06-09T12:16:23Z</time>
      </trkpt>
      <trkpt lat="45.85057" lon="4.50054">
        <ele>456</ele>
        <time>2015-06-09T12:16:26Z</time>
      </trkpt>
      <trkpt lat="45.85056" lon="4.50061">
        <ele>457</ele>
        <time>2015-06-09T12:16:29Z</time>
      </trkpt>
      <trkpt lat="45.85056" lon="4.50069">
        <ele>457</ele>
        <time>2015-06-09T12:16:32Z</time>
      </trkpt>
      <trkpt lat="45.85056" lon="4.50075">
        <ele>458</ele>
        <time>2015-06-09T12:16:35Z</time>
      </trkpt>
      <trkpt lat="45.85057" lon="4.50082">
        <ele>458</ele>
        <time>2015-06-09T12:16:38Z</time>
      </trkpt>
      <trkpt lat="45.85057" lon="4.50089">
        <ele>459</ele>
        <time>2015-06-09T12:16:41Z</time>
      </trkpt>
      <trkpt lat="45.85059" lon="4.50097">
        <ele>459</ele>
        <time>2015-06-09T12:16:45Z</time>
      </trkpt>
      <trkpt lat="45.85059" lon="4.50105">
        <ele>458</ele>
        <time>2015-06-09T12:16:48Z</time>
      </trkpt>
      <trkpt lat="45.85058" lon="4.50111">
        <ele>459</ele>
        <time>2015-06-09T12:16:50Z</time>
      </trkpt>
      <trkpt lat="45.85057" lon="4.50119">
        <ele>459</ele>
        <time>2015-06-09T12:16:52Z</time>
      </trkpt>
      <trkpt lat="45.85056" lon="4.50129">
        <ele>459</ele>
        <time>2015-06-09T12:16:54Z</time>
      </trkpt>
      <trkpt lat="45.85054" lon="4.50139">
        <ele>460</ele>
        <time>2015-06-09T12:16:56Z</time>
      </trkpt>
      <trkpt lat="45.85053" lon="4.50149">
        <ele>460</ele>
        <time>2015-06-09T12:16:58Z</time>
      </trkpt>
      <trkpt lat="45.85051" lon="4.50158">
        <ele>461</ele>
        <time>2015-06-09T12:17:00Z</time>
      </trkpt>
      <trkpt lat="45.85047" lon="4.50168">
        <ele>461</ele>
        <time>2015-06-09T12:17:02Z</time>
      </trkpt>
      <trkpt lat="45.85043" lon="4.50176">
        <ele>461</ele>
        <time>2015-06-09T12:17:04Z</time>
      </trkpt>
      <trkpt lat="45.85038" lon="4.50185">
        <ele>462</ele>
        <time>2015-06-09T12:17:06Z</time>
      </trkpt>
      <trkpt lat="45.85032" lon="4.50194">
        <ele>462</ele>
        <time>2015-06-09T12:17:08Z</time>
      </trkpt>
      <trkpt lat="45.85026" lon="4.50202">
        <ele>462</ele>
        <time>2015-06-09T12:17:09Z</time>
      </trkpt>
      <trkpt lat="45.85021" lon="4.50207">
        <ele>462</ele>
        <time>2015-06-09T12:17:10Z</time>
      </trkpt>
      <trkpt lat="45.85018" lon="4.50212">
        <ele>462</ele>
        <time>2015-06-09T12:17:11Z</time>
      </trkpt>
      <trkpt lat="45.85013" lon="4.50217">
        <ele>462</ele>
        <time>2015-06-09T12:17:12Z</time>
      </trkpt>
      <trkpt lat="45.85008" lon="4.50222">
        <ele>462</ele>
        <time>2015-06-09T12:17:13Z</time>
      </trkpt>
      <trkpt lat="45.85004" lon="4.50226">
        <ele>463</ele>
        <time>2015-06-09T12:17:14Z</time>
      </trkpt>
      <trkpt lat="45.84999" lon="4.50231">
        <ele>463</ele>
        <time>2015-06-09T12:17:15Z</time>
      </trkpt>
      <trkpt lat="45.84994" lon="4.50237">
        <ele>463</ele>
        <time>2015-06-09T12:17:16Z</time>
      </trkpt>
      <trkpt lat="45.84989" lon="4.50242">
        <ele>464</ele>
        <time>2015-06-09T12:17:17Z</time>
      </trkpt>
      <trkpt lat="45.84985" lon="4.50247">
        <ele>464</ele>
        <time>2015-06-09T12:17:18Z</time>
      </trkpt>
      <trkpt lat="45.8498" lon="4.50252">
        <ele>464</ele>
        <time>2015-06-09T12:17:19Z</time>
      </trkpt>
      <trkpt lat="45.84978" lon="4.50258">
        <ele>464</ele>
        <time>2015-06-09T12:17:21Z</time>
      </trkpt>
      <trkpt lat="45.84972" lon="4.50261">
        <ele>465</ele>
        <time>2015-06-09T12:17:22Z</time>
      </trkpt>
      <trkpt lat="45.84967" lon="4.50268">
        <ele>465</ele>
        <time>2015-06-09T12:17:24Z</time>
      </trkpt>
      <trkpt lat="45.84962" lon="4.50274">
        <ele>465</ele>
        <time>2015-06-09T12:17:26Z</time>
      </trkpt>
      <trkpt lat="45.84956" lon="4.50276">
        <ele>466</ele>
        <time>2015-06-09T12:17:27Z</time>
      </trkpt>
      <trkpt lat="45.84948" lon="4.50281">
        <ele>467</ele>
        <time>2015-06-09T12:17:29Z</time>
      </trkpt>
      <trkpt lat="45.84942" lon="4.50286">
        <ele>468</ele>
        <time>2015-06-09T12:17:31Z</time>
      </trkpt>
      <trkpt lat="45.84936" lon="4.50291">
        <ele>468</ele>
        <time>2015-06-09T12:17:33Z</time>
      </trkpt>
      <trkpt lat="45.8493" lon="4.50296">
        <ele>468</ele>
        <time>2015-06-09T12:17:35Z</time>
      </trkpt>
      <trkpt lat="45.84924" lon="4.50302">
        <ele>467</ele>
        <time>2015-06-09T12:17:37Z</time>
      </trkpt>
      <trkpt lat="45.84921" lon="4.50308">
        <ele>467</ele>
        <time>2015-06-09T12:17:39Z</time>
      </trkpt>
      <trkpt lat="45.84917" lon="4.50313">
        <ele>467</ele>
        <time>2015-06-09T12:17:41Z</time>
      </trkpt>
      <trkpt lat="45.84911" lon="4.50316">
        <ele>468</ele>
        <time>2015-06-09T12:17:43Z</time>
      </trkpt>
      <trkpt lat="45.84905" lon="4.50319">
        <ele>468</ele>
        <time>2015-06-09T12:17:45Z</time>
      </trkpt>
      <trkpt lat="45.84899" lon="4.50322">
        <ele>469</ele>
        <time>2015-06-09T12:17:47Z</time>
      </trkpt>
      <trkpt lat="45.84893" lon="4.50325">
        <ele>469</ele>
        <time>2015-06-09T12:17:49Z</time>
      </trkpt>
      <trkpt lat="45.84885" lon="4.50328">
        <ele>470</ele>
        <time>2015-06-09T12:17:51Z</time>
      </trkpt>
      <trkpt lat="45.84876" lon="4.50335">
        <ele>470</ele>
        <time>2015-06-09T12:17:52Z</time>
      </trkpt>
      <trkpt lat="45.84872" lon="4.5034">
        <ele>470</ele>
        <time>2015-06-09T12:17:53Z</time>
      </trkpt>
      <trkpt lat="45.84869" lon="4.50345">
        <ele>470</ele>
        <time>2015-06-09T12:17:54Z</time>
      </trkpt>
      <trkpt lat="45.84867" lon="4.50352">
        <ele>470</ele>
        <time>2015-06-09T12:17:56Z</time>
      </trkpt>
      <trkpt lat="45.84865" lon="4.50361">
        <ele>469</ele>
        <time>2015-06-09T12:17:58Z</time>
      </trkpt>
      <trkpt lat="45.84863" lon="4.50368">
        <ele>469</ele>
        <time>2015-06-09T12:18:00Z</time>
      </trkpt>
      <trkpt lat="45.84861" lon="4.50374">
        <ele>469</ele>
        <time>2015-06-09T12:18:02Z</time>
      </trkpt>
      <trkpt lat="45.84859" lon="4.50381">
        <ele>469</ele>
        <time>2015-06-09T12:18:05Z</time>
      </trkpt>
      <trkpt lat="45.84858" lon="4.50389">
        <ele>469</ele>
        <time>2015-06-09T12:18:08Z</time>
      </trkpt>
      <trkpt lat="45.84859" lon="4.50397">
        <ele>469</ele>
        <time>2015-06-09T12:18:11Z</time>
      </trkpt>
      <trkpt lat="45.84859" lon="4.50405">
        <ele>470</ele>
        <time>2015-06-09T12:18:14Z</time>
      </trkpt>
      <trkpt lat="45.84858" lon="4.50413">
        <ele>470</ele>
        <time>2015-06-09T12:18:17Z</time>
      </trkpt>
      <trkpt lat="45.84856" lon="4.50422">
        <ele>470</ele>
        <time>2015-06-09T12:18:20Z</time>
      </trkpt>
      <trkpt lat="45.84855" lon="4.50429">
        <ele>470</ele>
        <time>2015-06-09T12:18:23Z</time>
      </trkpt>
      <trkpt lat="45.84853" lon="4.50438">
        <ele>471</ele>
        <time>2015-06-09T12:18:26Z</time>
      </trkpt>
      <trkpt lat="45.84853" lon="4.50445">
        <ele>471</ele>
        <time>2015-06-09T12:18:29Z</time>
      </trkpt>
      <trkpt lat="45.84852" lon="4.50455">
        <ele>472</ele>
        <time>2015-06-09T12:18:32Z</time>
      </trkpt>
      <trkpt lat="45.84852" lon="4.50463">
        <ele>473</ele>
        <time>2015-06-09T12:18:35Z</time>
      </trkpt>
      <trkpt lat="45.84852" lon="4.5047">
        <ele>474</ele>
        <time>2015-06-09T12:18:38Z</time>
      </trkpt>
      <trkpt lat="45.84851" lon="4.50477">
        <ele>474</ele>
        <time>2015-06-09T12:18:41Z</time>
      </trkpt>
      <trkpt lat="45.8485" lon="4.50483">
        <ele>475</ele>
        <time>2015-06-09T12:18:44Z</time>
      </trkpt>
      <trkpt lat="45.8485" lon="4.50491">
        <ele>475</ele>
        <time>2015-06-09T12:18:48Z</time>
      </trkpt>
      <trkpt lat="45.84849" lon="4.50498">
        <ele>476</ele>
        <time>2015-06-09T12:18:51Z</time>
      </trkpt>
      <trkpt lat="45.84848" lon="4.50504">
        <ele>477</ele>
        <time>2015-06-09T12:18:54Z</time>
      </trkpt>
      <trkpt lat="45.84845" lon="4.50509">
        <ele>478</ele>
        <time>2015-06-09T12:18:57Z</time>
      </trkpt>
      <trkpt lat="45.84842" lon="4.50514">
        <ele>479</ele>
        <time>2015-06-09T12:19:00Z</time>
      </trkpt>
      <trkpt lat="45.84839" lon="4.5052">
        <ele>480</ele>
        <time>2015-06-09T12:19:04Z</time>
      </trkpt>
      <trkpt lat="45.84836" lon="4.50526">
        <ele>481</ele>
        <time>2015-06-09T12:19:08Z</time>
      </trkpt>
      <trkpt lat="45.84834" lon="4.50534">
        <ele>483</ele>
        <time>2015-06-09T12:19:12Z</time>
      </trkpt>
      <trkpt lat="45.84833" lon="4.50542">
        <ele>484</ele>
        <time>2015-06-09T12:19:16Z</time>
      </trkpt>
      <trkpt lat="45.84832" lon="4.5055">
        <ele>485</ele>
        <time>2015-06-09T12:19:20Z</time>
      </trkpt>
      <trkpt lat="45.84831" lon="4.50558">
        <ele>486</ele>
        <time>2015-06-09T12:19:24Z</time>
      </trkpt>
      <trkpt lat="45.8483" lon="4.50565">
        <ele>487</ele>
        <time>2015-06-09T12:19:28Z</time>
      </trkpt>
      <trkpt lat="45.84829" lon="4.50573">
        <ele>488</ele>
        <time>2015-06-09T12:19:32Z</time>
      </trkpt>
      <trkpt lat="45.84827" lon="4.50579">
        <ele>490</ele>
        <time>2015-06-09T12:19:36Z</time>
      </trkpt>
      <trkpt lat="45.84826" lon="4.50586">
        <ele>491</ele>
        <time>2015-06-09T12:19:41Z</time>
      </trkpt>
      <trkpt lat="45.84825" lon="4.50593">
        <ele>493</ele>
        <time>2015-06-09T12:19:47Z</time>
      </trkpt>
      <trkpt lat="45.84824" lon="4.50599">
        <ele>494</ele>
        <time>2015-06-09T12:19:53Z</time>
      </trkpt>
      <trkpt lat="45.84824" lon="4.50606">
        <ele>495</ele>
        <time>2015-06-09T12:19:57Z</time>
      </trkpt>
      <trkpt lat="45.84824" lon="4.50613">
        <ele>496</ele>
        <time>2015-06-09T12:20:01Z</time>
      </trkpt>
      <trkpt lat="45.84824" lon="4.50621">
        <ele>498</ele>
        <time>2015-06-09T12:20:06Z</time>
      </trkpt>
      <trkpt lat="45.84826" lon="4.50627">
        <ele>498</ele>
        <time>2015-06-09T12:20:10Z</time>
      </trkpt>
      <trkpt lat="45.84827" lon="4.50636">
        <ele>500</ele>
        <time>2015-06-09T12:20:14Z</time>
      </trkpt>
      <trkpt lat="45.84827" lon="4.50643">
        <ele>501</ele>
        <time>2015-06-09T12:20:17Z</time>
      </trkpt>
      <trkpt lat="45.84829" lon="4.5065">
        <ele>502</ele>
        <time>2015-06-09T12:20:21Z</time>
      </trkpt>
      <trkpt lat="45.84832" lon="4.50658">
        <ele>503</ele>
        <time>2015-06-09T12:20:25Z</time>
      </trkpt>
      <trkpt lat="45.84836" lon="4.50662">
        <ele>504</ele>
        <time>2015-06-09T12:20:29Z</time>
      </trkpt>
      <trkpt lat="45.84841" lon="4.50665">
        <ele>503</ele>
        <time>2015-06-09T12:20:34Z</time>
      </trkpt>
      <trkpt lat="45.84845" lon="4.50669">
        <ele>504</ele>
        <time>2015-06-09T12:20:38Z</time>
      </trkpt>
      <trkpt lat="45.84851" lon="4.50671">
        <ele>504</ele>
        <time>2015-06-09T12:20:42Z</time>
      </trkpt>
      <trkpt lat="45.84856" lon="4.5067">
        <ele>503</ele>
        <time>2015-06-09T12:20:46Z</time>
      </trkpt>
      <trkpt lat="45.84862" lon="4.5067">
        <ele>502</ele>
        <time>2015-06-09T12:20:50Z</time>
      </trkpt>
      <trkpt lat="45.84867" lon="4.50672">
        <ele>502</ele>
        <time>2015-06-09T12:20:54Z</time>
      </trkpt>
      <trkpt lat="45.84872" lon="4.50671">
        <ele>501</ele>
        <time>2015-06-09T12:20:58Z</time>
      </trkpt>
      <trkpt lat="45.84878" lon="4.50672">
        <ele>501</ele>
        <time>2015-06-09T12:21:02Z</time>
      </trkpt>
      <trkpt lat="45.84883" lon="4.50672">
        <ele>501</ele>
        <time>2015-06-09T12:21:05Z</time>
      </trkpt>
      <trkpt lat="45.84888" lon="4.50673">
        <ele>501</ele>
        <time>2015-06-09T12:21:08Z</time>
      </trkpt>
      <trkpt lat="45.84892" lon="4.50675">
        <ele>501</ele>
        <time>2015-06-09T12:21:11Z</time>
      </trkpt>
      <trkpt lat="45.84897" lon="4.50677">
        <ele>502</ele>
        <time>2015-06-09T12:21:14Z</time>
      </trkpt>
      <trkpt lat="45.84903" lon="4.50678">
        <ele>502</ele>
        <time>2015-06-09T12:21:18Z</time>
      </trkpt>
      <trkpt lat="45.84908" lon="4.50679">
        <ele>502</ele>
        <time>2015-06-09T12:21:22Z</time>
      </trkpt>
      <trkpt lat="45.84913" lon="4.50681">
        <ele>502</ele>
        <time>2015-06-09T12:21:26Z</time>
      </trkpt>
      <trkpt lat="45.84919" lon="4.50683">
        <ele>503</ele>
        <time>2015-06-09T12:21:30Z</time>
      </trkpt>
      <trkpt lat="45.84923" lon="4.50685">
        <ele>503</ele>
        <time>2015-06-09T12:21:33Z</time>
      </trkpt>
      <trkpt lat="45.84929" lon="4.50687">
        <ele>503</ele>
        <time>2015-06-09T12:21:37Z</time>
      </trkpt>
      <trkpt lat="45.84934" lon="4.50689">
        <ele>504</ele>
        <time>2015-06-09T12:21:40Z</time>
      </trkpt>
      <trkpt lat="45.84939" lon="4.50692">
        <ele>505</ele>
        <time>2015-06-09T12:21:43Z</time>
      </trkpt>
      <trkpt lat="45.84944" lon="4.50695">
        <ele>505</ele>
        <time>2015-06-09T12:21:46Z</time>
      </trkpt>
      <trkpt lat="45.84948" lon="4.50698">
        <ele>506</ele>
        <time>2015-06-09T12:21:50Z</time>
      </trkpt>
      <trkpt lat="45.84953" lon="4.50701">
        <ele>506</ele>
        <time>2015-06-09T12:21:53Z</time>
      </trkpt>
      <trkpt lat="45.84958" lon="4.50703">
        <ele>506</ele>
        <time>2015-06-09T12:21:56Z</time>
      </trkpt>
      <trkpt lat="45.84962" lon="4.50706">
        <ele>507</ele>
        <time>2015-06-09T12:21:59Z</time>
      </trkpt>
      <trkpt lat="45.84966" lon="4.50707">
        <ele>507</ele>
        <time>2015-06-09T12:22:02Z</time>
      </trkpt>
      <trkpt lat="45.84971" lon="4.50709">
        <ele>507</ele>
        <time>2015-06-09T12:22:05Z</time>
      </trkpt>
      <trkpt lat="45.84975" lon="4.50712">
        <ele>508</ele>
        <time>2015-06-09T12:22:08Z</time>
      </trkpt>
      <trkpt lat="45.8498" lon="4.50714">
        <ele>508</ele>
        <time>2015-06-09T12:22:11Z</time>
      </trkpt>
      <trkpt lat="45.84985" lon="4.50717">
        <ele>508</ele>
        <time>2015-06-09T12:22:14Z</time>
      </trkpt>
      <trkpt lat="45.8499" lon="4.50719">
        <ele>508</ele>
        <time>2015-06-09T12:22:17Z</time>
      </trkpt>
      <trkpt lat="45.84995" lon="4.50721">
        <ele>508</ele>
        <time>2015-06-09T12:22:20Z</time>
      </trkpt>
      <trkpt lat="45.85" lon="4.50724">
        <ele>509</ele>
        <time>2015-06-09T12:22:23Z</time>
      </trkpt>
      <trkpt lat="45.85004" lon="4.50726">
        <ele>509</ele>
        <time>2015-06-09T12:22:26Z</time>
      </trkpt>
      <trkpt lat="45.85009" lon="4.50729">
        <ele>509</ele>
        <time>2015-06-09T12:22:29Z</time>
      </trkpt>
      <trkpt lat="45.85014" lon="4.50732">
        <ele>509</ele>
        <time>2015-06-09T12:22:32Z</time>
      </trkpt>
      <trkpt lat="45.85019" lon="4.50734">
        <ele>509</ele>
        <time>2015-06-09T12:22:35Z</time>
      </trkpt>
      <trkpt lat="45.85024" lon="4.50737">
        <ele>510</ele>
        <time>2015-06-09T12:22:38Z</time>
      </trkpt>
      <trkpt lat="45.85029" lon="4.50739">
        <ele>510</ele>
        <time>2015-06-09T12:22:41Z</time>
      </trkpt>
      <trkpt lat="45.85033" lon="4.50742">
        <ele>510</ele>
        <time>2015-06-09T12:22:44Z</time>
      </trkpt>
      <trkpt lat="45.85038" lon="4.50744">
        <ele>510</ele>
        <time>2015-06-09T12:22:47Z</time>
      </trkpt>
      <trkpt lat="45.85044" lon="4.50746">
        <ele>510</ele>
        <time>2015-06-09T12:22:50Z</time>
      </trkpt>
      <trkpt lat="45.8505" lon="4.50749">
        <ele>510</ele>
        <time>2015-06-09T12:22:53Z</time>
      </trkpt>
      <trkpt lat="45.85054" lon="4.50751">
        <ele>510</ele>
        <time>2015-06-09T12:22:55Z</time>
      </trkpt>
      <trkpt lat="45.85059" lon="4.50753">
        <ele>510</ele>
        <time>2015-06-09T12:22:57Z</time>
      </trkpt>
      <trkpt lat="45.85064" lon="4.50755">
        <ele>509</ele>
        <time>2015-06-09T12:22:59Z</time>
      </trkpt>
      <trkpt lat="45.85069" lon="4.50757">
        <ele>509</ele>
        <time>2015-06-09T12:23:01Z</time>
      </trkpt>
      <trkpt lat="45.85074" lon="4.50759">
        <ele>509</ele>
        <time>2015-06-09T12:23:03Z</time>
      </trkpt>
      <trkpt lat="45.85078" lon="4.50761">
        <ele>509</ele>
        <time>2015-06-09T12:23:05Z</time>
      </trkpt>
      <trkpt lat="45.85083" lon="4.50763">
        <ele>509</ele>
        <time>2015-06-09T12:23:07Z</time>
      </trkpt>
      <trkpt lat="45.8509" lon="4.50766">
        <ele>509</ele>
        <time>2015-06-09T12:23:09Z</time>
      </trkpt>
      <trkpt lat="45.85095" lon="4.50769">
        <ele>509</ele>
        <time>2015-06-09T12:23:11Z</time>
      </trkpt>
      <trkpt lat="45.851" lon="4.50773">
        <ele>509</ele>
        <time>2015-06-09T12:23:13Z</time>
      </trkpt>
      <trkpt lat="45.85104" lon="4.50779">
        <ele>510</ele>
        <time>2015-06-09T12:23:16Z</time>
      </trkpt>
      <trkpt lat="45.85108" lon="4.50784">
        <ele>510</ele>
        <time>2015-06-09T12:23:18Z</time>
      </trkpt>
      <trkpt lat="45.85112" lon="4.50788">
        <ele>510</ele>
        <time>2015-06-09T12:23:20Z</time>
      </trkpt>
      <trkpt lat="45.85117" lon="4.50792">
        <ele>509</ele>
        <time>2015-06-09T12:23:22Z</time>
      </trkpt>
      <trkpt lat="45.85121" lon="4.50797">
        <ele>509</ele>
        <time>2015-06-09T12:23:24Z</time>
      </trkpt>
      <trkpt lat="45.85124" lon="4.50802">
        <ele>509</ele>
        <time>2015-06-09T12:23:26Z</time>
      </trkpt>
      <trkpt lat="45.85125" lon="4.50806">
        <ele>510</ele>
        <time>2015-06-09T12:23:45Z</time>
      </trkpt>
      <trkpt lat="45.85125" lon="4.50806">
        <ele>510</ele>
        <time>2015-06-09T12:24:00Z</time>
      </trkpt>
      <trkpt lat="45.85128" lon="4.50808">
        <ele>509</ele>
        <time>2015-06-09T12:24:03Z</time>
      </trkpt>
      <trkpt lat="45.85133" lon="4.50813">
        <ele>509</ele>
        <time>2015-06-09T12:24:06Z</time>
      </trkpt>
      <trkpt lat="45.85136" lon="4.50817">
        <ele>509</ele>
        <time>2015-06-09T12:24:08Z</time>
      </trkpt>
      <trkpt lat="45.8514" lon="4.50821">
        <ele>509</ele>
        <time>2015-06-09T12:24:10Z</time>
      </trkpt>
      <trkpt lat="45.85144" lon="4.50825">
        <ele>509</ele>
        <time>2015-06-09T12:24:12Z</time>
      </trkpt>
      <trkpt lat="45.85148" lon="4.50826">
        <ele>509</ele>
        <time>2015-06-09T12:24:32Z</time>
      </trkpt>
      <trkpt lat="45.85148" lon="4.50826">
        <ele>509</ele>
        <time>2015-06-09T12:24:38Z</time>
      </trkpt>
      <trkpt lat="45.85148" lon="4.50827">
        <ele>509</ele>
        <time>2015-06-09T12:25:04Z</time>
      </trkpt>
      <trkpt lat="45.85148" lon="4.50826">
        <ele>509</ele>
        <time>2015-06-09T12:25:19Z</time>
      </trkpt>
      <trkpt lat="45.85095" lon="4.50854">
        <ele>518</ele>
        <time>2015-06-09T12:26:23Z</time>
      </trkpt>
      <trkpt lat="45.85091" lon="4.50857">
        <ele>519</ele>
        <time>2015-06-09T12:26:28Z</time>
      </trkpt>
      <trkpt lat="45.85086" lon="4.50859">
        <ele>520</ele>
        <time>2015-06-09T12:26:40Z</time>
      </trkpt>
      <trkpt lat="45.85082" lon="4.50863">
        <ele>521</ele>
        <time>2015-06-09T12:26:45Z</time>
      </trkpt>
      <trkpt lat="45.85077" lon="4.50866">
        <ele>522</ele>
        <time>2015-06-09T12:26:50Z</time>
      </trkpt>
      <trkpt lat="45.85073" lon="4.50867">
        <ele>523</ele>
        <time>2015-06-09T12:26:54Z</time>
      </trkpt>
      <trkpt lat="45.85069" lon="4.50869">
        <ele>524</ele>
        <time>2015-06-09T12:26:58Z</time>
      </trkpt>
      <trkpt lat="45.85064" lon="4.5087">
        <ele>525</ele>
        <time>2015-06-09T12:27:04Z</time>
      </trkpt>
      <trkpt lat="45.8506" lon="4.50874">
        <ele>526</ele>
        <time>2015-06-09T12:27:10Z</time>
      </trkpt>
      <trkpt lat="45.85056" lon="4.50877">
        <ele>528</ele>
        <time>2015-06-09T12:27:16Z</time>
      </trkpt>
      <trkpt lat="45.85051" lon="4.50881">
        <ele>529</ele>
        <time>2015-06-09T12:27:23Z</time>
      </trkpt>
      <trkpt lat="45.85047" lon="4.50883">
        <ele>531</ele>
        <time>2015-06-09T12:27:30Z</time>
      </trkpt>
      <trkpt lat="45.85041" lon="4.50884">
        <ele>532</ele>
        <time>2015-06-09T12:27:37Z</time>
      </trkpt>
      <trkpt lat="45.85038" lon="4.50885">
        <ele>533</ele>
        <time>2015-06-09T12:27:57Z</time>
      </trkpt>
      <trkpt lat="45.85037" lon="4.50886">
        <ele>534</ele>
        <time>2015-06-09T12:28:01Z</time>
      </trkpt>
      <trkpt lat="45.85033" lon="4.50889">
        <ele>535</ele>
        <time>2015-06-09T12:28:06Z</time>
      </trkpt>
      <trkpt lat="45.85029" lon="4.50893">
        <ele>537</ele>
        <time>2015-06-09T12:28:16Z</time>
      </trkpt>
      <trkpt lat="45.85026" lon="4.50899">
        <ele>538</ele>
        <time>2015-06-09T12:28:24Z</time>
      </trkpt>
      <trkpt lat="45.85021" lon="4.50898">
        <ele>540</ele>
        <time>2015-06-09T12:28:29Z</time>
      </trkpt>
      <trkpt lat="45.85016" lon="4.509">
        <ele>542</ele>
        <time>2015-06-09T12:28:36Z</time>
      </trkpt>
      <trkpt lat="45.85012" lon="4.50902">
        <ele>543</ele>
        <time>2015-06-09T12:28:59Z</time>
      </trkpt>
      <trkpt lat="45.85012" lon="4.50903">
        <ele>543</ele>
        <time>2015-06-09T12:29:03Z</time>
      </trkpt>
      <trkpt lat="45.85007" lon="4.50907">
        <ele>545</ele>
        <time>2015-06-09T12:29:06Z</time>
      </trkpt>
      <trkpt lat="45.85003" lon="4.50912">
        <ele>547</ele>
        <time>2015-06-09T12:29:09Z</time>
      </trkpt>
      <trkpt lat="45.84999" lon="4.50913">
        <ele>548</ele>
        <time>2015-06-09T12:29:12Z</time>
      </trkpt>
      <trkpt lat="45.84994" lon="4.50915">
        <ele>549</ele>
        <time>2015-06-09T12:29:15Z</time>
      </trkpt>
      <trkpt lat="45.84989" lon="4.50915">
        <ele>549</ele>
        <time>2015-06-09T12:29:21Z</time>
      </trkpt>
      <trkpt lat="45.84983" lon="4.50915">
        <ele>550</ele>
        <time>2015-06-09T12:29:35Z</time>
      </trkpt>
      <trkpt lat="45.84979" lon="4.50917">
        <ele>551</ele>
        <time>2015-06-09T12:29:42Z</time>
      </trkpt>
      <trkpt lat="45.84975" lon="4.5092">
        <ele>552</ele>
        <time>2015-06-09T12:29:46Z</time>
      </trkpt>
      <trkpt lat="45.8497" lon="4.50924">
        <ele>553</ele>
        <time>2015-06-09T12:29:53Z</time>
      </trkpt>
      <trkpt lat="45.84964" lon="4.50929">
        <ele>553</ele>
        <time>2015-06-09T12:29:57Z</time>
      </trkpt>
      <trkpt lat="45.8496" lon="4.50932">
        <ele>554</ele>
        <time>2015-06-09T12:30:04Z</time>
      </trkpt>
      <trkpt lat="45.84956" lon="4.50936">
        <ele>554</ele>
        <time>2015-06-09T12:30:09Z</time>
      </trkpt>
      <trkpt lat="45.84951" lon="4.50934">
        <ele>555</ele>
        <time>2015-06-09T12:30:19Z</time>
      </trkpt>
      <trkpt lat="45.84946" lon="4.50935">
        <ele>556</ele>
        <time>2015-06-09T12:30:27Z</time>
      </trkpt>
      <trkpt lat="45.84941" lon="4.50938">
        <ele>557</ele>
        <time>2015-06-09T12:30:36Z</time>
      </trkpt>
      <trkpt lat="45.84936" lon="4.5094">
        <ele>557</ele>
        <time>2015-06-09T12:30:39Z</time>
      </trkpt>
      <trkpt lat="45.8493" lon="4.50943">
        <ele>558</ele>
        <time>2015-06-09T12:30:42Z</time>
      </trkpt>
      <trkpt lat="45.84924" lon="4.50947">
        <ele>558</ele>
        <time>2015-06-09T12:30:45Z</time>
      </trkpt>
      <trkpt lat="45.84919" lon="4.5095">
        <ele>558</ele>
        <time>2015-06-09T12:30:51Z</time>
      </trkpt>
      <trkpt lat="45.84914" lon="4.50951">
        <ele>559</ele>
        <time>2015-06-09T12:31:00Z</time>
      </trkpt>
      <trkpt lat="45.8491" lon="4.50951">
        <ele>559</ele>
        <time>2015-06-09T12:31:03Z</time>
      </trkpt>
      <trkpt lat="45.84903" lon="4.50952">
        <ele>560</ele>
        <time>2015-06-09T12:31:05Z</time>
      </trkpt>
      <trkpt lat="45.84898" lon="4.50953">
        <ele>561</ele>
        <time>2015-06-09T12:31:08Z</time>
      </trkpt>
      <trkpt lat="45.84894" lon="4.50954">
        <ele>561</ele>
        <time>2015-06-09T12:31:13Z</time>
      </trkpt>
      <trkpt lat="45.84886" lon="4.50956">
        <ele>562</ele>
        <time>2015-06-09T12:31:17Z</time>
      </trkpt>
      <trkpt lat="45.84881" lon="4.50958">
        <ele>562</ele>
        <time>2015-06-09T12:31:20Z</time>
      </trkpt>
      <trkpt lat="45.84879" lon="4.50964">
        <ele>563</ele>
        <time>2015-06-09T12:31:25Z</time>
      </trkpt>
      <trkpt lat="45.84876" lon="4.5097">
        <ele>564</ele>
        <time>2015-06-09T12:31:32Z</time>
      </trkpt>
      <trkpt lat="45.84871" lon="4.50972">
        <ele>564</ele>
        <time>2015-06-09T12:31:38Z</time>
      </trkpt>
      <trkpt lat="45.84866" lon="4.50975">
        <ele>565</ele>
        <time>2015-06-09T12:31:44Z</time>
      </trkpt>
      <trkpt lat="45.84862" lon="4.50979">
        <ele>566</ele>
        <time>2015-06-09T12:31:49Z</time>
      </trkpt>
      <trkpt lat="45.84858" lon="4.50981">
        <ele>566</ele>
        <time>2015-06-09T12:31:57Z</time>
      </trkpt>
      <trkpt lat="45.84852" lon="4.50982">
        <ele>567</ele>
        <time>2015-06-09T12:32:02Z</time>
      </trkpt>
      <trkpt lat="45.84848" lon="4.50984">
        <ele>568</ele>
        <time>2015-06-09T12:32:08Z</time>
      </trkpt>
      <trkpt lat="45.84842" lon="4.50985">
        <ele>569</ele>
        <time>2015-06-09T12:32:12Z</time>
      </trkpt>
      <trkpt lat="45.84838" lon="4.50986">
        <ele>569</ele>
        <time>2015-06-09T12:32:15Z</time>
      </trkpt>
      <trkpt lat="45.84833" lon="4.50989">
        <ele>570</ele>
        <time>2015-06-09T12:32:19Z</time>
      </trkpt>
      <trkpt lat="45.84829" lon="4.50995">
        <ele>571</ele>
        <time>2015-06-09T12:32:24Z</time>
      </trkpt>
      <trkpt lat="45.84826" lon="4.51">
        <ele>571</ele>
        <time>2015-06-09T12:32:29Z</time>
      </trkpt>
      <trkpt lat="45.84821" lon="4.51004">
        <ele>572</ele>
        <time>2015-06-09T12:32:34Z</time>
      </trkpt>
      <trkpt lat="45.84818" lon="4.51008">
        <ele>572</ele>
        <time>2015-06-09T12:32:38Z</time>
      </trkpt>
      <trkpt lat="45.84814" lon="4.51012">
        <ele>573</ele>
        <time>2015-06-09T12:32:43Z</time>
      </trkpt>
      <trkpt lat="45.84809" lon="4.51018">
        <ele>574</ele>
        <time>2015-06-09T12:32:49Z</time>
      </trkpt>
      <trkpt lat="45.84805" lon="4.51024">
        <ele>575</ele>
        <time>2015-06-09T12:32:57Z</time>
      </trkpt>
      <trkpt lat="45.84802" lon="4.51029">
        <ele>575</ele>
        <time>2015-06-09T12:33:01Z</time>
      </trkpt>
      <trkpt lat="45.84799" lon="4.51036">
        <ele>576</ele>
        <time>2015-06-09T12:33:06Z</time>
      </trkpt>
      <trkpt lat="45.84795" lon="4.51041">
        <ele>577</ele>
        <time>2015-06-09T12:33:11Z</time>
      </trkpt>
      <trkpt lat="45.8479" lon="4.51045">
        <ele>579</ele>
        <time>2015-06-09T12:33:16Z</time>
      </trkpt>
      <trkpt lat="45.84788" lon="4.51052">
        <ele>580</ele>
        <time>2015-06-09T12:33:21Z</time>
      </trkpt>
      <trkpt lat="45.84785" lon="4.51057">
        <ele>581</ele>
        <time>2015-06-09T12:33:27Z</time>
      </trkpt>
      <trkpt lat="45.84781" lon="4.51061">
        <ele>582</ele>
        <time>2015-06-09T12:33:36Z</time>
      </trkpt>
      <trkpt lat="45.84777" lon="4.51065">
        <ele>583</ele>
        <time>2015-06-09T12:33:42Z</time>
      </trkpt>
      <trkpt lat="45.84772" lon="4.51067">
        <ele>584</ele>
        <time>2015-06-09T12:33:46Z</time>
      </trkpt>
      <trkpt lat="45.84768" lon="4.51071">
        <ele>585</ele>
        <time>2015-06-09T12:33:55Z</time>
      </trkpt>
      <trkpt lat="45.84763" lon="4.51069">
        <ele>586</ele>
        <time>2015-06-09T12:34:01Z</time>
      </trkpt>
      <trkpt lat="45.84759" lon="4.51067">
        <ele>588</ele>
        <time>2015-06-09T12:34:06Z</time>
      </trkpt>
      <trkpt lat="45.84754" lon="4.51065">
        <ele>589</ele>
        <time>2015-06-09T12:34:10Z</time>
      </trkpt>
      <trkpt lat="45.84749" lon="4.51065">
        <ele>590</ele>
        <time>2015-06-09T12:34:15Z</time>
      </trkpt>
      <trkpt lat="45.84744" lon="4.51064">
        <ele>592</ele>
        <time>2015-06-09T12:34:21Z</time>
      </trkpt>
      <trkpt lat="45.8474" lon="4.5106">
        <ele>593</ele>
        <time>2015-06-09T12:34:29Z</time>
      </trkpt>
      <trkpt lat="45.84736" lon="4.51056">
        <ele>593</ele>
        <time>2015-06-09T12:34:38Z</time>
      </trkpt>
      <trkpt lat="45.84736" lon="4.51058">
        <ele>594</ele>
        <time>2015-06-09T12:35:02Z</time>
      </trkpt>
      <trkpt lat="45.84735" lon="4.51058">
        <ele>594</ele>
        <time>2015-06-09T12:35:18Z</time>
      </trkpt>
      <trkpt lat="45.84735" lon="4.51057">
        <ele>594</ele>
        <time>2015-06-09T12:35:34Z</time>
      </trkpt>
      <trkpt lat="45.84725" lon="4.51049">
        <ele>595</ele>
        <time>2015-06-09T12:36:32Z</time>
      </trkpt>
      <trkpt lat="45.84719" lon="4.51045">
        <ele>595</ele>
        <time>2015-06-09T12:36:34Z</time>
      </trkpt>
      <trkpt lat="45.84714" lon="4.51041">
        <ele>595</ele>
        <time>2015-06-09T12:36:36Z</time>
      </trkpt>
      <trkpt lat="45.84708" lon="4.51038">
        <ele>596</ele>
        <time>2015-06-09T12:36:38Z</time>
      </trkpt>
      <trkpt lat="45.84703" lon="4.51037">
        <ele>597</ele>
        <time>2015-06-09T12:36:40Z</time>
      </trkpt>
      <trkpt lat="45.84697" lon="4.51036">
        <ele>598</ele>
        <time>2015-06-09T12:36:42Z</time>
      </trkpt>
      <trkpt lat="45.84692" lon="4.51034">
        <ele>599</ele>
        <time>2015-06-09T12:36:44Z</time>
      </trkpt>
      <trkpt lat="45.84687" lon="4.51033">
        <ele>599</ele>
        <time>2015-06-09T12:36:46Z</time>
      </trkpt>
      <trkpt lat="45.84683" lon="4.51031">
        <ele>600</ele>
        <time>2015-06-09T12:36:48Z</time>
      </trkpt>
      <trkpt lat="45.84678" lon="4.51029">
        <ele>600</ele>
        <time>2015-06-09T12:36:50Z</time>
      </trkpt>
      <trkpt lat="45.84673" lon="4.51028">
        <ele>601</ele>
        <time>2015-06-09T12:36:52Z</time>
      </trkpt>
      <trkpt lat="45.84668" lon="4.51029">
        <ele>602</ele>
        <time>2015-06-09T12:36:54Z</time>
      </trkpt>
      <trkpt lat="45.84662" lon="4.51028">
        <ele>603</ele>
        <time>2015-06-09T12:36:57Z</time>
      </trkpt>
      <trkpt lat="45.84657" lon="4.51027">
        <ele>604</ele>
        <time>2015-06-09T12:37:00Z</time>
      </trkpt>
      <trkpt lat="45.84653" lon="4.51025">
        <ele>605</ele>
        <time>2015-06-09T12:37:03Z</time>
      </trkpt>
      <trkpt lat="45.84649" lon="4.51021">
        <ele>605</ele>
        <time>2015-06-09T12:37:06Z</time>
      </trkpt>
      <trkpt lat="45.84644" lon="4.51017">
        <ele>605</ele>
        <time>2015-06-09T12:37:09Z</time>
      </trkpt>
      <trkpt lat="45.84641" lon="4.51011">
        <ele>604</ele>
        <time>2015-06-09T12:37:12Z</time>
      </trkpt>
      <trkpt lat="45.84636" lon="4.51006">
        <ele>604</ele>
        <time>2015-06-09T12:37:15Z</time>
      </trkpt>
      <trkpt lat="45.8463" lon="4.51003">
        <ele>605</ele>
        <time>2015-06-09T12:37:18Z</time>
      </trkpt>
      <trkpt lat="45.84626" lon="4.50998">
        <ele>605</ele>
        <time>2015-06-09T12:37:21Z</time>
      </trkpt>
      <trkpt lat="45.84622" lon="4.50992">
        <ele>604</ele>
        <time>2015-06-09T12:37:24Z</time>
      </trkpt>
      <trkpt lat="45.84616" lon="4.50985">
        <ele>604</ele>
        <time>2015-06-09T12:37:27Z</time>
      </trkpt>
      <trkpt lat="45.84612" lon="4.5098">
        <ele>604</ele>
        <time>2015-06-09T12:37:29Z</time>
      </trkpt>
      <trkpt lat="45.84604" lon="4.50975">
        <ele>605</ele>
        <time>2015-06-09T12:37:31Z</time>
      </trkpt>
      <trkpt lat="45.84599" lon="4.50974">
        <ele>606</ele>
        <time>2015-06-09T12:37:32Z</time>
      </trkpt>
      <trkpt lat="45.84595" lon="4.50972">
        <ele>607</ele>
        <time>2015-06-09T12:37:33Z</time>
      </trkpt>
      <trkpt lat="45.84589" lon="4.50969">
        <ele>607</ele>
        <time>2015-06-09T12:37:34Z</time>
      </trkpt>
      <trkpt lat="45.84583" lon="4.50967">
        <ele>607</ele>
        <time>2015-06-09T12:37:36Z</time>
      </trkpt>
      <trkpt lat="45.84577" lon="4.50964">
        <ele>607</ele>
        <time>2015-06-09T12:37:38Z</time>
      </trkpt>
      <trkpt lat="45.84571" lon="4.50961">
        <ele>608</ele>
        <time>2015-06-09T12:37:40Z</time>
      </trkpt>
      <trkpt lat="45.84563" lon="4.50959">
        <ele>609</ele>
        <time>2015-06-09T12:37:42Z</time>
      </trkpt>
      <trkpt lat="45.84557" lon="4.50956">
        <ele>609</ele>
        <time>2015-06-09T12:37:44Z</time>
      </trkpt>
      <trkpt lat="45.84552" lon="4.50956">
        <ele>610</ele>
        <time>2015-06-09T12:37:46Z</time>
      </trkpt>
      <trkpt lat="45.84545" lon="4.50954">
        <ele>611</ele>
        <time>2015-06-09T12:37:49Z</time>
      </trkpt>
      <trkpt lat="45.84541" lon="4.5095">
        <ele>611</ele>
        <time>2015-06-09T12:37:51Z</time>
      </trkpt>
      <trkpt lat="45.84536" lon="4.50947">
        <ele>611</ele>
        <time>2015-06-09T12:37:53Z</time>
      </trkpt>
      <trkpt lat="45.84531" lon="4.50943">
        <ele>612</ele>
        <time>2015-06-09T12:37:55Z</time>
      </trkpt>
      <trkpt lat="45.84526" lon="4.50938">
        <ele>612</ele>
        <time>2015-06-09T12:37:57Z</time>
      </trkpt>
      <trkpt lat="45.84522" lon="4.50935">
        <ele>612</ele>
        <time>2015-06-09T12:37:59Z</time>
      </trkpt>
      <trkpt lat="45.84518" lon="4.50929">
        <ele>611</ele>
        <time>2015-06-09T12:38:02Z</time>
      </trkpt>
      <trkpt lat="45.84513" lon="4.50925">
        <ele>611</ele>
        <time>2015-06-09T12:38:05Z</time>
      </trkpt>
      <trkpt lat="45.84509" lon="4.50923">
        <ele>612</ele>
        <time>2015-06-09T12:38:09Z</time>
      </trkpt>
      <trkpt lat="45.84504" lon="4.50918">
        <ele>612</ele>
        <time>2015-06-09T12:38:13Z</time>
      </trkpt>
      <trkpt lat="45.84501" lon="4.50911">
        <ele>612</ele>
        <time>2015-06-09T12:38:16Z</time>
      </trkpt>
      <trkpt lat="45.84498" lon="4.50903">
        <ele>612</ele>
        <time>2015-06-09T12:38:19Z</time>
      </trkpt>
      <trkpt lat="45.84493" lon="4.50896">
        <ele>611</ele>
        <time>2015-06-09T12:38:22Z</time>
      </trkpt>
      <trkpt lat="45.84488" lon="4.50892">
        <ele>612</ele>
        <time>2015-06-09T12:38:25Z</time>
      </trkpt>
      <trkpt lat="45.84481" lon="4.50889">
        <ele>612</ele>
        <time>2015-06-09T12:38:28Z</time>
      </trkpt>
      <trkpt lat="45.84477" lon="4.50887">
        <ele>612</ele>
        <time>2015-06-09T12:38:30Z</time>
      </trkpt>
      <trkpt lat="45.84472" lon="4.50885">
        <ele>613</ele>
        <time>2015-06-09T12:38:32Z</time>
      </trkpt>
      <trkpt lat="45.84466" lon="4.50883">
        <ele>613</ele>
        <time>2015-06-09T12:38:34Z</time>
      </trkpt>
      <trkpt lat="45.8446" lon="4.50881">
        <ele>613</ele>
        <time>2015-06-09T12:38:36Z</time>
      </trkpt>
      <trkpt lat="45.84453" lon="4.50879">
        <ele>614</ele>
        <time>2015-06-09T12:38:38Z</time>
      </trkpt>
      <trkpt lat="45.84447" lon="4.50878">
        <ele>614</ele>
        <time>2015-06-09T12:38:40Z</time>
      </trkpt>
      <trkpt lat="45.84441" lon="4.50878">
        <ele>614</ele>
        <time>2015-06-09T12:38:42Z</time>
      </trkpt>
      <trkpt lat="45.84435" lon="4.50877">
        <ele>614</ele>
        <time>2015-06-09T12:38:44Z</time>
      </trkpt>
      <trkpt lat="45.84429" lon="4.50877">
        <ele>615</ele>
        <time>2015-06-09T12:38:46Z</time>
      </trkpt>
      <trkpt lat="45.84423" lon="4.50878">
        <ele>615</ele>
        <time>2015-06-09T12:38:48Z</time>
      </trkpt>
      <trkpt lat="45.84418" lon="4.50878">
        <ele>615</ele>
        <time>2015-06-09T12:38:50Z</time>
      </trkpt>
      <trkpt lat="45.84413" lon="4.50878">
        <ele>615</ele>
        <time>2015-06-09T12:38:52Z</time>
      </trkpt>
      <trkpt lat="45.84407" lon="4.50878">
        <ele>616</ele>
        <time>2015-06-09T12:38:54Z</time>
      </trkpt>
      <trkpt lat="45.84402" lon="4.50879">
        <ele>616</ele>
        <time>2015-06-09T12:38:56Z</time>
      </trkpt>
      <trkpt lat="45.84396" lon="4.50881">
        <ele>616</ele>
        <time>2015-06-09T12:38:58Z</time>
      </trkpt>
      <trkpt lat="45.84391" lon="4.50883">
        <ele>616</ele>
        <time>2015-06-09T12:39:00Z</time>
      </trkpt>
      <trkpt lat="45.84386" lon="4.50885">
        <ele>616</ele>
        <time>2015-06-09T12:39:02Z</time>
      </trkpt>
      <trkpt lat="45.84381" lon="4.50888">
        <ele>616</ele>
        <time>2015-06-09T12:39:05Z</time>
      </trkpt>
      <trkpt lat="45.84376" lon="4.50892">
        <ele>616</ele>
        <time>2015-06-09T12:39:08Z</time>
      </trkpt>
      <trkpt lat="45.84371" lon="4.50896">
        <ele>616</ele>
        <time>2015-06-09T12:39:11Z</time>
      </trkpt>
      <trkpt lat="45.84366" lon="4.509">
        <ele>616</ele>
        <time>2015-06-09T12:39:14Z</time>
      </trkpt>
      <trkpt lat="45.8436" lon="4.50904">
        <ele>615</ele>
        <time>2015-06-09T12:39:17Z</time>
      </trkpt>
      <trkpt lat="45.84355" lon="4.5091">
        <ele>615</ele>
        <time>2015-06-09T12:39:20Z</time>
      </trkpt>
      <trkpt lat="45.84351" lon="4.50913">
        <ele>615</ele>
        <time>2015-06-09T12:39:23Z</time>
      </trkpt>
      <trkpt lat="45.84346" lon="4.50912">
        <ele>614</ele>
        <time>2015-06-09T12:39:29Z</time>
      </trkpt>
      <trkpt lat="45.84341" lon="4.50909">
        <ele>614</ele>
        <time>2015-06-09T12:39:31Z</time>
      </trkpt>
      <trkpt lat="45.84329" lon="4.50904">
        <ele>614</ele>
        <time>2015-06-09T12:39:33Z</time>
      </trkpt>
      <trkpt lat="45.84324" lon="4.50899">
        <ele>614</ele>
        <time>2015-06-09T12:39:34Z</time>
      </trkpt>
      <trkpt lat="45.84318" lon="4.50895">
        <ele>614</ele>
        <time>2015-06-09T12:39:35Z</time>
      </trkpt>
      <trkpt lat="45.84314" lon="4.50889">
        <ele>613</ele>
        <time>2015-06-09T12:39:36Z</time>
      </trkpt>
      <trkpt lat="45.84309" lon="4.50883">
        <ele>613</ele>
        <time>2015-06-09T12:39:37Z</time>
      </trkpt>
      <trkpt lat="45.84304" lon="4.50877">
        <ele>613</ele>
        <time>2015-06-09T12:39:38Z</time>
      </trkpt>
      <trkpt lat="45.84298" lon="4.50871">
        <ele>612</ele>
        <time>2015-06-09T12:39:39Z</time>
      </trkpt>
      <trkpt lat="45.84292" lon="4.50864">
        <ele>612</ele>
        <time>2015-06-09T12:39:40Z</time>
      </trkpt>
      <trkpt lat="45.84287" lon="4.50858">
        <ele>612</ele>
        <time>2015-06-09T12:39:41Z</time>
      </trkpt>
      <trkpt lat="45.84282" lon="4.50851">
        <ele>612</ele>
        <time>2015-06-09T12:39:42Z</time>
      </trkpt>
      <trkpt lat="45.84276" lon="4.50844">
        <ele>612</ele>
        <time>2015-06-09T12:39:43Z</time>
      </trkpt>
      <trkpt lat="45.8427" lon="4.50836">
        <ele>612</ele>
        <time>2015-06-09T12:39:44Z</time>
      </trkpt>
      <trkpt lat="45.84264" lon="4.50831">
        <ele>612</ele>
        <time>2015-06-09T12:39:45Z</time>
      </trkpt>
      <trkpt lat="45.84258" lon="4.50823">
        <ele>613</ele>
        <time>2015-06-09T12:39:46Z</time>
      </trkpt>
      <trkpt lat="45.84251" lon="4.50817">
        <ele>613</ele>
        <time>2015-06-09T12:39:47Z</time>
      </trkpt>
      <trkpt lat="45.84245" lon="4.50811">
        <ele>613</ele>
        <time>2015-06-09T12:39:48Z</time>
      </trkpt>
      <trkpt lat="45.84232" lon="4.508">
        <ele>612</ele>
        <time>2015-06-09T12:39:50Z</time>
      </trkpt>
      <trkpt lat="45.84224" lon="4.50793">
        <ele>612</ele>
        <time>2015-06-09T12:39:51Z</time>
      </trkpt>
      <trkpt lat="45.84217" lon="4.50788">
        <ele>611</ele>
        <time>2015-06-09T12:39:52Z</time>
      </trkpt>
      <trkpt lat="45.84208" lon="4.50784">
        <ele>611</ele>
        <time>2015-06-09T12:39:53Z</time>
      </trkpt>
      <trkpt lat="45.842" lon="4.5078">
        <ele>610</ele>
        <time>2015-06-09T12:39:54Z</time>
      </trkpt>
      <trkpt lat="45.84192" lon="4.50775">
        <ele>610</ele>
        <time>2015-06-09T12:39:55Z</time>
      </trkpt>
      <trkpt lat="45.84184" lon="4.5077">
        <ele>610</ele>
        <time>2015-06-09T12:39:56Z</time>
      </trkpt>
      <trkpt lat="45.84177" lon="4.50767">
        <ele>609</ele>
        <time>2015-06-09T12:39:57Z</time>
      </trkpt>
      <trkpt lat="45.84169" lon="4.50763">
        <ele>608</ele>
        <time>2015-06-09T12:39:58Z</time>
      </trkpt>
      <trkpt lat="45.8416" lon="4.50758">
        <ele>607</ele>
        <time>2015-06-09T12:39:59Z</time>
      </trkpt>
      <trkpt lat="45.84151" lon="4.50757">
        <ele>605</ele>
        <time>2015-06-09T12:40:00Z</time>
      </trkpt>
      <trkpt lat="45.84142" lon="4.50754">
        <ele>604</ele>
        <time>2015-06-09T12:40:01Z</time>
      </trkpt>
      <trkpt lat="45.84133" lon="4.5075">
        <ele>603</ele>
        <time>2015-06-09T12:40:02Z</time>
      </trkpt>
      <trkpt lat="45.84124" lon="4.50743">
        <ele>603</ele>
        <time>2015-06-09T12:40:03Z</time>
      </trkpt>
      <trkpt lat="45.84116" lon="4.50735">
        <ele>603</ele>
        <time>2015-06-09T12:40:04Z</time>
      </trkpt>
      <trkpt lat="45.84108" lon="4.50728">
        <ele>602</ele>
        <time>2015-06-09T12:40:05Z</time>
      </trkpt>
      <trkpt lat="45.841" lon="4.50718">
        <ele>602</ele>
        <time>2015-06-09T12:40:06Z</time>
      </trkpt>
      <trkpt lat="45.84093" lon="4.50709">
        <ele>602</ele>
        <time>2015-06-09T12:40:07Z</time>
      </trkpt>
      <trkpt lat="45.84088" lon="4.50699">
        <ele>602</ele>
        <time>2015-06-09T12:40:08Z</time>
      </trkpt>
      <trkpt lat="45.84081" lon="4.50689">
        <ele>602</ele>
        <time>2015-06-09T12:40:09Z</time>
      </trkpt>
      <trkpt lat="45.84073" lon="4.50679">
        <ele>601</ele>
        <time>2015-06-09T12:40:10Z</time>
      </trkpt>
      <trkpt lat="45.84066" lon="4.50669">
        <ele>601</ele>
        <time>2015-06-09T12:40:11Z</time>
      </trkpt>
      <trkpt lat="45.84058" lon="4.50659">
        <ele>601</ele>
        <time>2015-06-09T12:40:12Z</time>
      </trkpt>
      <trkpt lat="45.8405" lon="4.5065">
        <ele>600</ele>
        <time>2015-06-09T12:40:13Z</time>
      </trkpt>
      <trkpt lat="45.84043" lon="4.50639">
        <ele>600</ele>
        <time>2015-06-09T12:40:14Z</time>
      </trkpt>
      <trkpt lat="45.84035" lon="4.50629">
        <ele>599</ele>
        <time>2015-06-09T12:40:15Z</time>
      </trkpt>
      <trkpt lat="45.84029" lon="4.50618">
        <ele>599</ele>
        <time>2015-06-09T12:40:16Z</time>
      </trkpt>
      <trkpt lat="45.84024" lon="4.50604">
        <ele>600</ele>
        <time>2015-06-09T12:40:17Z</time>
      </trkpt>
      <trkpt lat="45.84017" lon="4.50592">
        <ele>600</ele>
        <time>2015-06-09T12:40:18Z</time>
      </trkpt>
      <trkpt lat="45.8401" lon="4.5058">
        <ele>599</ele>
        <time>2015-06-09T12:40:19Z</time>
      </trkpt>
      <trkpt lat="45.84004" lon="4.50568">
        <ele>599</ele>
        <time>2015-06-09T12:40:20Z</time>
      </trkpt>
      <trkpt lat="45.83997" lon="4.50558">
        <ele>598</ele>
        <time>2015-06-09T12:40:21Z</time>
      </trkpt>
      <trkpt lat="45.83991" lon="4.50545">
        <ele>597</ele>
        <time>2015-06-09T12:40:22Z</time>
      </trkpt>
      <trkpt lat="45.83983" lon="4.50533">
        <ele>597</ele>
        <time>2015-06-09T12:40:23Z</time>
      </trkpt>
      <trkpt lat="45.83976" lon="4.50518">
        <ele>596</ele>
        <time>2015-06-09T12:40:24Z</time>
      </trkpt>
      <trkpt lat="45.8397" lon="4.50508">
        <ele>595</ele>
        <time>2015-06-09T12:40:25Z</time>
      </trkpt>
      <trkpt lat="45.83963" lon="4.50497">
        <ele>595</ele>
        <time>2015-06-09T12:40:26Z</time>
      </trkpt>
      <trkpt lat="45.83957" lon="4.50483">
        <ele>595</ele>
        <time>2015-06-09T12:40:27Z</time>
      </trkpt>
      <trkpt lat="45.8395" lon="4.5047">
        <ele>594</ele>
        <time>2015-06-09T12:40:28Z</time>
      </trkpt>
      <trkpt lat="45.83948" lon="4.50454">
        <ele>597</ele>
        <time>2015-06-09T12:40:29Z</time>
      </trkpt>
      <trkpt lat="45.83944" lon="4.50441">
        <ele>598</ele>
        <time>2015-06-09T12:40:30Z</time>
      </trkpt>
      <trkpt lat="45.8394" lon="4.50432">
        <ele>599</ele>
        <time>2015-06-09T12:40:31Z</time>
      </trkpt>
      <trkpt lat="45.83934" lon="4.50423">
        <ele>599</ele>
        <time>2015-06-09T12:40:32Z</time>
      </trkpt>
      <trkpt lat="45.83929" lon="4.50414">
        <ele>600</ele>
        <time>2015-06-09T12:40:33Z</time>
      </trkpt>
      <trkpt lat="45.83921" lon="4.50408">
        <ele>600</ele>
        <time>2015-06-09T12:40:34Z</time>
      </trkpt>
      <trkpt lat="45.83913" lon="4.50402">
        <ele>600</ele>
        <time>2015-06-09T12:40:35Z</time>
      </trkpt>
      <trkpt lat="45.83906" lon="4.50398">
        <ele>599</ele>
        <time>2015-06-09T12:40:36Z</time>
      </trkpt>
      <trkpt lat="45.839" lon="4.50399">
        <ele>598</ele>
        <time>2015-06-09T12:40:37Z</time>
      </trkpt>
      <trkpt lat="45.83891" lon="4.50398">
        <ele>598</ele>
        <time>2015-06-09T12:40:38Z</time>
      </trkpt>
      <trkpt lat="45.83883" lon="4.50396">
        <ele>599</ele>
        <time>2015-06-09T12:40:39Z</time>
      </trkpt>
      <trkpt lat="45.83877" lon="4.50398">
        <ele>598</ele>
        <time>2015-06-09T12:40:40Z</time>
      </trkpt>
      <trkpt lat="45.8387" lon="4.504">
        <ele>597</ele>
        <time>2015-06-09T12:40:41Z</time>
      </trkpt>
      <trkpt lat="45.83861" lon="4.50403">
        <ele>595</ele>
        <time>2015-06-09T12:40:42Z</time>
      </trkpt>
      <trkpt lat="45.83849" lon="4.50403">
        <ele>594</ele>
        <time>2015-06-09T12:40:43Z</time>
      </trkpt>
      <trkpt lat="45.83839" lon="4.50409">
        <ele>592</ele>
        <time>2015-06-09T12:40:44Z</time>
      </trkpt>
      <trkpt lat="45.8383" lon="4.50414">
        <ele>589</ele>
        <time>2015-06-09T12:40:45Z</time>
      </trkpt>
      <trkpt lat="45.83822" lon="4.50419">
        <ele>587</ele>
        <time>2015-06-09T12:40:46Z</time>
      </trkpt>
      <trkpt lat="45.83813" lon="4.50423">
        <ele>585</ele>
        <time>2015-06-09T12:40:47Z</time>
      </trkpt>
      <trkpt lat="45.83804" lon="4.50424">
        <ele>584</ele>
        <time>2015-06-09T12:40:48Z</time>
      </trkpt>
      <trkpt lat="45.83794" lon="4.50422">
        <ele>584</ele>
        <time>2015-06-09T12:40:49Z</time>
      </trkpt>
      <trkpt lat="45.83784" lon="4.50422">
        <ele>584</ele>
        <time>2015-06-09T12:40:50Z</time>
      </trkpt>
      <trkpt lat="45.83775" lon="4.5042">
        <ele>584</ele>
        <time>2015-06-09T12:40:51Z</time>
      </trkpt>
      <trkpt lat="45.83761" lon="4.50421">
        <ele>582</ele>
        <time>2015-06-09T12:40:52Z</time>
      </trkpt>
      <trkpt lat="45.83751" lon="4.50421">
        <ele>581</ele>
        <time>2015-06-09T12:40:53Z</time>
      </trkpt>
      <trkpt lat="45.8374" lon="4.50421">
        <ele>580</ele>
        <time>2015-06-09T12:40:54Z</time>
      </trkpt>
      <trkpt lat="45.83731" lon="4.50421">
        <ele>579</ele>
        <time>2015-06-09T12:40:55Z</time>
      </trkpt>
      <trkpt lat="45.8372" lon="4.50423">
        <ele>577</ele>
        <time>2015-06-09T12:40:56Z</time>
      </trkpt>
      <trkpt lat="45.83708" lon="4.50424">
        <ele>576</ele>
        <time>2015-06-09T12:40:57Z</time>
      </trkpt>
      <trkpt lat="45.83698" lon="4.50425">
        <ele>574</ele>
        <time>2015-06-09T12:40:58Z</time>
      </trkpt>
      <trkpt lat="45.83688" lon="4.50424">
        <ele>574</ele>
        <time>2015-06-09T12:40:59Z</time>
      </trkpt>
      <trkpt lat="45.83678" lon="4.50425">
        <ele>574</ele>
        <time>2015-06-09T12:41:00Z</time>
      </trkpt>
      <trkpt lat="45.83668" lon="4.50425">
        <ele>573</ele>
        <time>2015-06-09T12:41:01Z</time>
      </trkpt>
      <trkpt lat="45.8366" lon="4.50404">
        <ele>580</ele>
        <time>2015-06-09T12:41:02Z</time>
      </trkpt>
      <trkpt lat="45.8365" lon="4.50402">
        <ele>580</ele>
        <time>2015-06-09T12:41:03Z</time>
      </trkpt>
      <trkpt lat="45.83641" lon="4.50398">
        <ele>581</ele>
        <time>2015-06-09T12:41:04Z</time>
      </trkpt>
      <trkpt lat="45.83631" lon="4.50399">
        <ele>581</ele>
        <time>2015-06-09T12:41:05Z</time>
      </trkpt>
      <trkpt lat="45.83622" lon="4.50402">
        <ele>580</ele>
        <time>2015-06-09T12:41:06Z</time>
      </trkpt>
      <trkpt lat="45.83612" lon="4.50406">
        <ele>579</ele>
        <time>2015-06-09T12:41:07Z</time>
      </trkpt>
      <trkpt lat="45.83603" lon="4.50417">
        <ele>575</ele>
        <time>2015-06-09T12:41:08Z</time>
      </trkpt>
      <trkpt lat="45.83592" lon="4.50425">
        <ele>573</ele>
        <time>2015-06-09T12:41:09Z</time>
      </trkpt>
      <trkpt lat="45.83585" lon="4.50434">
        <ele>570</ele>
        <time>2015-06-09T12:41:10Z</time>
      </trkpt>
      <trkpt lat="45.83577" lon="4.50442">
        <ele>567</ele>
        <time>2015-06-09T12:41:11Z</time>
      </trkpt>
      <trkpt lat="45.83567" lon="4.50452">
        <ele>564</ele>
        <time>2015-06-09T12:41:12Z</time>
      </trkpt>
      <trkpt lat="45.8356" lon="4.50465">
        <ele>560</ele>
        <time>2015-06-09T12:41:13Z</time>
      </trkpt>
      <trkpt lat="45.83556" lon="4.50476">
        <ele>557</ele>
        <time>2015-06-09T12:41:14Z</time>
      </trkpt>
      <trkpt lat="45.83548" lon="4.50487">
        <ele>553</ele>
        <time>2015-06-09T12:41:15Z</time>
      </trkpt>
      <trkpt lat="45.83542" lon="4.50496">
        <ele>551</ele>
        <time>2015-06-09T12:41:16Z</time>
      </trkpt>
      <trkpt lat="45.83537" lon="4.50506">
        <ele>548</ele>
        <time>2015-06-09T12:41:17Z</time>
      </trkpt>
      <trkpt lat="45.8353" lon="4.50514">
        <ele>546</ele>
        <time>2015-06-09T12:41:18Z</time>
      </trkpt>
      <trkpt lat="45.8352" lon="4.50516">
        <ele>546</ele>
        <time>2015-06-09T12:41:19Z</time>
      </trkpt>
      <trkpt lat="45.83513" lon="4.50517">
        <ele>546</ele>
        <time>2015-06-09T12:41:20Z</time>
      </trkpt>
      <trkpt lat="45.83504" lon="4.50517">
        <ele>547</ele>
        <time>2015-06-09T12:41:21Z</time>
      </trkpt>
      <trkpt lat="45.83496" lon="4.50514">
        <ele>548</ele>
        <time>2015-06-09T12:41:22Z</time>
      </trkpt>
      <trkpt lat="45.83489" lon="4.50509">
        <ele>548</ele>
        <time>2015-06-09T12:41:23Z</time>
      </trkpt>
      <trkpt lat="45.83481" lon="4.50502">
        <ele>548</ele>
        <time>2015-06-09T12:41:24Z</time>
      </trkpt>
      <trkpt lat="45.83473" lon="4.50497">
        <ele>548</ele>
        <time>2015-06-09T12:41:25Z</time>
      </trkpt>
      <trkpt lat="45.83464" lon="4.5049">
        <ele>548</ele>
        <time>2015-06-09T12:41:26Z</time>
      </trkpt>
      <trkpt lat="45.83455" lon="4.50483">
        <ele>548</ele>
        <time>2015-06-09T12:41:27Z</time>
      </trkpt>
      <trkpt lat="45.83447" lon="4.50476">
        <ele>549</ele>
        <time>2015-06-09T12:41:28Z</time>
      </trkpt>
      <trkpt lat="45.83439" lon="4.50471">
        <ele>548</ele>
        <time>2015-06-09T12:41:29Z</time>
      </trkpt>
      <trkpt lat="45.83431" lon="4.50464">
        <ele>549</ele>
        <time>2015-06-09T12:41:30Z</time>
      </trkpt>
      <trkpt lat="45.83423" lon="4.50457">
        <ele>549</ele>
        <time>2015-06-09T12:41:31Z</time>
      </trkpt>
      <trkpt lat="45.83418" lon="4.50452">
        <ele>550</ele>
        <time>2015-06-09T12:41:32Z</time>
      </trkpt>
      <trkpt lat="45.83413" lon="4.50447">
        <ele>551</ele>
        <time>2015-06-09T12:41:33Z</time>
      </trkpt>
      <trkpt lat="45.8341" lon="4.50441">
        <ele>552</ele>
        <time>2015-06-09T12:41:34Z</time>
      </trkpt>
      <trkpt lat="45.83405" lon="4.50439">
        <ele>552</ele>
        <time>2015-06-09T12:41:36Z</time>
      </trkpt>
      <trkpt lat="45.83402" lon="4.5044">
        <ele>551</ele>
        <time>2015-06-09T12:42:03Z</time>
      </trkpt>
      <trkpt lat="45.83402" lon="4.5044">
        <ele>551</ele>
        <time>2015-06-09T12:42:18Z</time>
      </trkpt>
      <trkpt lat="45.83402" lon="4.5044">
        <ele>551</ele>
        <time>2015-06-09T12:42:33Z</time>
      </trkpt>
      <trkpt lat="45.83402" lon="4.5044">
        <ele>551</ele>
        <time>2015-06-09T12:42:48Z</time>
      </trkpt>
      <trkpt lat="45.83402" lon="4.5044">
        <ele>551</ele>
        <time>2015-06-09T12:43:03Z</time>
      </trkpt>
      <trkpt lat="45.83401" lon="4.5044">
        <ele>551</ele>
        <time>2015-06-09T12:43:19Z</time>
      </trkpt>
      <trkpt lat="45.83365" lon="4.50428">
        <ele>549</ele>
        <time>2015-06-09T12:43:49Z</time>
      </trkpt>
      <trkpt lat="45.83358" lon="4.50425">
        <ele>550</ele>
        <time>2015-06-09T12:43:51Z</time>
      </trkpt>
      <trkpt lat="45.83352" lon="4.50422">
        <ele>550</ele>
        <time>2015-06-09T12:43:53Z</time>
      </trkpt>
      <trkpt lat="45.83345" lon="4.50419">
        <ele>550</ele>
        <time>2015-06-09T12:43:55Z</time>
      </trkpt>
      <trkpt lat="45.83339" lon="4.50415">
        <ele>550</ele>
        <time>2015-06-09T12:43:57Z</time>
      </trkpt>
      <trkpt lat="45.83333" lon="4.50412">
        <ele>550</ele>
        <time>2015-06-09T12:43:59Z</time>
      </trkpt>
      <trkpt lat="45.83327" lon="4.50409">
        <ele>550</ele>
        <time>2015-06-09T12:44:01Z</time>
      </trkpt>
      <trkpt lat="45.83321" lon="4.50405">
        <ele>550</ele>
        <time>2015-06-09T12:44:03Z</time>
      </trkpt>
      <trkpt lat="45.83315" lon="4.50401">
        <ele>551</ele>
        <time>2015-06-09T12:44:05Z</time>
      </trkpt>
      <trkpt lat="45.8331" lon="4.50396">
        <ele>552</ele>
        <time>2015-06-09T12:44:07Z</time>
      </trkpt>
      <trkpt lat="45.83305" lon="4.5039">
        <ele>553</ele>
        <time>2015-06-09T12:44:09Z</time>
      </trkpt>
      <trkpt lat="45.83299" lon="4.50385">
        <ele>553</ele>
        <time>2015-06-09T12:44:11Z</time>
      </trkpt>
      <trkpt lat="45.83294" lon="4.5038">
        <ele>554</ele>
        <time>2015-06-09T12:44:13Z</time>
      </trkpt>
      <trkpt lat="45.83289" lon="4.50374">
        <ele>555</ele>
        <time>2015-06-09T12:44:15Z</time>
      </trkpt>
      <trkpt lat="45.83283" lon="4.50368">
        <ele>556</ele>
        <time>2015-06-09T12:44:17Z</time>
      </trkpt>
      <trkpt lat="45.83277" lon="4.50363">
        <ele>556</ele>
        <time>2015-06-09T12:44:19Z</time>
      </trkpt>
      <trkpt lat="45.83272" lon="4.50358">
        <ele>557</ele>
        <time>2015-06-09T12:44:21Z</time>
      </trkpt>
      <trkpt lat="45.83267" lon="4.50352">
        <ele>558</ele>
        <time>2015-06-09T12:44:23Z</time>
      </trkpt>
      <trkpt lat="45.83262" lon="4.50346">
        <ele>559</ele>
        <time>2015-06-09T12:44:25Z</time>
      </trkpt>
      <trkpt lat="45.83257" lon="4.50342">
        <ele>559</ele>
        <time>2015-06-09T12:44:27Z</time>
      </trkpt>
      <trkpt lat="45.83252" lon="4.50337">
        <ele>560</ele>
        <time>2015-06-09T12:44:29Z</time>
      </trkpt>
      <trkpt lat="45.83247" lon="4.50331">
        <ele>561</ele>
        <time>2015-06-09T12:44:31Z</time>
      </trkpt>
      <trkpt lat="45.83242" lon="4.50324">
        <ele>562</ele>
        <time>2015-06-09T12:44:33Z</time>
      </trkpt>
      <trkpt lat="45.83238" lon="4.50317">
        <ele>563</ele>
        <time>2015-06-09T12:44:35Z</time>
      </trkpt>
      <trkpt lat="45.83234" lon="4.50309">
        <ele>564</ele>
        <time>2015-06-09T12:44:37Z</time>
      </trkpt>
      <trkpt lat="45.83229" lon="4.50303">
        <ele>565</ele>
        <time>2015-06-09T12:44:39Z</time>
      </trkpt>
      <trkpt lat="45.83224" lon="4.50296">
        <ele>566</ele>
        <time>2015-06-09T12:44:41Z</time>
      </trkpt>
      <trkpt lat="45.83219" lon="4.50288">
        <ele>567</ele>
        <time>2015-06-09T12:44:43Z</time>
      </trkpt>
      <trkpt lat="45.83215" lon="4.5028">
        <ele>568</ele>
        <time>2015-06-09T12:44:45Z</time>
      </trkpt>
      <trkpt lat="45.83212" lon="4.50272">
        <ele>570</ele>
        <time>2015-06-09T12:44:47Z</time>
      </trkpt>
      <trkpt lat="45.83208" lon="4.50265">
        <ele>571</ele>
        <time>2015-06-09T12:44:49Z</time>
      </trkpt>
      <trkpt lat="45.83204" lon="4.50258">
        <ele>572</ele>
        <time>2015-06-09T12:44:51Z</time>
      </trkpt>
      <trkpt lat="45.832" lon="4.50252">
        <ele>573</ele>
        <time>2015-06-09T12:44:53Z</time>
      </trkpt>
      <trkpt lat="45.83196" lon="4.50247">
        <ele>574</ele>
        <time>2015-06-09T12:44:55Z</time>
      </trkpt>
      <trkpt lat="45.83191" lon="4.50242">
        <ele>573</ele>
        <time>2015-06-09T12:44:57Z</time>
      </trkpt>
      <trkpt lat="45.83187" lon="4.50237">
        <ele>574</ele>
        <time>2015-06-09T12:44:59Z</time>
      </trkpt>
      <trkpt lat="45.83183" lon="4.50231">
        <ele>575</ele>
        <time>2015-06-09T12:45:01Z</time>
      </trkpt>
      <trkpt lat="45.83177" lon="4.50227">
        <ele>574</ele>
        <time>2015-06-09T12:45:03Z</time>
      </trkpt>
      <trkpt lat="45.83172" lon="4.50225">
        <ele>574</ele>
        <time>2015-06-09T12:45:05Z</time>
      </trkpt>
      <trkpt lat="45.83166" lon="4.50224">
        <ele>573</ele>
        <time>2015-06-09T12:45:07Z</time>
      </trkpt>
      <trkpt lat="45.83161" lon="4.50224">
        <ele>571</ele>
        <time>2015-06-09T12:45:09Z</time>
      </trkpt>
      <trkpt lat="45.83154" lon="4.50224">
        <ele>570</ele>
        <time>2015-06-09T12:45:12Z</time>
      </trkpt>
      <trkpt lat="45.83148" lon="4.50226">
        <ele>568</ele>
        <time>2015-06-09T12:45:14Z</time>
      </trkpt>
      <trkpt lat="45.83142" lon="4.50226">
        <ele>566</ele>
        <time>2015-06-09T12:45:16Z</time>
      </trkpt>
      <trkpt lat="45.83136" lon="4.50224">
        <ele>565</ele>
        <time>2015-06-09T12:45:18Z</time>
      </trkpt>
      <trkpt lat="45.8313" lon="4.50222">
        <ele>564</ele>
        <time>2015-06-09T12:45:20Z</time>
      </trkpt>
      <trkpt lat="45.83124" lon="4.50219">
        <ele>563</ele>
        <time>2015-06-09T12:45:22Z</time>
      </trkpt>
      <trkpt lat="45.83119" lon="4.50213">
        <ele>563</ele>
        <time>2015-06-09T12:45:24Z</time>
      </trkpt>
      <trkpt lat="45.83115" lon="4.50206">
        <ele>563</ele>
        <time>2015-06-09T12:45:26Z</time>
      </trkpt>
      <trkpt lat="45.83111" lon="4.50199">
        <ele>564</ele>
        <time>2015-06-09T12:45:28Z</time>
      </trkpt>
      <trkpt lat="45.83108" lon="4.50191">
        <ele>565</ele>
        <time>2015-06-09T12:45:30Z</time>
      </trkpt>
      <trkpt lat="45.83105" lon="4.50183">
        <ele>565</ele>
        <time>2015-06-09T12:45:32Z</time>
      </trkpt>
      <trkpt lat="45.83103" lon="4.50176">
        <ele>566</ele>
        <time>2015-06-09T12:45:34Z</time>
      </trkpt>
      <trkpt lat="45.83101" lon="4.50169">
        <ele>567</ele>
        <time>2015-06-09T12:45:36Z</time>
      </trkpt>
      <trkpt lat="45.83098" lon="4.50162">
        <ele>567</ele>
        <time>2015-06-09T12:45:38Z</time>
      </trkpt>
      <trkpt lat="45.83096" lon="4.50155">
        <ele>567</ele>
        <time>2015-06-09T12:45:40Z</time>
      </trkpt>
      <trkpt lat="45.83095" lon="4.50148">
        <ele>568</ele>
        <time>2015-06-09T12:45:42Z</time>
      </trkpt>
      <trkpt lat="45.83094" lon="4.5014">
        <ele>569</ele>
        <time>2015-06-09T12:45:44Z</time>
      </trkpt>
      <trkpt lat="45.83093" lon="4.50132">
        <ele>569</ele>
        <time>2015-06-09T12:45:46Z</time>
      </trkpt>
      <trkpt lat="45.83091" lon="4.50124">
        <ele>570</ele>
        <time>2015-06-09T12:45:48Z</time>
      </trkpt>
      <trkpt lat="45.8309" lon="4.50115">
        <ele>570</ele>
        <time>2015-06-09T12:45:50Z</time>
      </trkpt>
      <trkpt lat="45.83089" lon="4.50107">
        <ele>571</ele>
        <time>2015-06-09T12:45:52Z</time>
      </trkpt>
      <trkpt lat="45.83088" lon="4.50098">
        <ele>572</ele>
        <time>2015-06-09T12:45:54Z</time>
      </trkpt>
      <trkpt lat="45.83086" lon="4.5009">
        <ele>572</ele>
        <time>2015-06-09T12:45:56Z</time>
      </trkpt>
      <trkpt lat="45.83087" lon="4.50082">
        <ele>573</ele>
        <time>2015-06-09T12:45:58Z</time>
      </trkpt>
      <trkpt lat="45.83086" lon="4.50074">
        <ele>573</ele>
        <time>2015-06-09T12:46:00Z</time>
      </trkpt>
      <trkpt lat="45.83086" lon="4.50065">
        <ele>574</ele>
        <time>2015-06-09T12:46:02Z</time>
      </trkpt>
      <trkpt lat="45.83086" lon="4.50056">
        <ele>575</ele>
        <time>2015-06-09T12:46:04Z</time>
      </trkpt>
      <trkpt lat="45.83085" lon="4.50048">
        <ele>575</ele>
        <time>2015-06-09T12:46:06Z</time>
      </trkpt>
      <trkpt lat="45.83085" lon="4.5004">
        <ele>576</ele>
        <time>2015-06-09T12:46:08Z</time>
      </trkpt>
      <trkpt lat="45.83085" lon="4.50031">
        <ele>576</ele>
        <time>2015-06-09T12:46:10Z</time>
      </trkpt>
      <trkpt lat="45.83083" lon="4.50023">
        <ele>576</ele>
        <time>2015-06-09T12:46:12Z</time>
      </trkpt>
      <trkpt lat="45.83082" lon="4.50015">
        <ele>576</ele>
        <time>2015-06-09T12:46:14Z</time>
      </trkpt>
      <trkpt lat="45.83082" lon="4.50007">
        <ele>577</ele>
        <time>2015-06-09T12:46:16Z</time>
      </trkpt>
      <trkpt lat="45.83081" lon="4.49999">
        <ele>576</ele>
        <time>2015-06-09T12:46:18Z</time>
      </trkpt>
      <trkpt lat="45.83079" lon="4.49991">
        <ele>576</ele>
        <time>2015-06-09T12:46:20Z</time>
      </trkpt>
      <trkpt lat="45.83077" lon="4.49983">
        <ele>576</ele>
        <time>2015-06-09T12:46:22Z</time>
      </trkpt>
      <trkpt lat="45.83076" lon="4.49975">
        <ele>576</ele>
        <time>2015-06-09T12:46:24Z</time>
      </trkpt>
      <trkpt lat="45.83074" lon="4.49967">
        <ele>575</ele>
        <time>2015-06-09T12:46:26Z</time>
      </trkpt>
      <trkpt lat="45.83073" lon="4.49959">
        <ele>575</ele>
        <time>2015-06-09T12:46:28Z</time>
      </trkpt>
      <trkpt lat="45.83072" lon="4.49951">
        <ele>575</ele>
        <time>2015-06-09T12:46:30Z</time>
      </trkpt>
      <trkpt lat="45.83072" lon="4.49943">
        <ele>575</ele>
        <time>2015-06-09T12:46:32Z</time>
      </trkpt>
      <trkpt lat="45.83072" lon="4.49934">
        <ele>575</ele>
        <time>2015-06-09T12:46:34Z</time>
      </trkpt>
      <trkpt lat="45.83072" lon="4.49926">
        <ele>575</ele>
        <time>2015-06-09T12:46:36Z</time>
      </trkpt>
      <trkpt lat="45.83071" lon="4.49917">
        <ele>574</ele>
        <time>2015-06-09T12:46:38Z</time>
      </trkpt>
      <trkpt lat="45.83071" lon="4.49909">
        <ele>574</ele>
        <time>2015-06-09T12:46:40Z</time>
      </trkpt>
      <trkpt lat="45.83072" lon="4.49901">
        <ele>575</ele>
        <time>2015-06-09T12:46:42Z</time>
      </trkpt>
      <trkpt lat="45.83072" lon="4.49892">
        <ele>575</ele>
        <time>2015-06-09T12:46:44Z</time>
      </trkpt>
      <trkpt lat="45.83073" lon="4.49884">
        <ele>575</ele>
        <time>2015-06-09T12:46:46Z</time>
      </trkpt>
      <trkpt lat="45.83074" lon="4.49875">
        <ele>575</ele>
        <time>2015-06-09T12:46:48Z</time>
      </trkpt>
      <trkpt lat="45.83074" lon="4.49867">
        <ele>574</ele>
        <time>2015-06-09T12:46:50Z</time>
      </trkpt>
      <trkpt lat="45.83075" lon="4.49859">
        <ele>574</ele>
        <time>2015-06-09T12:46:52Z</time>
      </trkpt>
      <trkpt lat="45.83077" lon="4.49851">
        <ele>575</ele>
        <time>2015-06-09T12:46:54Z</time>
      </trkpt>
      <trkpt lat="45.83078" lon="4.49842">
        <ele>575</ele>
        <time>2015-06-09T12:46:56Z</time>
      </trkpt>
      <trkpt lat="45.8308" lon="4.49835">
        <ele>575</ele>
        <time>2015-06-09T12:46:58Z</time>
      </trkpt>
      <trkpt lat="45.83082" lon="4.49827">
        <ele>575</ele>
        <time>2015-06-09T12:47:00Z</time>
      </trkpt>
      <trkpt lat="45.83084" lon="4.49818">
        <ele>575</ele>
        <time>2015-06-09T12:47:02Z</time>
      </trkpt>
      <trkpt lat="45.83085" lon="4.4981">
        <ele>575</ele>
        <time>2015-06-09T12:47:04Z</time>
      </trkpt>
      <trkpt lat="45.83087" lon="4.49802">
        <ele>575</ele>
        <time>2015-06-09T12:47:06Z</time>
      </trkpt>
      <trkpt lat="45.8309" lon="4.49795">
        <ele>576</ele>
        <time>2015-06-09T12:47:08Z</time>
      </trkpt>
      <trkpt lat="45.83092" lon="4.49787">
        <ele>576</ele>
        <time>2015-06-09T12:47:10Z</time>
      </trkpt>
      <trkpt lat="45.83095" lon="4.4978">
        <ele>577</ele>
        <time>2015-06-09T12:47:12Z</time>
      </trkpt>
      <trkpt lat="45.83098" lon="4.49773">
        <ele>577</ele>
        <time>2015-06-09T12:47:14Z</time>
      </trkpt>
      <trkpt lat="45.831" lon="4.49765">
        <ele>577</ele>
        <time>2015-06-09T12:47:16Z</time>
      </trkpt>
      <trkpt lat="45.83101" lon="4.49757">
        <ele>577</ele>
        <time>2015-06-09T12:47:18Z</time>
      </trkpt>
      <trkpt lat="45.83102" lon="4.49748">
        <ele>576</ele>
        <time>2015-06-09T12:47:20Z</time>
      </trkpt>
      <trkpt lat="45.83104" lon="4.4974">
        <ele>576</ele>
        <time>2015-06-09T12:47:22Z</time>
      </trkpt>
      <trkpt lat="45.83106" lon="4.49733">
        <ele>576</ele>
        <time>2015-06-09T12:47:24Z</time>
      </trkpt>
      <trkpt lat="45.83107" lon="4.49724">
        <ele>575</ele>
        <time>2015-06-09T12:47:27Z</time>
      </trkpt>
      <trkpt lat="45.8311" lon="4.49716">
        <ele>575</ele>
        <time>2015-06-09T12:47:30Z</time>
      </trkpt>
      <trkpt lat="45.83112" lon="4.49707">
        <ele>575</ele>
        <time>2015-06-09T12:47:32Z</time>
      </trkpt>
      <trkpt lat="45.83115" lon="4.49691">
        <ele>574</ele>
        <time>2015-06-09T12:47:34Z</time>
      </trkpt>
      <trkpt lat="45.83117" lon="4.49684">
        <ele>574</ele>
        <time>2015-06-09T12:47:35Z</time>
      </trkpt>
      <trkpt lat="45.83119" lon="4.49675">
        <ele>573</ele>
        <time>2015-06-09T12:47:36Z</time>
      </trkpt>
      <trkpt lat="45.83121" lon="4.49667">
        <ele>573</ele>
        <time>2015-06-09T12:47:37Z</time>
      </trkpt>
      <trkpt lat="45.83123" lon="4.49659">
        <ele>573</ele>
        <time>2015-06-09T12:47:38Z</time>
      </trkpt>
      <trkpt lat="45.83126" lon="4.4965">
        <ele>573</ele>
        <time>2015-06-09T12:47:39Z</time>
      </trkpt>
      <trkpt lat="45.83129" lon="4.4964">
        <ele>572</ele>
        <time>2015-06-09T12:47:40Z</time>
      </trkpt>
      <trkpt lat="45.83132" lon="4.49632">
        <ele>572</ele>
        <time>2015-06-09T12:47:41Z</time>
      </trkpt>
      <trkpt lat="45.83135" lon="4.49622">
        <ele>572</ele>
        <time>2015-06-09T12:47:42Z</time>
      </trkpt>
      <trkpt lat="45.83138" lon="4.49613">
        <ele>572</ele>
        <time>2015-06-09T12:47:43Z</time>
      </trkpt>
      <trkpt lat="45.8314" lon="4.49603">
        <ele>572</ele>
        <time>2015-06-09T12:47:44Z</time>
      </trkpt>
      <trkpt lat="45.83144" lon="4.49595">
        <ele>572</ele>
        <time>2015-06-09T12:47:45Z</time>
      </trkpt>
      <trkpt lat="45.83149" lon="4.49586">
        <ele>573</ele>
        <time>2015-06-09T12:47:46Z</time>
      </trkpt>
      <trkpt lat="45.83156" lon="4.4958">
        <ele>574</ele>
        <time>2015-06-09T12:47:47Z</time>
      </trkpt>
      <trkpt lat="45.83162" lon="4.49573">
        <ele>574</ele>
        <time>2015-06-09T12:47:48Z</time>
      </trkpt>
      <trkpt lat="45.83168" lon="4.49566">
        <ele>575</ele>
        <time>2015-06-09T12:47:49Z</time>
      </trkpt>
      <trkpt lat="45.83174" lon="4.49558">
        <ele>576</ele>
        <time>2015-06-09T12:47:50Z</time>
      </trkpt>
      <trkpt lat="45.83179" lon="4.49549">
        <ele>576</ele>
        <time>2015-06-09T12:47:51Z</time>
      </trkpt>
      <trkpt lat="45.83183" lon="4.4954">
        <ele>576</ele>
        <time>2015-06-09T12:47:52Z</time>
      </trkpt>
      <trkpt lat="45.83185" lon="4.4953">
        <ele>575</ele>
        <time>2015-06-09T12:47:53Z</time>
      </trkpt>
      <trkpt lat="45.83189" lon="4.49509">
        <ele>574</ele>
        <time>2015-06-09T12:47:55Z</time>
      </trkpt>
      <trkpt lat="45.83193" lon="4.49499">
        <ele>573</ele>
        <time>2015-06-09T12:47:56Z</time>
      </trkpt>
      <trkpt lat="45.83196" lon="4.49487">
        <ele>573</ele>
        <time>2015-06-09T12:47:57Z</time>
      </trkpt>
      <trkpt lat="45.832" lon="4.49478">
        <ele>572</ele>
        <time>2015-06-09T12:47:58Z</time>
      </trkpt>
      <trkpt lat="45.83204" lon="4.4947">
        <ele>572</ele>
        <time>2015-06-09T12:47:59Z</time>
      </trkpt>
      <trkpt lat="45.83207" lon="4.49463">
        <ele>572</ele>
        <time>2015-06-09T12:48:00Z</time>
      </trkpt>
      <trkpt lat="45.83211" lon="4.49453">
        <ele>572</ele>
        <time>2015-06-09T12:48:01Z</time>
      </trkpt>
      <trkpt lat="45.83215" lon="4.49443">
        <ele>571</ele>
        <time>2015-06-09T12:48:02Z</time>
      </trkpt>
      <trkpt lat="45.83219" lon="4.49431">
        <ele>571</ele>
        <time>2015-06-09T12:48:03Z</time>
      </trkpt>
      <trkpt lat="45.83224" lon="4.49422">
        <ele>571</ele>
        <time>2015-06-09T12:48:04Z</time>
      </trkpt>
      <trkpt lat="45.83227" lon="4.49412">
        <ele>570</ele>
        <time>2015-06-09T12:48:05Z</time>
      </trkpt>
      <trkpt lat="45.83231" lon="4.49401">
        <ele>571</ele>
        <time>2015-06-09T12:48:06Z</time>
      </trkpt>
      <trkpt lat="45.83234" lon="4.4939">
        <ele>571</ele>
        <time>2015-06-09T12:48:07Z</time>
      </trkpt>
      <trkpt lat="45.83237" lon="4.49377">
        <ele>571</ele>
        <time>2015-06-09T12:48:08Z</time>
      </trkpt>
      <trkpt lat="45.83239" lon="4.49366">
        <ele>571</ele>
        <time>2015-06-09T12:48:09Z</time>
      </trkpt>
      <trkpt lat="45.83241" lon="4.49355">
        <ele>570</ele>
        <time>2015-06-09T12:48:10Z</time>
      </trkpt>
      <trkpt lat="45.83242" lon="4.49345">
        <ele>570</ele>
        <time>2015-06-09T12:48:11Z</time>
      </trkpt>
      <trkpt lat="45.83242" lon="4.49335">
        <ele>570</ele>
        <time>2015-06-09T12:48:12Z</time>
      </trkpt>
      <trkpt lat="45.8324" lon="4.49327">
        <ele>570</ele>
        <time>2015-06-09T12:48:13Z</time>
      </trkpt>
      <trkpt lat="45.83239" lon="4.49319">
        <ele>569</ele>
        <time>2015-06-09T12:48:14Z</time>
      </trkpt>
      <trkpt lat="45.83236" lon="4.49313">
        <ele>569</ele>
        <time>2015-06-09T12:48:15Z</time>
      </trkpt>
      <trkpt lat="45.83231" lon="4.49308">
        <ele>569</ele>
        <time>2015-06-09T12:48:16Z</time>
      </trkpt>
      <trkpt lat="45.83227" lon="4.49306">
        <ele>568</ele>
        <time>2015-06-09T12:48:17Z</time>
      </trkpt>
      <trkpt lat="45.83222" lon="4.49304">
        <ele>568</ele>
        <time>2015-06-09T12:48:18Z</time>
      </trkpt>
      <trkpt lat="45.83215" lon="4.49305">
        <ele>568</ele>
        <time>2015-06-09T12:48:20Z</time>
      </trkpt>
      <trkpt lat="45.83209" lon="4.49308">
        <ele>568</ele>
        <time>2015-06-09T12:48:22Z</time>
      </trkpt>
      <trkpt lat="45.83204" lon="4.49312">
        <ele>568</ele>
        <time>2015-06-09T12:48:24Z</time>
      </trkpt>
      <trkpt lat="45.83198" lon="4.49317">
        <ele>568</ele>
        <time>2015-06-09T12:48:26Z</time>
      </trkpt>
      <trkpt lat="45.83192" lon="4.49321">
        <ele>568</ele>
        <time>2015-06-09T12:48:29Z</time>
      </trkpt>
      <trkpt lat="45.83187" lon="4.49325">
        <ele>568</ele>
        <time>2015-06-09T12:48:31Z</time>
      </trkpt>
      <trkpt lat="45.83187" lon="4.49321">
        <ele>568</ele>
        <time>2015-06-09T12:48:50Z</time>
      </trkpt>
      <trkpt lat="45.83188" lon="4.49322">
        <ele>568</ele>
        <time>2015-06-09T12:49:05Z</time>
      </trkpt>
      <trkpt lat="45.83188" lon="4.49322">
        <ele>568</ele>
        <time>2015-06-09T12:49:20Z</time>
      </trkpt>
      <trkpt lat="45.83188" lon="4.49322">
        <ele>568</ele>
        <time>2015-06-09T12:49:35Z</time>
      </trkpt>
      <trkpt lat="45.83188" lon="4.49322">
        <ele>568</ele>
        <time>2015-06-09T12:49:50Z</time>
      </trkpt>
      <trkpt lat="45.83186" lon="4.49322">
        <ele>568</ele>
        <time>2015-06-09T12:50:05Z</time>
      </trkpt>
      <trkpt lat="45.83173" lon="4.49334">
        <ele>567</ele>
        <time>2015-06-09T12:50:27Z</time>
      </trkpt>
      <trkpt lat="45.83168" lon="4.49338">
        <ele>567</ele>
        <time>2015-06-09T12:50:29Z</time>
      </trkpt>
      <trkpt lat="45.83164" lon="4.49342">
        <ele>566</ele>
        <time>2015-06-09T12:50:31Z</time>
      </trkpt>
      <trkpt lat="45.8316" lon="4.49346">
        <ele>566</ele>
        <time>2015-06-09T12:50:33Z</time>
      </trkpt>
      <trkpt lat="45.83155" lon="4.4935">
        <ele>566</ele>
        <time>2015-06-09T12:50:35Z</time>
      </trkpt>
      <trkpt lat="45.8315" lon="4.49353">
        <ele>566</ele>
        <time>2015-06-09T12:50:37Z</time>
      </trkpt>
      <trkpt lat="45.83145" lon="4.49358">
        <ele>565</ele>
        <time>2015-06-09T12:50:39Z</time>
      </trkpt>
      <trkpt lat="45.8314" lon="4.49361">
        <ele>565</ele>
        <time>2015-06-09T12:50:41Z</time>
      </trkpt>
      <trkpt lat="45.83135" lon="4.49365">
        <ele>565</ele>
        <time>2015-06-09T12:50:43Z</time>
      </trkpt>
      <trkpt lat="45.8313" lon="4.49368">
        <ele>565</ele>
        <time>2015-06-09T12:50:45Z</time>
      </trkpt>
      <trkpt lat="45.83126" lon="4.49371">
        <ele>564</ele>
        <time>2015-06-09T12:50:47Z</time>
      </trkpt>
      <trkpt lat="45.83121" lon="4.49373">
        <ele>564</ele>
        <time>2015-06-09T12:50:49Z</time>
      </trkpt>
      <trkpt lat="45.83116" lon="4.49375">
        <ele>564</ele>
        <time>2015-06-09T12:50:51Z</time>
      </trkpt>
      <trkpt lat="45.8311" lon="4.49375">
        <ele>564</ele>
        <time>2015-06-09T12:50:53Z</time>
      </trkpt>
      <trkpt lat="45.83105" lon="4.49373">
        <ele>565</ele>
        <time>2015-06-09T12:50:55Z</time>
      </trkpt>
      <trkpt lat="45.831" lon="4.4937">
        <ele>565</ele>
        <time>2015-06-09T12:50:57Z</time>
      </trkpt>
      <trkpt lat="45.83096" lon="4.49365">
        <ele>566</ele>
        <time>2015-06-09T12:50:59Z</time>
      </trkpt>
      <trkpt lat="45.83093" lon="4.49359">
        <ele>566</ele>
        <time>2015-06-09T12:51:01Z</time>
      </trkpt>
      <trkpt lat="45.83091" lon="4.49352">
        <ele>567</ele>
        <time>2015-06-09T12:51:03Z</time>
      </trkpt>
      <trkpt lat="45.83089" lon="4.49344">
        <ele>568</ele>
        <time>2015-06-09T12:51:05Z</time>
      </trkpt>
      <trkpt lat="45.83087" lon="4.49337">
        <ele>569</ele>
        <time>2015-06-09T12:51:07Z</time>
      </trkpt>
      <trkpt lat="45.83086" lon="4.4933">
        <ele>570</ele>
        <time>2015-06-09T12:51:09Z</time>
      </trkpt>
      <trkpt lat="45.83084" lon="4.49323">
        <ele>571</ele>
        <time>2015-06-09T12:51:11Z</time>
      </trkpt>
      <trkpt lat="45.83082" lon="4.49317">
        <ele>572</ele>
        <time>2015-06-09T12:51:13Z</time>
      </trkpt>
      <trkpt lat="45.83081" lon="4.4931">
        <ele>572</ele>
        <time>2015-06-09T12:51:15Z</time>
      </trkpt>
      <trkpt lat="45.8308" lon="4.49303">
        <ele>573</ele>
        <time>2015-06-09T12:51:17Z</time>
      </trkpt>
      <trkpt lat="45.83078" lon="4.49297">
        <ele>574</ele>
        <time>2015-06-09T12:51:19Z</time>
      </trkpt>
      <trkpt lat="45.83077" lon="4.49291">
        <ele>575</ele>
        <time>2015-06-09T12:51:21Z</time>
      </trkpt>
      <trkpt lat="45.83075" lon="4.49284">
        <ele>576</ele>
        <time>2015-06-09T12:51:23Z</time>
      </trkpt>
      <trkpt lat="45.83075" lon="4.49278">
        <ele>576</ele>
        <time>2015-06-09T12:51:25Z</time>
      </trkpt>
      <trkpt lat="45.83074" lon="4.49271">
        <ele>577</ele>
        <time>2015-06-09T12:51:27Z</time>
      </trkpt>
      <trkpt lat="45.83072" lon="4.49262">
        <ele>578</ele>
        <time>2015-06-09T12:51:30Z</time>
      </trkpt>
      <trkpt lat="45.83069" lon="4.49256">
        <ele>579</ele>
        <time>2015-06-09T12:51:32Z</time>
      </trkpt>
      <trkpt lat="45.83067" lon="4.4925">
        <ele>579</ele>
        <time>2015-06-09T12:51:34Z</time>
      </trkpt>
      <trkpt lat="45.83065" lon="4.49244">
        <ele>580</ele>
        <time>2015-06-09T12:51:36Z</time>
      </trkpt>
      <trkpt lat="45.83064" lon="4.49238">
        <ele>580</ele>
        <time>2015-06-09T12:51:38Z</time>
      </trkpt>
      <trkpt lat="45.83061" lon="4.49231">
        <ele>581</ele>
        <time>2015-06-09T12:51:40Z</time>
      </trkpt>
      <trkpt lat="45.83059" lon="4.49225">
        <ele>582</ele>
        <time>2015-06-09T12:51:42Z</time>
      </trkpt>
      <trkpt lat="45.83055" lon="4.49219">
        <ele>582</ele>
        <time>2015-06-09T12:51:44Z</time>
      </trkpt>
      <trkpt lat="45.8305" lon="4.49213">
        <ele>583</ele>
        <time>2015-06-09T12:51:46Z</time>
      </trkpt>
      <trkpt lat="45.83043" lon="4.49206">
        <ele>583</ele>
        <time>2015-06-09T12:51:48Z</time>
      </trkpt>
      <trkpt lat="45.83035" lon="4.49202">
        <ele>583</ele>
        <time>2015-06-09T12:51:50Z</time>
      </trkpt>
      <trkpt lat="45.83027" lon="4.49202">
        <ele>583</ele>
        <time>2015-06-09T12:51:52Z</time>
      </trkpt>
      <trkpt lat="45.83022" lon="4.49202">
        <ele>583</ele>
        <time>2015-06-09T12:51:53Z</time>
      </trkpt>
      <trkpt lat="45.83017" lon="4.49203">
        <ele>583</ele>
        <time>2015-06-09T12:51:54Z</time>
      </trkpt>
      <trkpt lat="45.83009" lon="4.49206">
        <ele>583</ele>
        <time>2015-06-09T12:51:56Z</time>
      </trkpt>
      <trkpt lat="45.83001" lon="4.49209">
        <ele>584</ele>
        <time>2015-06-09T12:51:58Z</time>
      </trkpt>
      <trkpt lat="45.82993" lon="4.49213">
        <ele>585</ele>
        <time>2015-06-09T12:52:00Z</time>
      </trkpt>
      <trkpt lat="45.82987" lon="4.49219">
        <ele>585</ele>
        <time>2015-06-09T12:52:02Z</time>
      </trkpt>
      <trkpt lat="45.82981" lon="4.49226">
        <ele>585</ele>
        <time>2015-06-09T12:52:04Z</time>
      </trkpt>
      <trkpt lat="45.82977" lon="4.49234">
        <ele>585</ele>
        <time>2015-06-09T12:52:06Z</time>
      </trkpt>
      <trkpt lat="45.82973" lon="4.49242">
        <ele>585</ele>
        <time>2015-06-09T12:52:08Z</time>
      </trkpt>
      <trkpt lat="45.8297" lon="4.49251">
        <ele>585</ele>
        <time>2015-06-09T12:52:10Z</time>
      </trkpt>
      <trkpt lat="45.82968" lon="4.49259">
        <ele>585</ele>
        <time>2015-06-09T12:52:12Z</time>
      </trkpt>
      <trkpt lat="45.82966" lon="4.49267">
        <ele>585</ele>
        <time>2015-06-09T12:52:14Z</time>
      </trkpt>
      <trkpt lat="45.82965" lon="4.49274">
        <ele>584</ele>
        <time>2015-06-09T12:52:16Z</time>
      </trkpt>
      <trkpt lat="45.82964" lon="4.49282">
        <ele>584</ele>
        <time>2015-06-09T12:52:18Z</time>
      </trkpt>
      <trkpt lat="45.82962" lon="4.49289">
        <ele>584</ele>
        <time>2015-06-09T12:52:20Z</time>
      </trkpt>
      <trkpt lat="45.82961" lon="4.49296">
        <ele>583</ele>
        <time>2015-06-09T12:52:22Z</time>
      </trkpt>
      <trkpt lat="45.82959" lon="4.49303">
        <ele>583</ele>
        <time>2015-06-09T12:52:24Z</time>
      </trkpt>
      <trkpt lat="45.82956" lon="4.49309">
        <ele>583</ele>
        <time>2015-06-09T12:52:26Z</time>
      </trkpt>
      <trkpt lat="45.82954" lon="4.49316">
        <ele>583</ele>
        <time>2015-06-09T12:52:28Z</time>
      </trkpt>
      <trkpt lat="45.82952" lon="4.49322">
        <ele>583</ele>
        <time>2015-06-09T12:52:30Z</time>
      </trkpt>
      <trkpt lat="45.82949" lon="4.49328">
        <ele>583</ele>
        <time>2015-06-09T12:52:32Z</time>
      </trkpt>
      <trkpt lat="45.82946" lon="4.49334">
        <ele>583</ele>
        <time>2015-06-09T12:52:34Z</time>
      </trkpt>
      <trkpt lat="45.82943" lon="4.4934">
        <ele>584</ele>
        <time>2015-06-09T12:52:36Z</time>
      </trkpt>
      <trkpt lat="45.8294" lon="4.49345">
        <ele>584</ele>
        <time>2015-06-09T12:52:38Z</time>
      </trkpt>
      <trkpt lat="45.82936" lon="4.49351">
        <ele>584</ele>
        <time>2015-06-09T12:52:41Z</time>
      </trkpt>
      <trkpt lat="45.82932" lon="4.49355">
        <ele>585</ele>
        <time>2015-06-09T12:52:45Z</time>
      </trkpt>
      <trkpt lat="45.82934" lon="4.49352">
        <ele>584</ele>
        <time>2015-06-09T12:53:12Z</time>
      </trkpt>
      <trkpt lat="45.82934" lon="4.49352">
        <ele>584</ele>
        <time>2015-06-09T12:53:27Z</time>
      </trkpt>
      <trkpt lat="45.82935" lon="4.49354">
        <ele>584</ele>
        <time>2015-06-09T12:53:44Z</time>
      </trkpt>
      <trkpt lat="45.8293" lon="4.49364">
        <ele>584</ele>
        <time>2015-06-09T12:53:51Z</time>
      </trkpt>
      <trkpt lat="45.82925" lon="4.49369">
        <ele>585</ele>
        <time>2015-06-09T12:53:53Z</time>
      </trkpt>
      <trkpt lat="45.82921" lon="4.49375">
        <ele>585</ele>
        <time>2015-06-09T12:53:55Z</time>
      </trkpt>
      <trkpt lat="45.82917" lon="4.49381">
        <ele>585</ele>
        <time>2015-06-09T12:53:57Z</time>
      </trkpt>
      <trkpt lat="45.82913" lon="4.49386">
        <ele>585</ele>
        <time>2015-06-09T12:53:59Z</time>
      </trkpt>
      <trkpt lat="45.82909" lon="4.49391">
        <ele>586</ele>
        <time>2015-06-09T12:54:01Z</time>
      </trkpt>
      <trkpt lat="45.82905" lon="4.49396">
        <ele>586</ele>
        <time>2015-06-09T12:54:03Z</time>
      </trkpt>
      <trkpt lat="45.82902" lon="4.49401">
        <ele>586</ele>
        <time>2015-06-09T12:54:05Z</time>
      </trkpt>
      <trkpt lat="45.82898" lon="4.49405">
        <ele>587</ele>
        <time>2015-06-09T12:54:07Z</time>
      </trkpt>
      <trkpt lat="45.82894" lon="4.4941">
        <ele>587</ele>
        <time>2015-06-09T12:54:09Z</time>
      </trkpt>
      <trkpt lat="45.8289" lon="4.49415">
        <ele>587</ele>
        <time>2015-06-09T12:54:11Z</time>
      </trkpt>
      <trkpt lat="45.82887" lon="4.4942">
        <ele>587</ele>
        <time>2015-06-09T12:54:13Z</time>
      </trkpt>
      <trkpt lat="45.82882" lon="4.49426">
        <ele>588</ele>
        <time>2015-06-09T12:54:15Z</time>
      </trkpt>
      <trkpt lat="45.82878" lon="4.49431">
        <ele>588</ele>
        <time>2015-06-09T12:54:17Z</time>
      </trkpt>
      <trkpt lat="45.82874" lon="4.49436">
        <ele>588</ele>
        <time>2015-06-09T12:54:19Z</time>
      </trkpt>
      <trkpt lat="45.82869" lon="4.49441">
        <ele>588</ele>
        <time>2015-06-09T12:54:21Z</time>
      </trkpt>
      <trkpt lat="45.82865" lon="4.49446">
        <ele>588</ele>
        <time>2015-06-09T12:54:23Z</time>
      </trkpt>
      <trkpt lat="45.82861" lon="4.4945">
        <ele>588</ele>
        <time>2015-06-09T12:54:25Z</time>
      </trkpt>
      <trkpt lat="45.82856" lon="4.49455">
        <ele>588</ele>
        <time>2015-06-09T12:54:27Z</time>
      </trkpt>
      <trkpt lat="45.82851" lon="4.4946">
        <ele>588</ele>
        <time>2015-06-09T12:54:29Z</time>
      </trkpt>
      <trkpt lat="45.82847" lon="4.49464">
        <ele>588</ele>
        <time>2015-06-09T12:54:31Z</time>
      </trkpt>
      <trkpt lat="45.82842" lon="4.49468">
        <ele>588</ele>
        <time>2015-06-09T12:54:33Z</time>
      </trkpt>
      <trkpt lat="45.82837" lon="4.49472">
        <ele>588</ele>
        <time>2015-06-09T12:54:35Z</time>
      </trkpt>
      <trkpt lat="45.82833" lon="4.49477">
        <ele>588</ele>
        <time>2015-06-09T12:54:37Z</time>
      </trkpt>
      <trkpt lat="45.82828" lon="4.49481">
        <ele>588</ele>
        <time>2015-06-09T12:54:39Z</time>
      </trkpt>
      <trkpt lat="45.82823" lon="4.49484">
        <ele>588</ele>
        <time>2015-06-09T12:54:41Z</time>
      </trkpt>
      <trkpt lat="45.82817" lon="4.49485">
        <ele>589</ele>
        <time>2015-06-09T12:54:43Z</time>
      </trkpt>
      <trkpt lat="45.82812" lon="4.49486">
        <ele>590</ele>
        <time>2015-06-09T12:54:45Z</time>
      </trkpt>
      <trkpt lat="45.82806" lon="4.49486">
        <ele>590</ele>
        <time>2015-06-09T12:54:47Z</time>
      </trkpt>
      <trkpt lat="45.82801" lon="4.49487">
        <ele>591</ele>
        <time>2015-06-09T12:54:49Z</time>
      </trkpt>
      <trkpt lat="45.82795" lon="4.49486">
        <ele>592</ele>
        <time>2015-06-09T12:54:51Z</time>
      </trkpt>
      <trkpt lat="45.82789" lon="4.49486">
        <ele>592</ele>
        <time>2015-06-09T12:54:53Z</time>
      </trkpt>
      <trkpt lat="45.82784" lon="4.49485">
        <ele>593</ele>
        <time>2015-06-09T12:54:55Z</time>
      </trkpt>
      <trkpt lat="45.82778" lon="4.49484">
        <ele>594</ele>
        <time>2015-06-09T12:54:57Z</time>
      </trkpt>
      <trkpt lat="45.82772" lon="4.49484">
        <ele>595</ele>
        <time>2015-06-09T12:54:59Z</time>
      </trkpt>
      <trkpt lat="45.82766" lon="4.49484">
        <ele>596</ele>
        <time>2015-06-09T12:55:01Z</time>
      </trkpt>
      <trkpt lat="45.82761" lon="4.49484">
        <ele>596</ele>
        <time>2015-06-09T12:55:03Z</time>
      </trkpt>
      <trkpt lat="45.82755" lon="4.49485">
        <ele>597</ele>
        <time>2015-06-09T12:55:05Z</time>
      </trkpt>
      <trkpt lat="45.82749" lon="4.49486">
        <ele>597</ele>
        <time>2015-06-09T12:55:07Z</time>
      </trkpt>
      <trkpt lat="45.82744" lon="4.49488">
        <ele>597</ele>
        <time>2015-06-09T12:55:09Z</time>
      </trkpt>
      <trkpt lat="45.82739" lon="4.49491">
        <ele>598</ele>
        <time>2015-06-09T12:55:11Z</time>
      </trkpt>
      <trkpt lat="45.82733" lon="4.49494">
        <ele>598</ele>
        <time>2015-06-09T12:55:13Z</time>
      </trkpt>
      <trkpt lat="45.82728" lon="4.49498">
        <ele>598</ele>
        <time>2015-06-09T12:55:15Z</time>
      </trkpt>
      <trkpt lat="45.82723" lon="4.49502">
        <ele>598</ele>
        <time>2015-06-09T12:55:17Z</time>
      </trkpt>
      <trkpt lat="45.82718" lon="4.49507">
        <ele>598</ele>
        <time>2015-06-09T12:55:19Z</time>
      </trkpt>
      <trkpt lat="45.82713" lon="4.49511">
        <ele>598</ele>
        <time>2015-06-09T12:55:21Z</time>
      </trkpt>
      <trkpt lat="45.82708" lon="4.49516">
        <ele>598</ele>
        <time>2015-06-09T12:55:23Z</time>
      </trkpt>
      <trkpt lat="45.82704" lon="4.49521">
        <ele>598</ele>
        <time>2015-06-09T12:55:25Z</time>
      </trkpt>
      <trkpt lat="45.827" lon="4.49526">
        <ele>598</ele>
        <time>2015-06-09T12:55:27Z</time>
      </trkpt>
      <trkpt lat="45.82695" lon="4.49531">
        <ele>598</ele>
        <time>2015-06-09T12:55:29Z</time>
      </trkpt>
      <trkpt lat="45.8269" lon="4.49535">
        <ele>599</ele>
        <time>2015-06-09T12:55:31Z</time>
      </trkpt>
      <trkpt lat="45.82686" lon="4.4954">
        <ele>599</ele>
        <time>2015-06-09T12:55:33Z</time>
      </trkpt>
      <trkpt lat="45.82681" lon="4.49544">
        <ele>599</ele>
        <time>2015-06-09T12:55:35Z</time>
      </trkpt>
      <trkpt lat="45.82677" lon="4.49549">
        <ele>599</ele>
        <time>2015-06-09T12:55:37Z</time>
      </trkpt>
      <trkpt lat="45.82672" lon="4.49554">
        <ele>600</ele>
        <time>2015-06-09T12:55:39Z</time>
      </trkpt>
      <trkpt lat="45.82668" lon="4.49558">
        <ele>600</ele>
        <time>2015-06-09T12:55:41Z</time>
      </trkpt>
      <trkpt lat="45.82663" lon="4.49561">
        <ele>600</ele>
        <time>2015-06-09T12:55:43Z</time>
      </trkpt>
      <trkpt lat="45.82658" lon="4.49565">
        <ele>600</ele>
        <time>2015-06-09T12:55:45Z</time>
      </trkpt>
      <trkpt lat="45.82653" lon="4.49569">
        <ele>599</ele>
        <time>2015-06-09T12:55:47Z</time>
      </trkpt>
      <trkpt lat="45.82648" lon="4.49573">
        <ele>599</ele>
        <time>2015-06-09T12:55:49Z</time>
      </trkpt>
      <trkpt lat="45.82644" lon="4.49577">
        <ele>599</ele>
        <time>2015-06-09T12:55:51Z</time>
      </trkpt>
      <trkpt lat="45.82639" lon="4.49581">
        <ele>599</ele>
        <time>2015-06-09T12:55:53Z</time>
      </trkpt>
      <trkpt lat="45.82634" lon="4.49585">
        <ele>599</ele>
        <time>2015-06-09T12:55:55Z</time>
      </trkpt>
      <trkpt lat="45.82629" lon="4.49587">
        <ele>598</ele>
        <time>2015-06-09T12:55:57Z</time>
      </trkpt>
      <trkpt lat="45.82624" lon="4.4959">
        <ele>598</ele>
        <time>2015-06-09T12:55:59Z</time>
      </trkpt>
      <trkpt lat="45.82618" lon="4.49595">
        <ele>598</ele>
        <time>2015-06-09T12:56:01Z</time>
      </trkpt>
      <trkpt lat="45.82604" lon="4.49594">
        <ele>598</ele>
        <time>2015-06-09T12:56:03Z</time>
      </trkpt>
      <trkpt lat="45.82598" lon="4.4959">
        <ele>598</ele>
        <time>2015-06-09T12:56:04Z</time>
      </trkpt>
      <trkpt lat="45.82592" lon="4.49586">
        <ele>599</ele>
        <time>2015-06-09T12:56:05Z</time>
      </trkpt>
      <trkpt lat="45.82585" lon="4.4958">
        <ele>599</ele>
        <time>2015-06-09T12:56:06Z</time>
      </trkpt>
      <trkpt lat="45.82578" lon="4.49575">
        <ele>600</ele>
        <time>2015-06-09T12:56:07Z</time>
      </trkpt>
      <trkpt lat="45.82571" lon="4.49572">
        <ele>600</ele>
        <time>2015-06-09T12:56:08Z</time>
      </trkpt>
      <trkpt lat="45.82566" lon="4.49571">
        <ele>600</ele>
        <time>2015-06-09T12:56:09Z</time>
      </trkpt>
      <trkpt lat="45.82559" lon="4.49573">
        <ele>600</ele>
        <time>2015-06-09T12:56:10Z</time>
      </trkpt>
      <trkpt lat="45.82552" lon="4.49575">
        <ele>600</ele>
        <time>2015-06-09T12:56:11Z</time>
      </trkpt>
      <trkpt lat="45.82545" lon="4.49577">
        <ele>599</ele>
        <time>2015-06-09T12:56:12Z</time>
      </trkpt>
      <trkpt lat="45.82539" lon="4.49579">
        <ele>599</ele>
        <time>2015-06-09T12:56:13Z</time>
      </trkpt>
      <trkpt lat="45.82533" lon="4.49584">
        <ele>599</ele>
        <time>2015-06-09T12:56:14Z</time>
      </trkpt>
      <trkpt lat="45.82527" lon="4.4959">
        <ele>599</ele>
        <time>2015-06-09T12:56:15Z</time>
      </trkpt>
      <trkpt lat="45.82522" lon="4.49596">
        <ele>599</ele>
        <time>2015-06-09T12:56:16Z</time>
      </trkpt>
      <trkpt lat="45.82517" lon="4.49604">
        <ele>599</ele>
        <time>2015-06-09T12:56:17Z</time>
      </trkpt>
      <trkpt lat="45.82512" lon="4.49611">
        <ele>599</ele>
        <time>2015-06-09T12:56:18Z</time>
      </trkpt>
      <trkpt lat="45.82508" lon="4.4962">
        <ele>598</ele>
        <time>2015-06-09T12:56:19Z</time>
      </trkpt>
      <trkpt lat="45.82504" lon="4.49629">
        <ele>598</ele>
        <time>2015-06-09T12:56:20Z</time>
      </trkpt>
      <trkpt lat="45.82499" lon="4.49638">
        <ele>597</ele>
        <time>2015-06-09T12:56:21Z</time>
      </trkpt>
      <trkpt lat="45.82496" lon="4.49646">
        <ele>597</ele>
        <time>2015-06-09T12:56:22Z</time>
      </trkpt>
      <trkpt lat="45.82492" lon="4.49654">
        <ele>596</ele>
        <time>2015-06-09T12:56:23Z</time>
      </trkpt>
      <trkpt lat="45.82489" lon="4.4966">
        <ele>596</ele>
        <time>2015-06-09T12:56:24Z</time>
      </trkpt>
      <trkpt lat="45.82487" lon="4.49665">
        <ele>595</ele>
        <time>2015-06-09T12:56:25Z</time>
      </trkpt>
      <trkpt lat="45.82481" lon="4.49673">
        <ele>595</ele>
        <time>2015-06-09T12:56:27Z</time>
      </trkpt>
      <trkpt lat="45.82475" lon="4.49681">
        <ele>594</ele>
        <time>2015-06-09T12:56:29Z</time>
      </trkpt>
      <trkpt lat="45.82473" lon="4.49689">
        <ele>593</ele>
        <time>2015-06-09T12:56:33Z</time>
      </trkpt>
      <trkpt lat="45.82469" lon="4.49694">
        <ele>593</ele>
        <time>2015-06-09T12:56:37Z</time>
      </trkpt>
      <trkpt lat="45.82465" lon="4.49701">
        <ele>592</ele>
        <time>2015-06-09T12:56:40Z</time>
      </trkpt>
      <trkpt lat="45.82461" lon="4.49706">
        <ele>593</ele>
        <time>2015-06-09T12:56:42Z</time>
      </trkpt>
      <trkpt lat="45.82457" lon="4.49712">
        <ele>592</ele>
        <time>2015-06-09T12:56:45Z</time>
      </trkpt>
      <trkpt lat="45.82452" lon="4.49716">
        <ele>593</ele>
        <time>2015-06-09T12:56:49Z</time>
      </trkpt>
      <trkpt lat="45.82449" lon="4.49722">
        <ele>593</ele>
        <time>2015-06-09T12:56:52Z</time>
      </trkpt>
      <trkpt lat="45.82446" lon="4.49728">
        <ele>592</ele>
        <time>2015-06-09T12:56:54Z</time>
      </trkpt>
      <trkpt lat="45.82441" lon="4.49735">
        <ele>592</ele>
        <time>2015-06-09T12:56:56Z</time>
      </trkpt>
      <trkpt lat="45.82436" lon="4.49744">
        <ele>592</ele>
        <time>2015-06-09T12:56:58Z</time>
      </trkpt>
      <trkpt lat="45.8243" lon="4.49754">
        <ele>591</ele>
        <time>2015-06-09T12:57:00Z</time>
      </trkpt>
      <trkpt lat="45.82425" lon="4.49763">
        <ele>591</ele>
        <time>2015-06-09T12:57:02Z</time>
      </trkpt>
      <trkpt lat="45.82419" lon="4.49773">
        <ele>591</ele>
        <time>2015-06-09T12:57:03Z</time>
      </trkpt>
      <trkpt lat="45.82416" lon="4.4978">
        <ele>590</ele>
        <time>2015-06-09T12:57:04Z</time>
      </trkpt>
      <trkpt lat="45.82413" lon="4.49786">
        <ele>590</ele>
        <time>2015-06-09T12:57:05Z</time>
      </trkpt>
      <trkpt lat="45.8241" lon="4.49792">
        <ele>590</ele>
        <time>2015-06-09T12:57:06Z</time>
      </trkpt>
      <trkpt lat="45.82407" lon="4.49799">
        <ele>589</ele>
        <time>2015-06-09T12:57:07Z</time>
      </trkpt>
      <trkpt lat="45.82402" lon="4.49805">
        <ele>589</ele>
        <time>2015-06-09T12:57:08Z</time>
      </trkpt>
      <trkpt lat="45.82399" lon="4.4981">
        <ele>589</ele>
        <time>2015-06-09T12:57:09Z</time>
      </trkpt>
      <trkpt lat="45.82395" lon="4.49816">
        <ele>589</ele>
        <time>2015-06-09T12:57:10Z</time>
      </trkpt>
      <trkpt lat="45.82391" lon="4.49822">
        <ele>589</ele>
        <time>2015-06-09T12:57:11Z</time>
      </trkpt>
      <trkpt lat="45.82389" lon="4.49828">
        <ele>588</ele>
        <time>2015-06-09T12:57:12Z</time>
      </trkpt>
      <trkpt lat="45.82386" lon="4.49833">
        <ele>588</ele>
        <time>2015-06-09T12:57:13Z</time>
      </trkpt>
      <trkpt lat="45.8238" lon="4.49843">
        <ele>588</ele>
        <time>2015-06-09T12:57:15Z</time>
      </trkpt>
      <trkpt lat="45.82375" lon="4.4985">
        <ele>588</ele>
        <time>2015-06-09T12:57:17Z</time>
      </trkpt>
      <trkpt lat="45.82372" lon="4.49855">
        <ele>588</ele>
        <time>2015-06-09T12:57:19Z</time>
      </trkpt>
      <trkpt lat="45.82368" lon="4.4986">
        <ele>588</ele>
        <time>2015-06-09T12:57:21Z</time>
      </trkpt>
      <trkpt lat="45.82363" lon="4.49865">
        <ele>588</ele>
        <time>2015-06-09T12:57:23Z</time>
      </trkpt>
      <trkpt lat="45.82357" lon="4.49871">
        <ele>588</ele>
        <time>2015-06-09T12:57:25Z</time>
      </trkpt>
      <trkpt lat="45.82351" lon="4.49877">
        <ele>588</ele>
        <time>2015-06-09T12:57:27Z</time>
      </trkpt>
      <trkpt lat="45.82343" lon="4.49881">
        <ele>589</ele>
        <time>2015-06-09T12:57:29Z</time>
      </trkpt>
      <trkpt lat="45.82337" lon="4.49884">
        <ele>589</ele>
        <time>2015-06-09T12:57:30Z</time>
      </trkpt>
      <trkpt lat="45.82332" lon="4.49888">
        <ele>589</ele>
        <time>2015-06-09T12:57:31Z</time>
      </trkpt>
      <trkpt lat="45.82327" lon="4.49892">
        <ele>589</ele>
        <time>2015-06-09T12:57:32Z</time>
      </trkpt>
      <trkpt lat="45.82321" lon="4.49896">
        <ele>588</ele>
        <time>2015-06-09T12:57:33Z</time>
      </trkpt>
      <trkpt lat="45.82315" lon="4.49899">
        <ele>586</ele>
        <time>2015-06-09T12:57:34Z</time>
      </trkpt>
      <trkpt lat="45.8231" lon="4.49902">
        <ele>585</ele>
        <time>2015-06-09T12:57:35Z</time>
      </trkpt>
      <trkpt lat="45.82304" lon="4.49903">
        <ele>584</ele>
        <time>2015-06-09T12:57:36Z</time>
      </trkpt>
      <trkpt lat="45.823" lon="4.49905">
        <ele>584</ele>
        <time>2015-06-09T12:57:37Z</time>
      </trkpt>
      <trkpt lat="45.82294" lon="4.49906">
        <ele>583</ele>
        <time>2015-06-09T12:57:38Z</time>
      </trkpt>
      <trkpt lat="45.82289" lon="4.49906">
        <ele>582</ele>
        <time>2015-06-09T12:57:39Z</time>
      </trkpt>
      <trkpt lat="45.82283" lon="4.49906">
        <ele>582</ele>
        <time>2015-06-09T12:57:40Z</time>
      </trkpt>
      <trkpt lat="45.82278" lon="4.49905">
        <ele>581</ele>
        <time>2015-06-09T12:57:41Z</time>
      </trkpt>
      <trkpt lat="45.82272" lon="4.49903">
        <ele>581</ele>
        <time>2015-06-09T12:57:42Z</time>
      </trkpt>
      <trkpt lat="45.82267" lon="4.49901">
        <ele>581</ele>
        <time>2015-06-09T12:57:43Z</time>
      </trkpt>
      <trkpt lat="45.82259" lon="4.499">
        <ele>580</ele>
        <time>2015-06-09T12:57:45Z</time>
      </trkpt>
      <trkpt lat="45.82253" lon="4.49895">
        <ele>580</ele>
        <time>2015-06-09T12:57:47Z</time>
      </trkpt>
      <trkpt lat="45.82248" lon="4.49895">
        <ele>580</ele>
        <time>2015-06-09T12:57:49Z</time>
      </trkpt>
      <trkpt lat="45.82246" lon="4.49893">
        <ele>580</ele>
        <time>2015-06-09T12:58:08Z</time>
      </trkpt>
      <trkpt lat="45.82244" lon="4.49891">
        <ele>580</ele>
        <time>2015-06-09T12:58:10Z</time>
      </trkpt>
      <trkpt lat="45.82239" lon="4.49885">
        <ele>581</ele>
        <time>2015-06-09T12:58:13Z</time>
      </trkpt>
      <trkpt lat="45.82234" lon="4.49879">
        <ele>582</ele>
        <time>2015-06-09T12:58:15Z</time>
      </trkpt>
      <trkpt lat="45.8223" lon="4.49871">
        <ele>583</ele>
        <time>2015-06-09T12:58:17Z</time>
      </trkpt>
      <trkpt lat="45.82228" lon="4.49862">
        <ele>584</ele>
        <time>2015-06-09T12:58:19Z</time>
      </trkpt>
      <trkpt lat="45.82225" lon="4.49851">
        <ele>585</ele>
        <time>2015-06-09T12:58:21Z</time>
      </trkpt>
      <trkpt lat="45.82222" lon="4.49836">
        <ele>588</ele>
        <time>2015-06-09T12:58:23Z</time>
      </trkpt>
      <trkpt lat="45.8222" lon="4.49828">
        <ele>589</ele>
        <time>2015-06-09T12:58:24Z</time>
      </trkpt>
      <trkpt lat="45.82217" lon="4.49822">
        <ele>590</ele>
        <time>2015-06-09T12:58:25Z</time>
      </trkpt>
      <trkpt lat="45.82215" lon="4.49814">
        <ele>591</ele>
        <time>2015-06-09T12:58:26Z</time>
      </trkpt>
      <trkpt lat="45.82213" lon="4.49808">
        <ele>592</ele>
        <time>2015-06-09T12:58:27Z</time>
      </trkpt>
      <trkpt lat="45.82211" lon="4.49801">
        <ele>593</ele>
        <time>2015-06-09T12:58:28Z</time>
      </trkpt>
      <trkpt lat="45.82209" lon="4.49794">
        <ele>594</ele>
        <time>2015-06-09T12:58:29Z</time>
      </trkpt>
      <trkpt lat="45.82206" lon="4.49787">
        <ele>596</ele>
        <time>2015-06-09T12:58:30Z</time>
      </trkpt>
      <trkpt lat="45.82203" lon="4.49781">
        <ele>597</ele>
        <time>2015-06-09T12:58:31Z</time>
      </trkpt>
      <trkpt lat="45.82196" lon="4.49774">
        <ele>598</ele>
        <time>2015-06-09T12:58:33Z</time>
      </trkpt>
      <trkpt lat="45.82192" lon="4.49771">
        <ele>599</ele>
        <time>2015-06-09T12:58:34Z</time>
      </trkpt>
      <trkpt lat="45.82187" lon="4.4977">
        <ele>599</ele>
        <time>2015-06-09T12:58:35Z</time>
      </trkpt>
      <trkpt lat="45.82183" lon="4.49771">
        <ele>600</ele>
        <time>2015-06-09T12:58:36Z</time>
      </trkpt>
      <trkpt lat="45.82176" lon="4.49776">
        <ele>599</ele>
        <time>2015-06-09T12:58:38Z</time>
      </trkpt>
      <trkpt lat="45.8217" lon="4.49784">
        <ele>598</ele>
        <time>2015-06-09T12:58:40Z</time>
      </trkpt>
      <trkpt lat="45.82164" lon="4.49792">
        <ele>597</ele>
        <time>2015-06-09T12:58:42Z</time>
      </trkpt>
      <trkpt lat="45.82159" lon="4.49798">
        <ele>596</ele>
        <time>2015-06-09T12:58:44Z</time>
      </trkpt>
      <trkpt lat="45.82157" lon="4.49804">
        <ele>595</ele>
        <time>2015-06-09T12:58:46Z</time>
      </trkpt>
      <trkpt lat="45.82153" lon="4.49809">
        <ele>594</ele>
        <time>2015-06-09T12:58:48Z</time>
      </trkpt>
      <trkpt lat="45.82149" lon="4.49815">
        <ele>593</ele>
        <time>2015-06-09T12:58:50Z</time>
      </trkpt>
      <trkpt lat="45.82145" lon="4.49821">
        <ele>592</ele>
        <time>2015-06-09T12:58:52Z</time>
      </trkpt>
      <trkpt lat="45.82141" lon="4.49826">
        <ele>591</ele>
        <time>2015-06-09T12:58:54Z</time>
      </trkpt>
      <trkpt lat="45.82136" lon="4.4983">
        <ele>591</ele>
        <time>2015-06-09T12:58:57Z</time>
      </trkpt>
      <trkpt lat="45.82132" lon="4.49835">
        <ele>590</ele>
        <time>2015-06-09T12:59:00Z</time>
      </trkpt>
      <trkpt lat="45.82129" lon="4.4984">
        <ele>590</ele>
        <time>2015-06-09T12:59:03Z</time>
      </trkpt>
      <trkpt lat="45.82125" lon="4.49844">
        <ele>589</ele>
        <time>2015-06-09T12:59:06Z</time>
      </trkpt>
      <trkpt lat="45.82121" lon="4.49847">
        <ele>589</ele>
        <time>2015-06-09T12:59:09Z</time>
      </trkpt>
      <trkpt lat="45.82115" lon="4.49848">
        <ele>590</ele>
        <time>2015-06-09T12:59:12Z</time>
      </trkpt>
      <trkpt lat="45.82106" lon="4.49847">
        <ele>590</ele>
        <time>2015-06-09T12:59:15Z</time>
      </trkpt>
      <trkpt lat="45.82098" lon="4.49846">
        <ele>591</ele>
        <time>2015-06-09T12:59:17Z</time>
      </trkpt>
      <trkpt lat="45.8209" lon="4.49845">
        <ele>592</ele>
        <time>2015-06-09T12:59:19Z</time>
      </trkpt>
      <trkpt lat="45.82082" lon="4.49843">
        <ele>593</ele>
        <time>2015-06-09T12:59:21Z</time>
      </trkpt>
      <trkpt lat="45.82076" lon="4.49842">
        <ele>594</ele>
        <time>2015-06-09T12:59:23Z</time>
      </trkpt>
      <trkpt lat="45.82069" lon="4.49842">
        <ele>594</ele>
        <time>2015-06-09T12:59:25Z</time>
      </trkpt>
      <trkpt lat="45.82063" lon="4.49843">
        <ele>595</ele>
        <time>2015-06-09T12:59:27Z</time>
      </trkpt>
      <trkpt lat="45.82057" lon="4.49842">
        <ele>595</ele>
        <time>2015-06-09T12:59:29Z</time>
      </trkpt>
      <trkpt lat="45.82052" lon="4.4984">
        <ele>596</ele>
        <time>2015-06-09T12:59:31Z</time>
      </trkpt>
      <trkpt lat="45.82046" lon="4.4984">
        <ele>596</ele>
        <time>2015-06-09T12:59:33Z</time>
      </trkpt>
      <trkpt lat="45.82041" lon="4.49838">
        <ele>597</ele>
        <time>2015-06-09T12:59:35Z</time>
      </trkpt>
      <trkpt lat="45.82036" lon="4.49837">
        <ele>597</ele>
        <time>2015-06-09T12:59:37Z</time>
      </trkpt>
      <trkpt lat="45.82032" lon="4.49834">
        <ele>598</ele>
        <time>2015-06-09T12:59:39Z</time>
      </trkpt>
      <trkpt lat="45.82026" lon="4.49834">
        <ele>598</ele>
        <time>2015-06-09T12:59:41Z</time>
      </trkpt>
      <trkpt lat="45.82018" lon="4.49834">
        <ele>598</ele>
        <time>2015-06-09T12:59:43Z</time>
      </trkpt>
      <trkpt lat="45.8201" lon="4.49834">
        <ele>598</ele>
        <time>2015-06-09T12:59:45Z</time>
      </trkpt>
      <trkpt lat="45.82002" lon="4.49833">
        <ele>598</ele>
        <time>2015-06-09T12:59:47Z</time>
      </trkpt>
      <trkpt lat="45.81994" lon="4.49833">
        <ele>598</ele>
        <time>2015-06-09T12:59:49Z</time>
      </trkpt>
      <trkpt lat="45.81986" lon="4.49832">
        <ele>599</ele>
        <time>2015-06-09T12:59:51Z</time>
      </trkpt>
      <trkpt lat="45.81978" lon="4.4983">
        <ele>599</ele>
        <time>2015-06-09T12:59:53Z</time>
      </trkpt>
      <trkpt lat="45.81972" lon="4.49828">
        <ele>599</ele>
        <time>2015-06-09T12:59:55Z</time>
      </trkpt>
      <trkpt lat="45.81966" lon="4.49827">
        <ele>598</ele>
        <time>2015-06-09T12:59:57Z</time>
      </trkpt>
      <trkpt lat="45.81959" lon="4.49825">
        <ele>598</ele>
        <time>2015-06-09T12:59:59Z</time>
      </trkpt>
      <trkpt lat="45.81952" lon="4.49822">
        <ele>598</ele>
        <time>2015-06-09T13:00:01Z</time>
      </trkpt>
      <trkpt lat="45.81945" lon="4.49819">
        <ele>597</ele>
        <time>2015-06-09T13:00:03Z</time>
      </trkpt>
      <trkpt lat="45.81939" lon="4.49816">
        <ele>597</ele>
        <time>2015-06-09T13:00:05Z</time>
      </trkpt>
      <trkpt lat="45.81935" lon="4.49814">
        <ele>597</ele>
        <time>2015-06-09T13:00:07Z</time>
      </trkpt>
      <trkpt lat="45.8193" lon="4.49809">
        <ele>597</ele>
        <time>2015-06-09T13:00:10Z</time>
      </trkpt>
      <trkpt lat="45.81924" lon="4.49805">
        <ele>598</ele>
        <time>2015-06-09T13:00:13Z</time>
      </trkpt>
      <trkpt lat="45.81919" lon="4.49801">
        <ele>597</ele>
        <time>2015-06-09T13:00:15Z</time>
      </trkpt>
      <trkpt lat="45.81915" lon="4.49797">
        <ele>598</ele>
        <time>2015-06-09T13:00:17Z</time>
      </trkpt>
      <trkpt lat="45.8191" lon="4.49789">
        <ele>599</ele>
        <time>2015-06-09T13:00:19Z</time>
      </trkpt>
      <trkpt lat="45.81905" lon="4.49782">
        <ele>600</ele>
        <time>2015-06-09T13:00:21Z</time>
      </trkpt>
      <trkpt lat="45.819" lon="4.49777">
        <ele>601</ele>
        <time>2015-06-09T13:00:23Z</time>
      </trkpt>
      <trkpt lat="45.81897" lon="4.49772">
        <ele>601</ele>
        <time>2015-06-09T13:00:24Z</time>
      </trkpt>
      <trkpt lat="45.81891" lon="4.49766">
        <ele>602</ele>
        <time>2015-06-09T13:00:26Z</time>
      </trkpt>
      <trkpt lat="45.81887" lon="4.49759">
        <ele>602</ele>
        <time>2015-06-09T13:00:28Z</time>
      </trkpt>
      <trkpt lat="45.81882" lon="4.49751">
        <ele>603</ele>
        <time>2015-06-09T13:00:30Z</time>
      </trkpt>
      <trkpt lat="45.81878" lon="4.49744">
        <ele>604</ele>
        <time>2015-06-09T13:00:32Z</time>
      </trkpt>
      <trkpt lat="45.81874" lon="4.49735">
        <ele>605</ele>
        <time>2015-06-09T13:00:34Z</time>
      </trkpt>
      <trkpt lat="45.81871" lon="4.49728">
        <ele>606</ele>
        <time>2015-06-09T13:00:36Z</time>
      </trkpt>
      <trkpt lat="45.81868" lon="4.49722">
        <ele>606</ele>
        <time>2015-06-09T13:00:38Z</time>
      </trkpt>
      <trkpt lat="45.81863" lon="4.49717">
        <ele>606</ele>
        <time>2015-06-09T13:00:41Z</time>
      </trkpt>
      <trkpt lat="45.81857" lon="4.49713">
        <ele>606</ele>
        <time>2015-06-09T13:00:44Z</time>
      </trkpt>
      <trkpt lat="45.81851" lon="4.49709">
        <ele>606</ele>
        <time>2015-06-09T13:00:47Z</time>
      </trkpt>
      <trkpt lat="45.81845" lon="4.49706">
        <ele>606</ele>
        <time>2015-06-09T13:00:50Z</time>
      </trkpt>
      <trkpt lat="45.81839" lon="4.49702">
        <ele>607</ele>
        <time>2015-06-09T13:00:53Z</time>
      </trkpt>
      <trkpt lat="45.81836" lon="4.49697">
        <ele>607</ele>
        <time>2015-06-09T13:00:56Z</time>
      </trkpt>
      <trkpt lat="45.81833" lon="4.4969">
        <ele>608</ele>
        <time>2015-06-09T13:00:59Z</time>
      </trkpt>
      <trkpt lat="45.81831" lon="4.49683">
        <ele>608</ele>
        <time>2015-06-09T13:01:04Z</time>
      </trkpt>
      <trkpt lat="45.81825" lon="4.49681">
        <ele>609</ele>
        <time>2015-06-09T13:01:06Z</time>
      </trkpt>
      <trkpt lat="45.81821" lon="4.49677">
        <ele>610</ele>
        <time>2015-06-09T13:01:09Z</time>
      </trkpt>
      <trkpt lat="45.81816" lon="4.49674">
        <ele>610</ele>
        <time>2015-06-09T13:01:12Z</time>
      </trkpt>
      <trkpt lat="45.8181" lon="4.49669">
        <ele>611</ele>
        <time>2015-06-09T13:01:15Z</time>
      </trkpt>
      <trkpt lat="45.81805" lon="4.49664">
        <ele>612</ele>
        <time>2015-06-09T13:01:18Z</time>
      </trkpt>
      <trkpt lat="45.81801" lon="4.49664">
        <ele>612</ele>
        <time>2015-06-09T13:01:22Z</time>
      </trkpt>
      <trkpt lat="45.81796" lon="4.49663">
        <ele>612</ele>
        <time>2015-06-09T13:01:29Z</time>
      </trkpt>
      <trkpt lat="45.81791" lon="4.49662">
        <ele>613</ele>
        <time>2015-06-09T13:01:44Z</time>
      </trkpt>
      <trkpt lat="45.81786" lon="4.49661">
        <ele>613</ele>
        <time>2015-06-09T13:01:49Z</time>
      </trkpt>
      <trkpt lat="45.81781" lon="4.49662">
        <ele>613</ele>
        <time>2015-06-09T13:01:57Z</time>
      </trkpt>
      <trkpt lat="45.81776" lon="4.49662">
        <ele>614</ele>
        <time>2015-06-09T13:02:05Z</time>
      </trkpt>
      <trkpt lat="45.81772" lon="4.49662">
        <ele>614</ele>
        <time>2015-06-09T13:02:11Z</time>
      </trkpt>
      <trkpt lat="45.81767" lon="4.49662">
        <ele>615</ele>
        <time>2015-06-09T13:02:18Z</time>
      </trkpt>
      <trkpt lat="45.81762" lon="4.49662">
        <ele>616</ele>
        <time>2015-06-09T13:02:21Z</time>
      </trkpt>
      <trkpt lat="45.81757" lon="4.49662">
        <ele>616</ele>
        <time>2015-06-09T13:02:24Z</time>
      </trkpt>
      <trkpt lat="45.81753" lon="4.49663">
        <ele>617</ele>
        <time>2015-06-09T13:02:27Z</time>
      </trkpt>
      <trkpt lat="45.81748" lon="4.49663">
        <ele>617</ele>
        <time>2015-06-09T13:02:30Z</time>
      </trkpt>
      <trkpt lat="45.81743" lon="4.49662">
        <ele>618</ele>
        <time>2015-06-09T13:02:34Z</time>
      </trkpt>
      <trkpt lat="45.81738" lon="4.49664">
        <ele>619</ele>
        <time>2015-06-09T13:02:39Z</time>
      </trkpt>
      <trkpt lat="45.81731" lon="4.49666">
        <ele>619</ele>
        <time>2015-06-09T13:02:43Z</time>
      </trkpt>
      <trkpt lat="45.81728" lon="4.49671">
        <ele>619</ele>
        <time>2015-06-09T13:02:55Z</time>
      </trkpt>
      <trkpt lat="45.81723" lon="4.49673">
        <ele>619</ele>
        <time>2015-06-09T13:03:00Z</time>
      </trkpt>
      <trkpt lat="45.81718" lon="4.49674">
        <ele>620</ele>
        <time>2015-06-09T13:03:03Z</time>
      </trkpt>
      <trkpt lat="45.81712" lon="4.49677">
        <ele>620</ele>
        <time>2015-06-09T13:03:06Z</time>
      </trkpt>
      <trkpt lat="45.81706" lon="4.49679">
        <ele>621</ele>
        <time>2015-06-09T13:03:09Z</time>
      </trkpt>
      <trkpt lat="45.81701" lon="4.49681">
        <ele>621</ele>
        <time>2015-06-09T13:03:11Z</time>
      </trkpt>
      <trkpt lat="45.81694" lon="4.49682">
        <ele>622</ele>
        <time>2015-06-09T13:03:13Z</time>
      </trkpt>
      <trkpt lat="45.81685" lon="4.49683">
        <ele>622</ele>
        <time>2015-06-09T13:03:15Z</time>
      </trkpt>
      <trkpt lat="45.81679" lon="4.49685">
        <ele>623</ele>
        <time>2015-06-09T13:03:17Z</time>
      </trkpt>
      <trkpt lat="45.81672" lon="4.49687">
        <ele>623</ele>
        <time>2015-06-09T13:03:19Z</time>
      </trkpt>
      <trkpt lat="45.81667" lon="4.49687">
        <ele>624</ele>
        <time>2015-06-09T13:03:21Z</time>
      </trkpt>
      <trkpt lat="45.81661" lon="4.49685">
        <ele>625</ele>
        <time>2015-06-09T13:03:24Z</time>
      </trkpt>
      <trkpt lat="45.81655" lon="4.49683">
        <ele>625</ele>
        <time>2015-06-09T13:03:27Z</time>
      </trkpt>
      <trkpt lat="45.8165" lon="4.49683">
        <ele>626</ele>
        <time>2015-06-09T13:03:29Z</time>
      </trkpt>
      <trkpt lat="45.81644" lon="4.49683">
        <ele>627</ele>
        <time>2015-06-09T13:03:31Z</time>
      </trkpt>
      <trkpt lat="45.8164" lon="4.49683">
        <ele>627</ele>
        <time>2015-06-09T13:03:33Z</time>
      </trkpt>
      <trkpt lat="45.81635" lon="4.49686">
        <ele>627</ele>
        <time>2015-06-09T13:03:36Z</time>
      </trkpt>
      <trkpt lat="45.8163" lon="4.49688">
        <ele>627</ele>
        <time>2015-06-09T13:03:38Z</time>
      </trkpt>
      <trkpt lat="45.81623" lon="4.49692">
        <ele>627</ele>
        <time>2015-06-09T13:03:40Z</time>
      </trkpt>
      <trkpt lat="45.81617" lon="4.49698">
        <ele>627</ele>
        <time>2015-06-09T13:03:42Z</time>
      </trkpt>
      <trkpt lat="45.81612" lon="4.49702">
        <ele>628</ele>
        <time>2015-06-09T13:03:45Z</time>
      </trkpt>
      <trkpt lat="45.81614" lon="4.49709">
        <ele>627</ele>
        <time>2015-06-09T13:03:59Z</time>
      </trkpt>
      <trkpt lat="45.81614" lon="4.49715">
        <ele>627</ele>
        <time>2015-06-09T13:04:02Z</time>
      </trkpt>
      <trkpt lat="45.81612" lon="4.49721">
        <ele>626</ele>
        <time>2015-06-09T13:04:11Z</time>
      </trkpt>
      <trkpt lat="45.81613" lon="4.49727">
        <ele>626</ele>
        <time>2015-06-09T13:04:18Z</time>
      </trkpt>
      <trkpt lat="45.81617" lon="4.49732">
        <ele>625</ele>
        <time>2015-06-09T13:04:28Z</time>
      </trkpt>
      <trkpt lat="45.81622" lon="4.49734">
        <ele>625</ele>
        <time>2015-06-09T13:04:34Z</time>
      </trkpt>
      <trkpt lat="45.81626" lon="4.49736">
        <ele>624</ele>
        <time>2015-06-09T13:04:41Z</time>
      </trkpt>
      <trkpt lat="45.81628" lon="4.49742">
        <ele>624</ele>
        <time>2015-06-09T13:04:57Z</time>
      </trkpt>
      <trkpt lat="45.81627" lon="4.49748">
        <ele>624</ele>
        <time>2015-06-09T13:05:02Z</time>
      </trkpt>
      <trkpt lat="45.81627" lon="4.49755">
        <ele>624</ele>
        <time>2015-06-09T13:05:13Z</time>
      </trkpt>
      <trkpt lat="45.81627" lon="4.49762">
        <ele>625</ele>
        <time>2015-06-09T13:05:17Z</time>
      </trkpt>
      <trkpt lat="45.81626" lon="4.49768">
        <ele>626</ele>
        <time>2015-06-09T13:05:28Z</time>
      </trkpt>
      <trkpt lat="45.81626" lon="4.49775">
        <ele>628</ele>
        <time>2015-06-09T13:05:42Z</time>
      </trkpt>
      <trkpt lat="45.81626" lon="4.49781">
        <ele>629</ele>
        <time>2015-06-09T13:05:56Z</time>
      </trkpt>
      <trkpt lat="45.81627" lon="4.49781">
        <ele>629</ele>
        <time>2015-06-09T13:05:57Z</time>
      </trkpt>
      <trkpt lat="45.81629" lon="4.49788">
        <ele>630</ele>
        <time>2015-06-09T13:06:04Z</time>
      </trkpt>
      <trkpt lat="45.81632" lon="4.49794">
        <ele>631</ele>
        <time>2015-06-09T13:06:12Z</time>
      </trkpt>
      <trkpt lat="45.81636" lon="4.49798">
        <ele>632</ele>
        <time>2015-06-09T13:06:23Z</time>
      </trkpt>
      <trkpt lat="45.81639" lon="4.49804">
        <ele>633</ele>
        <time>2015-06-09T13:06:29Z</time>
      </trkpt>
      <trkpt lat="45.81643" lon="4.49809">
        <ele>634</ele>
        <time>2015-06-09T13:06:36Z</time>
      </trkpt>
      <trkpt lat="45.81646" lon="4.49813">
        <ele>634</ele>
        <time>2015-06-09T13:06:41Z</time>
      </trkpt>
      <trkpt lat="45.81649" lon="4.49819">
        <ele>635</ele>
        <time>2015-06-09T13:06:48Z</time>
      </trkpt>
      <trkpt lat="45.81653" lon="4.49825">
        <ele>636</ele>
        <time>2015-06-09T13:06:53Z</time>
      </trkpt>
      <trkpt lat="45.81656" lon="4.49831">
        <ele>638</ele>
        <time>2015-06-09T13:06:58Z</time>
      </trkpt>
      <trkpt lat="45.81659" lon="4.49835">
        <ele>638</ele>
        <time>2015-06-09T13:07:05Z</time>
      </trkpt>
      <trkpt lat="45.81664" lon="4.49838">
        <ele>639</ele>
        <time>2015-06-09T13:07:13Z</time>
      </trkpt>
      <trkpt lat="45.81669" lon="4.49837">
        <ele>638</ele>
        <time>2015-06-09T13:07:18Z</time>
      </trkpt>
      <trkpt lat="45.81672" lon="4.49842">
        <ele>639</ele>
        <time>2015-06-09T13:07:22Z</time>
      </trkpt>
      <trkpt lat="45.81675" lon="4.49848">
        <ele>640</ele>
        <time>2015-06-09T13:07:26Z</time>
      </trkpt>
      <trkpt lat="45.81679" lon="4.49852">
        <ele>641</ele>
        <time>2015-06-09T13:07:31Z</time>
      </trkpt>
      <trkpt lat="45.81683" lon="4.49855">
        <ele>641</ele>
        <time>2015-06-09T13:07:35Z</time>
      </trkpt>
      <trkpt lat="45.81687" lon="4.49859">
        <ele>642</ele>
        <time>2015-06-09T13:07:39Z</time>
      </trkpt>
      <trkpt lat="45.81691" lon="4.49861">
        <ele>642</ele>
        <time>2015-06-09T13:07:43Z</time>
      </trkpt>
      <trkpt lat="45.81695" lon="4.49863">
        <ele>642</ele>
        <time>2015-06-09T13:07:47Z</time>
      </trkpt>
      <trkpt lat="45.817" lon="4.49866">
        <ele>642</ele>
        <time>2015-06-09T13:07:52Z</time>
      </trkpt>
      <trkpt lat="45.81704" lon="4.49871">
        <ele>643</ele>
        <time>2015-06-09T13:07:58Z</time>
      </trkpt>
      <trkpt lat="45.81708" lon="4.49874">
        <ele>643</ele>
        <time>2015-06-09T13:08:02Z</time>
      </trkpt>
      <trkpt lat="45.81712" lon="4.49879">
        <ele>644</ele>
        <time>2015-06-09T13:08:06Z</time>
      </trkpt>
      <trkpt lat="45.81715" lon="4.49884">
        <ele>644</ele>
        <time>2015-06-09T13:08:10Z</time>
      </trkpt>
      <trkpt lat="45.81718" lon="4.4989">
        <ele>645</ele>
        <time>2015-06-09T13:08:15Z</time>
      </trkpt>
      <trkpt lat="45.81722" lon="4.49894">
        <ele>645</ele>
        <time>2015-06-09T13:08:19Z</time>
      </trkpt>
      <trkpt lat="45.81725" lon="4.499">
        <ele>645</ele>
        <time>2015-06-09T13:08:23Z</time>
      </trkpt>
      <trkpt lat="45.81726" lon="4.49906">
        <ele>646</ele>
        <time>2015-06-09T13:08:31Z</time>
      </trkpt>
      <trkpt lat="45.81728" lon="4.49912">
        <ele>646</ele>
        <time>2015-06-09T13:08:39Z</time>
      </trkpt>
      <trkpt lat="45.8173" lon="4.49918">
        <ele>647</ele>
        <time>2015-06-09T13:08:46Z</time>
      </trkpt>
      <trkpt lat="45.81733" lon="4.49924">
        <ele>647</ele>
        <time>2015-06-09T13:08:54Z</time>
      </trkpt>
      <trkpt lat="45.81733" lon="4.49929">
        <ele>648</ele>
        <time>2015-06-09T13:09:21Z</time>
      </trkpt>
      <trkpt lat="45.81733" lon="4.4993">
        <ele>648</ele>
        <time>2015-06-09T13:09:25Z</time>
      </trkpt>
      <trkpt lat="45.8173" lon="4.49935">
        <ele>649</ele>
        <time>2015-06-09T13:09:45Z</time>
      </trkpt>
      <trkpt lat="45.81727" lon="4.4994">
        <ele>651</ele>
        <time>2015-06-09T13:11:10Z</time>
      </trkpt>
      <trkpt lat="45.81725" lon="4.49946">
        <ele>652</ele>
        <time>2015-06-09T13:11:17Z</time>
      </trkpt>
      <trkpt lat="45.81723" lon="4.49952">
        <ele>653</ele>
        <time>2015-06-09T13:11:25Z</time>
      </trkpt>
      <trkpt lat="45.81719" lon="4.49956">
        <ele>655</ele>
        <time>2015-06-09T13:11:34Z</time>
      </trkpt>
      <trkpt lat="45.81716" lon="4.49962">
        <ele>657</ele>
        <time>2015-06-09T13:11:41Z</time>
      </trkpt>
      <trkpt lat="45.81714" lon="4.49968">
        <ele>658</ele>
        <time>2015-06-09T13:11:48Z</time>
      </trkpt>
      <trkpt lat="45.81713" lon="4.49975">
        <ele>659</ele>
        <time>2015-06-09T13:11:54Z</time>
      </trkpt>
      <trkpt lat="45.81709" lon="4.49978">
        <ele>660</ele>
        <time>2015-06-09T13:12:01Z</time>
      </trkpt>
      <trkpt lat="45.81703" lon="4.4998">
        <ele>661</ele>
        <time>2015-06-09T13:12:17Z</time>
      </trkpt>
      <trkpt lat="45.81698" lon="4.49984">
        <ele>663</ele>
        <time>2015-06-09T13:12:25Z</time>
      </trkpt>
      <trkpt lat="45.81695" lon="4.49989">
        <ele>664</ele>
        <time>2015-06-09T13:12:35Z</time>
      </trkpt>
      <trkpt lat="45.81691" lon="4.49993">
        <ele>665</ele>
        <time>2015-06-09T13:12:47Z</time>
      </trkpt>
      <trkpt lat="45.81689" lon="4.49999">
        <ele>666</ele>
        <time>2015-06-09T13:12:56Z</time>
      </trkpt>
      <trkpt lat="45.81686" lon="4.50005">
        <ele>668</ele>
        <time>2015-06-09T13:13:03Z</time>
      </trkpt>
      <trkpt lat="45.81684" lon="4.50011">
        <ele>669</ele>
        <time>2015-06-09T13:13:10Z</time>
      </trkpt>
      <trkpt lat="45.8168" lon="4.50015">
        <ele>670</ele>
        <time>2015-06-09T13:13:19Z</time>
      </trkpt>
      <trkpt lat="45.81677" lon="4.5002">
        <ele>672</ele>
        <time>2015-06-09T13:13:32Z</time>
      </trkpt>
      <trkpt lat="45.81672" lon="4.50019">
        <ele>673</ele>
        <time>2015-06-09T13:13:38Z</time>
      </trkpt>
      <trkpt lat="45.81668" lon="4.50023">
        <ele>674</ele>
        <time>2015-06-09T13:13:46Z</time>
      </trkpt>
      <trkpt lat="45.81665" lon="4.50025">
        <ele>675</ele>
        <time>2015-06-09T13:14:03Z</time>
      </trkpt>
      <trkpt lat="45.81665" lon="4.50029">
        <ele>676</ele>
        <time>2015-06-09T13:14:10Z</time>
      </trkpt>
      <trkpt lat="45.81665" lon="4.50036">
        <ele>676</ele>
        <time>2015-06-09T13:14:19Z</time>
      </trkpt>
      <trkpt lat="45.81663" lon="4.50043">
        <ele>677</ele>
        <time>2015-06-09T13:14:25Z</time>
      </trkpt>
      <trkpt lat="45.81662" lon="4.5005">
        <ele>678</ele>
        <time>2015-06-09T13:14:29Z</time>
      </trkpt>
      <trkpt lat="45.81661" lon="4.50057">
        <ele>679</ele>
        <time>2015-06-09T13:14:36Z</time>
      </trkpt>
      <trkpt lat="45.81662" lon="4.50064">
        <ele>679</ele>
        <time>2015-06-09T13:14:45Z</time>
      </trkpt>
      <trkpt lat="45.81658" lon="4.50067">
        <ele>681</ele>
        <time>2015-06-09T13:14:53Z</time>
      </trkpt>
      <trkpt lat="45.81654" lon="4.50073">
        <ele>682</ele>
        <time>2015-06-09T13:15:02Z</time>
      </trkpt>
      <trkpt lat="45.81651" lon="4.50076">
        <ele>683</ele>
        <time>2015-06-09T13:15:11Z</time>
      </trkpt>
      <trkpt lat="45.81646" lon="4.50078">
        <ele>685</ele>
        <time>2015-06-09T13:15:19Z</time>
      </trkpt>
      <trkpt lat="45.8164" lon="4.5008">
        <ele>686</ele>
        <time>2015-06-09T13:15:27Z</time>
      </trkpt>
      <trkpt lat="45.81635" lon="4.50081">
        <ele>687</ele>
        <time>2015-06-09T13:15:32Z</time>
      </trkpt>
      <trkpt lat="45.8163" lon="4.50081">
        <ele>688</ele>
        <time>2015-06-09T13:15:41Z</time>
      </trkpt>
      <trkpt lat="45.81625" lon="4.50082">
        <ele>689</ele>
        <time>2015-06-09T13:15:53Z</time>
      </trkpt>
      <trkpt lat="45.81621" lon="4.50082">
        <ele>690</ele>
        <time>2015-06-09T13:16:00Z</time>
      </trkpt>
      <trkpt lat="45.81616" lon="4.50083">
        <ele>691</ele>
        <time>2015-06-09T13:16:06Z</time>
      </trkpt>
      <trkpt lat="45.81611" lon="4.50085">
        <ele>692</ele>
        <time>2015-06-09T13:16:13Z</time>
      </trkpt>
      <trkpt lat="45.81606" lon="4.50088">
        <ele>693</ele>
        <time>2015-06-09T13:16:23Z</time>
      </trkpt>
      <trkpt lat="45.81601" lon="4.50088">
        <ele>694</ele>
        <time>2015-06-09T13:16:27Z</time>
      </trkpt>
      <trkpt lat="45.81596" lon="4.50092">
        <ele>696</ele>
        <time>2015-06-09T13:16:37Z</time>
      </trkpt>
      <trkpt lat="45.81593" lon="4.50096">
        <ele>697</ele>
        <time>2015-06-09T13:16:44Z</time>
      </trkpt>
      <trkpt lat="45.81588" lon="4.50101">
        <ele>698</ele>
        <time>2015-06-09T13:16:52Z</time>
      </trkpt>
      <trkpt lat="45.81582" lon="4.50106">
        <ele>699</ele>
        <time>2015-06-09T13:16:56Z</time>
      </trkpt>
      <trkpt lat="45.81578" lon="4.50109">
        <ele>699</ele>
        <time>2015-06-09T13:17:00Z</time>
      </trkpt>
      <trkpt lat="45.81575" lon="4.50115">
        <ele>700</ele>
        <time>2015-06-09T13:17:04Z</time>
      </trkpt>
      <trkpt lat="45.81572" lon="4.5012">
        <ele>700</ele>
        <time>2015-06-09T13:17:07Z</time>
      </trkpt>
      <trkpt lat="45.81568" lon="4.50127">
        <ele>701</ele>
        <time>2015-06-09T13:17:11Z</time>
      </trkpt>
      <trkpt lat="45.81564" lon="4.50133">
        <ele>701</ele>
        <time>2015-06-09T13:17:15Z</time>
      </trkpt>
      <trkpt lat="45.81562" lon="4.50139">
        <ele>701</ele>
        <time>2015-06-09T13:17:22Z</time>
      </trkpt>
      <trkpt lat="45.81557" lon="4.50143">
        <ele>702</ele>
        <time>2015-06-09T13:17:28Z</time>
      </trkpt>
      <trkpt lat="45.81553" lon="4.50147">
        <ele>703</ele>
        <time>2015-06-09T13:17:33Z</time>
      </trkpt>
      <trkpt lat="45.81549" lon="4.50151">
        <ele>703</ele>
        <time>2015-06-09T13:17:40Z</time>
      </trkpt>
      <trkpt lat="45.81545" lon="4.50156">
        <ele>704</ele>
        <time>2015-06-09T13:17:46Z</time>
      </trkpt>
      <trkpt lat="45.8154" lon="4.50156">
        <ele>705</ele>
        <time>2015-06-09T13:17:53Z</time>
      </trkpt>
      <trkpt lat="45.81535" lon="4.50158">
        <ele>706</ele>
        <time>2015-06-09T13:18:02Z</time>
      </trkpt>
      <trkpt lat="45.81529" lon="4.5016">
        <ele>707</ele>
        <time>2015-06-09T13:18:06Z</time>
      </trkpt>
      <trkpt lat="45.81524" lon="4.50163">
        <ele>708</ele>
        <time>2015-06-09T13:18:10Z</time>
      </trkpt>
      <trkpt lat="45.81519" lon="4.50166">
        <ele>709</ele>
        <time>2015-06-09T13:18:14Z</time>
      </trkpt>
      <trkpt lat="45.81514" lon="4.50168">
        <ele>710</ele>
        <time>2015-06-09T13:18:19Z</time>
      </trkpt>
      <trkpt lat="45.81509" lon="4.50171">
        <ele>711</ele>
        <time>2015-06-09T13:18:23Z</time>
      </trkpt>
      <trkpt lat="45.81505" lon="4.50173">
        <ele>711</ele>
        <time>2015-06-09T13:18:29Z</time>
      </trkpt>
      <trkpt lat="45.815" lon="4.50177">
        <ele>711</ele>
        <time>2015-06-09T13:18:34Z</time>
      </trkpt>
      <trkpt lat="45.81495" lon="4.50181">
        <ele>712</ele>
        <time>2015-06-09T13:18:38Z</time>
      </trkpt>
      <trkpt lat="45.8149" lon="4.50186">
        <ele>712</ele>
        <time>2015-06-09T13:18:42Z</time>
      </trkpt>
      <trkpt lat="45.81487" lon="4.5019">
        <ele>712</ele>
        <time>2015-06-09T13:18:46Z</time>
      </trkpt>
      <trkpt lat="45.81483" lon="4.50194">
        <ele>712</ele>
        <time>2015-06-09T13:19:00Z</time>
      </trkpt>
      <trkpt lat="45.81482" lon="4.50194">
        <ele>713</ele>
        <time>2015-06-09T13:19:01Z</time>
      </trkpt>
      <trkpt lat="45.81482" lon="4.50194">
        <ele>713</ele>
        <time>2015-06-09T13:19:15Z</time>
      </trkpt>
      <trkpt lat="45.81482" lon="4.50194">
        <ele>713</ele>
        <time>2015-06-09T13:19:30Z</time>
      </trkpt>
      <trkpt lat="45.81482" lon="4.50193">
        <ele>713</ele>
        <time>2015-06-09T13:19:45Z</time>
      </trkpt>
      <trkpt lat="45.81482" lon="4.50194">
        <ele>713</ele>
        <time>2015-06-09T13:20:00Z</time>
      </trkpt>
      <trkpt lat="45.81483" lon="4.50208">
        <ele>713</ele>
        <time>2015-06-09T13:22:48Z</time>
      </trkpt>
      <trkpt lat="45.81484" lon="4.50217">
        <ele>713</ele>
        <time>2015-06-09T13:22:51Z</time>
      </trkpt>
      <trkpt lat="45.81484" lon="4.50227">
        <ele>713</ele>
        <time>2015-06-09T13:22:53Z</time>
      </trkpt>
      <trkpt lat="45.81482" lon="4.50238">
        <ele>714</ele>
        <time>2015-06-09T13:22:55Z</time>
      </trkpt>
      <trkpt lat="45.81479" lon="4.50248">
        <ele>714</ele>
        <time>2015-06-09T13:22:57Z</time>
      </trkpt>
      <trkpt lat="45.81477" lon="4.50258">
        <ele>715</ele>
        <time>2015-06-09T13:22:59Z</time>
      </trkpt>
      <trkpt lat="45.81476" lon="4.50267">
        <ele>715</ele>
        <time>2015-06-09T13:23:01Z</time>
      </trkpt>
      <trkpt lat="45.81474" lon="4.50276">
        <ele>716</ele>
        <time>2015-06-09T13:23:03Z</time>
      </trkpt>
      <trkpt lat="45.81472" lon="4.50284">
        <ele>717</ele>
        <time>2015-06-09T13:23:05Z</time>
      </trkpt>
      <trkpt lat="45.8147" lon="4.5029">
        <ele>717</ele>
        <time>2015-06-09T13:23:07Z</time>
      </trkpt>
      <trkpt lat="45.81467" lon="4.50297">
        <ele>718</ele>
        <time>2015-06-09T13:23:09Z</time>
      </trkpt>
      <trkpt lat="45.81466" lon="4.50306">
        <ele>719</ele>
        <time>2015-06-09T13:23:11Z</time>
      </trkpt>
      <trkpt lat="45.81466" lon="4.50317">
        <ele>719</ele>
        <time>2015-06-09T13:23:13Z</time>
      </trkpt>
      <trkpt lat="45.81466" lon="4.50324">
        <ele>719</ele>
        <time>2015-06-09T13:23:14Z</time>
      </trkpt>
      <trkpt lat="45.81465" lon="4.50332">
        <ele>719</ele>
        <time>2015-06-09T13:23:15Z</time>
      </trkpt>
      <trkpt lat="45.81464" lon="4.50347">
        <ele>720</ele>
        <time>2015-06-09T13:23:16Z</time>
      </trkpt>
      <trkpt lat="45.81464" lon="4.50355">
        <ele>720</ele>
        <time>2015-06-09T13:23:17Z</time>
      </trkpt>
      <trkpt lat="45.81465" lon="4.50365">
        <ele>720</ele>
        <time>2015-06-09T13:23:18Z</time>
      </trkpt>
      <trkpt lat="45.81465" lon="4.50384">
        <ele>720</ele>
        <time>2015-06-09T13:23:20Z</time>
      </trkpt>
      <trkpt lat="45.81465" lon="4.50392">
        <ele>719</ele>
        <time>2015-06-09T13:23:21Z</time>
      </trkpt>
      <trkpt lat="45.81464" lon="4.50401">
        <ele>719</ele>
        <time>2015-06-09T13:23:22Z</time>
      </trkpt>
      <trkpt lat="45.81465" lon="4.5041">
        <ele>719</ele>
        <time>2015-06-09T13:23:23Z</time>
      </trkpt>
      <trkpt lat="45.81466" lon="4.5042">
        <ele>719</ele>
        <time>2015-06-09T13:23:24Z</time>
      </trkpt>
      <trkpt lat="45.81466" lon="4.5043">
        <ele>718</ele>
        <time>2015-06-09T13:23:25Z</time>
      </trkpt>
      <trkpt lat="45.81467" lon="4.5044">
        <ele>718</ele>
        <time>2015-06-09T13:23:26Z</time>
      </trkpt>
      <trkpt lat="45.81468" lon="4.5045">
        <ele>717</ele>
        <time>2015-06-09T13:23:27Z</time>
      </trkpt>
      <trkpt lat="45.8147" lon="4.5046">
        <ele>716</ele>
        <time>2015-06-09T13:23:28Z</time>
      </trkpt>
      <trkpt lat="45.81472" lon="4.50469">
        <ele>715</ele>
        <time>2015-06-09T13:23:29Z</time>
      </trkpt>
      <trkpt lat="45.81473" lon="4.50478">
        <ele>715</ele>
        <time>2015-06-09T13:23:30Z</time>
      </trkpt>
      <trkpt lat="45.81475" lon="4.50486">
        <ele>714</ele>
        <time>2015-06-09T13:23:31Z</time>
      </trkpt>
      <trkpt lat="45.81477" lon="4.50495">
        <ele>713</ele>
        <time>2015-06-09T13:23:32Z</time>
      </trkpt>
      <trkpt lat="45.8148" lon="4.50503">
        <ele>712</ele>
        <time>2015-06-09T13:23:33Z</time>
      </trkpt>
      <trkpt lat="45.81483" lon="4.50511">
        <ele>711</ele>
        <time>2015-06-09T13:23:34Z</time>
      </trkpt>
      <trkpt lat="45.81487" lon="4.50518">
        <ele>711</ele>
        <time>2015-06-09T13:23:35Z</time>
      </trkpt>
      <trkpt lat="45.8149" lon="4.50526">
        <ele>710</ele>
        <time>2015-06-09T13:23:36Z</time>
      </trkpt>
      <trkpt lat="45.81493" lon="4.50533">
        <ele>710</ele>
        <time>2015-06-09T13:23:37Z</time>
      </trkpt>
      <trkpt lat="45.81495" lon="4.50542">
        <ele>709</ele>
        <time>2015-06-09T13:23:38Z</time>
      </trkpt>
      <trkpt lat="45.81498" lon="4.50549">
        <ele>709</ele>
        <time>2015-06-09T13:23:39Z</time>
      </trkpt>
      <trkpt lat="45.81501" lon="4.50557">
        <ele>709</ele>
        <time>2015-06-09T13:23:40Z</time>
      </trkpt>
      <trkpt lat="45.81504" lon="4.50564">
        <ele>708</ele>
        <time>2015-06-09T13:23:41Z</time>
      </trkpt>
      <trkpt lat="45.81507" lon="4.50572">
        <ele>708</ele>
        <time>2015-06-09T13:23:42Z</time>
      </trkpt>
      <trkpt lat="45.81509" lon="4.5058">
        <ele>708</ele>
        <time>2015-06-09T13:23:43Z</time>
      </trkpt>
      <trkpt lat="45.81512" lon="4.50587">
        <ele>708</ele>
        <time>2015-06-09T13:23:44Z</time>
      </trkpt>
      <trkpt lat="45.81514" lon="4.50595">
        <ele>708</ele>
        <time>2015-06-09T13:23:45Z</time>
      </trkpt>
      <trkpt lat="45.81516" lon="4.50603">
        <ele>707</ele>
        <time>2015-06-09T13:23:46Z</time>
      </trkpt>
      <trkpt lat="45.81519" lon="4.5061">
        <ele>707</ele>
        <time>2015-06-09T13:23:47Z</time>
      </trkpt>
      <trkpt lat="45.81522" lon="4.50616">
        <ele>707</ele>
        <time>2015-06-09T13:23:48Z</time>
      </trkpt>
      <trkpt lat="45.81525" lon="4.50622">
        <ele>707</ele>
        <time>2015-06-09T13:23:49Z</time>
      </trkpt>
      <trkpt lat="45.81528" lon="4.50629">
        <ele>707</ele>
        <time>2015-06-09T13:23:50Z</time>
      </trkpt>
      <trkpt lat="45.81528" lon="4.50638">
        <ele>707</ele>
        <time>2015-06-09T13:23:52Z</time>
      </trkpt>
      <trkpt lat="45.81528" lon="4.50641">
        <ele>707</ele>
        <time>2015-06-09T13:24:07Z</time>
      </trkpt>
      <trkpt lat="45.81529" lon="4.50641">
        <ele>707</ele>
        <time>2015-06-09T13:24:24Z</time>
      </trkpt>
      <trkpt lat="45.81533" lon="4.5064">
        <ele>706</ele>
        <time>2015-06-09T13:24:31Z</time>
      </trkpt>
      <trkpt lat="45.81534" lon="4.50634">
        <ele>706</ele>
        <time>2015-06-09T13:24:34Z</time>
      </trkpt>
      <trkpt lat="45.81531" lon="4.50627">
        <ele>706</ele>
        <time>2015-06-09T13:24:36Z</time>
      </trkpt>
      <trkpt lat="45.81526" lon="4.5062">
        <ele>707</ele>
        <time>2015-06-09T13:24:38Z</time>
      </trkpt>
      <trkpt lat="45.81522" lon="4.50614">
        <ele>707</ele>
        <time>2015-06-09T13:24:40Z</time>
      </trkpt>
      <trkpt lat="45.81517" lon="4.50608">
        <ele>707</ele>
        <time>2015-06-09T13:24:42Z</time>
      </trkpt>
      <trkpt lat="45.81514" lon="4.50603">
        <ele>708</ele>
        <time>2015-06-09T13:24:44Z</time>
      </trkpt>
      <trkpt lat="45.81509" lon="4.50598">
        <ele>708</ele>
        <time>2015-06-09T13:24:46Z</time>
      </trkpt>
      <trkpt lat="45.81503" lon="4.50594">
        <ele>708</ele>
        <time>2015-06-09T13:24:48Z</time>
      </trkpt>
      <trkpt lat="45.81498" lon="4.5059">
        <ele>709</ele>
        <time>2015-06-09T13:24:50Z</time>
      </trkpt>
      <trkpt lat="45.81493" lon="4.50588">
        <ele>709</ele>
        <time>2015-06-09T13:24:52Z</time>
      </trkpt>
      <trkpt lat="45.81488" lon="4.50586">
        <ele>710</ele>
        <time>2015-06-09T13:24:54Z</time>
      </trkpt>
      <trkpt lat="45.81481" lon="4.50584">
        <ele>710</ele>
        <time>2015-06-09T13:24:57Z</time>
      </trkpt>
      <trkpt lat="45.81477" lon="4.50582">
        <ele>711</ele>
        <time>2015-06-09T13:24:59Z</time>
      </trkpt>
      <trkpt lat="45.81472" lon="4.5058">
        <ele>711</ele>
        <time>2015-06-09T13:25:01Z</time>
      </trkpt>
      <trkpt lat="45.81467" lon="4.50578">
        <ele>712</ele>
        <time>2015-06-09T13:25:03Z</time>
      </trkpt>
      <trkpt lat="45.81462" lon="4.50576">
        <ele>712</ele>
        <time>2015-06-09T13:25:05Z</time>
      </trkpt>
      <trkpt lat="45.81456" lon="4.50574">
        <ele>713</ele>
        <time>2015-06-09T13:25:07Z</time>
      </trkpt>
      <trkpt lat="45.81451" lon="4.50571">
        <ele>714</ele>
        <time>2015-06-09T13:25:09Z</time>
      </trkpt>
      <trkpt lat="45.81446" lon="4.50568">
        <ele>714</ele>
        <time>2015-06-09T13:25:11Z</time>
      </trkpt>
      <trkpt lat="45.8144" lon="4.50566">
        <ele>715</ele>
        <time>2015-06-09T13:25:13Z</time>
      </trkpt>
      <trkpt lat="45.81435" lon="4.50564">
        <ele>716</ele>
        <time>2015-06-09T13:25:15Z</time>
      </trkpt>
      <trkpt lat="45.8143" lon="4.50561">
        <ele>716</ele>
        <time>2015-06-09T13:25:17Z</time>
      </trkpt>
      <trkpt lat="45.81425" lon="4.50559">
        <ele>717</ele>
        <time>2015-06-09T13:25:19Z</time>
      </trkpt>
      <trkpt lat="45.8142" lon="4.50558">
        <ele>718</ele>
        <time>2015-06-09T13:25:21Z</time>
      </trkpt>
      <trkpt lat="45.81416" lon="4.50557">
        <ele>718</ele>
        <time>2015-06-09T13:25:23Z</time>
      </trkpt>
      <trkpt lat="45.81409" lon="4.50554">
        <ele>719</ele>
        <time>2015-06-09T13:25:26Z</time>
      </trkpt>
      <trkpt lat="45.81403" lon="4.50553">
        <ele>720</ele>
        <time>2015-06-09T13:25:29Z</time>
      </trkpt>
      <trkpt lat="45.81397" lon="4.50552">
        <ele>721</ele>
        <time>2015-06-09T13:25:32Z</time>
      </trkpt>
      <trkpt lat="45.81392" lon="4.5055">
        <ele>722</ele>
        <time>2015-06-09T13:25:35Z</time>
      </trkpt>
      <trkpt lat="45.81387" lon="4.50547">
        <ele>723</ele>
        <time>2015-06-09T13:25:38Z</time>
      </trkpt>
      <trkpt lat="45.81382" lon="4.50543">
        <ele>724</ele>
        <time>2015-06-09T13:25:41Z</time>
      </trkpt>
      <trkpt lat="45.81377" lon="4.50542">
        <ele>725</ele>
        <time>2015-06-09T13:25:44Z</time>
      </trkpt>
      <trkpt lat="45.81373" lon="4.50539">
        <ele>726</ele>
        <time>2015-06-09T13:25:47Z</time>
      </trkpt>
      <trkpt lat="45.81368" lon="4.50535">
        <ele>727</ele>
        <time>2015-06-09T13:25:51Z</time>
      </trkpt>
      <trkpt lat="45.81364" lon="4.50533">
        <ele>728</ele>
        <time>2015-06-09T13:25:54Z</time>
      </trkpt>
      <trkpt lat="45.8136" lon="4.5053">
        <ele>729</ele>
        <time>2015-06-09T13:25:57Z</time>
      </trkpt>
      <trkpt lat="45.81355" lon="4.50529">
        <ele>730</ele>
        <time>2015-06-09T13:26:00Z</time>
      </trkpt>
      <trkpt lat="45.8135" lon="4.50528">
        <ele>730</ele>
        <time>2015-06-09T13:26:03Z</time>
      </trkpt>
      <trkpt lat="45.81346" lon="4.50524">
        <ele>732</ele>
        <time>2015-06-09T13:26:06Z</time>
      </trkpt>
      <trkpt lat="45.81342" lon="4.50519">
        <ele>733</ele>
        <time>2015-06-09T13:26:11Z</time>
      </trkpt>
      <trkpt lat="45.81338" lon="4.50517">
        <ele>734</ele>
        <time>2015-06-09T13:26:15Z</time>
      </trkpt>
      <trkpt lat="45.81333" lon="4.50515">
        <ele>735</ele>
        <time>2015-06-09T13:26:20Z</time>
      </trkpt>
      <trkpt lat="45.81328" lon="4.50512">
        <ele>736</ele>
        <time>2015-06-09T13:26:25Z</time>
      </trkpt>
      <trkpt lat="45.81324" lon="4.50512">
        <ele>737</ele>
        <time>2015-06-09T13:26:30Z</time>
      </trkpt>
      <trkpt lat="45.81318" lon="4.50509">
        <ele>738</ele>
        <time>2015-06-09T13:26:35Z</time>
      </trkpt>
      <trkpt lat="45.81314" lon="4.50505">
        <ele>739</ele>
        <time>2015-06-09T13:26:40Z</time>
      </trkpt>
      <trkpt lat="45.81309" lon="4.50503">
        <ele>740</ele>
        <time>2015-06-09T13:26:44Z</time>
      </trkpt>
      <trkpt lat="45.81304" lon="4.50501">
        <ele>741</ele>
        <time>2015-06-09T13:26:48Z</time>
      </trkpt>
      <trkpt lat="45.813" lon="4.50496">
        <ele>742</ele>
        <time>2015-06-09T13:26:51Z</time>
      </trkpt>
      <trkpt lat="45.81295" lon="4.50492">
        <ele>743</ele>
        <time>2015-06-09T13:26:55Z</time>
      </trkpt>
      <trkpt lat="45.81291" lon="4.5049">
        <ele>743</ele>
        <time>2015-06-09T13:26:59Z</time>
      </trkpt>
      <trkpt lat="45.81287" lon="4.50486">
        <ele>743</ele>
        <time>2015-06-09T13:27:02Z</time>
      </trkpt>
      <trkpt lat="45.81282" lon="4.50484">
        <ele>744</ele>
        <time>2015-06-09T13:27:06Z</time>
      </trkpt>
      <trkpt lat="45.81278" lon="4.50482">
        <ele>744</ele>
        <time>2015-06-09T13:27:10Z</time>
      </trkpt>
      <trkpt lat="45.81273" lon="4.50478">
        <ele>745</ele>
        <time>2015-06-09T13:27:14Z</time>
      </trkpt>
      <trkpt lat="45.81268" lon="4.50475">
        <ele>745</ele>
        <time>2015-06-09T13:27:18Z</time>
      </trkpt>
      <trkpt lat="45.81264" lon="4.50471">
        <ele>746</ele>
        <time>2015-06-09T13:27:22Z</time>
      </trkpt>
      <trkpt lat="45.8126" lon="4.50467">
        <ele>747</ele>
        <time>2015-06-09T13:27:26Z</time>
      </trkpt>
      <trkpt lat="45.81255" lon="4.50465">
        <ele>747</ele>
        <time>2015-06-09T13:27:29Z</time>
      </trkpt>
      <trkpt lat="45.81251" lon="4.50463">
        <ele>748</ele>
        <time>2015-06-09T13:27:32Z</time>
      </trkpt>
      <trkpt lat="45.81246" lon="4.50462">
        <ele>748</ele>
        <time>2015-06-09T13:27:35Z</time>
      </trkpt>
      <trkpt lat="45.81241" lon="4.50459">
        <ele>749</ele>
        <time>2015-06-09T13:27:39Z</time>
      </trkpt>
      <trkpt lat="45.81236" lon="4.50458">
        <ele>749</ele>
        <time>2015-06-09T13:27:42Z</time>
      </trkpt>
      <trkpt lat="45.81231" lon="4.50456">
        <ele>749</ele>
        <time>2015-06-09T13:27:45Z</time>
      </trkpt>
      <trkpt lat="45.81226" lon="4.50455">
        <ele>749</ele>
        <time>2015-06-09T13:27:48Z</time>
      </trkpt>
      <trkpt lat="45.8122" lon="4.50453">
        <ele>750</ele>
        <time>2015-06-09T13:27:51Z</time>
      </trkpt>
      <trkpt lat="45.81214" lon="4.50452">
        <ele>750</ele>
        <time>2015-06-09T13:27:54Z</time>
      </trkpt>
      <trkpt lat="45.81208" lon="4.50451">
        <ele>750</ele>
        <time>2015-06-09T13:27:57Z</time>
      </trkpt>
      <trkpt lat="45.81204" lon="4.50449">
        <ele>750</ele>
        <time>2015-06-09T13:27:59Z</time>
      </trkpt>
      <trkpt lat="45.81199" lon="4.50445">
        <ele>751</ele>
        <time>2015-06-09T13:28:01Z</time>
      </trkpt>
      <trkpt lat="45.81194" lon="4.50443">
        <ele>751</ele>
        <time>2015-06-09T13:28:03Z</time>
      </trkpt>
      <trkpt lat="45.81189" lon="4.5044">
        <ele>751</ele>
        <time>2015-06-09T13:28:05Z</time>
      </trkpt>
      <trkpt lat="45.81183" lon="4.50438">
        <ele>751</ele>
        <time>2015-06-09T13:28:07Z</time>
      </trkpt>
      <trkpt lat="45.81178" lon="4.50436">
        <ele>751</ele>
        <time>2015-06-09T13:28:09Z</time>
      </trkpt>
      <trkpt lat="45.81173" lon="4.50434">
        <ele>751</ele>
        <time>2015-06-09T13:28:11Z</time>
      </trkpt>
      <trkpt lat="45.81167" lon="4.50433">
        <ele>751</ele>
        <time>2015-06-09T13:28:13Z</time>
      </trkpt>
      <trkpt lat="45.81162" lon="4.50433">
        <ele>751</ele>
        <time>2015-06-09T13:28:15Z</time>
      </trkpt>
      <trkpt lat="45.81158" lon="4.50432">
        <ele>752</ele>
        <time>2015-06-09T13:28:17Z</time>
      </trkpt>
      <trkpt lat="45.81152" lon="4.50431">
        <ele>753</ele>
        <time>2015-06-09T13:28:19Z</time>
      </trkpt>
      <trkpt lat="45.81147" lon="4.5043">
        <ele>753</ele>
        <time>2015-06-09T13:28:21Z</time>
      </trkpt>
      <trkpt lat="45.81142" lon="4.50429">
        <ele>754</ele>
        <time>2015-06-09T13:28:23Z</time>
      </trkpt>
      <trkpt lat="45.81138" lon="4.50429">
        <ele>754</ele>
        <time>2015-06-09T13:28:25Z</time>
      </trkpt>
      <trkpt lat="45.81131" lon="4.50429">
        <ele>755</ele>
        <time>2015-06-09T13:28:28Z</time>
      </trkpt>
      <trkpt lat="45.81125" lon="4.50429">
        <ele>756</ele>
        <time>2015-06-09T13:28:31Z</time>
      </trkpt>
      <trkpt lat="45.8112" lon="4.5043">
        <ele>756</ele>
        <time>2015-06-09T13:28:34Z</time>
      </trkpt>
      <trkpt lat="45.81115" lon="4.50432">
        <ele>757</ele>
        <time>2015-06-09T13:28:37Z</time>
      </trkpt>
      <trkpt lat="45.8111" lon="4.50434">
        <ele>758</ele>
        <time>2015-06-09T13:28:40Z</time>
      </trkpt>
      <trkpt lat="45.81105" lon="4.50437">
        <ele>758</ele>
        <time>2015-06-09T13:28:43Z</time>
      </trkpt>
      <trkpt lat="45.81101" lon="4.50439">
        <ele>759</ele>
        <time>2015-06-09T13:28:46Z</time>
      </trkpt>
      <trkpt lat="45.81096" lon="4.50441">
        <ele>759</ele>
        <time>2015-06-09T13:28:49Z</time>
      </trkpt>
      <trkpt lat="45.81092" lon="4.50443">
        <ele>759</ele>
        <time>2015-06-09T13:28:52Z</time>
      </trkpt>
      <trkpt lat="45.81087" lon="4.50447">
        <ele>760</ele>
        <time>2015-06-09T13:28:56Z</time>
      </trkpt>
      <trkpt lat="45.81083" lon="4.50449">
        <ele>761</ele>
        <time>2015-06-09T13:28:59Z</time>
      </trkpt>
      <trkpt lat="45.81077" lon="4.5045">
        <ele>762</ele>
        <time>2015-06-09T13:29:03Z</time>
      </trkpt>
      <trkpt lat="45.81072" lon="4.50454">
        <ele>762</ele>
        <time>2015-06-09T13:29:07Z</time>
      </trkpt>
      <trkpt lat="45.81067" lon="4.50458">
        <ele>763</ele>
        <time>2015-06-09T13:29:11Z</time>
      </trkpt>
      <trkpt lat="45.81062" lon="4.50462">
        <ele>764</ele>
        <time>2015-06-09T13:29:15Z</time>
      </trkpt>
      <trkpt lat="45.81057" lon="4.50465">
        <ele>764</ele>
        <time>2015-06-09T13:29:18Z</time>
      </trkpt>
      <trkpt lat="45.81053" lon="4.50467">
        <ele>765</ele>
        <time>2015-06-09T13:29:21Z</time>
      </trkpt>
      <trkpt lat="45.81048" lon="4.5047">
        <ele>765</ele>
        <time>2015-06-09T13:29:24Z</time>
      </trkpt>
      <trkpt lat="45.81043" lon="4.50474">
        <ele>766</ele>
        <time>2015-06-09T13:29:28Z</time>
      </trkpt>
      <trkpt lat="45.81039" lon="4.5048">
        <ele>766</ele>
        <time>2015-06-09T13:29:32Z</time>
      </trkpt>
      <trkpt lat="45.81034" lon="4.50482">
        <ele>767</ele>
        <time>2015-06-09T13:29:36Z</time>
      </trkpt>
      <trkpt lat="45.81029" lon="4.50484">
        <ele>768</ele>
        <time>2015-06-09T13:29:40Z</time>
      </trkpt>
      <trkpt lat="45.81023" lon="4.50486">
        <ele>769</ele>
        <time>2015-06-09T13:29:45Z</time>
      </trkpt>
      <trkpt lat="45.81019" lon="4.50489">
        <ele>769</ele>
        <time>2015-06-09T13:29:49Z</time>
      </trkpt>
      <trkpt lat="45.81015" lon="4.50491">
        <ele>769</ele>
        <time>2015-06-09T13:29:52Z</time>
      </trkpt>
      <trkpt lat="45.8101" lon="4.50493">
        <ele>769</ele>
        <time>2015-06-09T13:29:55Z</time>
      </trkpt>
      <trkpt lat="45.81005" lon="4.50496">
        <ele>769</ele>
        <time>2015-06-09T13:29:59Z</time>
      </trkpt>
      <trkpt lat="45.81" lon="4.50498">
        <ele>770</ele>
        <time>2015-06-09T13:30:02Z</time>
      </trkpt>
      <trkpt lat="45.80994" lon="4.505">
        <ele>770</ele>
        <time>2015-06-09T13:30:05Z</time>
      </trkpt>
      <trkpt lat="45.80989" lon="4.50502">
        <ele>770</ele>
        <time>2015-06-09T13:30:08Z</time>
      </trkpt>
      <trkpt lat="45.80984" lon="4.50504">
        <ele>770</ele>
        <time>2015-06-09T13:30:11Z</time>
      </trkpt>
      <trkpt lat="45.80977" lon="4.50506">
        <ele>771</ele>
        <time>2015-06-09T13:30:14Z</time>
      </trkpt>
      <trkpt lat="45.80972" lon="4.50508">
        <ele>771</ele>
        <time>2015-06-09T13:30:16Z</time>
      </trkpt>
      <trkpt lat="45.80966" lon="4.5051">
        <ele>771</ele>
        <time>2015-06-09T13:30:18Z</time>
      </trkpt>
      <trkpt lat="45.80961" lon="4.50512">
        <ele>771</ele>
        <time>2015-06-09T13:30:20Z</time>
      </trkpt>
      <trkpt lat="45.80956" lon="4.50514">
        <ele>772</ele>
        <time>2015-06-09T13:30:22Z</time>
      </trkpt>
      <trkpt lat="45.8095" lon="4.50515">
        <ele>771</ele>
        <time>2015-06-09T13:30:24Z</time>
      </trkpt>
      <trkpt lat="45.80945" lon="4.50516">
        <ele>771</ele>
        <time>2015-06-09T13:30:26Z</time>
      </trkpt>
      <trkpt lat="45.80939" lon="4.50519">
        <ele>771</ele>
        <time>2015-06-09T13:30:29Z</time>
      </trkpt>
      <trkpt lat="45.80933" lon="4.50522">
        <ele>770</ele>
        <time>2015-06-09T13:30:32Z</time>
      </trkpt>
      <trkpt lat="45.80928" lon="4.50528">
        <ele>769</ele>
        <time>2015-06-09T13:30:35Z</time>
      </trkpt>
      <trkpt lat="45.80924" lon="4.50532">
        <ele>769</ele>
        <time>2015-06-09T13:30:38Z</time>
      </trkpt>
      <trkpt lat="45.8092" lon="4.50536">
        <ele>768</ele>
        <time>2015-06-09T13:30:41Z</time>
      </trkpt>
      <trkpt lat="45.80922" lon="4.50534">
        <ele>769</ele>
        <time>2015-06-09T13:30:59Z</time>
      </trkpt>
      <trkpt lat="45.80922" lon="4.50534">
        <ele>769</ele>
        <time>2015-06-09T13:31:14Z</time>
      </trkpt>
      <trkpt lat="45.80923" lon="4.50534">
        <ele>769</ele>
        <time>2015-06-09T13:31:30Z</time>
      </trkpt>
      <trkpt lat="45.80923" lon="4.50534">
        <ele>769</ele>
        <time>2015-06-09T13:31:45Z</time>
      </trkpt>
      <trkpt lat="45.80923" lon="4.50534">
        <ele>769</ele>
        <time>2015-06-09T13:32:00Z</time>
      </trkpt>
      <trkpt lat="45.80923" lon="4.50534">
        <ele>769</ele>
        <time>2015-06-09T13:32:15Z</time>
      </trkpt>
      <trkpt lat="45.8099" lon="4.50503">
        <ele>770</ele>
        <time>2015-06-09T13:34:29Z</time>
      </trkpt>
      <trkpt lat="45.80995" lon="4.50501">
        <ele>770</ele>
        <time>2015-06-09T13:34:31Z</time>
      </trkpt>
      <trkpt lat="45.81002" lon="4.50499">
        <ele>769</ele>
        <time>2015-06-09T13:34:33Z</time>
      </trkpt>
      <trkpt lat="45.81012" lon="4.50494">
        <ele>769</ele>
        <time>2015-06-09T13:34:35Z</time>
      </trkpt>
      <trkpt lat="45.81018" lon="4.50493">
        <ele>768</ele>
        <time>2015-06-09T13:34:36Z</time>
      </trkpt>
      <trkpt lat="45.81022" lon="4.50491">
        <ele>768</ele>
        <time>2015-06-09T13:34:37Z</time>
      </trkpt>
      <trkpt lat="45.81028" lon="4.50489">
        <ele>767</ele>
        <time>2015-06-09T13:34:38Z</time>
      </trkpt>
      <trkpt lat="45.81034" lon="4.50484">
        <ele>767</ele>
        <time>2015-06-09T13:34:39Z</time>
      </trkpt>
      <trkpt lat="45.8104" lon="4.50478">
        <ele>766</ele>
        <time>2015-06-09T13:34:40Z</time>
      </trkpt>
      <trkpt lat="45.81046" lon="4.50473">
        <ele>766</ele>
        <time>2015-06-09T13:34:41Z</time>
      </trkpt>
      <trkpt lat="45.81052" lon="4.50469">
        <ele>765</ele>
        <time>2015-06-09T13:34:42Z</time>
      </trkpt>
      <trkpt lat="45.81059" lon="4.50465">
        <ele>764</ele>
        <time>2015-06-09T13:34:43Z</time>
      </trkpt>
      <trkpt lat="45.81066" lon="4.50461">
        <ele>763</ele>
        <time>2015-06-09T13:34:44Z</time>
      </trkpt>
      <trkpt lat="45.81072" lon="4.50457">
        <ele>762</ele>
        <time>2015-06-09T13:34:45Z</time>
      </trkpt>
      <trkpt lat="45.81078" lon="4.50453">
        <ele>761</ele>
        <time>2015-06-09T13:34:46Z</time>
      </trkpt>
      <trkpt lat="45.81086" lon="4.50448">
        <ele>760</ele>
        <time>2015-06-09T13:34:47Z</time>
      </trkpt>
      <trkpt lat="45.81092" lon="4.50444">
        <ele>759</ele>
        <time>2015-06-09T13:34:48Z</time>
      </trkpt>
      <trkpt lat="45.81098" lon="4.5044">
        <ele>759</ele>
        <time>2015-06-09T13:34:49Z</time>
      </trkpt>
      <trkpt lat="45.81104" lon="4.50437">
        <ele>758</ele>
        <time>2015-06-09T13:34:50Z</time>
      </trkpt>
      <trkpt lat="45.81109" lon="4.50434">
        <ele>758</ele>
        <time>2015-06-09T13:34:51Z</time>
      </trkpt>
      <trkpt lat="45.81116" lon="4.50431">
        <ele>757</ele>
        <time>2015-06-09T13:34:52Z</time>
      </trkpt>
      <trkpt lat="45.81121" lon="4.50429">
        <ele>756</ele>
        <time>2015-06-09T13:34:53Z</time>
      </trkpt>
      <trkpt lat="45.8113" lon="4.50426">
        <ele>755</ele>
        <time>2015-06-09T13:34:55Z</time>
      </trkpt>
      <trkpt lat="45.81136" lon="4.50424">
        <ele>754</ele>
        <time>2015-06-09T13:34:57Z</time>
      </trkpt>
      <trkpt lat="45.81141" lon="4.50425">
        <ele>754</ele>
        <time>2015-06-09T13:34:59Z</time>
      </trkpt>
      <trkpt lat="45.81146" lon="4.50427">
        <ele>753</ele>
        <time>2015-06-09T13:35:01Z</time>
      </trkpt>
      <trkpt lat="45.81154" lon="4.50429">
        <ele>752</ele>
        <time>2015-06-09T13:35:03Z</time>
      </trkpt>
      <trkpt lat="45.81162" lon="4.5043">
        <ele>752</ele>
        <time>2015-06-09T13:35:05Z</time>
      </trkpt>
      <trkpt lat="45.81166" lon="4.50431">
        <ele>751</ele>
        <time>2015-06-09T13:35:06Z</time>
      </trkpt>
      <trkpt lat="45.81171" lon="4.50432">
        <ele>751</ele>
        <time>2015-06-09T13:35:07Z</time>
      </trkpt>
      <trkpt lat="45.81178" lon="4.50433">
        <ele>751</ele>
        <time>2015-06-09T13:35:08Z</time>
      </trkpt>
      <trkpt lat="45.81184" lon="4.50435">
        <ele>751</ele>
        <time>2015-06-09T13:35:09Z</time>
      </trkpt>
      <trkpt lat="45.81191" lon="4.50437">
        <ele>751</ele>
        <time>2015-06-09T13:35:10Z</time>
      </trkpt>
      <trkpt lat="45.81196" lon="4.5044">
        <ele>751</ele>
        <time>2015-06-09T13:35:11Z</time>
      </trkpt>
      <trkpt lat="45.81201" lon="4.50443">
        <ele>751</ele>
        <time>2015-06-09T13:35:12Z</time>
      </trkpt>
      <trkpt lat="45.81208" lon="4.50447">
        <ele>751</ele>
        <time>2015-06-09T13:35:14Z</time>
      </trkpt>
      <trkpt lat="45.81213" lon="4.50449">
        <ele>750</ele>
        <time>2015-06-09T13:35:15Z</time>
      </trkpt>
      <trkpt lat="45.81219" lon="4.50451">
        <ele>750</ele>
        <time>2015-06-09T13:35:16Z</time>
      </trkpt>
      <trkpt lat="45.81225" lon="4.50452">
        <ele>750</ele>
        <time>2015-06-09T13:35:17Z</time>
      </trkpt>
      <trkpt lat="45.81231" lon="4.50454">
        <ele>750</ele>
        <time>2015-06-09T13:35:18Z</time>
      </trkpt>
      <trkpt lat="45.81237" lon="4.50458">
        <ele>749</ele>
        <time>2015-06-09T13:35:19Z</time>
      </trkpt>
      <trkpt lat="45.81242" lon="4.50461">
        <ele>748</ele>
        <time>2015-06-09T13:35:20Z</time>
      </trkpt>
      <trkpt lat="45.81248" lon="4.50464">
        <ele>748</ele>
        <time>2015-06-09T13:35:21Z</time>
      </trkpt>
      <trkpt lat="45.81253" lon="4.50467">
        <ele>747</ele>
        <time>2015-06-09T13:35:22Z</time>
      </trkpt>
      <trkpt lat="45.81261" lon="4.5047">
        <ele>746</ele>
        <time>2015-06-09T13:35:23Z</time>
      </trkpt>
      <trkpt lat="45.81266" lon="4.50474">
        <ele>746</ele>
        <time>2015-06-09T13:35:24Z</time>
      </trkpt>
      <trkpt lat="45.8127" lon="4.50479">
        <ele>745</ele>
        <time>2015-06-09T13:35:25Z</time>
      </trkpt>
      <trkpt lat="45.81275" lon="4.50482">
        <ele>744</ele>
        <time>2015-06-09T13:35:26Z</time>
      </trkpt>
      <trkpt lat="45.81282" lon="4.50488">
        <ele>743</ele>
        <time>2015-06-09T13:35:27Z</time>
      </trkpt>
      <trkpt lat="45.81287" lon="4.50492">
        <ele>743</ele>
        <time>2015-06-09T13:35:28Z</time>
      </trkpt>
      <trkpt lat="45.81293" lon="4.50495">
        <ele>742</ele>
        <time>2015-06-09T13:35:29Z</time>
      </trkpt>
      <trkpt lat="45.813" lon="4.50504">
        <ele>741</ele>
        <time>2015-06-09T13:35:31Z</time>
      </trkpt>
      <trkpt lat="45.81307" lon="4.50508">
        <ele>740</ele>
        <time>2015-06-09T13:35:32Z</time>
      </trkpt>
      <trkpt lat="45.81311" lon="4.50513">
        <ele>738</ele>
        <time>2015-06-09T13:35:33Z</time>
      </trkpt>
      <trkpt lat="45.81317" lon="4.50516">
        <ele>737</ele>
        <time>2015-06-09T13:35:34Z</time>
      </trkpt>
      <trkpt lat="45.81324" lon="4.5052">
        <ele>735</ele>
        <time>2015-06-09T13:35:35Z</time>
      </trkpt>
      <trkpt lat="45.81332" lon="4.50525">
        <ele>733</ele>
        <time>2015-06-09T13:35:36Z</time>
      </trkpt>
      <trkpt lat="45.8134" lon="4.50527">
        <ele>732</ele>
        <time>2015-06-09T13:35:37Z</time>
      </trkpt>
      <trkpt lat="45.81348" lon="4.5053">
        <ele>730</ele>
        <time>2015-06-09T13:35:38Z</time>
      </trkpt>
      <trkpt lat="45.81358" lon="4.50535">
        <ele>728</ele>
        <time>2015-06-09T13:35:39Z</time>
      </trkpt>
      <trkpt lat="45.81368" lon="4.50538">
        <ele>727</ele>
        <time>2015-06-09T13:35:40Z</time>
      </trkpt>
      <trkpt lat="45.81378" lon="4.50542">
        <ele>725</ele>
        <time>2015-06-09T13:35:41Z</time>
      </trkpt>
      <trkpt lat="45.81389" lon="4.50547">
        <ele>722</ele>
        <time>2015-06-09T13:35:42Z</time>
      </trkpt>
      <trkpt lat="45.814" lon="4.50552">
        <ele>720</ele>
        <time>2015-06-09T13:35:43Z</time>
      </trkpt>
      <trkpt lat="45.81411" lon="4.50556">
        <ele>719</ele>
        <time>2015-06-09T13:35:44Z</time>
      </trkpt>
      <trkpt lat="45.81422" lon="4.50561">
        <ele>717</ele>
        <time>2015-06-09T13:35:45Z</time>
      </trkpt>
      <trkpt lat="45.81432" lon="4.50566">
        <ele>716</ele>
        <time>2015-06-09T13:35:46Z</time>
      </trkpt>
      <trkpt lat="45.81443" lon="4.5057">
        <ele>714</ele>
        <time>2015-06-09T13:35:47Z</time>
      </trkpt>
      <trkpt lat="45.81452" lon="4.50573">
        <ele>713</ele>
        <time>2015-06-09T13:35:48Z</time>
      </trkpt>
      <trkpt lat="45.81461" lon="4.50577">
        <ele>712</ele>
        <time>2015-06-09T13:35:49Z</time>
      </trkpt>
      <trkpt lat="45.8147" lon="4.5058">
        <ele>711</ele>
        <time>2015-06-09T13:35:50Z</time>
      </trkpt>
      <trkpt lat="45.81477" lon="4.50584">
        <ele>711</ele>
        <time>2015-06-09T13:35:51Z</time>
      </trkpt>
      <trkpt lat="45.81483" lon="4.50586">
        <ele>710</ele>
        <time>2015-06-09T13:35:52Z</time>
      </trkpt>
      <trkpt lat="45.81488" lon="4.50588">
        <ele>710</ele>
        <time>2015-06-09T13:35:53Z</time>
      </trkpt>
      <trkpt lat="45.81493" lon="4.5059">
        <ele>709</ele>
        <time>2015-06-09T13:35:54Z</time>
      </trkpt>
      <trkpt lat="45.81502" lon="4.50593">
        <ele>708</ele>
        <time>2015-06-09T13:35:56Z</time>
      </trkpt>
      <trkpt lat="45.81509" lon="4.50599">
        <ele>708</ele>
        <time>2015-06-09T13:35:58Z</time>
      </trkpt>
      <trkpt lat="45.81516" lon="4.50607">
        <ele>707</ele>
        <time>2015-06-09T13:36:00Z</time>
      </trkpt>
      <trkpt lat="45.81522" lon="4.50616">
        <ele>707</ele>
        <time>2015-06-09T13:36:02Z</time>
      </trkpt>
      <trkpt lat="45.81527" lon="4.50624">
        <ele>707</ele>
        <time>2015-06-09T13:36:04Z</time>
      </trkpt>
      <trkpt lat="45.81533" lon="4.50635">
        <ele>706</ele>
        <time>2015-06-09T13:36:06Z</time>
      </trkpt>
      <trkpt lat="45.81535" lon="4.5064">
        <ele>706</ele>
        <time>2015-06-09T13:36:07Z</time>
      </trkpt>
      <trkpt lat="45.81539" lon="4.50646">
        <ele>706</ele>
        <time>2015-06-09T13:36:08Z</time>
      </trkpt>
      <trkpt lat="45.81542" lon="4.50651">
        <ele>706</ele>
        <time>2015-06-09T13:36:09Z</time>
      </trkpt>
      <trkpt lat="45.81545" lon="4.50657">
        <ele>706</ele>
        <time>2015-06-09T13:36:10Z</time>
      </trkpt>
      <trkpt lat="45.81548" lon="4.50663">
        <ele>706</ele>
        <time>2015-06-09T13:36:11Z</time>
      </trkpt>
      <trkpt lat="45.81551" lon="4.5067">
        <ele>706</ele>
        <time>2015-06-09T13:36:12Z</time>
      </trkpt>
      <trkpt lat="45.81554" lon="4.50676">
        <ele>706</ele>
        <time>2015-06-09T13:36:13Z</time>
      </trkpt>
      <trkpt lat="45.81558" lon="4.50684">
        <ele>706</ele>
        <time>2015-06-09T13:36:14Z</time>
      </trkpt>
      <trkpt lat="45.81561" lon="4.50692">
        <ele>706</ele>
        <time>2015-06-09T13:36:15Z</time>
      </trkpt>
      <trkpt lat="45.81565" lon="4.50699">
        <ele>706</ele>
        <time>2015-06-09T13:36:16Z</time>
      </trkpt>
      <trkpt lat="45.81569" lon="4.50706">
        <ele>706</ele>
        <time>2015-06-09T13:36:17Z</time>
      </trkpt>
      <trkpt lat="45.81574" lon="4.50713">
        <ele>706</ele>
        <time>2015-06-09T13:36:18Z</time>
      </trkpt>
      <trkpt lat="45.81578" lon="4.5072">
        <ele>706</ele>
        <time>2015-06-09T13:36:19Z</time>
      </trkpt>
      <trkpt lat="45.81582" lon="4.50725">
        <ele>706</ele>
        <time>2015-06-09T13:36:20Z</time>
      </trkpt>
      <trkpt lat="45.81586" lon="4.50731">
        <ele>706</ele>
        <time>2015-06-09T13:36:21Z</time>
      </trkpt>
      <trkpt lat="45.81589" lon="4.50736">
        <ele>706</ele>
        <time>2015-06-09T13:36:22Z</time>
      </trkpt>
      <trkpt lat="45.81595" lon="4.50744">
        <ele>706</ele>
        <time>2015-06-09T13:36:24Z</time>
      </trkpt>
      <trkpt lat="45.81599" lon="4.50753">
        <ele>706</ele>
        <time>2015-06-09T13:36:26Z</time>
      </trkpt>
      <trkpt lat="45.81603" lon="4.5076">
        <ele>706</ele>
        <time>2015-06-09T13:36:28Z</time>
      </trkpt>
      <trkpt lat="45.81609" lon="4.50769">
        <ele>707</ele>
        <time>2015-06-09T13:36:30Z</time>
      </trkpt>
      <trkpt lat="45.81614" lon="4.50778">
        <ele>707</ele>
        <time>2015-06-09T13:36:32Z</time>
      </trkpt>
      <trkpt lat="45.81617" lon="4.50786">
        <ele>707</ele>
        <time>2015-06-09T13:36:34Z</time>
      </trkpt>
      <trkpt lat="45.81621" lon="4.50795">
        <ele>707</ele>
        <time>2015-06-09T13:36:36Z</time>
      </trkpt>
      <trkpt lat="45.81625" lon="4.50804">
        <ele>707</ele>
        <time>2015-06-09T13:36:38Z</time>
      </trkpt>
      <trkpt lat="45.81629" lon="4.50813">
        <ele>707</ele>
        <time>2015-06-09T13:36:40Z</time>
      </trkpt>
      <trkpt lat="45.81633" lon="4.50823">
        <ele>707</ele>
        <time>2015-06-09T13:36:42Z</time>
      </trkpt>
      <trkpt lat="45.81637" lon="4.50832">
        <ele>707</ele>
        <time>2015-06-09T13:36:44Z</time>
      </trkpt>
      <trkpt lat="45.81641" lon="4.50842">
        <ele>707</ele>
        <time>2015-06-09T13:36:46Z</time>
      </trkpt>
      <trkpt lat="45.81646" lon="4.50849">
        <ele>707</ele>
        <time>2015-06-09T13:36:47Z</time>
      </trkpt>
      <trkpt lat="45.81649" lon="4.50855">
        <ele>707</ele>
        <time>2015-06-09T13:36:48Z</time>
      </trkpt>
      <trkpt lat="45.81653" lon="4.50861">
        <ele>707</ele>
        <time>2015-06-09T13:36:49Z</time>
      </trkpt>
      <trkpt lat="45.81657" lon="4.50867">
        <ele>707</ele>
        <time>2015-06-09T13:36:50Z</time>
      </trkpt>
      <trkpt lat="45.81662" lon="4.50873">
        <ele>707</ele>
        <time>2015-06-09T13:36:51Z</time>
      </trkpt>
      <trkpt lat="45.81667" lon="4.50878">
        <ele>707</ele>
        <time>2015-06-09T13:36:52Z</time>
      </trkpt>
      <trkpt lat="45.81672" lon="4.50884">
        <ele>707</ele>
        <time>2015-06-09T13:36:53Z</time>
      </trkpt>
      <trkpt lat="45.81678" lon="4.50889">
        <ele>706</ele>
        <time>2015-06-09T13:36:54Z</time>
      </trkpt>
      <trkpt lat="45.81684" lon="4.50895">
        <ele>706</ele>
        <time>2015-06-09T13:36:55Z</time>
      </trkpt>
      <trkpt lat="45.8169" lon="4.50901">
        <ele>706</ele>
        <time>2015-06-09T13:36:56Z</time>
      </trkpt>
      <trkpt lat="45.81695" lon="4.50906">
        <ele>706</ele>
        <time>2015-06-09T13:36:57Z</time>
      </trkpt>
      <trkpt lat="45.817" lon="4.50913">
        <ele>706</ele>
        <time>2015-06-09T13:36:58Z</time>
      </trkpt>
      <trkpt lat="45.81704" lon="4.50919">
        <ele>706</ele>
        <time>2015-06-09T13:36:59Z</time>
      </trkpt>
      <trkpt lat="45.81709" lon="4.50925">
        <ele>707</ele>
        <time>2015-06-09T13:37:00Z</time>
      </trkpt>
      <trkpt lat="45.81713" lon="4.50932">
        <ele>707</ele>
        <time>2015-06-09T13:37:01Z</time>
      </trkpt>
      <trkpt lat="45.81717" lon="4.50938">
        <ele>707</ele>
        <time>2015-06-09T13:37:02Z</time>
      </trkpt>
      <trkpt lat="45.81721" lon="4.50943">
        <ele>707</ele>
        <time>2015-06-09T13:37:03Z</time>
      </trkpt>
      <trkpt lat="45.81725" lon="4.50948">
        <ele>707</ele>
        <time>2015-06-09T13:37:04Z</time>
      </trkpt>
      <trkpt lat="45.81729" lon="4.50953">
        <ele>708</ele>
        <time>2015-06-09T13:37:05Z</time>
      </trkpt>
      <trkpt lat="45.81733" lon="4.50957">
        <ele>708</ele>
        <time>2015-06-09T13:37:06Z</time>
      </trkpt>
      <trkpt lat="45.81739" lon="4.50964">
        <ele>708</ele>
        <time>2015-06-09T13:37:08Z</time>
      </trkpt>
      <trkpt lat="45.81745" lon="4.50972">
        <ele>709</ele>
        <time>2015-06-09T13:37:10Z</time>
      </trkpt>
      <trkpt lat="45.81748" lon="4.50977">
        <ele>709</ele>
        <time>2015-06-09T13:37:12Z</time>
      </trkpt>
      <trkpt lat="45.81753" lon="4.50982">
        <ele>709</ele>
        <time>2015-06-09T13:37:15Z</time>
      </trkpt>
      <trkpt lat="45.81759" lon="4.50985">
        <ele>710</ele>
        <time>2015-06-09T13:37:19Z</time>
      </trkpt>
      <trkpt lat="45.81764" lon="4.50987">
        <ele>710</ele>
        <time>2015-06-09T13:37:22Z</time>
      </trkpt>
      <trkpt lat="45.8177" lon="4.50991">
        <ele>710</ele>
        <time>2015-06-09T13:37:25Z</time>
      </trkpt>
      <trkpt lat="45.81775" lon="4.50996">
        <ele>711</ele>
        <time>2015-06-09T13:37:28Z</time>
      </trkpt>
      <trkpt lat="45.8178" lon="4.51001">
        <ele>711</ele>
        <time>2015-06-09T13:37:31Z</time>
      </trkpt>
      <trkpt lat="45.81786" lon="4.51005">
        <ele>711</ele>
        <time>2015-06-09T13:37:34Z</time>
      </trkpt>
      <trkpt lat="45.81791" lon="4.51008">
        <ele>711</ele>
        <time>2015-06-09T13:37:37Z</time>
      </trkpt>
      <trkpt lat="45.81796" lon="4.51012">
        <ele>711</ele>
        <time>2015-06-09T13:37:40Z</time>
      </trkpt>
      <trkpt lat="45.818" lon="4.51017">
        <ele>711</ele>
        <time>2015-06-09T13:37:43Z</time>
      </trkpt>
      <trkpt lat="45.81804" lon="4.51023">
        <ele>712</ele>
        <time>2015-06-09T13:37:46Z</time>
      </trkpt>
      <trkpt lat="45.81807" lon="4.51029">
        <ele>712</ele>
        <time>2015-06-09T13:37:49Z</time>
      </trkpt>
      <trkpt lat="45.8181" lon="4.51035">
        <ele>713</ele>
        <time>2015-06-09T13:37:52Z</time>
      </trkpt>
      <trkpt lat="45.81811" lon="4.51042">
        <ele>713</ele>
        <time>2015-06-09T13:37:55Z</time>
      </trkpt>
      <trkpt lat="45.81812" lon="4.5105">
        <ele>714</ele>
        <time>2015-06-09T13:37:58Z</time>
      </trkpt>
      <trkpt lat="45.81814" lon="4.51057">
        <ele>714</ele>
        <time>2015-06-09T13:38:01Z</time>
      </trkpt>
      <trkpt lat="45.81815" lon="4.51064">
        <ele>715</ele>
        <time>2015-06-09T13:38:04Z</time>
      </trkpt>
      <trkpt lat="45.81815" lon="4.51072">
        <ele>716</ele>
        <time>2015-06-09T13:38:08Z</time>
      </trkpt>
      <trkpt lat="45.81815" lon="4.5108">
        <ele>717</ele>
        <time>2015-06-09T13:38:12Z</time>
      </trkpt>
      <trkpt lat="45.81814" lon="4.51088">
        <ele>718</ele>
        <time>2015-06-09T13:38:16Z</time>
      </trkpt>
      <trkpt lat="45.81811" lon="4.51095">
        <ele>719</ele>
        <time>2015-06-09T13:38:20Z</time>
      </trkpt>
      <trkpt lat="45.81808" lon="4.51101">
        <ele>719</ele>
        <time>2015-06-09T13:38:24Z</time>
      </trkpt>
      <trkpt lat="45.81805" lon="4.51108">
        <ele>720</ele>
        <time>2015-06-09T13:38:28Z</time>
      </trkpt>
      <trkpt lat="45.81801" lon="4.51114">
        <ele>721</ele>
        <time>2015-06-09T13:38:32Z</time>
      </trkpt>
      <trkpt lat="45.81798" lon="4.51119">
        <ele>721</ele>
        <time>2015-06-09T13:38:35Z</time>
      </trkpt>
      <trkpt lat="45.81795" lon="4.51124">
        <ele>722</ele>
        <time>2015-06-09T13:38:38Z</time>
      </trkpt>
      <trkpt lat="45.81793" lon="4.5113">
        <ele>723</ele>
        <time>2015-06-09T13:38:41Z</time>
      </trkpt>
      <trkpt lat="45.81791" lon="4.51136">
        <ele>723</ele>
        <time>2015-06-09T13:38:44Z</time>
      </trkpt>
      <trkpt lat="45.81789" lon="4.51142">
        <ele>724</ele>
        <time>2015-06-09T13:38:47Z</time>
      </trkpt>
      <trkpt lat="45.81787" lon="4.5115">
        <ele>725</ele>
        <time>2015-06-09T13:38:51Z</time>
      </trkpt>
      <trkpt lat="45.81786" lon="4.51157">
        <ele>726</ele>
        <time>2015-06-09T13:38:54Z</time>
      </trkpt>
      <trkpt lat="45.81785" lon="4.51164">
        <ele>726</ele>
        <time>2015-06-09T13:38:57Z</time>
      </trkpt>
      <trkpt lat="45.81784" lon="4.5117">
        <ele>727</ele>
        <time>2015-06-09T13:39:00Z</time>
      </trkpt>
      <trkpt lat="45.81784" lon="4.51179">
        <ele>728</ele>
        <time>2015-06-09T13:39:04Z</time>
      </trkpt>
      <trkpt lat="45.81783" lon="4.51187">
        <ele>729</ele>
        <time>2015-06-09T13:39:08Z</time>
      </trkpt>
      <trkpt lat="45.81782" lon="4.51194">
        <ele>729</ele>
        <time>2015-06-09T13:39:12Z</time>
      </trkpt>
      <trkpt lat="45.81783" lon="4.51202">
        <ele>730</ele>
        <time>2015-06-09T13:39:16Z</time>
      </trkpt>
      <trkpt lat="45.81784" lon="4.5121">
        <ele>730</ele>
        <time>2015-06-09T13:39:20Z</time>
      </trkpt>
      <trkpt lat="45.81786" lon="4.51218">
        <ele>731</ele>
        <time>2015-06-09T13:39:24Z</time>
      </trkpt>
      <trkpt lat="45.81787" lon="4.51227">
        <ele>731</ele>
        <time>2015-06-09T13:39:28Z</time>
      </trkpt>
      <trkpt lat="45.81787" lon="4.51234">
        <ele>732</ele>
        <time>2015-06-09T13:39:32Z</time>
      </trkpt>
      <trkpt lat="45.81791" lon="4.5124">
        <ele>732</ele>
        <time>2015-06-09T13:39:36Z</time>
      </trkpt>
      <trkpt lat="45.81794" lon="4.51246">
        <ele>732</ele>
        <time>2015-06-09T13:39:39Z</time>
      </trkpt>
      <trkpt lat="45.81797" lon="4.51252">
        <ele>733</ele>
        <time>2015-06-09T13:39:42Z</time>
      </trkpt>
      <trkpt lat="45.818" lon="4.51258">
        <ele>733</ele>
        <time>2015-06-09T13:39:45Z</time>
      </trkpt>
      <trkpt lat="45.81803" lon="4.51264">
        <ele>733</ele>
        <time>2015-06-09T13:39:48Z</time>
      </trkpt>
      <trkpt lat="45.81806" lon="4.5127">
        <ele>734</ele>
        <time>2015-06-09T13:39:51Z</time>
      </trkpt>
      <trkpt lat="45.81809" lon="4.51276">
        <ele>734</ele>
        <time>2015-06-09T13:39:54Z</time>
      </trkpt>
      <trkpt lat="45.81812" lon="4.51281">
        <ele>735</ele>
        <time>2015-06-09T13:39:57Z</time>
      </trkpt>
      <trkpt lat="45.81815" lon="4.51288">
        <ele>736</ele>
        <time>2015-06-09T13:40:00Z</time>
      </trkpt>
      <trkpt lat="45.81818" lon="4.51294">
        <ele>737</ele>
        <time>2015-06-09T13:40:03Z</time>
      </trkpt>
      <trkpt lat="45.8182" lon="4.513">
        <ele>737</ele>
        <time>2015-06-09T13:40:06Z</time>
      </trkpt>
      <trkpt lat="45.81823" lon="4.51304">
        <ele>738</ele>
        <time>2015-06-09T13:40:09Z</time>
      </trkpt>
      <trkpt lat="45.81826" lon="4.51311">
        <ele>739</ele>
        <time>2015-06-09T13:40:13Z</time>
      </trkpt>
      <trkpt lat="45.8183" lon="4.51317">
        <ele>740</ele>
        <time>2015-06-09T13:40:17Z</time>
      </trkpt>
      <trkpt lat="45.81834" lon="4.51321">
        <ele>740</ele>
        <time>2015-06-09T13:40:21Z</time>
      </trkpt>
      <trkpt lat="45.81834" lon="4.51323">
        <ele>741</ele>
        <time>2015-06-09T13:40:49Z</time>
      </trkpt>
      <trkpt lat="45.81834" lon="4.51323">
        <ele>741</ele>
        <time>2015-06-09T13:41:04Z</time>
      </trkpt>
      <trkpt lat="45.81833" lon="4.51324">
        <ele>741</ele>
        <time>2015-06-09T13:41:19Z</time>
      </trkpt>
      <trkpt lat="45.81833" lon="4.51327">
        <ele>741</ele>
        <time>2015-06-09T13:41:24Z</time>
      </trkpt>
      <trkpt lat="45.81838" lon="4.51324">
        <ele>741</ele>
        <time>2015-06-09T13:41:39Z</time>
      </trkpt>
      <trkpt lat="45.81843" lon="4.51325">
        <ele>741</ele>
        <time>2015-06-09T13:41:41Z</time>
      </trkpt>
      <trkpt lat="45.81848" lon="4.51327">
        <ele>742</ele>
        <time>2015-06-09T13:41:43Z</time>
      </trkpt>
      <trkpt lat="45.81854" lon="4.51328">
        <ele>742</ele>
        <time>2015-06-09T13:41:46Z</time>
      </trkpt>
      <trkpt lat="45.8186" lon="4.51328">
        <ele>742</ele>
        <time>2015-06-09T13:41:48Z</time>
      </trkpt>
      <trkpt lat="45.81864" lon="4.51329">
        <ele>742</ele>
        <time>2015-06-09T13:41:50Z</time>
      </trkpt>
      <trkpt lat="45.81869" lon="4.51328">
        <ele>742</ele>
        <time>2015-06-09T13:41:52Z</time>
      </trkpt>
      <trkpt lat="45.81874" lon="4.51328">
        <ele>742</ele>
        <time>2015-06-09T13:41:54Z</time>
      </trkpt>
      <trkpt lat="45.81879" lon="4.51332">
        <ele>742</ele>
        <time>2015-06-09T13:41:56Z</time>
      </trkpt>
      <trkpt lat="45.81884" lon="4.51336">
        <ele>742</ele>
        <time>2015-06-09T13:41:58Z</time>
      </trkpt>
      <trkpt lat="45.81891" lon="4.51339">
        <ele>743</ele>
        <time>2015-06-09T13:42:00Z</time>
      </trkpt>
      <trkpt lat="45.81897" lon="4.51342">
        <ele>743</ele>
        <time>2015-06-09T13:42:02Z</time>
      </trkpt>
      <trkpt lat="45.81903" lon="4.51345">
        <ele>744</ele>
        <time>2015-06-09T13:42:04Z</time>
      </trkpt>
      <trkpt lat="45.81908" lon="4.51347">
        <ele>744</ele>
        <time>2015-06-09T13:42:06Z</time>
      </trkpt>
      <trkpt lat="45.81913" lon="4.51347">
        <ele>744</ele>
        <time>2015-06-09T13:42:08Z</time>
      </trkpt>
      <trkpt lat="45.81908" lon="4.5135">
        <ele>744</ele>
        <time>2015-06-09T13:42:26Z</time>
      </trkpt>
      <trkpt lat="45.81901" lon="4.51349">
        <ele>744</ele>
        <time>2015-06-09T13:42:29Z</time>
      </trkpt>
      <trkpt lat="45.81896" lon="4.51347">
        <ele>744</ele>
        <time>2015-06-09T13:42:31Z</time>
      </trkpt>
      <trkpt lat="45.81892" lon="4.51345">
        <ele>744</ele>
        <time>2015-06-09T13:42:33Z</time>
      </trkpt>
      <trkpt lat="45.81886" lon="4.51343">
        <ele>743</ele>
        <time>2015-06-09T13:42:35Z</time>
      </trkpt>
      <trkpt lat="45.81881" lon="4.51341">
        <ele>743</ele>
        <time>2015-06-09T13:42:38Z</time>
      </trkpt>
      <trkpt lat="45.81886" lon="4.51339">
        <ele>743</ele>
        <time>2015-06-09T13:42:42Z</time>
      </trkpt>
      <trkpt lat="45.81893" lon="4.51339">
        <ele>743</ele>
        <time>2015-06-09T13:42:45Z</time>
      </trkpt>
      <trkpt lat="45.819" lon="4.51337">
        <ele>742</ele>
        <time>2015-06-09T13:42:47Z</time>
      </trkpt>
      <trkpt lat="45.81909" lon="4.51336">
        <ele>742</ele>
        <time>2015-06-09T13:42:49Z</time>
      </trkpt>
      <trkpt lat="45.81917" lon="4.51336">
        <ele>742</ele>
        <time>2015-06-09T13:42:51Z</time>
      </trkpt>
      <trkpt lat="45.81924" lon="4.51336">
        <ele>743</ele>
        <time>2015-06-09T13:42:53Z</time>
      </trkpt>
      <trkpt lat="45.81932" lon="4.51335">
        <ele>743</ele>
        <time>2015-06-09T13:42:55Z</time>
      </trkpt>
      <trkpt lat="45.81939" lon="4.51335">
        <ele>743</ele>
        <time>2015-06-09T13:42:57Z</time>
      </trkpt>
      <trkpt lat="45.81946" lon="4.51336">
        <ele>744</ele>
        <time>2015-06-09T13:42:59Z</time>
      </trkpt>
      <trkpt lat="45.81953" lon="4.51337">
        <ele>744</ele>
        <time>2015-06-09T13:43:01Z</time>
      </trkpt>
      <trkpt lat="45.81959" lon="4.51338">
        <ele>745</ele>
        <time>2015-06-09T13:43:03Z</time>
      </trkpt>
      <trkpt lat="45.81965" lon="4.51339">
        <ele>745</ele>
        <time>2015-06-09T13:43:05Z</time>
      </trkpt>
      <trkpt lat="45.81972" lon="4.51341">
        <ele>746</ele>
        <time>2015-06-09T13:43:07Z</time>
      </trkpt>
      <trkpt lat="45.81978" lon="4.51341">
        <ele>747</ele>
        <time>2015-06-09T13:43:09Z</time>
      </trkpt>
      <trkpt lat="45.81986" lon="4.51343">
        <ele>747</ele>
        <time>2015-06-09T13:43:11Z</time>
      </trkpt>
      <trkpt lat="45.81993" lon="4.51345">
        <ele>748</ele>
        <time>2015-06-09T13:43:13Z</time>
      </trkpt>
      <trkpt lat="45.82001" lon="4.51346">
        <ele>748</ele>
        <time>2015-06-09T13:43:15Z</time>
      </trkpt>
      <trkpt lat="45.82016" lon="4.51349">
        <ele>749</ele>
        <time>2015-06-09T13:43:17Z</time>
      </trkpt>
      <trkpt lat="45.82021" lon="4.51354">
        <ele>750</ele>
        <time>2015-06-09T13:43:19Z</time>
      </trkpt>
      <trkpt lat="45.82026" lon="4.51354">
        <ele>750</ele>
        <time>2015-06-09T13:43:20Z</time>
      </trkpt>
      <trkpt lat="45.8203" lon="4.51356">
        <ele>751</ele>
        <time>2015-06-09T13:43:21Z</time>
      </trkpt>
      <trkpt lat="45.8204" lon="4.51355">
        <ele>751</ele>
        <time>2015-06-09T13:43:23Z</time>
      </trkpt>
      <trkpt lat="45.8205" lon="4.51356">
        <ele>751</ele>
        <time>2015-06-09T13:43:25Z</time>
      </trkpt>
      <trkpt lat="45.82057" lon="4.51359">
        <ele>752</ele>
        <time>2015-06-09T13:43:27Z</time>
      </trkpt>
      <trkpt lat="45.82065" lon="4.51362">
        <ele>753</ele>
        <time>2015-06-09T13:43:29Z</time>
      </trkpt>
      <trkpt lat="45.82077" lon="4.51359">
        <ele>752</ele>
        <time>2015-06-09T13:43:30Z</time>
      </trkpt>
      <trkpt lat="45.82083" lon="4.51359">
        <ele>752</ele>
        <time>2015-06-09T13:43:31Z</time>
      </trkpt>
      <trkpt lat="45.8209" lon="4.51359">
        <ele>752</ele>
        <time>2015-06-09T13:43:32Z</time>
      </trkpt>
      <trkpt lat="45.82094" lon="4.51357">
        <ele>752</ele>
        <time>2015-06-09T13:43:33Z</time>
      </trkpt>
      <trkpt lat="45.82106" lon="4.51356">
        <ele>752</ele>
        <time>2015-06-09T13:43:35Z</time>
      </trkpt>
      <trkpt lat="45.82111" lon="4.51356">
        <ele>752</ele>
        <time>2015-06-09T13:43:36Z</time>
      </trkpt>
      <trkpt lat="45.82117" lon="4.51353">
        <ele>751</ele>
        <time>2015-06-09T13:43:37Z</time>
      </trkpt>
      <trkpt lat="45.82123" lon="4.51356">
        <ele>752</ele>
        <time>2015-06-09T13:43:38Z</time>
      </trkpt>
      <trkpt lat="45.82129" lon="4.51357">
        <ele>752</ele>
        <time>2015-06-09T13:43:39Z</time>
      </trkpt>
      <trkpt lat="45.82138" lon="4.5136">
        <ele>753</ele>
        <time>2015-06-09T13:43:41Z</time>
      </trkpt>
      <trkpt lat="45.82146" lon="4.51362">
        <ele>753</ele>
        <time>2015-06-09T13:43:43Z</time>
      </trkpt>
      <trkpt lat="45.82151" lon="4.51364">
        <ele>753</ele>
        <time>2015-06-09T13:43:45Z</time>
      </trkpt>
      <trkpt lat="45.82156" lon="4.51365">
        <ele>754</ele>
        <time>2015-06-09T13:43:49Z</time>
      </trkpt>
      <trkpt lat="45.82161" lon="4.51367">
        <ele>754</ele>
        <time>2015-06-09T13:43:51Z</time>
      </trkpt>
      <trkpt lat="45.82166" lon="4.51369">
        <ele>754</ele>
        <time>2015-06-09T13:43:53Z</time>
      </trkpt>
      <trkpt lat="45.82172" lon="4.51371">
        <ele>754</ele>
        <time>2015-06-09T13:43:55Z</time>
      </trkpt>
      <trkpt lat="45.82179" lon="4.51373">
        <ele>755</ele>
        <time>2015-06-09T13:43:57Z</time>
      </trkpt>
      <trkpt lat="45.82187" lon="4.51374">
        <ele>755</ele>
        <time>2015-06-09T13:43:59Z</time>
      </trkpt>
      <trkpt lat="45.82192" lon="4.51375">
        <ele>755</ele>
        <time>2015-06-09T13:44:00Z</time>
      </trkpt>
      <trkpt lat="45.82196" lon="4.51375">
        <ele>755</ele>
        <time>2015-06-09T13:44:01Z</time>
      </trkpt>
      <trkpt lat="45.82205" lon="4.51375">
        <ele>755</ele>
        <time>2015-06-09T13:44:03Z</time>
      </trkpt>
      <trkpt lat="45.82214" lon="4.51373">
        <ele>755</ele>
        <time>2015-06-09T13:44:05Z</time>
      </trkpt>
      <trkpt lat="45.82219" lon="4.51372">
        <ele>755</ele>
        <time>2015-06-09T13:44:06Z</time>
      </trkpt>
      <trkpt lat="45.8223" lon="4.5137">
        <ele>755</ele>
        <time>2015-06-09T13:44:07Z</time>
      </trkpt>
      <trkpt lat="45.82239" lon="4.51369">
        <ele>755</ele>
        <time>2015-06-09T13:44:09Z</time>
      </trkpt>
      <trkpt lat="45.82245" lon="4.51365">
        <ele>754</ele>
        <time>2015-06-09T13:44:10Z</time>
      </trkpt>
      <trkpt lat="45.8225" lon="4.51364">
        <ele>754</ele>
        <time>2015-06-09T13:44:11Z</time>
      </trkpt>
      <trkpt lat="45.82255" lon="4.51364">
        <ele>755</ele>
        <time>2015-06-09T13:44:12Z</time>
      </trkpt>
      <trkpt lat="45.82261" lon="4.51364">
        <ele>755</ele>
        <time>2015-06-09T13:44:13Z</time>
      </trkpt>
      <trkpt lat="45.82268" lon="4.51368">
        <ele>755</ele>
        <time>2015-06-09T13:44:15Z</time>
      </trkpt>
      <trkpt lat="45.82273" lon="4.5137">
        <ele>755</ele>
        <time>2015-06-09T13:44:16Z</time>
      </trkpt>
      <trkpt lat="45.8228" lon="4.51373">
        <ele>756</ele>
        <time>2015-06-09T13:44:18Z</time>
      </trkpt>
      <trkpt lat="45.82289" lon="4.51375">
        <ele>756</ele>
        <time>2015-06-09T13:44:20Z</time>
      </trkpt>
      <trkpt lat="45.82296" lon="4.51378">
        <ele>756</ele>
        <time>2015-06-09T13:44:22Z</time>
      </trkpt>
      <trkpt lat="45.82301" lon="4.51379">
        <ele>756</ele>
        <time>2015-06-09T13:44:24Z</time>
      </trkpt>
      <trkpt lat="45.82307" lon="4.51379">
        <ele>756</ele>
        <time>2015-06-09T13:44:27Z</time>
      </trkpt>
      <trkpt lat="45.82311" lon="4.5138">
        <ele>757</ele>
        <time>2015-06-09T13:44:29Z</time>
      </trkpt>
      <trkpt lat="45.82316" lon="4.5138">
        <ele>757</ele>
        <time>2015-06-09T13:44:32Z</time>
      </trkpt>
      <trkpt lat="45.82322" lon="4.51378">
        <ele>756</ele>
        <time>2015-06-09T13:44:36Z</time>
      </trkpt>
      <trkpt lat="45.82327" lon="4.51378">
        <ele>756</ele>
        <time>2015-06-09T13:44:40Z</time>
      </trkpt>
      <trkpt lat="45.82333" lon="4.51379">
        <ele>757</ele>
        <time>2015-06-09T13:44:44Z</time>
      </trkpt>
      <trkpt lat="45.82338" lon="4.51381">
        <ele>757</ele>
        <time>2015-06-09T13:44:48Z</time>
      </trkpt>
      <trkpt lat="45.82343" lon="4.51382">
        <ele>758</ele>
        <time>2015-06-09T13:44:51Z</time>
      </trkpt>
      <trkpt lat="45.82348" lon="4.51383">
        <ele>758</ele>
        <time>2015-06-09T13:44:54Z</time>
      </trkpt>
      <trkpt lat="45.82352" lon="4.51381">
        <ele>758</ele>
        <time>2015-06-09T13:44:57Z</time>
      </trkpt>
      <trkpt lat="45.82357" lon="4.51378">
        <ele>758</ele>
        <time>2015-06-09T13:45:01Z</time>
      </trkpt>
      <trkpt lat="45.82361" lon="4.51374">
        <ele>758</ele>
        <time>2015-06-09T13:45:05Z</time>
      </trkpt>
      <trkpt lat="45.82367" lon="4.51371">
        <ele>758</ele>
        <time>2015-06-09T13:45:08Z</time>
      </trkpt>
      <trkpt lat="45.82372" lon="4.51368">
        <ele>758</ele>
        <time>2015-06-09T13:45:10Z</time>
      </trkpt>
      <trkpt lat="45.82378" lon="4.51366">
        <ele>758</ele>
        <time>2015-06-09T13:45:12Z</time>
      </trkpt>
      <trkpt lat="45.82383" lon="4.51362">
        <ele>757</ele>
        <time>2015-06-09T13:45:14Z</time>
      </trkpt>
      <trkpt lat="45.82389" lon="4.51357">
        <ele>757</ele>
        <time>2015-06-09T13:45:16Z</time>
      </trkpt>
      <trkpt lat="45.82394" lon="4.51351">
        <ele>757</ele>
        <time>2015-06-09T13:45:18Z</time>
      </trkpt>
      <trkpt lat="45.82398" lon="4.51347">
        <ele>756</ele>
        <time>2015-06-09T13:45:19Z</time>
      </trkpt>
      <trkpt lat="45.82402" lon="4.51342">
        <ele>756</ele>
        <time>2015-06-09T13:45:20Z</time>
      </trkpt>
      <trkpt lat="45.82409" lon="4.51334">
        <ele>756</ele>
        <time>2015-06-09T13:45:22Z</time>
      </trkpt>
      <trkpt lat="45.82415" lon="4.51328">
        <ele>755</ele>
        <time>2015-06-09T13:45:24Z</time>
      </trkpt>
      <trkpt lat="45.8242" lon="4.5132">
        <ele>754</ele>
        <time>2015-06-09T13:45:26Z</time>
      </trkpt>
      <trkpt lat="45.82425" lon="4.51314">
        <ele>754</ele>
        <time>2015-06-09T13:45:28Z</time>
      </trkpt>
      <trkpt lat="45.82428" lon="4.51308">
        <ele>753</ele>
        <time>2015-06-09T13:45:29Z</time>
      </trkpt>
      <trkpt lat="45.82434" lon="4.51302">
        <ele>753</ele>
        <time>2015-06-09T13:45:31Z</time>
      </trkpt>
      <trkpt lat="45.82441" lon="4.51296">
        <ele>753</ele>
        <time>2015-06-09T13:45:33Z</time>
      </trkpt>
      <trkpt lat="45.82446" lon="4.51292">
        <ele>752</ele>
        <time>2015-06-09T13:45:35Z</time>
      </trkpt>
      <trkpt lat="45.82451" lon="4.51289">
        <ele>752</ele>
        <time>2015-06-09T13:45:36Z</time>
      </trkpt>
      <trkpt lat="45.82456" lon="4.51287">
        <ele>752</ele>
        <time>2015-06-09T13:45:37Z</time>
      </trkpt>
      <trkpt lat="45.8246" lon="4.51285">
        <ele>752</ele>
        <time>2015-06-09T13:45:38Z</time>
      </trkpt>
      <trkpt lat="45.82466" lon="4.51281">
        <ele>752</ele>
        <time>2015-06-09T13:45:39Z</time>
      </trkpt>
      <trkpt lat="45.82473" lon="4.51277">
        <ele>751</ele>
        <time>2015-06-09T13:45:41Z</time>
      </trkpt>
      <trkpt lat="45.82481" lon="4.51273">
        <ele>750</ele>
        <time>2015-06-09T13:45:43Z</time>
      </trkpt>
      <trkpt lat="45.82489" lon="4.51269">
        <ele>750</ele>
        <time>2015-06-09T13:45:45Z</time>
      </trkpt>
      <trkpt lat="45.82494" lon="4.51267">
        <ele>749</ele>
        <time>2015-06-09T13:45:46Z</time>
      </trkpt>
      <trkpt lat="45.82499" lon="4.51265">
        <ele>749</ele>
        <time>2015-06-09T13:45:47Z</time>
      </trkpt>
      <trkpt lat="45.82507" lon="4.51262">
        <ele>748</ele>
        <time>2015-06-09T13:45:49Z</time>
      </trkpt>
      <trkpt lat="45.82518" lon="4.51255">
        <ele>747</ele>
        <time>2015-06-09T13:45:50Z</time>
      </trkpt>
      <trkpt lat="45.82523" lon="4.51255">
        <ele>747</ele>
        <time>2015-06-09T13:45:51Z</time>
      </trkpt>
      <trkpt lat="45.82533" lon="4.51257">
        <ele>747</ele>
        <time>2015-06-09T13:45:53Z</time>
      </trkpt>
      <trkpt lat="45.82542" lon="4.51257">
        <ele>746</ele>
        <time>2015-06-09T13:45:55Z</time>
      </trkpt>
      <trkpt lat="45.82547" lon="4.51258">
        <ele>745</ele>
        <time>2015-06-09T13:45:56Z</time>
      </trkpt>
      <trkpt lat="45.8255" lon="4.51261">
        <ele>745</ele>
        <time>2015-06-09T13:45:57Z</time>
      </trkpt>
      <trkpt lat="45.82556" lon="4.51265">
        <ele>745</ele>
        <time>2015-06-09T13:45:59Z</time>
      </trkpt>
      <trkpt lat="45.82562" lon="4.51268">
        <ele>745</ele>
        <time>2015-06-09T13:46:01Z</time>
      </trkpt>
      <trkpt lat="45.82569" lon="4.51273">
        <ele>744</ele>
        <time>2015-06-09T13:46:03Z</time>
      </trkpt>
      <trkpt lat="45.82574" lon="4.51277">
        <ele>744</ele>
        <time>2015-06-09T13:46:06Z</time>
      </trkpt>
      <trkpt lat="45.82579" lon="4.51281">
        <ele>744</ele>
        <time>2015-06-09T13:46:10Z</time>
      </trkpt>
      <trkpt lat="45.82583" lon="4.51285">
        <ele>744</ele>
        <time>2015-06-09T13:46:13Z</time>
      </trkpt>
      <trkpt lat="45.82586" lon="4.51289">
        <ele>744</ele>
        <time>2015-06-09T13:46:15Z</time>
      </trkpt>
      <trkpt lat="45.8259" lon="4.51295">
        <ele>744</ele>
        <time>2015-06-09T13:46:18Z</time>
      </trkpt>
      <trkpt lat="45.82593" lon="4.51301">
        <ele>744</ele>
        <time>2015-06-09T13:46:21Z</time>
      </trkpt>
      <trkpt lat="45.82597" lon="4.51308">
        <ele>744</ele>
        <time>2015-06-09T13:46:24Z</time>
      </trkpt>
      <trkpt lat="45.826" lon="4.51314">
        <ele>744</ele>
        <time>2015-06-09T13:46:26Z</time>
      </trkpt>
      <trkpt lat="45.82602" lon="4.51321">
        <ele>744</ele>
        <time>2015-06-09T13:46:29Z</time>
      </trkpt>
      <trkpt lat="45.82604" lon="4.51327">
        <ele>744</ele>
        <time>2015-06-09T13:46:32Z</time>
      </trkpt>
      <trkpt lat="45.82608" lon="4.51331">
        <ele>744</ele>
        <time>2015-06-09T13:46:35Z</time>
      </trkpt>
      <trkpt lat="45.8261" lon="4.51337">
        <ele>743</ele>
        <time>2015-06-09T13:46:38Z</time>
      </trkpt>
      <trkpt lat="45.82612" lon="4.51344">
        <ele>743</ele>
        <time>2015-06-09T13:46:41Z</time>
      </trkpt>
      <trkpt lat="45.82615" lon="4.5135">
        <ele>743</ele>
        <time>2015-06-09T13:46:44Z</time>
      </trkpt>
      <trkpt lat="45.82615" lon="4.51357">
        <ele>743</ele>
        <time>2015-06-09T13:46:47Z</time>
      </trkpt>
      <trkpt lat="45.82618" lon="4.51363">
        <ele>742</ele>
        <time>2015-06-09T13:46:51Z</time>
      </trkpt>
      <trkpt lat="45.82618" lon="4.51371">
        <ele>742</ele>
        <time>2015-06-09T13:46:58Z</time>
      </trkpt>
      <trkpt lat="45.82618" lon="4.51377">
        <ele>742</ele>
        <time>2015-06-09T13:47:02Z</time>
      </trkpt>
      <trkpt lat="45.82617" lon="4.51379">
        <ele>742</ele>
        <time>2015-06-09T13:47:19Z</time>
      </trkpt>
      <trkpt lat="45.82617" lon="4.51371">
        <ele>742</ele>
        <time>2015-06-09T13:47:29Z</time>
      </trkpt>
      <trkpt lat="45.82616" lon="4.51364">
        <ele>742</ele>
        <time>2015-06-09T13:47:34Z</time>
      </trkpt>
      <trkpt lat="45.82617" lon="4.51357">
        <ele>742</ele>
        <time>2015-06-09T13:47:38Z</time>
      </trkpt>
      <trkpt lat="45.82613" lon="4.51352">
        <ele>743</ele>
        <time>2015-06-09T13:47:42Z</time>
      </trkpt>
      <trkpt lat="45.82614" lon="4.51345">
        <ele>743</ele>
        <time>2015-06-09T13:47:46Z</time>
      </trkpt>
      <trkpt lat="45.82619" lon="4.5134">
        <ele>742</ele>
        <time>2015-06-09T13:48:06Z</time>
      </trkpt>
      <trkpt lat="45.82622" lon="4.51335">
        <ele>742</ele>
        <time>2015-06-09T13:48:13Z</time>
      </trkpt>
      <trkpt lat="45.82558" lon="4.51271">
        <ele>746</ele>
        <time>2015-06-09T13:50:26Z</time>
      </trkpt>
      <trkpt lat="45.82554" lon="4.51267">
        <ele>746</ele>
        <time>2015-06-09T13:50:29Z</time>
      </trkpt>
      <trkpt lat="45.82548" lon="4.51265">
        <ele>746</ele>
        <time>2015-06-09T13:50:32Z</time>
      </trkpt>
      <trkpt lat="45.82544" lon="4.51264">
        <ele>746</ele>
        <time>2015-06-09T13:50:35Z</time>
      </trkpt>
      <trkpt lat="45.82538" lon="4.51262">
        <ele>747</ele>
        <time>2015-06-09T13:50:37Z</time>
      </trkpt>
      <trkpt lat="45.82533" lon="4.51262">
        <ele>747</ele>
        <time>2015-06-09T13:50:39Z</time>
      </trkpt>
      <trkpt lat="45.82528" lon="4.51261">
        <ele>747</ele>
        <time>2015-06-09T13:50:41Z</time>
      </trkpt>
      <trkpt lat="45.82521" lon="4.51262">
        <ele>748</ele>
        <time>2015-06-09T13:50:43Z</time>
      </trkpt>
      <trkpt lat="45.82514" lon="4.51264">
        <ele>748</ele>
        <time>2015-06-09T13:50:45Z</time>
      </trkpt>
      <trkpt lat="45.82507" lon="4.51266">
        <ele>749</ele>
        <time>2015-06-09T13:50:47Z</time>
      </trkpt>
      <trkpt lat="45.82502" lon="4.51267">
        <ele>749</ele>
        <time>2015-06-09T13:50:49Z</time>
      </trkpt>
      <trkpt lat="45.82496" lon="4.51269">
        <ele>749</ele>
        <time>2015-06-09T13:50:51Z</time>
      </trkpt>
      <trkpt lat="45.82491" lon="4.5127">
        <ele>750</ele>
        <time>2015-06-09T13:50:53Z</time>
      </trkpt>
      <trkpt lat="45.82485" lon="4.51272">
        <ele>750</ele>
        <time>2015-06-09T13:50:56Z</time>
      </trkpt>
      <trkpt lat="45.82479" lon="4.51274">
        <ele>751</ele>
        <time>2015-06-09T13:50:58Z</time>
      </trkpt>
      <trkpt lat="45.82472" lon="4.51276">
        <ele>751</ele>
        <time>2015-06-09T13:51:00Z</time>
      </trkpt>
      <trkpt lat="45.82466" lon="4.51278">
        <ele>752</ele>
        <time>2015-06-09T13:51:02Z</time>
      </trkpt>
      <trkpt lat="45.82462" lon="4.5128">
        <ele>752</ele>
        <time>2015-06-09T13:51:05Z</time>
      </trkpt>
      <trkpt lat="45.82455" lon="4.51286">
        <ele>752</ele>
        <time>2015-06-09T13:51:08Z</time>
      </trkpt>
      <trkpt lat="45.8245" lon="4.51292">
        <ele>753</ele>
        <time>2015-06-09T13:51:10Z</time>
      </trkpt>
      <trkpt lat="45.82444" lon="4.51297">
        <ele>753</ele>
        <time>2015-06-09T13:51:12Z</time>
      </trkpt>
      <trkpt lat="45.82439" lon="4.51304">
        <ele>754</ele>
        <time>2015-06-09T13:51:14Z</time>
      </trkpt>
      <trkpt lat="45.82435" lon="4.51311">
        <ele>754</ele>
        <time>2015-06-09T13:51:16Z</time>
      </trkpt>
      <trkpt lat="45.82431" lon="4.51318">
        <ele>755</ele>
        <time>2015-06-09T13:51:18Z</time>
      </trkpt>
      <trkpt lat="45.82425" lon="4.51324">
        <ele>755</ele>
        <time>2015-06-09T13:51:20Z</time>
      </trkpt>
      <trkpt lat="45.82421" lon="4.51327">
        <ele>756</ele>
        <time>2015-06-09T13:51:22Z</time>
      </trkpt>
      <trkpt lat="45.82416" lon="4.51331">
        <ele>756</ele>
        <time>2015-06-09T13:51:25Z</time>
      </trkpt>
      <trkpt lat="45.82411" lon="4.51333">
        <ele>756</ele>
        <time>2015-06-09T13:51:27Z</time>
      </trkpt>
      <trkpt lat="45.82407" lon="4.51335">
        <ele>756</ele>
        <time>2015-06-09T13:51:29Z</time>
      </trkpt>
      <trkpt lat="45.82402" lon="4.51337">
        <ele>755</ele>
        <time>2015-06-09T13:51:31Z</time>
      </trkpt>
      <trkpt lat="45.82398" lon="4.51341">
        <ele>756</ele>
        <time>2015-06-09T13:51:33Z</time>
      </trkpt>
      <trkpt lat="45.82393" lon="4.51344">
        <ele>756</ele>
        <time>2015-06-09T13:51:35Z</time>
      </trkpt>
      <trkpt lat="45.82388" lon="4.51348">
        <ele>756</ele>
        <time>2015-06-09T13:51:37Z</time>
      </trkpt>
      <trkpt lat="45.82385" lon="4.51353">
        <ele>756</ele>
        <time>2015-06-09T13:51:39Z</time>
      </trkpt>
      <trkpt lat="45.82381" lon="4.51358">
        <ele>757</ele>
        <time>2015-06-09T13:51:41Z</time>
      </trkpt>
      <trkpt lat="45.82377" lon="4.51362">
        <ele>757</ele>
        <time>2015-06-09T13:51:45Z</time>
      </trkpt>
      <trkpt lat="45.82372" lon="4.51365">
        <ele>757</ele>
        <time>2015-06-09T13:51:56Z</time>
      </trkpt>
      <trkpt lat="45.82367" lon="4.51368">
        <ele>757</ele>
        <time>2015-06-09T13:52:07Z</time>
      </trkpt>
      <trkpt lat="45.82363" lon="4.5137">
        <ele>757</ele>
        <time>2015-06-09T13:52:22Z</time>
      </trkpt>
      <trkpt lat="45.82362" lon="4.5137">
        <ele>757</ele>
        <time>2015-06-09T13:52:41Z</time>
      </trkpt>
      <trkpt lat="45.82364" lon="4.51369">
        <ele>757</ele>
        <time>2015-06-09T13:52:57Z</time>
      </trkpt>
      <trkpt lat="45.82364" lon="4.51369">
        <ele>757</ele>
        <time>2015-06-09T13:53:12Z</time>
      </trkpt>
      <trkpt lat="45.82364" lon="4.51368">
        <ele>757</ele>
        <time>2015-06-09T13:53:27Z</time>
      </trkpt>
      <trkpt lat="45.82335" lon="4.51373">
        <ele>756</ele>
        <time>2015-06-09T14:05:37Z</time>
      </trkpt>
      <trkpt lat="45.82327" lon="4.51372">
        <ele>755</ele>
        <time>2015-06-09T14:05:39Z</time>
      </trkpt>
      <trkpt lat="45.82319" lon="4.51373">
        <ele>756</ele>
        <time>2015-06-09T14:05:41Z</time>
      </trkpt>
      <trkpt lat="45.82311" lon="4.51372">
        <ele>755</ele>
        <time>2015-06-09T14:05:43Z</time>
      </trkpt>
      <trkpt lat="45.82302" lon="4.51369">
        <ele>755</ele>
        <time>2015-06-09T14:05:45Z</time>
      </trkpt>
      <trkpt lat="45.82297" lon="4.51368">
        <ele>755</ele>
        <time>2015-06-09T14:05:46Z</time>
      </trkpt>
      <trkpt lat="45.82292" lon="4.51367">
        <ele>755</ele>
        <time>2015-06-09T14:05:47Z</time>
      </trkpt>
      <trkpt lat="45.82283" lon="4.51368">
        <ele>755</ele>
        <time>2015-06-09T14:05:49Z</time>
      </trkpt>
      <trkpt lat="45.82279" lon="4.51367">
        <ele>755</ele>
        <time>2015-06-09T14:05:50Z</time>
      </trkpt>
      <trkpt lat="45.82271" lon="4.51363">
        <ele>754</ele>
        <time>2015-06-09T14:05:52Z</time>
      </trkpt>
      <trkpt lat="45.82262" lon="4.51361">
        <ele>754</ele>
        <time>2015-06-09T14:05:54Z</time>
      </trkpt>
      <trkpt lat="45.82258" lon="4.5136">
        <ele>754</ele>
        <time>2015-06-09T14:05:55Z</time>
      </trkpt>
      <trkpt lat="45.8225" lon="4.51363">
        <ele>754</ele>
        <time>2015-06-09T14:05:57Z</time>
      </trkpt>
      <trkpt lat="45.82243" lon="4.51366">
        <ele>755</ele>
        <time>2015-06-09T14:05:59Z</time>
      </trkpt>
      <trkpt lat="45.82238" lon="4.51368">
        <ele>755</ele>
        <time>2015-06-09T14:06:01Z</time>
      </trkpt>
      <trkpt lat="45.82229" lon="4.5137">
        <ele>755</ele>
        <time>2015-06-09T14:06:03Z</time>
      </trkpt>
      <trkpt lat="45.82221" lon="4.51373">
        <ele>755</ele>
        <time>2015-06-09T14:06:05Z</time>
      </trkpt>
      <trkpt lat="45.82212" lon="4.51375">
        <ele>755</ele>
        <time>2015-06-09T14:06:07Z</time>
      </trkpt>
      <trkpt lat="45.82204" lon="4.51376">
        <ele>755</ele>
        <time>2015-06-09T14:06:09Z</time>
      </trkpt>
      <trkpt lat="45.82196" lon="4.51376">
        <ele>755</ele>
        <time>2015-06-09T14:06:11Z</time>
      </trkpt>
      <trkpt lat="45.82191" lon="4.51375">
        <ele>755</ele>
        <time>2015-06-09T14:06:12Z</time>
      </trkpt>
      <trkpt lat="45.82187" lon="4.51374">
        <ele>755</ele>
        <time>2015-06-09T14:06:13Z</time>
      </trkpt>
      <trkpt lat="45.82178" lon="4.51372">
        <ele>754</ele>
        <time>2015-06-09T14:06:15Z</time>
      </trkpt>
      <trkpt lat="45.82173" lon="4.51371">
        <ele>754</ele>
        <time>2015-06-09T14:06:16Z</time>
      </trkpt>
      <trkpt lat="45.82165" lon="4.51367">
        <ele>754</ele>
        <time>2015-06-09T14:06:18Z</time>
      </trkpt>
      <trkpt lat="45.82157" lon="4.51365">
        <ele>754</ele>
        <time>2015-06-09T14:06:20Z</time>
      </trkpt>
      <trkpt lat="45.82151" lon="4.51364">
        <ele>753</ele>
        <time>2015-06-09T14:06:22Z</time>
      </trkpt>
      <trkpt lat="45.82144" lon="4.51363">
        <ele>753</ele>
        <time>2015-06-09T14:06:24Z</time>
      </trkpt>
      <trkpt lat="45.82136" lon="4.51362">
        <ele>753</ele>
        <time>2015-06-09T14:06:26Z</time>
      </trkpt>
      <trkpt lat="45.82127" lon="4.51362">
        <ele>753</ele>
        <time>2015-06-09T14:06:28Z</time>
      </trkpt>
      <trkpt lat="45.82119" lon="4.51362">
        <ele>753</ele>
        <time>2015-06-09T14:06:30Z</time>
      </trkpt>
      <trkpt lat="45.8211" lon="4.51361">
        <ele>753</ele>
        <time>2015-06-09T14:06:32Z</time>
      </trkpt>
      <trkpt lat="45.82101" lon="4.51362">
        <ele>753</ele>
        <time>2015-06-09T14:06:34Z</time>
      </trkpt>
      <trkpt lat="45.82093" lon="4.51365">
        <ele>754</ele>
        <time>2015-06-09T14:06:36Z</time>
      </trkpt>
      <trkpt lat="45.82084" lon="4.51365">
        <ele>753</ele>
        <time>2015-06-09T14:06:38Z</time>
      </trkpt>
      <trkpt lat="45.8208" lon="4.51364">
        <ele>753</ele>
        <time>2015-06-09T14:06:39Z</time>
      </trkpt>
      <trkpt lat="45.82072" lon="4.51362">
        <ele>753</ele>
        <time>2015-06-09T14:06:41Z</time>
      </trkpt>
      <trkpt lat="45.82066" lon="4.51361">
        <ele>752</ele>
        <time>2015-06-09T14:06:44Z</time>
      </trkpt>
      <trkpt lat="45.82061" lon="4.51361">
        <ele>752</ele>
        <time>2015-06-09T14:06:46Z</time>
      </trkpt>
      <trkpt lat="45.82056" lon="4.5136">
        <ele>752</ele>
        <time>2015-06-09T14:06:48Z</time>
      </trkpt>
      <trkpt lat="45.82051" lon="4.5136">
        <ele>752</ele>
        <time>2015-06-09T14:06:50Z</time>
      </trkpt>
      <trkpt lat="45.82044" lon="4.51359">
        <ele>752</ele>
        <time>2015-06-09T14:06:52Z</time>
      </trkpt>
      <trkpt lat="45.82036" lon="4.51357">
        <ele>751</ele>
        <time>2015-06-09T14:06:54Z</time>
      </trkpt>
      <trkpt lat="45.82029" lon="4.51356">
        <ele>751</ele>
        <time>2015-06-09T14:06:56Z</time>
      </trkpt>
      <trkpt lat="45.82023" lon="4.51356">
        <ele>751</ele>
        <time>2015-06-09T14:06:58Z</time>
      </trkpt>
      <trkpt lat="45.82017" lon="4.51356">
        <ele>750</ele>
        <time>2015-06-09T14:07:00Z</time>
      </trkpt>
      <trkpt lat="45.82011" lon="4.51355">
        <ele>750</ele>
        <time>2015-06-09T14:07:02Z</time>
      </trkpt>
      <trkpt lat="45.82005" lon="4.51354">
        <ele>750</ele>
        <time>2015-06-09T14:07:04Z</time>
      </trkpt>
      <trkpt lat="45.81999" lon="4.51354">
        <ele>750</ele>
        <time>2015-06-09T14:07:06Z</time>
      </trkpt>
      <trkpt lat="45.81994" lon="4.51353">
        <ele>749</ele>
        <time>2015-06-09T14:07:08Z</time>
      </trkpt>
      <trkpt lat="45.81987" lon="4.51352">
        <ele>749</ele>
        <time>2015-06-09T14:07:10Z</time>
      </trkpt>
      <trkpt lat="45.81981" lon="4.5135">
        <ele>748</ele>
        <time>2015-06-09T14:07:12Z</time>
      </trkpt>
      <trkpt lat="45.81974" lon="4.51348">
        <ele>748</ele>
        <time>2015-06-09T14:07:14Z</time>
      </trkpt>
      <trkpt lat="45.81966" lon="4.51345">
        <ele>747</ele>
        <time>2015-06-09T14:07:16Z</time>
      </trkpt>
      <trkpt lat="45.81961" lon="4.51343">
        <ele>746</ele>
        <time>2015-06-09T14:07:17Z</time>
      </trkpt>
      <trkpt lat="45.81953" lon="4.51342">
        <ele>745</ele>
        <time>2015-06-09T14:07:19Z</time>
      </trkpt>
      <trkpt lat="45.81948" lon="4.51342">
        <ele>745</ele>
        <time>2015-06-09T14:07:20Z</time>
      </trkpt>
      <trkpt lat="45.81943" lon="4.51342">
        <ele>745</ele>
        <time>2015-06-09T14:07:21Z</time>
      </trkpt>
      <trkpt lat="45.81937" lon="4.5134">
        <ele>744</ele>
        <time>2015-06-09T14:07:22Z</time>
      </trkpt>
      <trkpt lat="45.81932" lon="4.51339">
        <ele>744</ele>
        <time>2015-06-09T14:07:23Z</time>
      </trkpt>
      <trkpt lat="45.81926" lon="4.51338">
        <ele>743</ele>
        <time>2015-06-09T14:07:24Z</time>
      </trkpt>
      <trkpt lat="45.81921" lon="4.51338">
        <ele>743</ele>
        <time>2015-06-09T14:07:25Z</time>
      </trkpt>
      <trkpt lat="45.81916" lon="4.51338">
        <ele>742</ele>
        <time>2015-06-09T14:07:26Z</time>
      </trkpt>
      <trkpt lat="45.81907" lon="4.51339">
        <ele>743</ele>
        <time>2015-06-09T14:07:28Z</time>
      </trkpt>
      <trkpt lat="45.81899" lon="4.51339">
        <ele>743</ele>
        <time>2015-06-09T14:07:30Z</time>
      </trkpt>
      <trkpt lat="45.81891" lon="4.51339">
        <ele>743</ele>
        <time>2015-06-09T14:07:32Z</time>
      </trkpt>
      <trkpt lat="45.81882" lon="4.51338">
        <ele>743</ele>
        <time>2015-06-09T14:07:34Z</time>
      </trkpt>
      <trkpt lat="45.81877" lon="4.51338">
        <ele>743</ele>
        <time>2015-06-09T14:07:35Z</time>
      </trkpt>
      <trkpt lat="45.81872" lon="4.51337">
        <ele>743</ele>
        <time>2015-06-09T14:07:36Z</time>
      </trkpt>
      <trkpt lat="45.81862" lon="4.51334">
        <ele>743</ele>
        <time>2015-06-09T14:07:37Z</time>
      </trkpt>
      <trkpt lat="45.81857" lon="4.51332">
        <ele>742</ele>
        <time>2015-06-09T14:07:38Z</time>
      </trkpt>
      <trkpt lat="45.81852" lon="4.5133">
        <ele>742</ele>
        <time>2015-06-09T14:07:39Z</time>
      </trkpt>
      <trkpt lat="45.81846" lon="4.51328">
        <ele>742</ele>
        <time>2015-06-09T14:07:40Z</time>
      </trkpt>
      <trkpt lat="45.81842" lon="4.51323">
        <ele>741</ele>
        <time>2015-06-09T14:07:41Z</time>
      </trkpt>
      <trkpt lat="45.81839" lon="4.51318">
        <ele>740</ele>
        <time>2015-06-09T14:07:42Z</time>
      </trkpt>
      <trkpt lat="45.81834" lon="4.51314">
        <ele>739</ele>
        <time>2015-06-09T14:07:43Z</time>
      </trkpt>
      <trkpt lat="45.81831" lon="4.51309">
        <ele>739</ele>
        <time>2015-06-09T14:07:44Z</time>
      </trkpt>
      <trkpt lat="45.81828" lon="4.51303">
        <ele>738</ele>
        <time>2015-06-09T14:07:45Z</time>
      </trkpt>
      <trkpt lat="45.81823" lon="4.51295">
        <ele>737</ele>
        <time>2015-06-09T14:07:46Z</time>
      </trkpt>
      <trkpt lat="45.81819" lon="4.51287">
        <ele>736</ele>
        <time>2015-06-09T14:07:47Z</time>
      </trkpt>
      <trkpt lat="45.81815" lon="4.5128">
        <ele>735</ele>
        <time>2015-06-09T14:07:48Z</time>
      </trkpt>
      <trkpt lat="45.8181" lon="4.51272">
        <ele>734</ele>
        <time>2015-06-09T14:07:49Z</time>
      </trkpt>
      <trkpt lat="45.81805" lon="4.51265">
        <ele>733</ele>
        <time>2015-06-09T14:07:50Z</time>
      </trkpt>
      <trkpt lat="45.81801" lon="4.51258">
        <ele>733</ele>
        <time>2015-06-09T14:07:51Z</time>
      </trkpt>
      <trkpt lat="45.81797" lon="4.51251">
        <ele>733</ele>
        <time>2015-06-09T14:07:52Z</time>
      </trkpt>
      <trkpt lat="45.81794" lon="4.51243">
        <ele>732</ele>
        <time>2015-06-09T14:07:53Z</time>
      </trkpt>
      <trkpt lat="45.81791" lon="4.51235">
        <ele>732</ele>
        <time>2015-06-09T14:07:54Z</time>
      </trkpt>
      <trkpt lat="45.81789" lon="4.51224">
        <ele>731</ele>
        <time>2015-06-09T14:07:55Z</time>
      </trkpt>
      <trkpt lat="45.81787" lon="4.51213">
        <ele>730</ele>
        <time>2015-06-09T14:07:56Z</time>
      </trkpt>
      <trkpt lat="45.81785" lon="4.51205">
        <ele>730</ele>
        <time>2015-06-09T14:07:57Z</time>
      </trkpt>
      <trkpt lat="45.81785" lon="4.51196">
        <ele>729</ele>
        <time>2015-06-09T14:07:58Z</time>
      </trkpt>
      <trkpt lat="45.81785" lon="4.51188">
        <ele>729</ele>
        <time>2015-06-09T14:07:59Z</time>
      </trkpt>
      <trkpt lat="45.81785" lon="4.51179">
        <ele>728</ele>
        <time>2015-06-09T14:08:00Z</time>
      </trkpt>
      <trkpt lat="45.81786" lon="4.5117">
        <ele>727</ele>
        <time>2015-06-09T14:08:01Z</time>
      </trkpt>
      <trkpt lat="45.81786" lon="4.51162">
        <ele>726</ele>
        <time>2015-06-09T14:08:02Z</time>
      </trkpt>
      <trkpt lat="45.81787" lon="4.51154">
        <ele>725</ele>
        <time>2015-06-09T14:08:03Z</time>
      </trkpt>
      <trkpt lat="45.81788" lon="4.51147">
        <ele>725</ele>
        <time>2015-06-09T14:08:04Z</time>
      </trkpt>
      <trkpt lat="45.8179" lon="4.51141">
        <ele>724</ele>
        <time>2015-06-09T14:08:05Z</time>
      </trkpt>
      <trkpt lat="45.81792" lon="4.51134">
        <ele>723</ele>
        <time>2015-06-09T14:08:06Z</time>
      </trkpt>
      <trkpt lat="45.81794" lon="4.51127">
        <ele>722</ele>
        <time>2015-06-09T14:08:07Z</time>
      </trkpt>
      <trkpt lat="45.81797" lon="4.51122">
        <ele>722</ele>
        <time>2015-06-09T14:08:08Z</time>
      </trkpt>
      <trkpt lat="45.81803" lon="4.51111">
        <ele>721</ele>
        <time>2015-06-09T14:08:10Z</time>
      </trkpt>
      <trkpt lat="45.81806" lon="4.51106">
        <ele>720</ele>
        <time>2015-06-09T14:08:11Z</time>
      </trkpt>
      <trkpt lat="45.81809" lon="4.511">
        <ele>719</ele>
        <time>2015-06-09T14:08:12Z</time>
      </trkpt>
      <trkpt lat="45.81812" lon="4.51093">
        <ele>718</ele>
        <time>2015-06-09T14:08:13Z</time>
      </trkpt>
      <trkpt lat="45.81814" lon="4.51086">
        <ele>718</ele>
        <time>2015-06-09T14:08:14Z</time>
      </trkpt>
      <trkpt lat="45.81816" lon="4.51078">
        <ele>717</ele>
        <time>2015-06-09T14:08:15Z</time>
      </trkpt>
      <trkpt lat="45.81817" lon="4.51069">
        <ele>716</ele>
        <time>2015-06-09T14:08:16Z</time>
      </trkpt>
      <trkpt lat="45.81816" lon="4.51061">
        <ele>715</ele>
        <time>2015-06-09T14:08:17Z</time>
      </trkpt>
      <trkpt lat="45.81815" lon="4.51053">
        <ele>714</ele>
        <time>2015-06-09T14:08:18Z</time>
      </trkpt>
      <trkpt lat="45.81813" lon="4.51044">
        <ele>713</ele>
        <time>2015-06-09T14:08:19Z</time>
      </trkpt>
      <trkpt lat="45.81812" lon="4.51037">
        <ele>713</ele>
        <time>2015-06-09T14:08:20Z</time>
      </trkpt>
      <trkpt lat="45.81809" lon="4.5103">
        <ele>712</ele>
        <time>2015-06-09T14:08:21Z</time>
      </trkpt>
      <trkpt lat="45.81806" lon="4.51024">
        <ele>712</ele>
        <time>2015-06-09T14:08:22Z</time>
      </trkpt>
      <trkpt lat="45.81802" lon="4.5102">
        <ele>712</ele>
        <time>2015-06-09T14:08:23Z</time>
      </trkpt>
      <trkpt lat="45.81798" lon="4.51015">
        <ele>711</ele>
        <time>2015-06-09T14:08:24Z</time>
      </trkpt>
      <trkpt lat="45.81793" lon="4.51011">
        <ele>711</ele>
        <time>2015-06-09T14:08:25Z</time>
      </trkpt>
      <trkpt lat="45.81787" lon="4.51007">
        <ele>711</ele>
        <time>2015-06-09T14:08:26Z</time>
      </trkpt>
      <trkpt lat="45.81781" lon="4.51003">
        <ele>711</ele>
        <time>2015-06-09T14:08:27Z</time>
      </trkpt>
      <trkpt lat="45.8177" lon="4.50995">
        <ele>711</ele>
        <time>2015-06-09T14:08:29Z</time>
      </trkpt>
      <trkpt lat="45.81765" lon="4.50991">
        <ele>710</ele>
        <time>2015-06-09T14:08:30Z</time>
      </trkpt>
      <trkpt lat="45.8176" lon="4.50987">
        <ele>710</ele>
        <time>2015-06-09T14:08:31Z</time>
      </trkpt>
      <trkpt lat="45.81755" lon="4.50984">
        <ele>710</ele>
        <time>2015-06-09T14:08:32Z</time>
      </trkpt>
      <trkpt lat="45.81751" lon="4.5098">
        <ele>709</ele>
        <time>2015-06-09T14:08:33Z</time>
      </trkpt>
      <trkpt lat="45.81746" lon="4.50974">
        <ele>709</ele>
        <time>2015-06-09T14:08:35Z</time>
      </trkpt>
      <trkpt lat="45.81747" lon="4.50981">
        <ele>709</ele>
        <time>2015-06-09T14:08:50Z</time>
      </trkpt>
      <trkpt lat="45.81749" lon="4.50983">
        <ele>709</ele>
        <time>2015-06-09T14:09:08Z</time>
      </trkpt>
      <trkpt lat="45.81749" lon="4.50983">
        <ele>709</ele>
        <time>2015-06-09T14:09:24Z</time>
      </trkpt>
      <trkpt lat="45.81749" lon="4.50982">
        <ele>709</ele>
        <time>2015-06-09T14:09:39Z</time>
      </trkpt>
      <trkpt lat="45.81749" lon="4.50982">
        <ele>709</ele>
        <time>2015-06-09T14:09:54Z</time>
      </trkpt>
      <trkpt lat="45.81749" lon="4.50982">
        <ele>709</ele>
        <time>2015-06-09T14:10:09Z</time>
      </trkpt>
      <trkpt lat="45.81749" lon="4.50982">
        <ele>709</ele>
        <time>2015-06-09T14:10:24Z</time>
      </trkpt>
      <trkpt lat="45.81725" lon="4.51036">
        <ele>711</ele>
        <time>2015-06-09T14:11:49Z</time>
      </trkpt>
      <trkpt lat="45.81726" lon="4.51044">
        <ele>712</ele>
        <time>2015-06-09T14:11:51Z</time>
      </trkpt>
      <trkpt lat="45.81726" lon="4.51053">
        <ele>712</ele>
        <time>2015-06-09T14:11:53Z</time>
      </trkpt>
      <trkpt lat="45.81726" lon="4.51063">
        <ele>713</ele>
        <time>2015-06-09T14:11:55Z</time>
      </trkpt>
      <trkpt lat="45.81727" lon="4.51072">
        <ele>714</ele>
        <time>2015-06-09T14:11:57Z</time>
      </trkpt>
      <trkpt lat="45.81726" lon="4.51084">
        <ele>714</ele>
        <time>2015-06-09T14:11:59Z</time>
      </trkpt>
      <trkpt lat="45.81725" lon="4.51095">
        <ele>715</ele>
        <time>2015-06-09T14:12:01Z</time>
      </trkpt>
      <trkpt lat="45.81724" lon="4.51103">
        <ele>716</ele>
        <time>2015-06-09T14:12:02Z</time>
      </trkpt>
      <trkpt lat="45.81721" lon="4.51115">
        <ele>717</ele>
        <time>2015-06-09T14:12:04Z</time>
      </trkpt>
      <trkpt lat="45.81718" lon="4.51125">
        <ele>717</ele>
        <time>2015-06-09T14:12:06Z</time>
      </trkpt>
      <trkpt lat="45.81714" lon="4.51135">
        <ele>717</ele>
        <time>2015-06-09T14:12:08Z</time>
      </trkpt>
      <trkpt lat="45.81708" lon="4.51145">
        <ele>717</ele>
        <time>2015-06-09T14:12:10Z</time>
      </trkpt>
      <trkpt lat="45.81703" lon="4.51154">
        <ele>717</ele>
        <time>2015-06-09T14:12:12Z</time>
      </trkpt>
      <trkpt lat="45.817" lon="4.51163">
        <ele>717</ele>
        <time>2015-06-09T14:12:13Z</time>
      </trkpt>
      <trkpt lat="45.81699" lon="4.5117">
        <ele>717</ele>
        <time>2015-06-09T14:12:14Z</time>
      </trkpt>
      <trkpt lat="45.81698" lon="4.5118">
        <ele>718</ele>
        <time>2015-06-09T14:12:16Z</time>
      </trkpt>
      <trkpt lat="45.81695" lon="4.51192">
        <ele>718</ele>
        <time>2015-06-09T14:12:18Z</time>
      </trkpt>
      <trkpt lat="45.81693" lon="4.51198">
        <ele>718</ele>
        <time>2015-06-09T14:12:19Z</time>
      </trkpt>
      <trkpt lat="45.81692" lon="4.51208">
        <ele>719</ele>
        <time>2015-06-09T14:12:21Z</time>
      </trkpt>
      <trkpt lat="45.81689" lon="4.51217">
        <ele>719</ele>
        <time>2015-06-09T14:12:23Z</time>
      </trkpt>
      <trkpt lat="45.81685" lon="4.51225">
        <ele>719</ele>
        <time>2015-06-09T14:12:25Z</time>
      </trkpt>
      <trkpt lat="45.81681" lon="4.51232">
        <ele>719</ele>
        <time>2015-06-09T14:12:27Z</time>
      </trkpt>
      <trkpt lat="45.81677" lon="4.51238">
        <ele>718</ele>
        <time>2015-06-09T14:12:29Z</time>
      </trkpt>
      <trkpt lat="45.81673" lon="4.51243">
        <ele>718</ele>
        <time>2015-06-09T14:12:31Z</time>
      </trkpt>
      <trkpt lat="45.81669" lon="4.51247">
        <ele>717</ele>
        <time>2015-06-09T14:12:32Z</time>
      </trkpt>
      <trkpt lat="45.81662" lon="4.51255">
        <ele>717</ele>
        <time>2015-06-09T14:12:34Z</time>
      </trkpt>
      <trkpt lat="45.81658" lon="4.5126">
        <ele>716</ele>
        <time>2015-06-09T14:12:35Z</time>
      </trkpt>
      <trkpt lat="45.81652" lon="4.5127">
        <ele>716</ele>
        <time>2015-06-09T14:12:37Z</time>
      </trkpt>
      <trkpt lat="45.81648" lon="4.51279">
        <ele>715</ele>
        <time>2015-06-09T14:12:39Z</time>
      </trkpt>
      <trkpt lat="45.81643" lon="4.51287">
        <ele>715</ele>
        <time>2015-06-09T14:12:41Z</time>
      </trkpt>
      <trkpt lat="45.81638" lon="4.51293">
        <ele>714</ele>
        <time>2015-06-09T14:12:43Z</time>
      </trkpt>
      <trkpt lat="45.81632" lon="4.513">
        <ele>713</ele>
        <time>2015-06-09T14:12:45Z</time>
      </trkpt>
      <trkpt lat="45.81626" lon="4.51306">
        <ele>712</ele>
        <time>2015-06-09T14:12:47Z</time>
      </trkpt>
      <trkpt lat="45.81621" lon="4.51312">
        <ele>711</ele>
        <time>2015-06-09T14:12:49Z</time>
      </trkpt>
      <trkpt lat="45.81617" lon="4.51322">
        <ele>711</ele>
        <time>2015-06-09T14:12:51Z</time>
      </trkpt>
      <trkpt lat="45.81615" lon="4.51328">
        <ele>711</ele>
        <time>2015-06-09T14:12:52Z</time>
      </trkpt>
      <trkpt lat="45.81609" lon="4.51342">
        <ele>710</ele>
        <time>2015-06-09T14:12:53Z</time>
      </trkpt>
      <trkpt lat="45.81607" lon="4.51349">
        <ele>709</ele>
        <time>2015-06-09T14:12:54Z</time>
      </trkpt>
      <trkpt lat="45.81605" lon="4.51356">
        <ele>709</ele>
        <time>2015-06-09T14:12:55Z</time>
      </trkpt>
      <trkpt lat="45.81604" lon="4.51363">
        <ele>708</ele>
        <time>2015-06-09T14:12:56Z</time>
      </trkpt>
      <trkpt lat="45.81602" lon="4.51369">
        <ele>708</ele>
        <time>2015-06-09T14:12:57Z</time>
      </trkpt>
      <trkpt lat="45.816" lon="4.51376">
        <ele>707</ele>
        <time>2015-06-09T14:12:58Z</time>
      </trkpt>
      <trkpt lat="45.81596" lon="4.51384">
        <ele>706</ele>
        <time>2015-06-09T14:12:59Z</time>
      </trkpt>
      <trkpt lat="45.81594" lon="4.51391">
        <ele>706</ele>
        <time>2015-06-09T14:13:00Z</time>
      </trkpt>
      <trkpt lat="45.81591" lon="4.51398">
        <ele>705</ele>
        <time>2015-06-09T14:13:01Z</time>
      </trkpt>
      <trkpt lat="45.8159" lon="4.51406">
        <ele>705</ele>
        <time>2015-06-09T14:13:02Z</time>
      </trkpt>
      <trkpt lat="45.81588" lon="4.51417">
        <ele>704</ele>
        <time>2015-06-09T14:13:04Z</time>
      </trkpt>
      <trkpt lat="45.81587" lon="4.51428">
        <ele>703</ele>
        <time>2015-06-09T14:13:06Z</time>
      </trkpt>
      <trkpt lat="45.81585" lon="4.51437">
        <ele>703</ele>
        <time>2015-06-09T14:13:08Z</time>
      </trkpt>
      <trkpt lat="45.81584" lon="4.51447">
        <ele>702</ele>
        <time>2015-06-09T14:13:10Z</time>
      </trkpt>
      <trkpt lat="45.81582" lon="4.51455">
        <ele>702</ele>
        <time>2015-06-09T14:13:12Z</time>
      </trkpt>
      <trkpt lat="45.81577" lon="4.51464">
        <ele>700</ele>
        <time>2015-06-09T14:13:14Z</time>
      </trkpt>
      <trkpt lat="45.81573" lon="4.51474">
        <ele>699</ele>
        <time>2015-06-09T14:13:16Z</time>
      </trkpt>
      <trkpt lat="45.81569" lon="4.51487">
        <ele>697</ele>
        <time>2015-06-09T14:13:18Z</time>
      </trkpt>
      <trkpt lat="45.81569" lon="4.51498">
        <ele>697</ele>
        <time>2015-06-09T14:13:20Z</time>
      </trkpt>
      <trkpt lat="45.81569" lon="4.51509">
        <ele>696</ele>
        <time>2015-06-09T14:13:22Z</time>
      </trkpt>
      <trkpt lat="45.81569" lon="4.5152">
        <ele>695</ele>
        <time>2015-06-09T14:13:24Z</time>
      </trkpt>
      <trkpt lat="45.81569" lon="4.5153">
        <ele>695</ele>
        <time>2015-06-09T14:13:26Z</time>
      </trkpt>
      <trkpt lat="45.81567" lon="4.51537">
        <ele>694</ele>
        <time>2015-06-09T14:13:27Z</time>
      </trkpt>
      <trkpt lat="45.81566" lon="4.51548">
        <ele>692</ele>
        <time>2015-06-09T14:13:29Z</time>
      </trkpt>
      <trkpt lat="45.81565" lon="4.51558">
        <ele>691</ele>
        <time>2015-06-09T14:13:31Z</time>
      </trkpt>
      <trkpt lat="45.81564" lon="4.51568">
        <ele>690</ele>
        <time>2015-06-09T14:13:33Z</time>
      </trkpt>
      <trkpt lat="45.81562" lon="4.5158">
        <ele>688</ele>
        <time>2015-06-09T14:13:35Z</time>
      </trkpt>
      <trkpt lat="45.81558" lon="4.5159">
        <ele>686</ele>
        <time>2015-06-09T14:13:37Z</time>
      </trkpt>
      <trkpt lat="45.81556" lon="4.51597">
        <ele>685</ele>
        <time>2015-06-09T14:13:38Z</time>
      </trkpt>
      <trkpt lat="45.81554" lon="4.51604">
        <ele>684</ele>
        <time>2015-06-09T14:13:39Z</time>
      </trkpt>
      <trkpt lat="45.81553" lon="4.51612">
        <ele>683</ele>
        <time>2015-06-09T14:13:40Z</time>
      </trkpt>
      <trkpt lat="45.81552" lon="4.5162">
        <ele>681</ele>
        <time>2015-06-09T14:13:41Z</time>
      </trkpt>
      <trkpt lat="45.81552" lon="4.51628">
        <ele>680</ele>
        <time>2015-06-09T14:13:42Z</time>
      </trkpt>
      <trkpt lat="45.81552" lon="4.51636">
        <ele>679</ele>
        <time>2015-06-09T14:13:43Z</time>
      </trkpt>
      <trkpt lat="45.81553" lon="4.51643">
        <ele>679</ele>
        <time>2015-06-09T14:13:44Z</time>
      </trkpt>
      <trkpt lat="45.81553" lon="4.5165">
        <ele>678</ele>
        <time>2015-06-09T14:13:45Z</time>
      </trkpt>
      <trkpt lat="45.81553" lon="4.51657">
        <ele>677</ele>
        <time>2015-06-09T14:13:46Z</time>
      </trkpt>
      <trkpt lat="45.81554" lon="4.51666">
        <ele>676</ele>
        <time>2015-06-09T14:13:47Z</time>
      </trkpt>
      <trkpt lat="45.81553" lon="4.51681">
        <ele>674</ele>
        <time>2015-06-09T14:13:48Z</time>
      </trkpt>
      <trkpt lat="45.81554" lon="4.51689">
        <ele>673</ele>
        <time>2015-06-09T14:13:49Z</time>
      </trkpt>
      <trkpt lat="45.81556" lon="4.51697">
        <ele>673</ele>
        <time>2015-06-09T14:13:50Z</time>
      </trkpt>
      <trkpt lat="45.81556" lon="4.51704">
        <ele>672</ele>
        <time>2015-06-09T14:13:51Z</time>
      </trkpt>
      <trkpt lat="45.81558" lon="4.51712">
        <ele>671</ele>
        <time>2015-06-09T14:13:52Z</time>
      </trkpt>
      <trkpt lat="45.81559" lon="4.5172">
        <ele>671</ele>
        <time>2015-06-09T14:13:53Z</time>
      </trkpt>
      <trkpt lat="45.81559" lon="4.51727">
        <ele>670</ele>
        <time>2015-06-09T14:13:54Z</time>
      </trkpt>
      <trkpt lat="45.81561" lon="4.51738">
        <ele>669</ele>
        <time>2015-06-09T14:13:56Z</time>
      </trkpt>
      <trkpt lat="45.81564" lon="4.51746">
        <ele>669</ele>
        <time>2015-06-09T14:13:57Z</time>
      </trkpt>
      <trkpt lat="45.81566" lon="4.51753">
        <ele>668</ele>
        <time>2015-06-09T14:13:58Z</time>
      </trkpt>
      <trkpt lat="45.81566" lon="4.51761">
        <ele>666</ele>
        <time>2015-06-09T14:14:00Z</time>
      </trkpt>
      <trkpt lat="45.81561" lon="4.51763">
        <ele>665</ele>
        <time>2015-06-09T14:14:02Z</time>
      </trkpt>
      <trkpt lat="45.81554" lon="4.51761">
        <ele>663</ele>
        <time>2015-06-09T14:14:04Z</time>
      </trkpt>
      <trkpt lat="45.81547" lon="4.51754">
        <ele>663</ele>
        <time>2015-06-09T14:14:06Z</time>
      </trkpt>
      <trkpt lat="45.81542" lon="4.51749">
        <ele>662</ele>
        <time>2015-06-09T14:14:08Z</time>
      </trkpt>
      <trkpt lat="45.81539" lon="4.51745">
        <ele>662</ele>
        <time>2015-06-09T14:14:31Z</time>
      </trkpt>
      <trkpt lat="45.81539" lon="4.51745">
        <ele>662</ele>
        <time>2015-06-09T14:14:46Z</time>
      </trkpt>
      <trkpt lat="45.81538" lon="4.51745">
        <ele>662</ele>
        <time>2015-06-09T14:14:49Z</time>
      </trkpt>
      <trkpt lat="45.81536" lon="4.51747">
        <ele>661</ele>
        <time>2015-06-09T14:15:17Z</time>
      </trkpt>
      <trkpt lat="45.81533" lon="4.51745">
        <ele>661</ele>
        <time>2015-06-09T14:15:25Z</time>
      </trkpt>
      <trkpt lat="45.81535" lon="4.51746">
        <ele>661</ele>
        <time>2015-06-09T14:15:48Z</time>
      </trkpt>
      <trkpt lat="45.8158" lon="4.51817">
        <ele>658</ele>
        <time>2015-06-09T14:16:31Z</time>
      </trkpt>
      <trkpt lat="45.81587" lon="4.51823">
        <ele>658</ele>
        <time>2015-06-09T14:16:33Z</time>
      </trkpt>
      <trkpt lat="45.8159" lon="4.5183">
        <ele>657</ele>
        <time>2015-06-09T14:16:35Z</time>
      </trkpt>
      <trkpt lat="45.81593" lon="4.51839">
        <ele>656</ele>
        <time>2015-06-09T14:16:37Z</time>
      </trkpt>
      <trkpt lat="45.81596" lon="4.51849">
        <ele>654</ele>
        <time>2015-06-09T14:16:39Z</time>
      </trkpt>
      <trkpt lat="45.81601" lon="4.51858">
        <ele>653</ele>
        <time>2015-06-09T14:16:41Z</time>
      </trkpt>
      <trkpt lat="45.81606" lon="4.51866">
        <ele>652</ele>
        <time>2015-06-09T14:16:43Z</time>
      </trkpt>
      <trkpt lat="45.8161" lon="4.51874">
        <ele>651</ele>
        <time>2015-06-09T14:16:45Z</time>
      </trkpt>
      <trkpt lat="45.81613" lon="4.51883">
        <ele>650</ele>
        <time>2015-06-09T14:16:47Z</time>
      </trkpt>
      <trkpt lat="45.81616" lon="4.51891">
        <ele>650</ele>
        <time>2015-06-09T14:16:49Z</time>
      </trkpt>
      <trkpt lat="45.8162" lon="4.519">
        <ele>649</ele>
        <time>2015-06-09T14:16:51Z</time>
      </trkpt>
      <trkpt lat="45.81624" lon="4.51908">
        <ele>649</ele>
        <time>2015-06-09T14:16:53Z</time>
      </trkpt>
      <trkpt lat="45.81626" lon="4.51915">
        <ele>648</ele>
        <time>2015-06-09T14:16:55Z</time>
      </trkpt>
      <trkpt lat="45.81628" lon="4.51924">
        <ele>647</ele>
        <time>2015-06-09T14:16:57Z</time>
      </trkpt>
      <trkpt lat="45.81631" lon="4.51933">
        <ele>646</ele>
        <time>2015-06-09T14:16:59Z</time>
      </trkpt>
      <trkpt lat="45.81633" lon="4.51941">
        <ele>646</ele>
        <time>2015-06-09T14:17:01Z</time>
      </trkpt>
      <trkpt lat="45.81639" lon="4.51946">
        <ele>646</ele>
        <time>2015-06-09T14:17:03Z</time>
      </trkpt>
      <trkpt lat="45.81643" lon="4.51951">
        <ele>647</ele>
        <time>2015-06-09T14:17:05Z</time>
      </trkpt>
      <trkpt lat="45.81646" lon="4.51956">
        <ele>647</ele>
        <time>2015-06-09T14:17:08Z</time>
      </trkpt>
      <trkpt lat="45.81649" lon="4.51963">
        <ele>647</ele>
        <time>2015-06-09T14:17:12Z</time>
      </trkpt>
      <trkpt lat="45.81652" lon="4.5197">
        <ele>647</ele>
        <time>2015-06-09T14:17:15Z</time>
      </trkpt>
      <trkpt lat="45.81655" lon="4.51979">
        <ele>647</ele>
        <time>2015-06-09T14:17:17Z</time>
      </trkpt>
      <trkpt lat="45.81659" lon="4.51989">
        <ele>648</ele>
        <time>2015-06-09T14:17:19Z</time>
      </trkpt>
      <trkpt lat="45.81664" lon="4.52001">
        <ele>648</ele>
        <time>2015-06-09T14:17:21Z</time>
      </trkpt>
      <trkpt lat="45.8167" lon="4.52019">
        <ele>648</ele>
        <time>2015-06-09T14:17:22Z</time>
      </trkpt>
      <trkpt lat="45.81673" lon="4.5203">
        <ele>648</ele>
        <time>2015-06-09T14:17:24Z</time>
      </trkpt>
      <trkpt lat="45.81677" lon="4.52038">
        <ele>648</ele>
        <time>2015-06-09T14:17:26Z</time>
      </trkpt>
      <trkpt lat="45.81681" lon="4.52047">
        <ele>648</ele>
        <time>2015-06-09T14:17:28Z</time>
      </trkpt>
      <trkpt lat="45.81684" lon="4.52054">
        <ele>648</ele>
        <time>2015-06-09T14:17:30Z</time>
      </trkpt>
      <trkpt lat="45.81686" lon="4.52061">
        <ele>648</ele>
        <time>2015-06-09T14:17:32Z</time>
      </trkpt>
      <trkpt lat="45.81688" lon="4.5207">
        <ele>647</ele>
        <time>2015-06-09T14:17:35Z</time>
      </trkpt>
      <trkpt lat="45.81688" lon="4.52079">
        <ele>646</ele>
        <time>2015-06-09T14:17:37Z</time>
      </trkpt>
      <trkpt lat="45.81688" lon="4.52089">
        <ele>645</ele>
        <time>2015-06-09T14:17:39Z</time>
      </trkpt>
      <trkpt lat="45.81688" lon="4.52097">
        <ele>644</ele>
        <time>2015-06-09T14:17:41Z</time>
      </trkpt>
      <trkpt lat="45.81689" lon="4.52107">
        <ele>643</ele>
        <time>2015-06-09T14:17:43Z</time>
      </trkpt>
      <trkpt lat="45.8169" lon="4.52116">
        <ele>642</ele>
        <time>2015-06-09T14:17:45Z</time>
      </trkpt>
      <trkpt lat="45.81693" lon="4.52123">
        <ele>642</ele>
        <time>2015-06-09T14:17:47Z</time>
      </trkpt>
      <trkpt lat="45.81698" lon="4.5213">
        <ele>642</ele>
        <time>2015-06-09T14:17:49Z</time>
      </trkpt>
      <trkpt lat="45.81699" lon="4.52136">
        <ele>641</ele>
        <time>2015-06-09T14:17:51Z</time>
      </trkpt>
      <trkpt lat="45.817" lon="4.52145">
        <ele>641</ele>
        <time>2015-06-09T14:17:53Z</time>
      </trkpt>
      <trkpt lat="45.81701" lon="4.52155">
        <ele>639</ele>
        <time>2015-06-09T14:17:55Z</time>
      </trkpt>
      <trkpt lat="45.81702" lon="4.52162">
        <ele>638</ele>
        <time>2015-06-09T14:17:56Z</time>
      </trkpt>
      <trkpt lat="45.81704" lon="4.52184">
        <ele>636</ele>
        <time>2015-06-09T14:17:57Z</time>
      </trkpt>
      <trkpt lat="45.81705" lon="4.52195">
        <ele>634</ele>
        <time>2015-06-09T14:17:58Z</time>
      </trkpt>
      <trkpt lat="45.81706" lon="4.52205">
        <ele>633</ele>
        <time>2015-06-09T14:17:59Z</time>
      </trkpt>
      <trkpt lat="45.81708" lon="4.52214">
        <ele>632</ele>
        <time>2015-06-09T14:18:00Z</time>
      </trkpt>
      <trkpt lat="45.81709" lon="4.52225">
        <ele>631</ele>
        <time>2015-06-09T14:18:01Z</time>
      </trkpt>
      <trkpt lat="45.81711" lon="4.52233">
        <ele>630</ele>
        <time>2015-06-09T14:18:02Z</time>
      </trkpt>
      <trkpt lat="45.81712" lon="4.52244">
        <ele>628</ele>
        <time>2015-06-09T14:18:04Z</time>
      </trkpt>
      <trkpt lat="45.81715" lon="4.52254">
        <ele>627</ele>
        <time>2015-06-09T14:18:06Z</time>
      </trkpt>
      <trkpt lat="45.81715" lon="4.52262">
        <ele>626</ele>
        <time>2015-06-09T14:18:07Z</time>
      </trkpt>
      <trkpt lat="45.81715" lon="4.52269">
        <ele>625</ele>
        <time>2015-06-09T14:18:08Z</time>
      </trkpt>
      <trkpt lat="45.81716" lon="4.52275">
        <ele>624</ele>
        <time>2015-06-09T14:18:09Z</time>
      </trkpt>
      <trkpt lat="45.81716" lon="4.52282">
        <ele>623</ele>
        <time>2015-06-09T14:18:10Z</time>
      </trkpt>
      <trkpt lat="45.81718" lon="4.5229">
        <ele>622</ele>
        <time>2015-06-09T14:18:11Z</time>
      </trkpt>
      <trkpt lat="45.8172" lon="4.52303">
        <ele>620</ele>
        <time>2015-06-09T14:18:13Z</time>
      </trkpt>
      <trkpt lat="45.81722" lon="4.52313">
        <ele>619</ele>
        <time>2015-06-09T14:18:15Z</time>
      </trkpt>
      <trkpt lat="45.81725" lon="4.52318">
        <ele>619</ele>
        <time>2015-06-09T14:18:16Z</time>
      </trkpt>
      <trkpt lat="45.81727" lon="4.52323">
        <ele>618</ele>
        <time>2015-06-09T14:18:17Z</time>
      </trkpt>
      <trkpt lat="45.81726" lon="4.52331">
        <ele>617</ele>
        <time>2015-06-09T14:18:18Z</time>
      </trkpt>
      <trkpt lat="45.81728" lon="4.52337">
        <ele>616</ele>
        <time>2015-06-09T14:18:19Z</time>
      </trkpt>
      <trkpt lat="45.8173" lon="4.52343">
        <ele>616</ele>
        <time>2015-06-09T14:18:20Z</time>
      </trkpt>
      <trkpt lat="45.81731" lon="4.5235">
        <ele>615</ele>
        <time>2015-06-09T14:18:21Z</time>
      </trkpt>
      <trkpt lat="45.8173" lon="4.52356">
        <ele>613</ele>
        <time>2015-06-09T14:18:22Z</time>
      </trkpt>
      <trkpt lat="45.8173" lon="4.5237">
        <ele>611</ele>
        <time>2015-06-09T14:18:24Z</time>
      </trkpt>
      <trkpt lat="45.81732" lon="4.52382">
        <ele>610</ele>
        <time>2015-06-09T14:18:26Z</time>
      </trkpt>
      <trkpt lat="45.81731" lon="4.52393">
        <ele>609</ele>
        <time>2015-06-09T14:18:28Z</time>
      </trkpt>
      <trkpt lat="45.81731" lon="4.52404">
        <ele>608</ele>
        <time>2015-06-09T14:18:30Z</time>
      </trkpt>
      <trkpt lat="45.81732" lon="4.5241">
        <ele>607</ele>
        <time>2015-06-09T14:18:31Z</time>
      </trkpt>
      <trkpt lat="45.81733" lon="4.52423">
        <ele>606</ele>
        <time>2015-06-09T14:18:33Z</time>
      </trkpt>
      <trkpt lat="45.81733" lon="4.5243">
        <ele>605</ele>
        <time>2015-06-09T14:18:34Z</time>
      </trkpt>
      <trkpt lat="45.81733" lon="4.52442">
        <ele>603</ele>
        <time>2015-06-09T14:18:36Z</time>
      </trkpt>
      <trkpt lat="45.81734" lon="4.52453">
        <ele>602</ele>
        <time>2015-06-09T14:18:38Z</time>
      </trkpt>
      <trkpt lat="45.81733" lon="4.52465">
        <ele>600</ele>
        <time>2015-06-09T14:18:40Z</time>
      </trkpt>
      <trkpt lat="45.81729" lon="4.52476">
        <ele>598</ele>
        <time>2015-06-09T14:18:42Z</time>
      </trkpt>
      <trkpt lat="45.81725" lon="4.52484">
        <ele>597</ele>
        <time>2015-06-09T14:18:44Z</time>
      </trkpt>
      <trkpt lat="45.81721" lon="4.52491">
        <ele>596</ele>
        <time>2015-06-09T14:18:46Z</time>
      </trkpt>
      <trkpt lat="45.81717" lon="4.52496">
        <ele>595</ele>
        <time>2015-06-09T14:18:48Z</time>
      </trkpt>
      <trkpt lat="45.81713" lon="4.52502">
        <ele>593</ele>
        <time>2015-06-09T14:18:51Z</time>
      </trkpt>
      <trkpt lat="45.8171" lon="4.52508">
        <ele>593</ele>
        <time>2015-06-09T14:18:53Z</time>
      </trkpt>
      <trkpt lat="45.81708" lon="4.52518">
        <ele>591</ele>
        <time>2015-06-09T14:18:55Z</time>
      </trkpt>
      <trkpt lat="45.81707" lon="4.52528">
        <ele>591</ele>
        <time>2015-06-09T14:18:57Z</time>
      </trkpt>
      <trkpt lat="45.81705" lon="4.52539">
        <ele>589</ele>
        <time>2015-06-09T14:18:59Z</time>
      </trkpt>
      <trkpt lat="45.81703" lon="4.52551">
        <ele>588</ele>
        <time>2015-06-09T14:19:01Z</time>
      </trkpt>
      <trkpt lat="45.81702" lon="4.52561">
        <ele>587</ele>
        <time>2015-06-09T14:19:02Z</time>
      </trkpt>
      <trkpt lat="45.81701" lon="4.52569">
        <ele>587</ele>
        <time>2015-06-09T14:19:03Z</time>
      </trkpt>
      <trkpt lat="45.81699" lon="4.52578">
        <ele>586</ele>
        <time>2015-06-09T14:19:04Z</time>
      </trkpt>
      <trkpt lat="45.81698" lon="4.52587">
        <ele>585</ele>
        <time>2015-06-09T14:19:05Z</time>
      </trkpt>
      <trkpt lat="45.81696" lon="4.52597">
        <ele>584</ele>
        <time>2015-06-09T14:19:06Z</time>
      </trkpt>
      <trkpt lat="45.81694" lon="4.52606">
        <ele>583</ele>
        <time>2015-06-09T14:19:07Z</time>
      </trkpt>
      <trkpt lat="45.81693" lon="4.52612">
        <ele>583</ele>
        <time>2015-06-09T14:19:08Z</time>
      </trkpt>
      <trkpt lat="45.81691" lon="4.52619">
        <ele>582</ele>
        <time>2015-06-09T14:19:10Z</time>
      </trkpt>
      <trkpt lat="45.81689" lon="4.52626">
        <ele>582</ele>
        <time>2015-06-09T14:19:13Z</time>
      </trkpt>
      <trkpt lat="45.81686" lon="4.52632">
        <ele>581</ele>
        <time>2015-06-09T14:19:16Z</time>
      </trkpt>
      <trkpt lat="45.81686" lon="4.52632">
        <ele>581</ele>
        <time>2015-06-09T14:19:41Z</time>
      </trkpt>
      <trkpt lat="45.81687" lon="4.52631">
        <ele>581</ele>
        <time>2015-06-09T14:19:56Z</time>
      </trkpt>
      <trkpt lat="45.81686" lon="4.52641">
        <ele>580</ele>
        <time>2015-06-09T14:20:10Z</time>
      </trkpt>
      <trkpt lat="45.81685" lon="4.5265">
        <ele>580</ele>
        <time>2015-06-09T14:20:12Z</time>
      </trkpt>
      <trkpt lat="45.81683" lon="4.52661">
        <ele>579</ele>
        <time>2015-06-09T14:20:14Z</time>
      </trkpt>
      <trkpt lat="45.81682" lon="4.52667">
        <ele>578</ele>
        <time>2015-06-09T14:20:15Z</time>
      </trkpt>
      <trkpt lat="45.81681" lon="4.52674">
        <ele>578</ele>
        <time>2015-06-09T14:20:16Z</time>
      </trkpt>
      <trkpt lat="45.8168" lon="4.52686">
        <ele>577</ele>
        <time>2015-06-09T14:20:18Z</time>
      </trkpt>
      <trkpt lat="45.81678" lon="4.52695">
        <ele>577</ele>
        <time>2015-06-09T14:20:19Z</time>
      </trkpt>
      <trkpt lat="45.81677" lon="4.52702">
        <ele>576</ele>
        <time>2015-06-09T14:20:20Z</time>
      </trkpt>
      <trkpt lat="45.81677" lon="4.52709">
        <ele>576</ele>
        <time>2015-06-09T14:20:21Z</time>
      </trkpt>
      <trkpt lat="45.81675" lon="4.52716">
        <ele>575</ele>
        <time>2015-06-09T14:20:22Z</time>
      </trkpt>
      <trkpt lat="45.81673" lon="4.5273">
        <ele>575</ele>
        <time>2015-06-09T14:20:24Z</time>
      </trkpt>
      <trkpt lat="45.81672" lon="4.52738">
        <ele>574</ele>
        <time>2015-06-09T14:20:25Z</time>
      </trkpt>
      <trkpt lat="45.81672" lon="4.52745">
        <ele>574</ele>
        <time>2015-06-09T14:20:26Z</time>
      </trkpt>
      <trkpt lat="45.8167" lon="4.52752">
        <ele>574</ele>
        <time>2015-06-09T14:20:27Z</time>
      </trkpt>
      <trkpt lat="45.81669" lon="4.5276">
        <ele>573</ele>
        <time>2015-06-09T14:20:28Z</time>
      </trkpt>
      <trkpt lat="45.81667" lon="4.52767">
        <ele>573</ele>
        <time>2015-06-09T14:20:29Z</time>
      </trkpt>
      <trkpt lat="45.81666" lon="4.52775">
        <ele>573</ele>
        <time>2015-06-09T14:20:30Z</time>
      </trkpt>
      <trkpt lat="45.81664" lon="4.52782">
        <ele>573</ele>
        <time>2015-06-09T14:20:31Z</time>
      </trkpt>
      <trkpt lat="45.81662" lon="4.5279">
        <ele>573</ele>
        <time>2015-06-09T14:20:32Z</time>
      </trkpt>
      <trkpt lat="45.81661" lon="4.52798">
        <ele>573</ele>
        <time>2015-06-09T14:20:33Z</time>
      </trkpt>
      <trkpt lat="45.81659" lon="4.52805">
        <ele>573</ele>
        <time>2015-06-09T14:20:34Z</time>
      </trkpt>
      <trkpt lat="45.81658" lon="4.52814">
        <ele>573</ele>
        <time>2015-06-09T14:20:35Z</time>
      </trkpt>
      <trkpt lat="45.81657" lon="4.52823">
        <ele>573</ele>
        <time>2015-06-09T14:20:36Z</time>
      </trkpt>
      <trkpt lat="45.81656" lon="4.52832">
        <ele>573</ele>
        <time>2015-06-09T14:20:37Z</time>
      </trkpt>
      <trkpt lat="45.81655" lon="4.52841">
        <ele>572</ele>
        <time>2015-06-09T14:20:38Z</time>
      </trkpt>
      <trkpt lat="45.81655" lon="4.52849">
        <ele>572</ele>
        <time>2015-06-09T14:20:39Z</time>
      </trkpt>
      <trkpt lat="45.81655" lon="4.52858">
        <ele>572</ele>
        <time>2015-06-09T14:20:40Z</time>
      </trkpt>
      <trkpt lat="45.81656" lon="4.52866">
        <ele>572</ele>
        <time>2015-06-09T14:20:41Z</time>
      </trkpt>
      <trkpt lat="45.81656" lon="4.52874">
        <ele>572</ele>
        <time>2015-06-09T14:20:42Z</time>
      </trkpt>
      <trkpt lat="45.81656" lon="4.52883">
        <ele>572</ele>
        <time>2015-06-09T14:20:43Z</time>
      </trkpt>
      <trkpt lat="45.81655" lon="4.52891">
        <ele>572</ele>
        <time>2015-06-09T14:20:44Z</time>
      </trkpt>
      <trkpt lat="45.81654" lon="4.52899">
        <ele>572</ele>
        <time>2015-06-09T14:20:45Z</time>
      </trkpt>
      <trkpt lat="45.81652" lon="4.52907">
        <ele>572</ele>
        <time>2015-06-09T14:20:46Z</time>
      </trkpt>
      <trkpt lat="45.8165" lon="4.52915">
        <ele>572</ele>
        <time>2015-06-09T14:20:47Z</time>
      </trkpt>
      <trkpt lat="45.81648" lon="4.52922">
        <ele>572</ele>
        <time>2015-06-09T14:20:48Z</time>
      </trkpt>
      <trkpt lat="45.81646" lon="4.52928">
        <ele>573</ele>
        <time>2015-06-09T14:20:49Z</time>
      </trkpt>
      <trkpt lat="45.81644" lon="4.52935">
        <ele>573</ele>
        <time>2015-06-09T14:20:50Z</time>
      </trkpt>
      <trkpt lat="45.81643" lon="4.52941">
        <ele>573</ele>
        <time>2015-06-09T14:20:51Z</time>
      </trkpt>
      <trkpt lat="45.81639" lon="4.52954">
        <ele>573</ele>
        <time>2015-06-09T14:20:53Z</time>
      </trkpt>
      <trkpt lat="45.81637" lon="4.52966">
        <ele>572</ele>
        <time>2015-06-09T14:20:55Z</time>
      </trkpt>
      <trkpt lat="45.81635" lon="4.52979">
        <ele>572</ele>
        <time>2015-06-09T14:20:57Z</time>
      </trkpt>
      <trkpt lat="45.81634" lon="4.52985">
        <ele>571</ele>
        <time>2015-06-09T14:20:58Z</time>
      </trkpt>
      <trkpt lat="45.8163" lon="4.52995">
        <ele>570</ele>
        <time>2015-06-09T14:21:00Z</time>
      </trkpt>
      <trkpt lat="45.81622" lon="4.52998">
        <ele>570</ele>
        <time>2015-06-09T14:21:02Z</time>
      </trkpt>
      <trkpt lat="45.81615" lon="4.52994">
        <ele>569</ele>
        <time>2015-06-09T14:21:04Z</time>
      </trkpt>
      <trkpt lat="45.81611" lon="4.5299">
        <ele>569</ele>
        <time>2015-06-09T14:21:05Z</time>
      </trkpt>
      <trkpt lat="45.81607" lon="4.52985">
        <ele>570</ele>
        <time>2015-06-09T14:21:06Z</time>
      </trkpt>
      <trkpt lat="45.81603" lon="4.52982">
        <ele>570</ele>
        <time>2015-06-09T14:21:07Z</time>
      </trkpt>
      <trkpt lat="45.81596" lon="4.52981">
        <ele>569</ele>
        <time>2015-06-09T14:21:09Z</time>
      </trkpt>
      <trkpt lat="45.81592" lon="4.52985">
        <ele>569</ele>
        <time>2015-06-09T14:21:10Z</time>
      </trkpt>
      <trkpt lat="45.8159" lon="4.52993">
        <ele>568</ele>
        <time>2015-06-09T14:21:11Z</time>
      </trkpt>
      <trkpt lat="45.81588" lon="4.53">
        <ele>567</ele>
        <time>2015-06-09T14:21:12Z</time>
      </trkpt>
      <trkpt lat="45.81587" lon="4.53009">
        <ele>567</ele>
        <time>2015-06-09T14:21:13Z</time>
      </trkpt>
      <trkpt lat="45.81585" lon="4.53018">
        <ele>566</ele>
        <time>2015-06-09T14:21:14Z</time>
      </trkpt>
      <trkpt lat="45.81583" lon="4.53027">
        <ele>565</ele>
        <time>2015-06-09T14:21:15Z</time>
      </trkpt>
      <trkpt lat="45.81582" lon="4.53036">
        <ele>565</ele>
        <time>2015-06-09T14:21:16Z</time>
      </trkpt>
      <trkpt lat="45.8158" lon="4.53045">
        <ele>564</ele>
        <time>2015-06-09T14:21:17Z</time>
      </trkpt>
      <trkpt lat="45.81579" lon="4.53054">
        <ele>563</ele>
        <time>2015-06-09T14:21:18Z</time>
      </trkpt>
      <trkpt lat="45.81578" lon="4.53063">
        <ele>562</ele>
        <time>2015-06-09T14:21:19Z</time>
      </trkpt>
      <trkpt lat="45.81577" lon="4.53072">
        <ele>561</ele>
        <time>2015-06-09T14:21:20Z</time>
      </trkpt>
      <trkpt lat="45.81576" lon="4.53082">
        <ele>560</ele>
        <time>2015-06-09T14:21:21Z</time>
      </trkpt>
      <trkpt lat="45.81576" lon="4.53091">
        <ele>559</ele>
        <time>2015-06-09T14:21:22Z</time>
      </trkpt>
      <trkpt lat="45.81577" lon="4.53101">
        <ele>558</ele>
        <time>2015-06-09T14:21:23Z</time>
      </trkpt>
      <trkpt lat="45.81578" lon="4.53109">
        <ele>557</ele>
        <time>2015-06-09T14:21:24Z</time>
      </trkpt>
      <trkpt lat="45.8158" lon="4.53118">
        <ele>557</ele>
        <time>2015-06-09T14:21:25Z</time>
      </trkpt>
      <trkpt lat="45.81582" lon="4.53125">
        <ele>556</ele>
        <time>2015-06-09T14:21:26Z</time>
      </trkpt>
      <trkpt lat="45.81585" lon="4.53132">
        <ele>555</ele>
        <time>2015-06-09T14:21:27Z</time>
      </trkpt>
      <trkpt lat="45.81588" lon="4.53137">
        <ele>555</ele>
        <time>2015-06-09T14:21:28Z</time>
      </trkpt>
      <trkpt lat="45.81592" lon="4.53145">
        <ele>554</ele>
        <time>2015-06-09T14:21:30Z</time>
      </trkpt>
      <trkpt lat="45.81593" lon="4.53152">
        <ele>553</ele>
        <time>2015-06-09T14:21:33Z</time>
      </trkpt>
      <trkpt lat="45.81596" lon="4.53157">
        <ele>552</ele>
        <time>2015-06-09T14:21:35Z</time>
      </trkpt>
      <trkpt lat="45.816" lon="4.53163">
        <ele>552</ele>
        <time>2015-06-09T14:21:37Z</time>
      </trkpt>
      <trkpt lat="45.81608" lon="4.53166">
        <ele>551</ele>
        <time>2015-06-09T14:21:39Z</time>
      </trkpt>
      <trkpt lat="45.81613" lon="4.53167">
        <ele>551</ele>
        <time>2015-06-09T14:21:40Z</time>
      </trkpt>
      <trkpt lat="45.81619" lon="4.53167">
        <ele>551</ele>
        <time>2015-06-09T14:21:41Z</time>
      </trkpt>
      <trkpt lat="45.81629" lon="4.53164">
        <ele>551</ele>
        <time>2015-06-09T14:21:43Z</time>
      </trkpt>
      <trkpt lat="45.81635" lon="4.5316">
        <ele>552</ele>
        <time>2015-06-09T14:21:44Z</time>
      </trkpt>
      <trkpt lat="45.81641" lon="4.53155">
        <ele>552</ele>
        <time>2015-06-09T14:21:45Z</time>
      </trkpt>
      <trkpt lat="45.81648" lon="4.53149">
        <ele>553</ele>
        <time>2015-06-09T14:21:46Z</time>
      </trkpt>
      <trkpt lat="45.81653" lon="4.53143">
        <ele>553</ele>
        <time>2015-06-09T14:21:47Z</time>
      </trkpt>
      <trkpt lat="45.81659" lon="4.53135">
        <ele>552</ele>
        <time>2015-06-09T14:21:48Z</time>
      </trkpt>
      <trkpt lat="45.81663" lon="4.53127">
        <ele>553</ele>
        <time>2015-06-09T14:21:49Z</time>
      </trkpt>
      <trkpt lat="45.8167" lon="4.53118">
        <ele>553</ele>
        <time>2015-06-09T14:21:50Z</time>
      </trkpt>
      <trkpt lat="45.81677" lon="4.5311">
        <ele>553</ele>
        <time>2015-06-09T14:21:51Z</time>
      </trkpt>
      <trkpt lat="45.81681" lon="4.53101">
        <ele>553</ele>
        <time>2015-06-09T14:21:52Z</time>
      </trkpt>
      <trkpt lat="45.81687" lon="4.53093">
        <ele>553</ele>
        <time>2015-06-09T14:21:53Z</time>
      </trkpt>
      <trkpt lat="45.81694" lon="4.53084">
        <ele>553</ele>
        <time>2015-06-09T14:21:54Z</time>
      </trkpt>
      <trkpt lat="45.81699" lon="4.53073">
        <ele>553</ele>
        <time>2015-06-09T14:21:55Z</time>
      </trkpt>
      <trkpt lat="45.8171" lon="4.53051">
        <ele>553</ele>
        <time>2015-06-09T14:21:57Z</time>
      </trkpt>
      <trkpt lat="45.81715" lon="4.53039">
        <ele>553</ele>
        <time>2015-06-09T14:21:58Z</time>
      </trkpt>
      <trkpt lat="45.8172" lon="4.53028">
        <ele>552</ele>
        <time>2015-06-09T14:21:59Z</time>
      </trkpt>
      <trkpt lat="45.81725" lon="4.53017">
        <ele>551</ele>
        <time>2015-06-09T14:22:00Z</time>
      </trkpt>
      <trkpt lat="45.81728" lon="4.53004">
        <ele>551</ele>
        <time>2015-06-09T14:22:01Z</time>
      </trkpt>
      <trkpt lat="45.81734" lon="4.52992">
        <ele>550</ele>
        <time>2015-06-09T14:22:02Z</time>
      </trkpt>
      <trkpt lat="45.8174" lon="4.52978">
        <ele>549</ele>
        <time>2015-06-09T14:22:03Z</time>
      </trkpt>
      <trkpt lat="45.81745" lon="4.52966">
        <ele>548</ele>
        <time>2015-06-09T14:22:04Z</time>
      </trkpt>
      <trkpt lat="45.8175" lon="4.52953">
        <ele>547</ele>
        <time>2015-06-09T14:22:05Z</time>
      </trkpt>
      <trkpt lat="45.81755" lon="4.5294">
        <ele>546</ele>
        <time>2015-06-09T14:22:06Z</time>
      </trkpt>
      <trkpt lat="45.81759" lon="4.52928">
        <ele>546</ele>
        <time>2015-06-09T14:22:07Z</time>
      </trkpt>
      <trkpt lat="45.81763" lon="4.52915">
        <ele>545</ele>
        <time>2015-06-09T14:22:08Z</time>
      </trkpt>
      <trkpt lat="45.81767" lon="4.52902">
        <ele>545</ele>
        <time>2015-06-09T14:22:09Z</time>
      </trkpt>
      <trkpt lat="45.81773" lon="4.52889">
        <ele>544</ele>
        <time>2015-06-09T14:22:10Z</time>
      </trkpt>
      <trkpt lat="45.81776" lon="4.52874">
        <ele>544</ele>
        <time>2015-06-09T14:22:11Z</time>
      </trkpt>
      <trkpt lat="45.8178" lon="4.52863">
        <ele>543</ele>
        <time>2015-06-09T14:22:12Z</time>
      </trkpt>
      <trkpt lat="45.81786" lon="4.52851">
        <ele>543</ele>
        <time>2015-06-09T14:22:13Z</time>
      </trkpt>
      <trkpt lat="45.81789" lon="4.52838">
        <ele>543</ele>
        <time>2015-06-09T14:22:14Z</time>
      </trkpt>
      <trkpt lat="45.81795" lon="4.52825">
        <ele>544</ele>
        <time>2015-06-09T14:22:15Z</time>
      </trkpt>
      <trkpt lat="45.81799" lon="4.52813">
        <ele>545</ele>
        <time>2015-06-09T14:22:16Z</time>
      </trkpt>
      <trkpt lat="45.81804" lon="4.52801">
        <ele>545</ele>
        <time>2015-06-09T14:22:17Z</time>
      </trkpt>
      <trkpt lat="45.81808" lon="4.52788">
        <ele>546</ele>
        <time>2015-06-09T14:22:18Z</time>
      </trkpt>
      <trkpt lat="45.81812" lon="4.52776">
        <ele>547</ele>
        <time>2015-06-09T14:22:19Z</time>
      </trkpt>
      <trkpt lat="45.81815" lon="4.52765">
        <ele>548</ele>
        <time>2015-06-09T14:22:20Z</time>
      </trkpt>
      <trkpt lat="45.81822" lon="4.52756">
        <ele>549</ele>
        <time>2015-06-09T14:22:21Z</time>
      </trkpt>
      <trkpt lat="45.81828" lon="4.52749">
        <ele>549</ele>
        <time>2015-06-09T14:22:22Z</time>
      </trkpt>
      <trkpt lat="45.81834" lon="4.52743">
        <ele>549</ele>
        <time>2015-06-09T14:22:23Z</time>
      </trkpt>
      <trkpt lat="45.81843" lon="4.52739">
        <ele>548</ele>
        <time>2015-06-09T14:22:24Z</time>
      </trkpt>
      <trkpt lat="45.81852" lon="4.52737">
        <ele>548</ele>
        <time>2015-06-09T14:22:25Z</time>
      </trkpt>
      <trkpt lat="45.81862" lon="4.52739">
        <ele>548</ele>
        <time>2015-06-09T14:22:26Z</time>
      </trkpt>
      <trkpt lat="45.8187" lon="4.52744">
        <ele>547</ele>
        <time>2015-06-09T14:22:27Z</time>
      </trkpt>
      <trkpt lat="45.81878" lon="4.52751">
        <ele>546</ele>
        <time>2015-06-09T14:22:28Z</time>
      </trkpt>
      <trkpt lat="45.81885" lon="4.5276">
        <ele>545</ele>
        <time>2015-06-09T14:22:29Z</time>
      </trkpt>
      <trkpt lat="45.81892" lon="4.52771">
        <ele>543</ele>
        <time>2015-06-09T14:22:30Z</time>
      </trkpt>
      <trkpt lat="45.81896" lon="4.52782">
        <ele>541</ele>
        <time>2015-06-09T14:22:31Z</time>
      </trkpt>
      <trkpt lat="45.81902" lon="4.52794">
        <ele>539</ele>
        <time>2015-06-09T14:22:32Z</time>
      </trkpt>
      <trkpt lat="45.81907" lon="4.52806">
        <ele>537</ele>
        <time>2015-06-09T14:22:33Z</time>
      </trkpt>
      <trkpt lat="45.81912" lon="4.52819">
        <ele>535</ele>
        <time>2015-06-09T14:22:34Z</time>
      </trkpt>
      <trkpt lat="45.81917" lon="4.5283">
        <ele>533</ele>
        <time>2015-06-09T14:22:35Z</time>
      </trkpt>
      <trkpt lat="45.81922" lon="4.52842">
        <ele>532</ele>
        <time>2015-06-09T14:22:36Z</time>
      </trkpt>
      <trkpt lat="45.81928" lon="4.52854">
        <ele>530</ele>
        <time>2015-06-09T14:22:37Z</time>
      </trkpt>
      <trkpt lat="45.81934" lon="4.52867">
        <ele>529</ele>
        <time>2015-06-09T14:22:38Z</time>
      </trkpt>
      <trkpt lat="45.81941" lon="4.52878">
        <ele>528</ele>
        <time>2015-06-09T14:22:39Z</time>
      </trkpt>
      <trkpt lat="45.81947" lon="4.5289">
        <ele>527</ele>
        <time>2015-06-09T14:22:40Z</time>
      </trkpt>
      <trkpt lat="45.81952" lon="4.52901">
        <ele>526</ele>
        <time>2015-06-09T14:22:41Z</time>
      </trkpt>
      <trkpt lat="45.81959" lon="4.52911">
        <ele>525</ele>
        <time>2015-06-09T14:22:42Z</time>
      </trkpt>
      <trkpt lat="45.81973" lon="4.52931">
        <ele>524</ele>
        <time>2015-06-09T14:22:44Z</time>
      </trkpt>
      <trkpt lat="45.81981" lon="4.52942">
        <ele>523</ele>
        <time>2015-06-09T14:22:45Z</time>
      </trkpt>
      <trkpt lat="45.81987" lon="4.52953">
        <ele>522</ele>
        <time>2015-06-09T14:22:46Z</time>
      </trkpt>
      <trkpt lat="45.81995" lon="4.52964">
        <ele>521</ele>
        <time>2015-06-09T14:22:47Z</time>
      </trkpt>
      <trkpt lat="45.82002" lon="4.52975">
        <ele>520</ele>
        <time>2015-06-09T14:22:48Z</time>
      </trkpt>
      <trkpt lat="45.82008" lon="4.52986">
        <ele>520</ele>
        <time>2015-06-09T14:22:49Z</time>
      </trkpt>
      <trkpt lat="45.82015" lon="4.52998">
        <ele>520</ele>
        <time>2015-06-09T14:22:50Z</time>
      </trkpt>
      <trkpt lat="45.8202" lon="4.53011">
        <ele>519</ele>
        <time>2015-06-09T14:22:51Z</time>
      </trkpt>
      <trkpt lat="45.82024" lon="4.53025">
        <ele>518</ele>
        <time>2015-06-09T14:22:52Z</time>
      </trkpt>
      <trkpt lat="45.82027" lon="4.53038">
        <ele>517</ele>
        <time>2015-06-09T14:22:53Z</time>
      </trkpt>
      <trkpt lat="45.82033" lon="4.53067">
        <ele>515</ele>
        <time>2015-06-09T14:22:55Z</time>
      </trkpt>
      <trkpt lat="45.82035" lon="4.53081">
        <ele>514</ele>
        <time>2015-06-09T14:22:56Z</time>
      </trkpt>
      <trkpt lat="45.82037" lon="4.53094">
        <ele>513</ele>
        <time>2015-06-09T14:22:57Z</time>
      </trkpt>
      <trkpt lat="45.82039" lon="4.53109">
        <ele>513</ele>
        <time>2015-06-09T14:22:58Z</time>
      </trkpt>
      <trkpt lat="45.82042" lon="4.53123">
        <ele>512</ele>
        <time>2015-06-09T14:22:59Z</time>
      </trkpt>
      <trkpt lat="45.82044" lon="4.53137">
        <ele>511</ele>
        <time>2015-06-09T14:23:00Z</time>
      </trkpt>
      <trkpt lat="45.82046" lon="4.53151">
        <ele>511</ele>
        <time>2015-06-09T14:23:01Z</time>
      </trkpt>
      <trkpt lat="45.82048" lon="4.53165">
        <ele>510</ele>
        <time>2015-06-09T14:23:02Z</time>
      </trkpt>
      <trkpt lat="45.8205" lon="4.53179">
        <ele>510</ele>
        <time>2015-06-09T14:23:03Z</time>
      </trkpt>
      <trkpt lat="45.82052" lon="4.53193">
        <ele>509</ele>
        <time>2015-06-09T14:23:04Z</time>
      </trkpt>
      <trkpt lat="45.82054" lon="4.53206">
        <ele>509</ele>
        <time>2015-06-09T14:23:05Z</time>
      </trkpt>
      <trkpt lat="45.82056" lon="4.5322">
        <ele>508</ele>
        <time>2015-06-09T14:23:06Z</time>
      </trkpt>
      <trkpt lat="45.82059" lon="4.53233">
        <ele>507</ele>
        <time>2015-06-09T14:23:07Z</time>
      </trkpt>
      <trkpt lat="45.82061" lon="4.53245">
        <ele>506</ele>
        <time>2015-06-09T14:23:08Z</time>
      </trkpt>
      <trkpt lat="45.82063" lon="4.53258">
        <ele>505</ele>
        <time>2015-06-09T14:23:09Z</time>
      </trkpt>
      <trkpt lat="45.82067" lon="4.53271">
        <ele>503</ele>
        <time>2015-06-09T14:23:10Z</time>
      </trkpt>
      <trkpt lat="45.82071" lon="4.53283">
        <ele>502</ele>
        <time>2015-06-09T14:23:11Z</time>
      </trkpt>
      <trkpt lat="45.82075" lon="4.53294">
        <ele>501</ele>
        <time>2015-06-09T14:23:12Z</time>
      </trkpt>
      <trkpt lat="45.82081" lon="4.53305">
        <ele>499</ele>
        <time>2015-06-09T14:23:13Z</time>
      </trkpt>
      <trkpt lat="45.82087" lon="4.53315">
        <ele>498</ele>
        <time>2015-06-09T14:23:14Z</time>
      </trkpt>
      <trkpt lat="45.82093" lon="4.53323">
        <ele>497</ele>
        <time>2015-06-09T14:23:15Z</time>
      </trkpt>
      <trkpt lat="45.8211" lon="4.53335">
        <ele>497</ele>
        <time>2015-06-09T14:23:17Z</time>
      </trkpt>
      <trkpt lat="45.82119" lon="4.53338">
        <ele>497</ele>
        <time>2015-06-09T14:23:18Z</time>
      </trkpt>
      <trkpt lat="45.82128" lon="4.53339">
        <ele>497</ele>
        <time>2015-06-09T14:23:19Z</time>
      </trkpt>
      <trkpt lat="45.82137" lon="4.53337">
        <ele>497</ele>
        <time>2015-06-09T14:23:20Z</time>
      </trkpt>
      <trkpt lat="45.82146" lon="4.53333">
        <ele>497</ele>
        <time>2015-06-09T14:23:21Z</time>
      </trkpt>
      <trkpt lat="45.82155" lon="4.53328">
        <ele>497</ele>
        <time>2015-06-09T14:23:22Z</time>
      </trkpt>
      <trkpt lat="45.82162" lon="4.53322">
        <ele>497</ele>
        <time>2015-06-09T14:23:23Z</time>
      </trkpt>
      <trkpt lat="45.82171" lon="4.53316">
        <ele>498</ele>
        <time>2015-06-09T14:23:24Z</time>
      </trkpt>
      <trkpt lat="45.82179" lon="4.5331">
        <ele>498</ele>
        <time>2015-06-09T14:23:25Z</time>
      </trkpt>
      <trkpt lat="45.82187" lon="4.53303">
        <ele>499</ele>
        <time>2015-06-09T14:23:26Z</time>
      </trkpt>
      <trkpt lat="45.82195" lon="4.53296">
        <ele>499</ele>
        <time>2015-06-09T14:23:27Z</time>
      </trkpt>
      <trkpt lat="45.82203" lon="4.5329">
        <ele>499</ele>
        <time>2015-06-09T14:23:28Z</time>
      </trkpt>
      <trkpt lat="45.82211" lon="4.53284">
        <ele>499</ele>
        <time>2015-06-09T14:23:29Z</time>
      </trkpt>
      <trkpt lat="45.82219" lon="4.53278">
        <ele>499</ele>
        <time>2015-06-09T14:23:30Z</time>
      </trkpt>
      <trkpt lat="45.82228" lon="4.53274">
        <ele>498</ele>
        <time>2015-06-09T14:23:31Z</time>
      </trkpt>
      <trkpt lat="45.82237" lon="4.53271">
        <ele>497</ele>
        <time>2015-06-09T14:23:32Z</time>
      </trkpt>
      <trkpt lat="45.82247" lon="4.53269">
        <ele>496</ele>
        <time>2015-06-09T14:23:33Z</time>
      </trkpt>
      <trkpt lat="45.82256" lon="4.53268">
        <ele>494</ele>
        <time>2015-06-09T14:23:34Z</time>
      </trkpt>
      <trkpt lat="45.82266" lon="4.5327">
        <ele>493</ele>
        <time>2015-06-09T14:23:35Z</time>
      </trkpt>
      <trkpt lat="45.82275" lon="4.53273">
        <ele>493</ele>
        <time>2015-06-09T14:23:36Z</time>
      </trkpt>
      <trkpt lat="45.82283" lon="4.53278">
        <ele>492</ele>
        <time>2015-06-09T14:23:37Z</time>
      </trkpt>
      <trkpt lat="45.82291" lon="4.53286">
        <ele>491</ele>
        <time>2015-06-09T14:23:38Z</time>
      </trkpt>
      <trkpt lat="45.82298" lon="4.53295">
        <ele>491</ele>
        <time>2015-06-09T14:23:39Z</time>
      </trkpt>
      <trkpt lat="45.82304" lon="4.53306">
        <ele>490</ele>
        <time>2015-06-09T14:23:40Z</time>
      </trkpt>
      <trkpt lat="45.82309" lon="4.53317">
        <ele>489</ele>
        <time>2015-06-09T14:23:41Z</time>
      </trkpt>
      <trkpt lat="45.82313" lon="4.53329">
        <ele>489</ele>
        <time>2015-06-09T14:23:42Z</time>
      </trkpt>
      <trkpt lat="45.82317" lon="4.5334">
        <ele>488</ele>
        <time>2015-06-09T14:23:43Z</time>
      </trkpt>
      <trkpt lat="45.82322" lon="4.53351">
        <ele>488</ele>
        <time>2015-06-09T14:23:44Z</time>
      </trkpt>
      <trkpt lat="45.82326" lon="4.53362">
        <ele>487</ele>
        <time>2015-06-09T14:23:45Z</time>
      </trkpt>
      <trkpt lat="45.8233" lon="4.53372">
        <ele>487</ele>
        <time>2015-06-09T14:23:46Z</time>
      </trkpt>
      <trkpt lat="45.82335" lon="4.53383">
        <ele>486</ele>
        <time>2015-06-09T14:23:47Z</time>
      </trkpt>
      <trkpt lat="45.82339" lon="4.53394">
        <ele>485</ele>
        <time>2015-06-09T14:23:48Z</time>
      </trkpt>
      <trkpt lat="45.82342" lon="4.53405">
        <ele>484</ele>
        <time>2015-06-09T14:23:49Z</time>
      </trkpt>
      <trkpt lat="45.82344" lon="4.53417">
        <ele>484</ele>
        <time>2015-06-09T14:23:50Z</time>
      </trkpt>
      <trkpt lat="45.82346" lon="4.53429">
        <ele>483</ele>
        <time>2015-06-09T14:23:51Z</time>
      </trkpt>
      <trkpt lat="45.82347" lon="4.53441">
        <ele>482</ele>
        <time>2015-06-09T14:23:52Z</time>
      </trkpt>
      <trkpt lat="45.82348" lon="4.53453">
        <ele>482</ele>
        <time>2015-06-09T14:23:53Z</time>
      </trkpt>
      <trkpt lat="45.82348" lon="4.53466">
        <ele>481</ele>
        <time>2015-06-09T14:23:54Z</time>
      </trkpt>
      <trkpt lat="45.82349" lon="4.53478">
        <ele>481</ele>
        <time>2015-06-09T14:23:55Z</time>
      </trkpt>
      <trkpt lat="45.82349" lon="4.53491">
        <ele>480</ele>
        <time>2015-06-09T14:23:56Z</time>
      </trkpt>
      <trkpt lat="45.8235" lon="4.53503">
        <ele>480</ele>
        <time>2015-06-09T14:23:57Z</time>
      </trkpt>
      <trkpt lat="45.82351" lon="4.53516">
        <ele>479</ele>
        <time>2015-06-09T14:23:58Z</time>
      </trkpt>
      <trkpt lat="45.82351" lon="4.53525">
        <ele>479</ele>
        <time>2015-06-09T14:23:59Z</time>
      </trkpt>
      <trkpt lat="45.82352" lon="4.53533">
        <ele>478</ele>
        <time>2015-06-09T14:24:00Z</time>
      </trkpt>
      <trkpt lat="45.82354" lon="4.53539">
        <ele>478</ele>
        <time>2015-06-09T14:24:01Z</time>
      </trkpt>
      <trkpt lat="45.82357" lon="4.53544">
        <ele>477</ele>
        <time>2015-06-09T14:24:02Z</time>
      </trkpt>
      <trkpt lat="45.82362" lon="4.53545">
        <ele>476</ele>
        <time>2015-06-09T14:24:03Z</time>
      </trkpt>
      <trkpt lat="45.82367" lon="4.53543">
        <ele>476</ele>
        <time>2015-06-09T14:24:04Z</time>
      </trkpt>
      <trkpt lat="45.8237" lon="4.53537">
        <ele>476</ele>
        <time>2015-06-09T14:24:05Z</time>
      </trkpt>
      <trkpt lat="45.82374" lon="4.53529">
        <ele>476</ele>
        <time>2015-06-09T14:24:06Z</time>
      </trkpt>
      <trkpt lat="45.82377" lon="4.53521">
        <ele>476</ele>
        <time>2015-06-09T14:24:07Z</time>
      </trkpt>
      <trkpt lat="45.8238" lon="4.53512">
        <ele>475</ele>
        <time>2015-06-09T14:24:08Z</time>
      </trkpt>
      <trkpt lat="45.82383" lon="4.53504">
        <ele>475</ele>
        <time>2015-06-09T14:24:09Z</time>
      </trkpt>
      <trkpt lat="45.82386" lon="4.53494">
        <ele>475</ele>
        <time>2015-06-09T14:24:10Z</time>
      </trkpt>
      <trkpt lat="45.8239" lon="4.53484">
        <ele>475</ele>
        <time>2015-06-09T14:24:11Z</time>
      </trkpt>
      <trkpt lat="45.82394" lon="4.53474">
        <ele>475</ele>
        <time>2015-06-09T14:24:12Z</time>
      </trkpt>
      <trkpt lat="45.82397" lon="4.53464">
        <ele>474</ele>
        <time>2015-06-09T14:24:13Z</time>
      </trkpt>
      <trkpt lat="45.82401" lon="4.53453">
        <ele>474</ele>
        <time>2015-06-09T14:24:14Z</time>
      </trkpt>
      <trkpt lat="45.82404" lon="4.53441">
        <ele>474</ele>
        <time>2015-06-09T14:24:15Z</time>
      </trkpt>
      <trkpt lat="45.82408" lon="4.5343">
        <ele>474</ele>
        <time>2015-06-09T14:24:16Z</time>
      </trkpt>
      <trkpt lat="45.8241" lon="4.53418">
        <ele>474</ele>
        <time>2015-06-09T14:24:17Z</time>
      </trkpt>
      <trkpt lat="45.82413" lon="4.53406">
        <ele>474</ele>
        <time>2015-06-09T14:24:18Z</time>
      </trkpt>
      <trkpt lat="45.82415" lon="4.53393">
        <ele>474</ele>
        <time>2015-06-09T14:24:19Z</time>
      </trkpt>
      <trkpt lat="45.82418" lon="4.5338">
        <ele>474</ele>
        <time>2015-06-09T14:24:20Z</time>
      </trkpt>
      <trkpt lat="45.8242" lon="4.53367">
        <ele>473</ele>
        <time>2015-06-09T14:24:21Z</time>
      </trkpt>
      <trkpt lat="45.82423" lon="4.53354">
        <ele>473</ele>
        <time>2015-06-09T14:24:22Z</time>
      </trkpt>
      <trkpt lat="45.82426" lon="4.53341">
        <ele>473</ele>
        <time>2015-06-09T14:24:23Z</time>
      </trkpt>
      <trkpt lat="45.82428" lon="4.53328">
        <ele>473</ele>
        <time>2015-06-09T14:24:24Z</time>
      </trkpt>
      <trkpt lat="45.82432" lon="4.53315">
        <ele>473</ele>
        <time>2015-06-09T14:24:25Z</time>
      </trkpt>
      <trkpt lat="45.82436" lon="4.53302">
        <ele>473</ele>
        <time>2015-06-09T14:24:26Z</time>
      </trkpt>
      <trkpt lat="45.8244" lon="4.5329">
        <ele>472</ele>
        <time>2015-06-09T14:24:27Z</time>
      </trkpt>
      <trkpt lat="45.82444" lon="4.53278">
        <ele>472</ele>
        <time>2015-06-09T14:24:28Z</time>
      </trkpt>
      <trkpt lat="45.82449" lon="4.53266">
        <ele>472</ele>
        <time>2015-06-09T14:24:29Z</time>
      </trkpt>
      <trkpt lat="45.82454" lon="4.53254">
        <ele>471</ele>
        <time>2015-06-09T14:24:30Z</time>
      </trkpt>
      <trkpt lat="45.82459" lon="4.53243">
        <ele>471</ele>
        <time>2015-06-09T14:24:31Z</time>
      </trkpt>
      <trkpt lat="45.82463" lon="4.53232">
        <ele>470</ele>
        <time>2015-06-09T14:24:32Z</time>
      </trkpt>
      <trkpt lat="45.82468" lon="4.53222">
        <ele>470</ele>
        <time>2015-06-09T14:24:33Z</time>
      </trkpt>
      <trkpt lat="45.82473" lon="4.53211">
        <ele>470</ele>
        <time>2015-06-09T14:24:34Z</time>
      </trkpt>
      <trkpt lat="45.82478" lon="4.53201">
        <ele>470</ele>
        <time>2015-06-09T14:24:35Z</time>
      </trkpt>
      <trkpt lat="45.82483" lon="4.53192">
        <ele>470</ele>
        <time>2015-06-09T14:24:36Z</time>
      </trkpt>
      <trkpt lat="45.82488" lon="4.53183">
        <ele>470</ele>
        <time>2015-06-09T14:24:37Z</time>
      </trkpt>
      <trkpt lat="45.82494" lon="4.53173">
        <ele>470</ele>
        <time>2015-06-09T14:24:38Z</time>
      </trkpt>
      <trkpt lat="45.82499" lon="4.53164">
        <ele>470</ele>
        <time>2015-06-09T14:24:39Z</time>
      </trkpt>
      <trkpt lat="45.82504" lon="4.53155">
        <ele>470</ele>
        <time>2015-06-09T14:24:40Z</time>
      </trkpt>
      <trkpt lat="45.8251" lon="4.53147">
        <ele>470</ele>
        <time>2015-06-09T14:24:41Z</time>
      </trkpt>
      <trkpt lat="45.82516" lon="4.53138">
        <ele>470</ele>
        <time>2015-06-09T14:24:42Z</time>
      </trkpt>
      <trkpt lat="45.82522" lon="4.5313">
        <ele>470</ele>
        <time>2015-06-09T14:24:43Z</time>
      </trkpt>
      <trkpt lat="45.82529" lon="4.53123">
        <ele>470</ele>
        <time>2015-06-09T14:24:44Z</time>
      </trkpt>
      <trkpt lat="45.82536" lon="4.53117">
        <ele>469</ele>
        <time>2015-06-09T14:24:45Z</time>
      </trkpt>
      <trkpt lat="45.82542" lon="4.5311">
        <ele>470</ele>
        <time>2015-06-09T14:24:46Z</time>
      </trkpt>
      <trkpt lat="45.8255" lon="4.53104">
        <ele>470</ele>
        <time>2015-06-09T14:24:47Z</time>
      </trkpt>
      <trkpt lat="45.82557" lon="4.53099">
        <ele>470</ele>
        <time>2015-06-09T14:24:48Z</time>
      </trkpt>
      <trkpt lat="45.82564" lon="4.53093">
        <ele>471</ele>
        <time>2015-06-09T14:24:49Z</time>
      </trkpt>
      <trkpt lat="45.82571" lon="4.53089">
        <ele>471</ele>
        <time>2015-06-09T14:24:50Z</time>
      </trkpt>
      <trkpt lat="45.82579" lon="4.53087">
        <ele>471</ele>
        <time>2015-06-09T14:24:51Z</time>
      </trkpt>
      <trkpt lat="45.82587" lon="4.53088">
        <ele>471</ele>
        <time>2015-06-09T14:24:52Z</time>
      </trkpt>
      <trkpt lat="45.82594" lon="4.53092">
        <ele>470</ele>
        <time>2015-06-09T14:24:53Z</time>
      </trkpt>
      <trkpt lat="45.82602" lon="4.53097">
        <ele>469</ele>
        <time>2015-06-09T14:24:54Z</time>
      </trkpt>
      <trkpt lat="45.82609" lon="4.53104">
        <ele>468</ele>
        <time>2015-06-09T14:24:55Z</time>
      </trkpt>
      <trkpt lat="45.82615" lon="4.53113">
        <ele>467</ele>
        <time>2015-06-09T14:24:56Z</time>
      </trkpt>
      <trkpt lat="45.82621" lon="4.53121">
        <ele>466</ele>
        <time>2015-06-09T14:24:57Z</time>
      </trkpt>
      <trkpt lat="45.82629" lon="4.53128">
        <ele>466</ele>
        <time>2015-06-09T14:24:58Z</time>
      </trkpt>
      <trkpt lat="45.82637" lon="4.53133">
        <ele>465</ele>
        <time>2015-06-09T14:24:59Z</time>
      </trkpt>
      <trkpt lat="45.82646" lon="4.53138">
        <ele>464</ele>
        <time>2015-06-09T14:25:00Z</time>
      </trkpt>
      <trkpt lat="45.82655" lon="4.53141">
        <ele>464</ele>
        <time>2015-06-09T14:25:01Z</time>
      </trkpt>
      <trkpt lat="45.82664" lon="4.53146">
        <ele>463</ele>
        <time>2015-06-09T14:25:02Z</time>
      </trkpt>
      <trkpt lat="45.82673" lon="4.5315">
        <ele>462</ele>
        <time>2015-06-09T14:25:03Z</time>
      </trkpt>
      <trkpt lat="45.82682" lon="4.53154">
        <ele>462</ele>
        <time>2015-06-09T14:25:04Z</time>
      </trkpt>
      <trkpt lat="45.82691" lon="4.53156">
        <ele>461</ele>
        <time>2015-06-09T14:25:05Z</time>
      </trkpt>
      <trkpt lat="45.827" lon="4.53158">
        <ele>461</ele>
        <time>2015-06-09T14:25:06Z</time>
      </trkpt>
      <trkpt lat="45.82709" lon="4.53158">
        <ele>461</ele>
        <time>2015-06-09T14:25:07Z</time>
      </trkpt>
      <trkpt lat="45.82719" lon="4.53158">
        <ele>460</ele>
        <time>2015-06-09T14:25:08Z</time>
      </trkpt>
      <trkpt lat="45.82727" lon="4.53158">
        <ele>460</ele>
        <time>2015-06-09T14:25:09Z</time>
      </trkpt>
      <trkpt lat="45.82737" lon="4.53159">
        <ele>460</ele>
        <time>2015-06-09T14:25:10Z</time>
      </trkpt>
      <trkpt lat="45.82746" lon="4.5316">
        <ele>459</ele>
        <time>2015-06-09T14:25:11Z</time>
      </trkpt>
      <trkpt lat="45.82755" lon="4.53162">
        <ele>458</ele>
        <time>2015-06-09T14:25:12Z</time>
      </trkpt>
      <trkpt lat="45.82764" lon="4.53163">
        <ele>457</ele>
        <time>2015-06-09T14:25:13Z</time>
      </trkpt>
      <trkpt lat="45.82774" lon="4.53164">
        <ele>456</ele>
        <time>2015-06-09T14:25:14Z</time>
      </trkpt>
      <trkpt lat="45.82783" lon="4.53165">
        <ele>456</ele>
        <time>2015-06-09T14:25:15Z</time>
      </trkpt>
      <trkpt lat="45.82792" lon="4.53164">
        <ele>455</ele>
        <time>2015-06-09T14:25:16Z</time>
      </trkpt>
      <trkpt lat="45.82802" lon="4.53163">
        <ele>454</ele>
        <time>2015-06-09T14:25:17Z</time>
      </trkpt>
      <trkpt lat="45.82812" lon="4.53161">
        <ele>454</ele>
        <time>2015-06-09T14:25:18Z</time>
      </trkpt>
      <trkpt lat="45.82821" lon="4.53159">
        <ele>454</ele>
        <time>2015-06-09T14:25:19Z</time>
      </trkpt>
      <trkpt lat="45.82831" lon="4.53156">
        <ele>453</ele>
        <time>2015-06-09T14:25:20Z</time>
      </trkpt>
      <trkpt lat="45.8284" lon="4.53153">
        <ele>453</ele>
        <time>2015-06-09T14:25:21Z</time>
      </trkpt>
      <trkpt lat="45.8285" lon="4.53151">
        <ele>453</ele>
        <time>2015-06-09T14:25:22Z</time>
      </trkpt>
      <trkpt lat="45.8286" lon="4.53148">
        <ele>453</ele>
        <time>2015-06-09T14:25:23Z</time>
      </trkpt>
      <trkpt lat="45.8287" lon="4.53148">
        <ele>452</ele>
        <time>2015-06-09T14:25:24Z</time>
      </trkpt>
      <trkpt lat="45.8288" lon="4.53149">
        <ele>451</ele>
        <time>2015-06-09T14:25:25Z</time>
      </trkpt>
      <trkpt lat="45.8289" lon="4.5315">
        <ele>450</ele>
        <time>2015-06-09T14:25:26Z</time>
      </trkpt>
      <trkpt lat="45.829" lon="4.53153">
        <ele>449</ele>
        <time>2015-06-09T14:25:27Z</time>
      </trkpt>
      <trkpt lat="45.82909" lon="4.53156">
        <ele>447</ele>
        <time>2015-06-09T14:25:28Z</time>
      </trkpt>
      <trkpt lat="45.82919" lon="4.53158">
        <ele>446</ele>
        <time>2015-06-09T14:25:29Z</time>
      </trkpt>
      <trkpt lat="45.82929" lon="4.5316">
        <ele>445</ele>
        <time>2015-06-09T14:25:30Z</time>
      </trkpt>
      <trkpt lat="45.82939" lon="4.53159">
        <ele>445</ele>
        <time>2015-06-09T14:25:31Z</time>
      </trkpt>
      <trkpt lat="45.82948" lon="4.53156">
        <ele>444</ele>
        <time>2015-06-09T14:25:32Z</time>
      </trkpt>
      <trkpt lat="45.82958" lon="4.53152">
        <ele>444</ele>
        <time>2015-06-09T14:25:33Z</time>
      </trkpt>
      <trkpt lat="45.82967" lon="4.53146">
        <ele>444</ele>
        <time>2015-06-09T14:25:34Z</time>
      </trkpt>
      <trkpt lat="45.82976" lon="4.53141">
        <ele>443</ele>
        <time>2015-06-09T14:25:35Z</time>
      </trkpt>
      <trkpt lat="45.82985" lon="4.53135">
        <ele>443</ele>
        <time>2015-06-09T14:25:36Z</time>
      </trkpt>
      <trkpt lat="45.82994" lon="4.53129">
        <ele>443</ele>
        <time>2015-06-09T14:25:37Z</time>
      </trkpt>
      <trkpt lat="45.83003" lon="4.53122">
        <ele>443</ele>
        <time>2015-06-09T14:25:38Z</time>
      </trkpt>
      <trkpt lat="45.83012" lon="4.53116">
        <ele>442</ele>
        <time>2015-06-09T14:25:39Z</time>
      </trkpt>
      <trkpt lat="45.8302" lon="4.53109">
        <ele>442</ele>
        <time>2015-06-09T14:25:40Z</time>
      </trkpt>
      <trkpt lat="45.83029" lon="4.53103">
        <ele>441</ele>
        <time>2015-06-09T14:25:41Z</time>
      </trkpt>
      <trkpt lat="45.83037" lon="4.53096">
        <ele>441</ele>
        <time>2015-06-09T14:25:42Z</time>
      </trkpt>
      <trkpt lat="45.83046" lon="4.5309">
        <ele>440</ele>
        <time>2015-06-09T14:25:43Z</time>
      </trkpt>
      <trkpt lat="45.83055" lon="4.53085">
        <ele>440</ele>
        <time>2015-06-09T14:25:44Z</time>
      </trkpt>
      <trkpt lat="45.83064" lon="4.5308">
        <ele>439</ele>
        <time>2015-06-09T14:25:45Z</time>
      </trkpt>
      <trkpt lat="45.83073" lon="4.53076">
        <ele>438</ele>
        <time>2015-06-09T14:25:46Z</time>
      </trkpt>
      <trkpt lat="45.83082" lon="4.53072">
        <ele>437</ele>
        <time>2015-06-09T14:25:47Z</time>
      </trkpt>
      <trkpt lat="45.83091" lon="4.53069">
        <ele>437</ele>
        <time>2015-06-09T14:25:48Z</time>
      </trkpt>
      <trkpt lat="45.831" lon="4.53066">
        <ele>436</ele>
        <time>2015-06-09T14:25:49Z</time>
      </trkpt>
      <trkpt lat="45.83109" lon="4.53063">
        <ele>436</ele>
        <time>2015-06-09T14:25:50Z</time>
      </trkpt>
      <trkpt lat="45.83118" lon="4.5306">
        <ele>435</ele>
        <time>2015-06-09T14:25:51Z</time>
      </trkpt>
      <trkpt lat="45.83128" lon="4.53057">
        <ele>435</ele>
        <time>2015-06-09T14:25:52Z</time>
      </trkpt>
      <trkpt lat="45.83136" lon="4.53054">
        <ele>434</ele>
        <time>2015-06-09T14:25:53Z</time>
      </trkpt>
      <trkpt lat="45.83144" lon="4.5305">
        <ele>434</ele>
        <time>2015-06-09T14:25:54Z</time>
      </trkpt>
      <trkpt lat="45.83153" lon="4.53047">
        <ele>434</ele>
        <time>2015-06-09T14:25:55Z</time>
      </trkpt>
      <trkpt lat="45.8316" lon="4.5304">
        <ele>434</ele>
        <time>2015-06-09T14:25:56Z</time>
      </trkpt>
      <trkpt lat="45.83169" lon="4.53034">
        <ele>433</ele>
        <time>2015-06-09T14:25:57Z</time>
      </trkpt>
      <trkpt lat="45.83177" lon="4.5303">
        <ele>433</ele>
        <time>2015-06-09T14:25:58Z</time>
      </trkpt>
      <trkpt lat="45.83183" lon="4.53022">
        <ele>433</ele>
        <time>2015-06-09T14:25:59Z</time>
      </trkpt>
      <trkpt lat="45.83189" lon="4.53012">
        <ele>433</ele>
        <time>2015-06-09T14:26:00Z</time>
      </trkpt>
      <trkpt lat="45.83196" lon="4.53005">
        <ele>433</ele>
        <time>2015-06-09T14:26:01Z</time>
      </trkpt>
      <trkpt lat="45.83203" lon="4.52998">
        <ele>432</ele>
        <time>2015-06-09T14:26:02Z</time>
      </trkpt>
      <trkpt lat="45.83211" lon="4.52991">
        <ele>432</ele>
        <time>2015-06-09T14:26:03Z</time>
      </trkpt>
      <trkpt lat="45.83217" lon="4.52985">
        <ele>432</ele>
        <time>2015-06-09T14:26:04Z</time>
      </trkpt>
      <trkpt lat="45.83225" lon="4.52978">
        <ele>432</ele>
        <time>2015-06-09T14:26:05Z</time>
      </trkpt>
      <trkpt lat="45.83233" lon="4.52972">
        <ele>432</ele>
        <time>2015-06-09T14:26:06Z</time>
      </trkpt>
      <trkpt lat="45.83241" lon="4.52967">
        <ele>432</ele>
        <time>2015-06-09T14:26:07Z</time>
      </trkpt>
      <trkpt lat="45.8325" lon="4.52963">
        <ele>431</ele>
        <time>2015-06-09T14:26:08Z</time>
      </trkpt>
      <trkpt lat="45.83258" lon="4.5296">
        <ele>431</ele>
        <time>2015-06-09T14:26:09Z</time>
      </trkpt>
      <trkpt lat="45.83267" lon="4.52959">
        <ele>431</ele>
        <time>2015-06-09T14:26:10Z</time>
      </trkpt>
      <trkpt lat="45.83278" lon="4.5296">
        <ele>430</ele>
        <time>2015-06-09T14:26:11Z</time>
      </trkpt>
      <trkpt lat="45.83287" lon="4.52962">
        <ele>429</ele>
        <time>2015-06-09T14:26:12Z</time>
      </trkpt>
      <trkpt lat="45.83297" lon="4.52968">
        <ele>428</ele>
        <time>2015-06-09T14:26:13Z</time>
      </trkpt>
      <trkpt lat="45.83305" lon="4.52975">
        <ele>428</ele>
        <time>2015-06-09T14:26:14Z</time>
      </trkpt>
      <trkpt lat="45.83312" lon="4.52985">
        <ele>427</ele>
        <time>2015-06-09T14:26:15Z</time>
      </trkpt>
      <trkpt lat="45.83317" lon="4.52994">
        <ele>427</ele>
        <time>2015-06-09T14:26:16Z</time>
      </trkpt>
      <trkpt lat="45.83322" lon="4.53004">
        <ele>427</ele>
        <time>2015-06-09T14:26:17Z</time>
      </trkpt>
      <trkpt lat="45.83326" lon="4.53014">
        <ele>427</ele>
        <time>2015-06-09T14:26:18Z</time>
      </trkpt>
      <trkpt lat="45.83331" lon="4.53023">
        <ele>427</ele>
        <time>2015-06-09T14:26:19Z</time>
      </trkpt>
      <trkpt lat="45.83336" lon="4.53031">
        <ele>427</ele>
        <time>2015-06-09T14:26:20Z</time>
      </trkpt>
      <trkpt lat="45.83339" lon="4.53039">
        <ele>427</ele>
        <time>2015-06-09T14:26:21Z</time>
      </trkpt>
      <trkpt lat="45.83342" lon="4.53047">
        <ele>428</ele>
        <time>2015-06-09T14:26:22Z</time>
      </trkpt>
      <trkpt lat="45.83345" lon="4.53054">
        <ele>428</ele>
        <time>2015-06-09T14:26:23Z</time>
      </trkpt>
      <trkpt lat="45.83347" lon="4.53061">
        <ele>429</ele>
        <time>2015-06-09T14:26:24Z</time>
      </trkpt>
      <trkpt lat="45.83349" lon="4.53068">
        <ele>429</ele>
        <time>2015-06-09T14:26:25Z</time>
      </trkpt>
      <trkpt lat="45.83349" lon="4.5308">
        <ele>430</ele>
        <time>2015-06-09T14:26:27Z</time>
      </trkpt>
      <trkpt lat="45.83347" lon="4.5309">
        <ele>431</ele>
        <time>2015-06-09T14:26:29Z</time>
      </trkpt>
      <trkpt lat="45.83344" lon="4.53099">
        <ele>431</ele>
        <time>2015-06-09T14:26:31Z</time>
      </trkpt>
      <trkpt lat="45.8334" lon="4.53107">
        <ele>432</ele>
        <time>2015-06-09T14:26:33Z</time>
      </trkpt>
      <trkpt lat="45.83335" lon="4.53115">
        <ele>432</ele>
        <time>2015-06-09T14:26:35Z</time>
      </trkpt>
      <trkpt lat="45.8333" lon="4.53122">
        <ele>432</ele>
        <time>2015-06-09T14:26:37Z</time>
      </trkpt>
      <trkpt lat="45.83325" lon="4.53129">
        <ele>432</ele>
        <time>2015-06-09T14:26:39Z</time>
      </trkpt>
      <trkpt lat="45.8332" lon="4.53137">
        <ele>432</ele>
        <time>2015-06-09T14:26:41Z</time>
      </trkpt>
      <trkpt lat="45.83315" lon="4.53146">
        <ele>432</ele>
        <time>2015-06-09T14:26:43Z</time>
      </trkpt>
      <trkpt lat="45.83311" lon="4.53154">
        <ele>432</ele>
        <time>2015-06-09T14:26:45Z</time>
      </trkpt>
      <trkpt lat="45.83307" lon="4.53163">
        <ele>432</ele>
        <time>2015-06-09T14:26:47Z</time>
      </trkpt>
      <trkpt lat="45.83306" lon="4.53174">
        <ele>433</ele>
        <time>2015-06-09T14:26:49Z</time>
      </trkpt>
      <trkpt lat="45.83305" lon="4.53184">
        <ele>434</ele>
        <time>2015-06-09T14:26:51Z</time>
      </trkpt>
      <trkpt lat="45.83304" lon="4.53194">
        <ele>434</ele>
        <time>2015-06-09T14:26:53Z</time>
      </trkpt>
      <trkpt lat="45.83305" lon="4.53203">
        <ele>435</ele>
        <time>2015-06-09T14:26:55Z</time>
      </trkpt>
      <trkpt lat="45.83306" lon="4.53213">
        <ele>436</ele>
        <time>2015-06-09T14:26:57Z</time>
      </trkpt>
      <trkpt lat="45.8331" lon="4.53219">
        <ele>437</ele>
        <time>2015-06-09T14:26:59Z</time>
      </trkpt>
      <trkpt lat="45.83314" lon="4.53224">
        <ele>439</ele>
        <time>2015-06-09T14:27:01Z</time>
      </trkpt>
      <trkpt lat="45.83315" lon="4.53231">
        <ele>439</ele>
        <time>2015-06-09T14:27:04Z</time>
      </trkpt>
      <trkpt lat="45.83318" lon="4.5324">
        <ele>441</ele>
        <time>2015-06-09T14:27:07Z</time>
      </trkpt>
      <trkpt lat="45.8332" lon="4.53248">
        <ele>442</ele>
        <time>2015-06-09T14:27:09Z</time>
      </trkpt>
      <trkpt lat="45.83321" lon="4.53256">
        <ele>443</ele>
        <time>2015-06-09T14:27:11Z</time>
      </trkpt>
      <trkpt lat="45.83323" lon="4.53264">
        <ele>444</ele>
        <time>2015-06-09T14:27:13Z</time>
      </trkpt>
      <trkpt lat="45.83325" lon="4.53272">
        <ele>445</ele>
        <time>2015-06-09T14:27:15Z</time>
      </trkpt>
      <trkpt lat="45.83325" lon="4.53281">
        <ele>445</ele>
        <time>2015-06-09T14:27:17Z</time>
      </trkpt>
      <trkpt lat="45.83324" lon="4.53289">
        <ele>445</ele>
        <time>2015-06-09T14:27:19Z</time>
      </trkpt>
      <trkpt lat="45.83322" lon="4.53298">
        <ele>445</ele>
        <time>2015-06-09T14:27:21Z</time>
      </trkpt>
      <trkpt lat="45.8332" lon="4.53306">
        <ele>445</ele>
        <time>2015-06-09T14:27:23Z</time>
      </trkpt>
      <trkpt lat="45.83318" lon="4.53315">
        <ele>445</ele>
        <time>2015-06-09T14:27:25Z</time>
      </trkpt>
      <trkpt lat="45.83316" lon="4.53323">
        <ele>445</ele>
        <time>2015-06-09T14:27:27Z</time>
      </trkpt>
      <trkpt lat="45.83315" lon="4.5333">
        <ele>445</ele>
        <time>2015-06-09T14:27:29Z</time>
      </trkpt>
      <trkpt lat="45.83313" lon="4.53338">
        <ele>445</ele>
        <time>2015-06-09T14:27:31Z</time>
      </trkpt>
      <trkpt lat="45.83311" lon="4.53346">
        <ele>445</ele>
        <time>2015-06-09T14:27:33Z</time>
      </trkpt>
      <trkpt lat="45.83308" lon="4.53353">
        <ele>444</ele>
        <time>2015-06-09T14:27:35Z</time>
      </trkpt>
      <trkpt lat="45.83306" lon="4.5336">
        <ele>444</ele>
        <time>2015-06-09T14:27:37Z</time>
      </trkpt>
      <trkpt lat="45.83305" lon="4.53367">
        <ele>444</ele>
        <time>2015-06-09T14:27:39Z</time>
      </trkpt>
      <trkpt lat="45.83304" lon="4.53375">
        <ele>445</ele>
        <time>2015-06-09T14:27:41Z</time>
      </trkpt>
      <trkpt lat="45.83303" lon="4.53383">
        <ele>445</ele>
        <time>2015-06-09T14:27:43Z</time>
      </trkpt>
      <trkpt lat="45.83303" lon="4.5339">
        <ele>445</ele>
        <time>2015-06-09T14:27:45Z</time>
      </trkpt>
      <trkpt lat="45.83303" lon="4.53398">
        <ele>445</ele>
        <time>2015-06-09T14:27:47Z</time>
      </trkpt>
      <trkpt lat="45.83304" lon="4.53406">
        <ele>445</ele>
        <time>2015-06-09T14:27:49Z</time>
      </trkpt>
      <trkpt lat="45.83305" lon="4.53413">
        <ele>445</ele>
        <time>2015-06-09T14:27:51Z</time>
      </trkpt>
      <trkpt lat="45.83306" lon="4.53421">
        <ele>446</ele>
        <time>2015-06-09T14:27:53Z</time>
      </trkpt>
      <trkpt lat="45.83305" lon="4.5343">
        <ele>445</ele>
        <time>2015-06-09T14:27:55Z</time>
      </trkpt>
      <trkpt lat="45.83304" lon="4.53438">
        <ele>445</ele>
        <time>2015-06-09T14:27:57Z</time>
      </trkpt>
      <trkpt lat="45.83304" lon="4.53446">
        <ele>445</ele>
        <time>2015-06-09T14:27:59Z</time>
      </trkpt>
      <trkpt lat="45.83303" lon="4.53455">
        <ele>445</ele>
        <time>2015-06-09T14:28:01Z</time>
      </trkpt>
      <trkpt lat="45.83302" lon="4.53463">
        <ele>444</ele>
        <time>2015-06-09T14:28:03Z</time>
      </trkpt>
      <trkpt lat="45.83302" lon="4.53471">
        <ele>444</ele>
        <time>2015-06-09T14:28:05Z</time>
      </trkpt>
      <trkpt lat="45.83303" lon="4.53479">
        <ele>444</ele>
        <time>2015-06-09T14:28:07Z</time>
      </trkpt>
      <trkpt lat="45.83304" lon="4.53486">
        <ele>444</ele>
        <time>2015-06-09T14:28:09Z</time>
      </trkpt>
      <trkpt lat="45.83307" lon="4.53493">
        <ele>444</ele>
        <time>2015-06-09T14:28:11Z</time>
      </trkpt>
      <trkpt lat="45.83309" lon="4.53499">
        <ele>445</ele>
        <time>2015-06-09T14:28:13Z</time>
      </trkpt>
      <trkpt lat="45.83312" lon="4.53505">
        <ele>445</ele>
        <time>2015-06-09T14:28:15Z</time>
      </trkpt>
      <trkpt lat="45.83316" lon="4.53511">
        <ele>446</ele>
        <time>2015-06-09T14:28:17Z</time>
      </trkpt>
      <trkpt lat="45.8332" lon="4.53515">
        <ele>446</ele>
        <time>2015-06-09T14:28:19Z</time>
      </trkpt>
      <trkpt lat="45.83324" lon="4.53518">
        <ele>447</ele>
        <time>2015-06-09T14:28:21Z</time>
      </trkpt>
      <trkpt lat="45.8333" lon="4.53521">
        <ele>448</ele>
        <time>2015-06-09T14:28:24Z</time>
      </trkpt>
      <trkpt lat="45.83337" lon="4.53524">
        <ele>449</ele>
        <time>2015-06-09T14:28:27Z</time>
      </trkpt>
      <trkpt lat="45.83342" lon="4.53527">
        <ele>450</ele>
        <time>2015-06-09T14:28:29Z</time>
      </trkpt>
      <trkpt lat="45.83347" lon="4.53528">
        <ele>451</ele>
        <time>2015-06-09T14:28:31Z</time>
      </trkpt>
      <trkpt lat="45.83353" lon="4.53529">
        <ele>452</ele>
        <time>2015-06-09T14:28:33Z</time>
      </trkpt>
      <trkpt lat="45.83358" lon="4.53531">
        <ele>453</ele>
        <time>2015-06-09T14:28:35Z</time>
      </trkpt>
      <trkpt lat="45.83363" lon="4.53533">
        <ele>454</ele>
        <time>2015-06-09T14:28:37Z</time>
      </trkpt>
      <trkpt lat="45.83367" lon="4.53535">
        <ele>455</ele>
        <time>2015-06-09T14:28:39Z</time>
      </trkpt>
      <trkpt lat="45.83373" lon="4.53536">
        <ele>456</ele>
        <time>2015-06-09T14:28:42Z</time>
      </trkpt>
      <trkpt lat="45.83378" lon="4.53538">
        <ele>457</ele>
        <time>2015-06-09T14:28:46Z</time>
      </trkpt>
      <trkpt lat="45.83384" lon="4.5354">
        <ele>458</ele>
        <time>2015-06-09T14:28:49Z</time>
      </trkpt>
      <trkpt lat="45.8339" lon="4.53543">
        <ele>458</ele>
        <time>2015-06-09T14:28:52Z</time>
      </trkpt>
      <trkpt lat="45.83397" lon="4.53545">
        <ele>460</ele>
        <time>2015-06-09T14:28:55Z</time>
      </trkpt>
      <trkpt lat="45.83403" lon="4.53548">
        <ele>461</ele>
        <time>2015-06-09T14:28:58Z</time>
      </trkpt>
      <trkpt lat="45.83408" lon="4.53549">
        <ele>461</ele>
        <time>2015-06-09T14:29:01Z</time>
      </trkpt>
      <trkpt lat="45.83413" lon="4.53551">
        <ele>462</ele>
        <time>2015-06-09T14:29:04Z</time>
      </trkpt>
      <trkpt lat="45.83418" lon="4.53553">
        <ele>463</ele>
        <time>2015-06-09T14:29:07Z</time>
      </trkpt>
      <trkpt lat="45.83423" lon="4.53555">
        <ele>463</ele>
        <time>2015-06-09T14:29:10Z</time>
      </trkpt>
      <trkpt lat="45.83428" lon="4.53557">
        <ele>464</ele>
        <time>2015-06-09T14:29:13Z</time>
      </trkpt>
      <trkpt lat="45.83434" lon="4.53559">
        <ele>465</ele>
        <time>2015-06-09T14:29:16Z</time>
      </trkpt>
      <trkpt lat="45.8344" lon="4.53561">
        <ele>465</ele>
        <time>2015-06-09T14:29:19Z</time>
      </trkpt>
      <trkpt lat="45.83445" lon="4.53565">
        <ele>466</ele>
        <time>2015-06-09T14:29:22Z</time>
      </trkpt>
      <trkpt lat="45.8345" lon="4.53569">
        <ele>466</ele>
        <time>2015-06-09T14:29:25Z</time>
      </trkpt>
      <trkpt lat="45.83454" lon="4.53573">
        <ele>466</ele>
        <time>2015-06-09T14:29:28Z</time>
      </trkpt>
      <trkpt lat="45.83458" lon="4.53579">
        <ele>466</ele>
        <time>2015-06-09T14:29:31Z</time>
      </trkpt>
      <trkpt lat="45.83461" lon="4.53585">
        <ele>466</ele>
        <time>2015-06-09T14:29:34Z</time>
      </trkpt>
      <trkpt lat="45.83466" lon="4.53591">
        <ele>466</ele>
        <time>2015-06-09T14:29:37Z</time>
      </trkpt>
      <trkpt lat="45.8347" lon="4.53597">
        <ele>466</ele>
        <time>2015-06-09T14:29:40Z</time>
      </trkpt>
      <trkpt lat="45.83473" lon="4.53604">
        <ele>466</ele>
        <time>2015-06-09T14:29:43Z</time>
      </trkpt>
      <trkpt lat="45.83477" lon="4.53611">
        <ele>466</ele>
        <time>2015-06-09T14:29:46Z</time>
      </trkpt>
      <trkpt lat="45.8348" lon="4.53618">
        <ele>466</ele>
        <time>2015-06-09T14:29:49Z</time>
      </trkpt>
      <trkpt lat="45.83483" lon="4.53625">
        <ele>467</ele>
        <time>2015-06-09T14:29:52Z</time>
      </trkpt>
      <trkpt lat="45.83488" lon="4.53632">
        <ele>467</ele>
        <time>2015-06-09T14:29:55Z</time>
      </trkpt>
      <trkpt lat="45.83492" lon="4.53639">
        <ele>467</ele>
        <time>2015-06-09T14:29:58Z</time>
      </trkpt>
      <trkpt lat="45.83495" lon="4.53646">
        <ele>467</ele>
        <time>2015-06-09T14:30:01Z</time>
      </trkpt>
      <trkpt lat="45.83499" lon="4.53651">
        <ele>467</ele>
        <time>2015-06-09T14:30:04Z</time>
      </trkpt>
      <trkpt lat="45.83504" lon="4.53657">
        <ele>468</ele>
        <time>2015-06-09T14:30:07Z</time>
      </trkpt>
      <trkpt lat="45.83508" lon="4.53661">
        <ele>468</ele>
        <time>2015-06-09T14:30:09Z</time>
      </trkpt>
      <trkpt lat="45.83512" lon="4.53665">
        <ele>468</ele>
        <time>2015-06-09T14:30:11Z</time>
      </trkpt>
      <trkpt lat="45.83516" lon="4.53668">
        <ele>468</ele>
        <time>2015-06-09T14:30:13Z</time>
      </trkpt>
      <trkpt lat="45.8352" lon="4.53672">
        <ele>469</ele>
        <time>2015-06-09T14:30:15Z</time>
      </trkpt>
      <trkpt lat="45.83525" lon="4.53677">
        <ele>469</ele>
        <time>2015-06-09T14:30:18Z</time>
      </trkpt>
      <trkpt lat="45.8353" lon="4.5368">
        <ele>469</ele>
        <time>2015-06-09T14:30:21Z</time>
      </trkpt>
      <trkpt lat="45.83534" lon="4.53683">
        <ele>470</ele>
        <time>2015-06-09T14:30:23Z</time>
      </trkpt>
      <trkpt lat="45.8354" lon="4.53687">
        <ele>470</ele>
        <time>2015-06-09T14:30:25Z</time>
      </trkpt>
      <trkpt lat="45.83545" lon="4.53692">
        <ele>470</ele>
        <time>2015-06-09T14:30:27Z</time>
      </trkpt>
      <trkpt lat="45.83552" lon="4.53697">
        <ele>470</ele>
        <time>2015-06-09T14:30:29Z</time>
      </trkpt>
      <trkpt lat="45.83556" lon="4.53701">
        <ele>470</ele>
        <time>2015-06-09T14:30:30Z</time>
      </trkpt>
      <trkpt lat="45.83563" lon="4.53707">
        <ele>470</ele>
        <time>2015-06-09T14:30:32Z</time>
      </trkpt>
      <trkpt lat="45.83571" lon="4.53714">
        <ele>470</ele>
        <time>2015-06-09T14:30:33Z</time>
      </trkpt>
      <trkpt lat="45.83576" lon="4.53718">
        <ele>471</ele>
        <time>2015-06-09T14:30:34Z</time>
      </trkpt>
      <trkpt lat="45.83581" lon="4.53721">
        <ele>471</ele>
        <time>2015-06-09T14:30:35Z</time>
      </trkpt>
      <trkpt lat="45.83586" lon="4.53725">
        <ele>471</ele>
        <time>2015-06-09T14:30:36Z</time>
      </trkpt>
      <trkpt lat="45.83592" lon="4.53729">
        <ele>471</ele>
        <time>2015-06-09T14:30:37Z</time>
      </trkpt>
      <trkpt lat="45.83597" lon="4.53733">
        <ele>472</ele>
        <time>2015-06-09T14:30:38Z</time>
      </trkpt>
      <trkpt lat="45.83603" lon="4.53739">
        <ele>471</ele>
        <time>2015-06-09T14:30:39Z</time>
      </trkpt>
      <trkpt lat="45.83608" lon="4.53744">
        <ele>471</ele>
        <time>2015-06-09T14:30:40Z</time>
      </trkpt>
      <trkpt lat="45.83614" lon="4.53749">
        <ele>471</ele>
        <time>2015-06-09T14:30:41Z</time>
      </trkpt>
      <trkpt lat="45.8362" lon="4.53755">
        <ele>470</ele>
        <time>2015-06-09T14:30:42Z</time>
      </trkpt>
      <trkpt lat="45.83625" lon="4.53761">
        <ele>470</ele>
        <time>2015-06-09T14:30:43Z</time>
      </trkpt>
      <trkpt lat="45.83631" lon="4.53769">
        <ele>469</ele>
        <time>2015-06-09T14:30:44Z</time>
      </trkpt>
      <trkpt lat="45.83637" lon="4.53776">
        <ele>469</ele>
        <time>2015-06-09T14:30:45Z</time>
      </trkpt>
      <trkpt lat="45.83643" lon="4.53784">
        <ele>468</ele>
        <time>2015-06-09T14:30:46Z</time>
      </trkpt>
      <trkpt lat="45.83648" lon="4.53792">
        <ele>468</ele>
        <time>2015-06-09T14:30:47Z</time>
      </trkpt>
      <trkpt lat="45.83654" lon="4.53801">
        <ele>467</ele>
        <time>2015-06-09T14:30:48Z</time>
      </trkpt>
      <trkpt lat="45.8366" lon="4.53808">
        <ele>467</ele>
        <time>2015-06-09T14:30:49Z</time>
      </trkpt>
      <trkpt lat="45.83667" lon="4.53816">
        <ele>466</ele>
        <time>2015-06-09T14:30:50Z</time>
      </trkpt>
      <trkpt lat="45.83673" lon="4.53823">
        <ele>466</ele>
        <time>2015-06-09T14:30:51Z</time>
      </trkpt>
      <trkpt lat="45.8368" lon="4.53831">
        <ele>465</ele>
        <time>2015-06-09T14:30:52Z</time>
      </trkpt>
      <trkpt lat="45.83695" lon="4.53846">
        <ele>464</ele>
        <time>2015-06-09T14:30:54Z</time>
      </trkpt>
      <trkpt lat="45.83701" lon="4.53853">
        <ele>464</ele>
        <time>2015-06-09T14:30:55Z</time>
      </trkpt>
      <trkpt lat="45.83708" lon="4.53861">
        <ele>463</ele>
        <time>2015-06-09T14:30:56Z</time>
      </trkpt>
      <trkpt lat="45.83715" lon="4.53868">
        <ele>463</ele>
        <time>2015-06-09T14:30:57Z</time>
      </trkpt>
      <trkpt lat="45.83723" lon="4.53874">
        <ele>463</ele>
        <time>2015-06-09T14:30:58Z</time>
      </trkpt>
      <trkpt lat="45.83731" lon="4.5388">
        <ele>462</ele>
        <time>2015-06-09T14:30:59Z</time>
      </trkpt>
      <trkpt lat="45.83739" lon="4.53886">
        <ele>462</ele>
        <time>2015-06-09T14:31:00Z</time>
      </trkpt>
      <trkpt lat="45.83747" lon="4.53892">
        <ele>462</ele>
        <time>2015-06-09T14:31:01Z</time>
      </trkpt>
      <trkpt lat="45.83756" lon="4.53899">
        <ele>461</ele>
        <time>2015-06-09T14:31:02Z</time>
      </trkpt>
      <trkpt lat="45.83764" lon="4.53905">
        <ele>461</ele>
        <time>2015-06-09T14:31:03Z</time>
      </trkpt>
      <trkpt lat="45.83773" lon="4.53909">
        <ele>461</ele>
        <time>2015-06-09T14:31:04Z</time>
      </trkpt>
      <trkpt lat="45.83781" lon="4.53915">
        <ele>460</ele>
        <time>2015-06-09T14:31:05Z</time>
      </trkpt>
      <trkpt lat="45.8379" lon="4.53921">
        <ele>460</ele>
        <time>2015-06-09T14:31:06Z</time>
      </trkpt>
      <trkpt lat="45.83799" lon="4.53926">
        <ele>459</ele>
        <time>2015-06-09T14:31:07Z</time>
      </trkpt>
      <trkpt lat="45.83807" lon="4.53932">
        <ele>458</ele>
        <time>2015-06-09T14:31:08Z</time>
      </trkpt>
      <trkpt lat="45.83816" lon="4.53937">
        <ele>457</ele>
        <time>2015-06-09T14:31:09Z</time>
      </trkpt>
      <trkpt lat="45.83825" lon="4.53943">
        <ele>456</ele>
        <time>2015-06-09T14:31:10Z</time>
      </trkpt>
      <trkpt lat="45.83832" lon="4.53945">
        <ele>456</ele>
        <time>2015-06-09T14:31:11Z</time>
      </trkpt>
      <trkpt lat="45.83839" lon="4.53948">
        <ele>456</ele>
        <time>2015-06-09T14:31:12Z</time>
      </trkpt>
      <trkpt lat="45.83849" lon="4.53953">
        <ele>455</ele>
        <time>2015-06-09T14:31:13Z</time>
      </trkpt>
      <trkpt lat="45.83858" lon="4.53957">
        <ele>454</ele>
        <time>2015-06-09T14:31:14Z</time>
      </trkpt>
      <trkpt lat="45.83867" lon="4.53961">
        <ele>453</ele>
        <time>2015-06-09T14:31:15Z</time>
      </trkpt>
      <trkpt lat="45.8388" lon="4.53961">
        <ele>453</ele>
        <time>2015-06-09T14:31:16Z</time>
      </trkpt>
      <trkpt lat="45.83888" lon="4.53964">
        <ele>453</ele>
        <time>2015-06-09T14:31:17Z</time>
      </trkpt>
      <trkpt lat="45.83897" lon="4.53967">
        <ele>452</ele>
        <time>2015-06-09T14:31:18Z</time>
      </trkpt>
      <trkpt lat="45.83905" lon="4.53969">
        <ele>452</ele>
        <time>2015-06-09T14:31:19Z</time>
      </trkpt>
      <trkpt lat="45.83915" lon="4.53971">
        <ele>451</ele>
        <time>2015-06-09T14:31:20Z</time>
      </trkpt>
      <trkpt lat="45.83923" lon="4.53973">
        <ele>450</ele>
        <time>2015-06-09T14:31:21Z</time>
      </trkpt>
      <trkpt lat="45.83931" lon="4.53975">
        <ele>449</ele>
        <time>2015-06-09T14:31:22Z</time>
      </trkpt>
      <trkpt lat="45.8394" lon="4.53975">
        <ele>448</ele>
        <time>2015-06-09T14:31:23Z</time>
      </trkpt>
      <trkpt lat="45.83948" lon="4.53976">
        <ele>447</ele>
        <time>2015-06-09T14:31:24Z</time>
      </trkpt>
      <trkpt lat="45.83957" lon="4.53976">
        <ele>447</ele>
        <time>2015-06-09T14:31:25Z</time>
      </trkpt>
      <trkpt lat="45.83965" lon="4.53976">
        <ele>446</ele>
        <time>2015-06-09T14:31:26Z</time>
      </trkpt>
      <trkpt lat="45.83974" lon="4.53976">
        <ele>446</ele>
        <time>2015-06-09T14:31:27Z</time>
      </trkpt>
      <trkpt lat="45.83982" lon="4.53975">
        <ele>445</ele>
        <time>2015-06-09T14:31:28Z</time>
      </trkpt>
      <trkpt lat="45.8399" lon="4.53974">
        <ele>445</ele>
        <time>2015-06-09T14:31:29Z</time>
      </trkpt>
      <trkpt lat="45.83998" lon="4.53972">
        <ele>444</ele>
        <time>2015-06-09T14:31:30Z</time>
      </trkpt>
      <trkpt lat="45.84007" lon="4.5397">
        <ele>444</ele>
        <time>2015-06-09T14:31:31Z</time>
      </trkpt>
      <trkpt lat="45.84015" lon="4.53969">
        <ele>443</ele>
        <time>2015-06-09T14:31:32Z</time>
      </trkpt>
      <trkpt lat="45.84023" lon="4.53967">
        <ele>443</ele>
        <time>2015-06-09T14:31:33Z</time>
      </trkpt>
      <trkpt lat="45.84032" lon="4.53964">
        <ele>443</ele>
        <time>2015-06-09T14:31:34Z</time>
      </trkpt>
      <trkpt lat="45.8404" lon="4.5396">
        <ele>443</ele>
        <time>2015-06-09T14:31:35Z</time>
      </trkpt>
      <trkpt lat="45.84047" lon="4.53956">
        <ele>443</ele>
        <time>2015-06-09T14:31:36Z</time>
      </trkpt>
      <trkpt lat="45.84055" lon="4.5395">
        <ele>444</ele>
        <time>2015-06-09T14:31:37Z</time>
      </trkpt>
      <trkpt lat="45.84062" lon="4.53943">
        <ele>445</ele>
        <time>2015-06-09T14:31:38Z</time>
      </trkpt>
      <trkpt lat="45.84069" lon="4.53937">
        <ele>445</ele>
        <time>2015-06-09T14:31:39Z</time>
      </trkpt>
      <trkpt lat="45.84078" lon="4.53932">
        <ele>446</ele>
        <time>2015-06-09T14:31:40Z</time>
      </trkpt>
      <trkpt lat="45.84087" lon="4.5393">
        <ele>445</ele>
        <time>2015-06-09T14:31:41Z</time>
      </trkpt>
      <trkpt lat="45.84096" lon="4.53931">
        <ele>443</ele>
        <time>2015-06-09T14:31:42Z</time>
      </trkpt>
      <trkpt lat="45.84105" lon="4.53933">
        <ele>441</ele>
        <time>2015-06-09T14:31:43Z</time>
      </trkpt>
      <trkpt lat="45.84114" lon="4.53935">
        <ele>439</ele>
        <time>2015-06-09T14:31:44Z</time>
      </trkpt>
      <trkpt lat="45.84123" lon="4.53937">
        <ele>437</ele>
        <time>2015-06-09T14:31:45Z</time>
      </trkpt>
      <trkpt lat="45.84132" lon="4.53938">
        <ele>435</ele>
        <time>2015-06-09T14:31:46Z</time>
      </trkpt>
      <trkpt lat="45.8414" lon="4.53937">
        <ele>434</ele>
        <time>2015-06-09T14:31:47Z</time>
      </trkpt>
      <trkpt lat="45.84149" lon="4.53933">
        <ele>434</ele>
        <time>2015-06-09T14:31:48Z</time>
      </trkpt>
      <trkpt lat="45.84157" lon="4.5393">
        <ele>433</ele>
        <time>2015-06-09T14:31:49Z</time>
      </trkpt>
      <trkpt lat="45.84166" lon="4.53927">
        <ele>432</ele>
        <time>2015-06-09T14:31:50Z</time>
      </trkpt>
      <trkpt lat="45.84175" lon="4.53918">
        <ele>433</ele>
        <time>2015-06-09T14:31:51Z</time>
      </trkpt>
      <trkpt lat="45.84184" lon="4.53913">
        <ele>432</ele>
        <time>2015-06-09T14:31:52Z</time>
      </trkpt>
      <trkpt lat="45.84192" lon="4.53907">
        <ele>432</ele>
        <time>2015-06-09T14:31:53Z</time>
      </trkpt>
      <trkpt lat="45.84201" lon="4.53901">
        <ele>431</ele>
        <time>2015-06-09T14:31:54Z</time>
      </trkpt>
      <trkpt lat="45.84209" lon="4.53895">
        <ele>431</ele>
        <time>2015-06-09T14:31:55Z</time>
      </trkpt>
      <trkpt lat="45.84216" lon="4.53889">
        <ele>431</ele>
        <time>2015-06-09T14:31:56Z</time>
      </trkpt>
      <trkpt lat="45.84224" lon="4.53883">
        <ele>431</ele>
        <time>2015-06-09T14:31:57Z</time>
      </trkpt>
      <trkpt lat="45.84233" lon="4.53876">
        <ele>430</ele>
        <time>2015-06-09T14:31:58Z</time>
      </trkpt>
      <trkpt lat="45.84242" lon="4.53868">
        <ele>430</ele>
        <time>2015-06-09T14:31:59Z</time>
      </trkpt>
      <trkpt lat="45.8425" lon="4.5386">
        <ele>430</ele>
        <time>2015-06-09T14:32:00Z</time>
      </trkpt>
      <trkpt lat="45.84258" lon="4.53852">
        <ele>430</ele>
        <time>2015-06-09T14:32:01Z</time>
      </trkpt>
      <trkpt lat="45.84266" lon="4.53843">
        <ele>430</ele>
        <time>2015-06-09T14:32:02Z</time>
      </trkpt>
      <trkpt lat="45.84273" lon="4.53834">
        <ele>431</ele>
        <time>2015-06-09T14:32:03Z</time>
      </trkpt>
      <trkpt lat="45.8428" lon="4.53825">
        <ele>431</ele>
        <time>2015-06-09T14:32:04Z</time>
      </trkpt>
      <trkpt lat="45.84288" lon="4.53816">
        <ele>431</ele>
        <time>2015-06-09T14:32:05Z</time>
      </trkpt>
      <trkpt lat="45.84294" lon="4.53806">
        <ele>431</ele>
        <time>2015-06-09T14:32:06Z</time>
      </trkpt>
      <trkpt lat="45.84301" lon="4.53797">
        <ele>431</ele>
        <time>2015-06-09T14:32:07Z</time>
      </trkpt>
      <trkpt lat="45.84308" lon="4.53788">
        <ele>430</ele>
        <time>2015-06-09T14:32:08Z</time>
      </trkpt>
      <trkpt lat="45.84316" lon="4.53779">
        <ele>430</ele>
        <time>2015-06-09T14:32:09Z</time>
      </trkpt>
      <trkpt lat="45.84323" lon="4.5377">
        <ele>429</ele>
        <time>2015-06-09T14:32:10Z</time>
      </trkpt>
      <trkpt lat="45.8433" lon="4.53761">
        <ele>429</ele>
        <time>2015-06-09T14:32:11Z</time>
      </trkpt>
      <trkpt lat="45.84337" lon="4.53752">
        <ele>428</ele>
        <time>2015-06-09T14:32:12Z</time>
      </trkpt>
      <trkpt lat="45.84343" lon="4.53743">
        <ele>428</ele>
        <time>2015-06-09T14:32:13Z</time>
      </trkpt>
      <trkpt lat="45.84351" lon="4.53734">
        <ele>427</ele>
        <time>2015-06-09T14:32:14Z</time>
      </trkpt>
      <trkpt lat="45.8436" lon="4.53726">
        <ele>426</ele>
        <time>2015-06-09T14:32:15Z</time>
      </trkpt>
      <trkpt lat="45.84369" lon="4.53719">
        <ele>424</ele>
        <time>2015-06-09T14:32:16Z</time>
      </trkpt>
      <trkpt lat="45.84386" lon="4.53707">
        <ele>421</ele>
        <time>2015-06-09T14:32:18Z</time>
      </trkpt>
      <trkpt lat="45.84395" lon="4.537">
        <ele>420</ele>
        <time>2015-06-09T14:32:19Z</time>
      </trkpt>
      <trkpt lat="45.84407" lon="4.53702">
        <ele>419</ele>
        <time>2015-06-09T14:32:20Z</time>
      </trkpt>
      <trkpt lat="45.84417" lon="4.53702">
        <ele>417</ele>
        <time>2015-06-09T14:32:21Z</time>
      </trkpt>
      <trkpt lat="45.84427" lon="4.53704">
        <ele>416</ele>
        <time>2015-06-09T14:32:22Z</time>
      </trkpt>
      <trkpt lat="45.84437" lon="4.53706">
        <ele>415</ele>
        <time>2015-06-09T14:32:23Z</time>
      </trkpt>
      <trkpt lat="45.84446" lon="4.53708">
        <ele>414</ele>
        <time>2015-06-09T14:32:24Z</time>
      </trkpt>
      <trkpt lat="45.84456" lon="4.53707">
        <ele>412</ele>
        <time>2015-06-09T14:32:25Z</time>
      </trkpt>
      <trkpt lat="45.84465" lon="4.53703">
        <ele>412</ele>
        <time>2015-06-09T14:32:26Z</time>
      </trkpt>
      <trkpt lat="45.84474" lon="4.53696">
        <ele>411</ele>
        <time>2015-06-09T14:32:27Z</time>
      </trkpt>
      <trkpt lat="45.84481" lon="4.53688">
        <ele>411</ele>
        <time>2015-06-09T14:32:28Z</time>
      </trkpt>
      <trkpt lat="45.84489" lon="4.5368">
        <ele>410</ele>
        <time>2015-06-09T14:32:29Z</time>
      </trkpt>
      <trkpt lat="45.84496" lon="4.5367">
        <ele>410</ele>
        <time>2015-06-09T14:32:30Z</time>
      </trkpt>
      <trkpt lat="45.84502" lon="4.53659">
        <ele>409</ele>
        <time>2015-06-09T14:32:31Z</time>
      </trkpt>
      <trkpt lat="45.84507" lon="4.53648">
        <ele>409</ele>
        <time>2015-06-09T14:32:32Z</time>
      </trkpt>
      <trkpt lat="45.84512" lon="4.53635">
        <ele>408</ele>
        <time>2015-06-09T14:32:33Z</time>
      </trkpt>
      <trkpt lat="45.84515" lon="4.53622">
        <ele>407</ele>
        <time>2015-06-09T14:32:34Z</time>
      </trkpt>
      <trkpt lat="45.84518" lon="4.53609">
        <ele>407</ele>
        <time>2015-06-09T14:32:35Z</time>
      </trkpt>
      <trkpt lat="45.84519" lon="4.53594">
        <ele>406</ele>
        <time>2015-06-09T14:32:36Z</time>
      </trkpt>
      <trkpt lat="45.84519" lon="4.5358">
        <ele>406</ele>
        <time>2015-06-09T14:32:37Z</time>
      </trkpt>
      <trkpt lat="45.84519" lon="4.53566">
        <ele>406</ele>
        <time>2015-06-09T14:32:38Z</time>
      </trkpt>
      <trkpt lat="45.84519" lon="4.53553">
        <ele>405</ele>
        <time>2015-06-09T14:32:39Z</time>
      </trkpt>
      <trkpt lat="45.84519" lon="4.5354">
        <ele>405</ele>
        <time>2015-06-09T14:32:40Z</time>
      </trkpt>
      <trkpt lat="45.84518" lon="4.53527">
        <ele>405</ele>
        <time>2015-06-09T14:32:41Z</time>
      </trkpt>
      <trkpt lat="45.84518" lon="4.53514">
        <ele>404</ele>
        <time>2015-06-09T14:32:42Z</time>
      </trkpt>
      <trkpt lat="45.84516" lon="4.53501">
        <ele>404</ele>
        <time>2015-06-09T14:32:43Z</time>
      </trkpt>
      <trkpt lat="45.84515" lon="4.53489">
        <ele>404</ele>
        <time>2015-06-09T14:32:44Z</time>
      </trkpt>
      <trkpt lat="45.84514" lon="4.53476">
        <ele>404</ele>
        <time>2015-06-09T14:32:45Z</time>
      </trkpt>
      <trkpt lat="45.84512" lon="4.53464">
        <ele>404</ele>
        <time>2015-06-09T14:32:46Z</time>
      </trkpt>
      <trkpt lat="45.8451" lon="4.53452">
        <ele>404</ele>
        <time>2015-06-09T14:32:47Z</time>
      </trkpt>
      <trkpt lat="45.84508" lon="4.5344">
        <ele>404</ele>
        <time>2015-06-09T14:32:48Z</time>
      </trkpt>
      <trkpt lat="45.84505" lon="4.53416">
        <ele>404</ele>
        <time>2015-06-09T14:32:50Z</time>
      </trkpt>
      <trkpt lat="45.84503" lon="4.53403">
        <ele>404</ele>
        <time>2015-06-09T14:32:51Z</time>
      </trkpt>
      <trkpt lat="45.84502" lon="4.53391">
        <ele>404</ele>
        <time>2015-06-09T14:32:52Z</time>
      </trkpt>
      <trkpt lat="45.84501" lon="4.53379">
        <ele>404</ele>
        <time>2015-06-09T14:32:53Z</time>
      </trkpt>
      <trkpt lat="45.84501" lon="4.53366">
        <ele>404</ele>
        <time>2015-06-09T14:32:54Z</time>
      </trkpt>
      <trkpt lat="45.845" lon="4.53354">
        <ele>404</ele>
        <time>2015-06-09T14:32:55Z</time>
      </trkpt>
      <trkpt lat="45.84501" lon="4.53342">
        <ele>404</ele>
        <time>2015-06-09T14:32:56Z</time>
      </trkpt>
      <trkpt lat="45.84502" lon="4.5333">
        <ele>404</ele>
        <time>2015-06-09T14:32:57Z</time>
      </trkpt>
      <trkpt lat="45.84505" lon="4.53318">
        <ele>404</ele>
        <time>2015-06-09T14:32:58Z</time>
      </trkpt>
      <trkpt lat="45.84506" lon="4.53307">
        <ele>404</ele>
        <time>2015-06-09T14:32:59Z</time>
      </trkpt>
      <trkpt lat="45.84508" lon="4.53295">
        <ele>404</ele>
        <time>2015-06-09T14:33:00Z</time>
      </trkpt>
      <trkpt lat="45.84509" lon="4.53285">
        <ele>404</ele>
        <time>2015-06-09T14:33:01Z</time>
      </trkpt>
      <trkpt lat="45.84511" lon="4.53274">
        <ele>405</ele>
        <time>2015-06-09T14:33:02Z</time>
      </trkpt>
      <trkpt lat="45.84513" lon="4.53263">
        <ele>405</ele>
        <time>2015-06-09T14:33:03Z</time>
      </trkpt>
      <trkpt lat="45.84514" lon="4.53253">
        <ele>405</ele>
        <time>2015-06-09T14:33:04Z</time>
      </trkpt>
      <trkpt lat="45.84516" lon="4.53243">
        <ele>405</ele>
        <time>2015-06-09T14:33:05Z</time>
      </trkpt>
      <trkpt lat="45.84518" lon="4.53234">
        <ele>405</ele>
        <time>2015-06-09T14:33:06Z</time>
      </trkpt>
      <trkpt lat="45.8452" lon="4.53224">
        <ele>405</ele>
        <time>2015-06-09T14:33:07Z</time>
      </trkpt>
      <trkpt lat="45.84523" lon="4.53216">
        <ele>405</ele>
        <time>2015-06-09T14:33:08Z</time>
      </trkpt>
      <trkpt lat="45.84526" lon="4.53208">
        <ele>406</ele>
        <time>2015-06-09T14:33:09Z</time>
      </trkpt>
      <trkpt lat="45.84531" lon="4.532">
        <ele>406</ele>
        <time>2015-06-09T14:33:10Z</time>
      </trkpt>
      <trkpt lat="45.84534" lon="4.53193">
        <ele>406</ele>
        <time>2015-06-09T14:33:11Z</time>
      </trkpt>
      <trkpt lat="45.84538" lon="4.53186">
        <ele>406</ele>
        <time>2015-06-09T14:33:12Z</time>
      </trkpt>
      <trkpt lat="45.84543" lon="4.53181">
        <ele>407</ele>
        <time>2015-06-09T14:33:13Z</time>
      </trkpt>
      <trkpt lat="45.84547" lon="4.53175">
        <ele>407</ele>
        <time>2015-06-09T14:33:14Z</time>
      </trkpt>
      <trkpt lat="45.84551" lon="4.53167">
        <ele>407</ele>
        <time>2015-06-09T14:33:15Z</time>
      </trkpt>
      <trkpt lat="45.84555" lon="4.53162">
        <ele>407</ele>
        <time>2015-06-09T14:33:16Z</time>
      </trkpt>
      <trkpt lat="45.84559" lon="4.53158">
        <ele>408</ele>
        <time>2015-06-09T14:33:17Z</time>
      </trkpt>
      <trkpt lat="45.84563" lon="4.53155">
        <ele>408</ele>
        <time>2015-06-09T14:33:18Z</time>
      </trkpt>
      <trkpt lat="45.84568" lon="4.53152">
        <ele>408</ele>
        <time>2015-06-09T14:33:19Z</time>
      </trkpt>
      <trkpt lat="45.84573" lon="4.53149">
        <ele>408</ele>
        <time>2015-06-09T14:33:20Z</time>
      </trkpt>
      <trkpt lat="45.84579" lon="4.53144">
        <ele>408</ele>
        <time>2015-06-09T14:33:21Z</time>
      </trkpt>
      <trkpt lat="45.84585" lon="4.53141">
        <ele>408</ele>
        <time>2015-06-09T14:33:22Z</time>
      </trkpt>
      <trkpt lat="45.8459" lon="4.53138">
        <ele>408</ele>
        <time>2015-06-09T14:33:23Z</time>
      </trkpt>
      <trkpt lat="45.84594" lon="4.53135">
        <ele>408</ele>
        <time>2015-06-09T14:33:24Z</time>
      </trkpt>
      <trkpt lat="45.84599" lon="4.53134">
        <ele>409</ele>
        <time>2015-06-09T14:33:25Z</time>
      </trkpt>
      <trkpt lat="45.84603" lon="4.53132">
        <ele>409</ele>
        <time>2015-06-09T14:33:26Z</time>
      </trkpt>
      <trkpt lat="45.84608" lon="4.53128">
        <ele>409</ele>
        <time>2015-06-09T14:33:27Z</time>
      </trkpt>
      <trkpt lat="45.84616" lon="4.53124">
        <ele>409</ele>
        <time>2015-06-09T14:33:29Z</time>
      </trkpt>
      <trkpt lat="45.8462" lon="4.5312">
        <ele>410</ele>
        <time>2015-06-09T14:33:30Z</time>
      </trkpt>
      <trkpt lat="45.84625" lon="4.53118">
        <ele>410</ele>
        <time>2015-06-09T14:33:31Z</time>
      </trkpt>
      <trkpt lat="45.84633" lon="4.53112">
        <ele>410</ele>
        <time>2015-06-09T14:33:33Z</time>
      </trkpt>
      <trkpt lat="45.84637" lon="4.53109">
        <ele>411</ele>
        <time>2015-06-09T14:33:34Z</time>
      </trkpt>
      <trkpt lat="45.84641" lon="4.53107">
        <ele>411</ele>
        <time>2015-06-09T14:33:35Z</time>
      </trkpt>
      <trkpt lat="45.84645" lon="4.53104">
        <ele>411</ele>
        <time>2015-06-09T14:33:36Z</time>
      </trkpt>
      <trkpt lat="45.84654" lon="4.531">
        <ele>411</ele>
        <time>2015-06-09T14:33:38Z</time>
      </trkpt>
      <trkpt lat="45.84658" lon="4.53098">
        <ele>411</ele>
        <time>2015-06-09T14:33:39Z</time>
      </trkpt>
      <trkpt lat="45.84665" lon="4.53093">
        <ele>412</ele>
        <time>2015-06-09T14:33:41Z</time>
      </trkpt>
      <trkpt lat="45.8467" lon="4.53091">
        <ele>412</ele>
        <time>2015-06-09T14:33:42Z</time>
      </trkpt>
      <trkpt lat="45.84678" lon="4.53087">
        <ele>412</ele>
        <time>2015-06-09T14:33:44Z</time>
      </trkpt>
      <trkpt lat="45.84685" lon="4.53083">
        <ele>412</ele>
        <time>2015-06-09T14:33:46Z</time>
      </trkpt>
      <trkpt lat="45.84692" lon="4.53079">
        <ele>412</ele>
        <time>2015-06-09T14:33:48Z</time>
      </trkpt>
      <trkpt lat="45.84698" lon="4.53075">
        <ele>412</ele>
        <time>2015-06-09T14:33:50Z</time>
      </trkpt>
      <trkpt lat="45.84703" lon="4.53071">
        <ele>412</ele>
        <time>2015-06-09T14:33:52Z</time>
      </trkpt>
      <trkpt lat="45.84708" lon="4.53067">
        <ele>412</ele>
        <time>2015-06-09T14:33:54Z</time>
      </trkpt>
      <trkpt lat="45.84713" lon="4.53065">
        <ele>412</ele>
        <time>2015-06-09T14:33:56Z</time>
      </trkpt>
      <trkpt lat="45.84718" lon="4.53064">
        <ele>412</ele>
        <time>2015-06-09T14:33:58Z</time>
      </trkpt>
      <trkpt lat="45.84723" lon="4.53065">
        <ele>412</ele>
        <time>2015-06-09T14:34:01Z</time>
      </trkpt>
      <trkpt lat="45.84728" lon="4.53062">
        <ele>413</ele>
        <time>2015-06-09T14:34:04Z</time>
      </trkpt>
      <trkpt lat="45.84731" lon="4.53056">
        <ele>413</ele>
        <time>2015-06-09T14:34:09Z</time>
      </trkpt>
      <trkpt lat="45.84733" lon="4.53054">
        <ele>413</ele>
        <time>2015-06-09T14:34:28Z</time>
      </trkpt>
      <trkpt lat="45.84733" lon="4.53053">
        <ele>413</ele>
        <time>2015-06-09T14:34:44Z</time>
      </trkpt>
      <trkpt lat="45.84733" lon="4.53053">
        <ele>413</ele>
        <time>2015-06-09T14:34:59Z</time>
      </trkpt>
      <trkpt lat="45.84733" lon="4.53053">
        <ele>413</ele>
        <time>2015-06-09T14:35:15Z</time>
      </trkpt>
      <trkpt lat="45.84733" lon="4.53053">
        <ele>413</ele>
        <time>2015-06-09T14:35:30Z</time>
      </trkpt>
      <trkpt lat="45.84733" lon="4.53053">
        <ele>413</ele>
        <time>2015-06-09T14:35:45Z</time>
      </trkpt>
      <trkpt lat="45.84733" lon="4.53053">
        <ele>413</ele>
        <time>2015-06-09T14:36:00Z</time>
      </trkpt>
      <trkpt lat="45.8469" lon="4.53088">
        <ele>411</ele>
        <time>2015-06-09T14:38:16Z</time>
      </trkpt>
      <trkpt lat="45.84693" lon="4.53096">
        <ele>411</ele>
        <time>2015-06-09T14:38:19Z</time>
      </trkpt>
      <trkpt lat="45.84694" lon="4.53103">
        <ele>410</ele>
        <time>2015-06-09T14:38:22Z</time>
      </trkpt>
      <trkpt lat="45.84695" lon="4.5311">
        <ele>410</ele>
        <time>2015-06-09T14:38:26Z</time>
      </trkpt>
      <trkpt lat="45.84699" lon="4.53118">
        <ele>409</ele>
        <time>2015-06-09T14:38:29Z</time>
      </trkpt>
      <trkpt lat="45.84703" lon="4.53123">
        <ele>409</ele>
        <time>2015-06-09T14:38:31Z</time>
      </trkpt>
      <trkpt lat="45.84707" lon="4.53128">
        <ele>409</ele>
        <time>2015-06-09T14:38:33Z</time>
      </trkpt>
      <trkpt lat="45.84709" lon="4.53135">
        <ele>408</ele>
        <time>2015-06-09T14:38:36Z</time>
      </trkpt>
      <trkpt lat="45.84716" lon="4.5314">
        <ele>408</ele>
        <time>2015-06-09T14:38:39Z</time>
      </trkpt>
      <trkpt lat="45.84723" lon="4.5314">
        <ele>407</ele>
        <time>2015-06-09T14:38:41Z</time>
      </trkpt>
      <trkpt lat="45.84729" lon="4.5314">
        <ele>407</ele>
        <time>2015-06-09T14:38:43Z</time>
      </trkpt>
      <trkpt lat="45.84734" lon="4.5314">
        <ele>407</ele>
        <time>2015-06-09T14:38:45Z</time>
      </trkpt>
      <trkpt lat="45.8474" lon="4.53139">
        <ele>407</ele>
        <time>2015-06-09T14:38:48Z</time>
      </trkpt>
      <trkpt lat="45.84745" lon="4.53138">
        <ele>407</ele>
        <time>2015-06-09T14:38:51Z</time>
      </trkpt>
      <trkpt lat="45.84751" lon="4.53136">
        <ele>406</ele>
        <time>2015-06-09T14:38:55Z</time>
      </trkpt>
      <trkpt lat="45.84757" lon="4.53136">
        <ele>406</ele>
        <time>2015-06-09T14:38:59Z</time>
      </trkpt>
      <trkpt lat="45.84762" lon="4.53135">
        <ele>406</ele>
        <time>2015-06-09T14:39:03Z</time>
      </trkpt>
      <trkpt lat="45.84767" lon="4.53138">
        <ele>405</ele>
        <time>2015-06-09T14:39:07Z</time>
      </trkpt>
      <trkpt lat="45.84771" lon="4.5314">
        <ele>405</ele>
        <time>2015-06-09T14:39:11Z</time>
      </trkpt>
      <trkpt lat="45.84776" lon="4.53142">
        <ele>405</ele>
        <time>2015-06-09T14:39:15Z</time>
      </trkpt>
      <trkpt lat="45.84781" lon="4.53141">
        <ele>404</ele>
        <time>2015-06-09T14:39:19Z</time>
      </trkpt>
      <trkpt lat="45.84787" lon="4.53139">
        <ele>404</ele>
        <time>2015-06-09T14:39:23Z</time>
      </trkpt>
      <trkpt lat="45.84792" lon="4.53139">
        <ele>404</ele>
        <time>2015-06-09T14:39:27Z</time>
      </trkpt>
      <trkpt lat="45.84797" lon="4.53141">
        <ele>404</ele>
        <time>2015-06-09T14:39:31Z</time>
      </trkpt>
      <trkpt lat="45.84802" lon="4.53142">
        <ele>403</ele>
        <time>2015-06-09T14:39:35Z</time>
      </trkpt>
      <trkpt lat="45.84807" lon="4.53143">
        <ele>403</ele>
        <time>2015-06-09T14:39:40Z</time>
      </trkpt>
      <trkpt lat="45.84812" lon="4.53144">
        <ele>403</ele>
        <time>2015-06-09T14:39:44Z</time>
      </trkpt>
      <trkpt lat="45.84817" lon="4.53145">
        <ele>402</ele>
        <time>2015-06-09T14:39:49Z</time>
      </trkpt>
      <trkpt lat="45.84822" lon="4.53147">
        <ele>402</ele>
        <time>2015-06-09T14:39:53Z</time>
      </trkpt>
      <trkpt lat="45.84827" lon="4.53148">
        <ele>402</ele>
        <time>2015-06-09T14:39:57Z</time>
      </trkpt>
      <trkpt lat="45.84832" lon="4.53149">
        <ele>401</ele>
        <time>2015-06-09T14:40:01Z</time>
      </trkpt>
      <trkpt lat="45.84836" lon="4.53151">
        <ele>401</ele>
        <time>2015-06-09T14:40:05Z</time>
      </trkpt>
      <trkpt lat="45.8484" lon="4.53152">
        <ele>400</ele>
        <time>2015-06-09T14:40:18Z</time>
      </trkpt>
      <trkpt lat="45.84845" lon="4.53157">
        <ele>400</ele>
        <time>2015-06-09T14:40:24Z</time>
      </trkpt>
      <trkpt lat="45.8485" lon="4.53156">
        <ele>400</ele>
        <time>2015-06-09T14:40:27Z</time>
      </trkpt>
      <trkpt lat="45.84855" lon="4.53155">
        <ele>399</ele>
        <time>2015-06-09T14:40:31Z</time>
      </trkpt>
      <trkpt lat="45.84861" lon="4.53155">
        <ele>399</ele>
        <time>2015-06-09T14:40:35Z</time>
      </trkpt>
      <trkpt lat="45.84865" lon="4.53155">
        <ele>399</ele>
        <time>2015-06-09T14:40:38Z</time>
      </trkpt>
      <trkpt lat="45.8487" lon="4.53157">
        <ele>398</ele>
        <time>2015-06-09T14:40:42Z</time>
      </trkpt>
      <trkpt lat="45.84874" lon="4.53159">
        <ele>398</ele>
        <time>2015-06-09T14:40:46Z</time>
      </trkpt>
      <trkpt lat="45.84879" lon="4.53161">
        <ele>398</ele>
        <time>2015-06-09T14:40:50Z</time>
      </trkpt>
      <trkpt lat="45.84884" lon="4.53162">
        <ele>397</ele>
        <time>2015-06-09T14:40:54Z</time>
      </trkpt>
      <trkpt lat="45.84889" lon="4.53166">
        <ele>397</ele>
        <time>2015-06-09T14:40:59Z</time>
      </trkpt>
      <trkpt lat="45.84894" lon="4.53169">
        <ele>396</ele>
        <time>2015-06-09T14:41:04Z</time>
      </trkpt>
      <trkpt lat="45.84898" lon="4.53171">
        <ele>396</ele>
        <time>2015-06-09T14:41:08Z</time>
      </trkpt>
      <trkpt lat="45.84903" lon="4.53174">
        <ele>395</ele>
        <time>2015-06-09T14:41:12Z</time>
      </trkpt>
      <trkpt lat="45.84906" lon="4.53179">
        <ele>395</ele>
        <time>2015-06-09T14:41:17Z</time>
      </trkpt>
      <trkpt lat="45.8491" lon="4.53185">
        <ele>394</ele>
        <time>2015-06-09T14:41:22Z</time>
      </trkpt>
      <trkpt lat="45.84914" lon="4.53189">
        <ele>393</ele>
        <time>2015-06-09T14:41:27Z</time>
      </trkpt>
      <trkpt lat="45.84919" lon="4.53193">
        <ele>393</ele>
        <time>2015-06-09T14:41:32Z</time>
      </trkpt>
      <trkpt lat="45.84924" lon="4.53196">
        <ele>392</ele>
        <time>2015-06-09T14:41:37Z</time>
      </trkpt>
      <trkpt lat="45.84928" lon="4.53199">
        <ele>392</ele>
        <time>2015-06-09T14:41:42Z</time>
      </trkpt>
      <trkpt lat="45.84932" lon="4.532">
        <ele>391</ele>
        <time>2015-06-09T14:41:46Z</time>
      </trkpt>
      <trkpt lat="45.84938" lon="4.53201">
        <ele>391</ele>
        <time>2015-06-09T14:41:50Z</time>
      </trkpt>
      <trkpt lat="45.84943" lon="4.53202">
        <ele>391</ele>
        <time>2015-06-09T14:41:54Z</time>
      </trkpt>
      <trkpt lat="45.84948" lon="4.53203">
        <ele>390</ele>
        <time>2015-06-09T14:41:58Z</time>
      </trkpt>
      <trkpt lat="45.84954" lon="4.53204">
        <ele>390</ele>
        <time>2015-06-09T14:42:02Z</time>
      </trkpt>
      <trkpt lat="45.84959" lon="4.53204">
        <ele>389</ele>
        <time>2015-06-09T14:42:06Z</time>
      </trkpt>
      <trkpt lat="45.84964" lon="4.53202">
        <ele>389</ele>
        <time>2015-06-09T14:42:10Z</time>
      </trkpt>
      <trkpt lat="45.84969" lon="4.53201">
        <ele>389</ele>
        <time>2015-06-09T14:42:14Z</time>
      </trkpt>
      <trkpt lat="45.84974" lon="4.532">
        <ele>388</ele>
        <time>2015-06-09T14:42:18Z</time>
      </trkpt>
      <trkpt lat="45.84975" lon="4.532">
        <ele>388</ele>
        <time>2015-06-09T14:42:46Z</time>
      </trkpt>
      <trkpt lat="45.84975" lon="4.532">
        <ele>388</ele>
        <time>2015-06-09T14:43:02Z</time>
      </trkpt>
      <trkpt lat="45.84976" lon="4.53202">
        <ele>388</ele>
        <time>2015-06-09T14:43:18Z</time>
      </trkpt>
      <trkpt lat="45.84981" lon="4.53195">
        <ele>388</ele>
        <time>2015-06-09T14:43:30Z</time>
      </trkpt>
      <trkpt lat="45.84988" lon="4.53192">
        <ele>388</ele>
        <time>2015-06-09T14:43:32Z</time>
      </trkpt>
      <trkpt lat="45.84996" lon="4.53189">
        <ele>388</ele>
        <time>2015-06-09T14:43:34Z</time>
      </trkpt>
      <trkpt lat="45.85001" lon="4.53187">
        <ele>388</ele>
        <time>2015-06-09T14:43:35Z</time>
      </trkpt>
      <trkpt lat="45.85008" lon="4.53185">
        <ele>388</ele>
        <time>2015-06-09T14:43:36Z</time>
      </trkpt>
      <trkpt lat="45.85012" lon="4.53183">
        <ele>387</ele>
        <time>2015-06-09T14:43:37Z</time>
      </trkpt>
      <trkpt lat="45.85018" lon="4.5318">
        <ele>387</ele>
        <time>2015-06-09T14:43:38Z</time>
      </trkpt>
      <trkpt lat="45.85024" lon="4.53178">
        <ele>387</ele>
        <time>2015-06-09T14:43:39Z</time>
      </trkpt>
      <trkpt lat="45.8503" lon="4.53175">
        <ele>386</ele>
        <time>2015-06-09T14:43:40Z</time>
      </trkpt>
      <trkpt lat="45.85037" lon="4.53172">
        <ele>386</ele>
        <time>2015-06-09T14:43:41Z</time>
      </trkpt>
      <trkpt lat="45.85043" lon="4.53169">
        <ele>385</ele>
        <time>2015-06-09T14:43:42Z</time>
      </trkpt>
      <trkpt lat="45.85049" lon="4.53165">
        <ele>385</ele>
        <time>2015-06-09T14:43:43Z</time>
      </trkpt>
      <trkpt lat="45.85056" lon="4.53162">
        <ele>385</ele>
        <time>2015-06-09T14:43:44Z</time>
      </trkpt>
      <trkpt lat="45.85062" lon="4.53159">
        <ele>384</ele>
        <time>2015-06-09T14:43:45Z</time>
      </trkpt>
      <trkpt lat="45.85069" lon="4.53154">
        <ele>384</ele>
        <time>2015-06-09T14:43:46Z</time>
      </trkpt>
      <trkpt lat="45.85075" lon="4.53149">
        <ele>383</ele>
        <time>2015-06-09T14:43:47Z</time>
      </trkpt>
      <trkpt lat="45.85081" lon="4.53143">
        <ele>382</ele>
        <time>2015-06-09T14:43:48Z</time>
      </trkpt>
      <trkpt lat="45.85087" lon="4.53136">
        <ele>382</ele>
        <time>2015-06-09T14:43:49Z</time>
      </trkpt>
      <trkpt lat="45.85093" lon="4.53128">
        <ele>381</ele>
        <time>2015-06-09T14:43:50Z</time>
      </trkpt>
      <trkpt lat="45.85099" lon="4.53119">
        <ele>380</ele>
        <time>2015-06-09T14:43:51Z</time>
      </trkpt>
      <trkpt lat="45.85104" lon="4.5311">
        <ele>379</ele>
        <time>2015-06-09T14:43:52Z</time>
      </trkpt>
      <trkpt lat="45.85109" lon="4.53099">
        <ele>379</ele>
        <time>2015-06-09T14:43:53Z</time>
      </trkpt>
      <trkpt lat="45.85114" lon="4.53089">
        <ele>378</ele>
        <time>2015-06-09T14:43:54Z</time>
      </trkpt>
      <trkpt lat="45.85119" lon="4.53077">
        <ele>378</ele>
        <time>2015-06-09T14:43:55Z</time>
      </trkpt>
      <trkpt lat="45.85124" lon="4.53066">
        <ele>378</ele>
        <time>2015-06-09T14:43:56Z</time>
      </trkpt>
      <trkpt lat="45.85128" lon="4.53055">
        <ele>377</ele>
        <time>2015-06-09T14:43:57Z</time>
      </trkpt>
      <trkpt lat="45.85133" lon="4.53044">
        <ele>377</ele>
        <time>2015-06-09T14:43:58Z</time>
      </trkpt>
      <trkpt lat="45.85138" lon="4.53032">
        <ele>376</ele>
        <time>2015-06-09T14:43:59Z</time>
      </trkpt>
      <trkpt lat="45.85146" lon="4.53007">
        <ele>376</ele>
        <time>2015-06-09T14:44:01Z</time>
      </trkpt>
      <trkpt lat="45.85148" lon="4.52993">
        <ele>376</ele>
        <time>2015-06-09T14:44:02Z</time>
      </trkpt>
      <trkpt lat="45.8515" lon="4.5298">
        <ele>377</ele>
        <time>2015-06-09T14:44:03Z</time>
      </trkpt>
      <trkpt lat="45.85152" lon="4.52968">
        <ele>377</ele>
        <time>2015-06-09T14:44:04Z</time>
      </trkpt>
      <trkpt lat="45.85155" lon="4.52954">
        <ele>377</ele>
        <time>2015-06-09T14:44:05Z</time>
      </trkpt>
      <trkpt lat="45.85158" lon="4.5294">
        <ele>378</ele>
        <time>2015-06-09T14:44:06Z</time>
      </trkpt>
      <trkpt lat="45.85161" lon="4.5293">
        <ele>378</ele>
        <time>2015-06-09T14:44:07Z</time>
      </trkpt>
      <trkpt lat="45.85165" lon="4.52919">
        <ele>378</ele>
        <time>2015-06-09T14:44:08Z</time>
      </trkpt>
      <trkpt lat="45.85169" lon="4.5291">
        <ele>378</ele>
        <time>2015-06-09T14:44:09Z</time>
      </trkpt>
      <trkpt lat="45.85176" lon="4.52904">
        <ele>378</ele>
        <time>2015-06-09T14:44:10Z</time>
      </trkpt>
      <trkpt lat="45.85191" lon="4.52903">
        <ele>376</ele>
        <time>2015-06-09T14:44:12Z</time>
      </trkpt>
      <trkpt lat="45.85198" lon="4.52908">
        <ele>375</ele>
        <time>2015-06-09T14:44:13Z</time>
      </trkpt>
      <trkpt lat="45.85205" lon="4.52916">
        <ele>374</ele>
        <time>2015-06-09T14:44:14Z</time>
      </trkpt>
      <trkpt lat="45.85211" lon="4.52925">
        <ele>373</ele>
        <time>2015-06-09T14:44:15Z</time>
      </trkpt>
      <trkpt lat="45.85216" lon="4.52933">
        <ele>372</ele>
        <time>2015-06-09T14:44:16Z</time>
      </trkpt>
      <trkpt lat="45.85222" lon="4.52943">
        <ele>371</ele>
        <time>2015-06-09T14:44:17Z</time>
      </trkpt>
      <trkpt lat="45.85226" lon="4.52953">
        <ele>371</ele>
        <time>2015-06-09T14:44:18Z</time>
      </trkpt>
      <trkpt lat="45.85232" lon="4.52963">
        <ele>370</ele>
        <time>2015-06-09T14:44:19Z</time>
      </trkpt>
      <trkpt lat="45.85237" lon="4.52973">
        <ele>369</ele>
        <time>2015-06-09T14:44:20Z</time>
      </trkpt>
      <trkpt lat="45.85243" lon="4.52983">
        <ele>368</ele>
        <time>2015-06-09T14:44:21Z</time>
      </trkpt>
      <trkpt lat="45.85249" lon="4.52993">
        <ele>368</ele>
        <time>2015-06-09T14:44:22Z</time>
      </trkpt>
      <trkpt lat="45.85254" lon="4.53003">
        <ele>367</ele>
        <time>2015-06-09T14:44:23Z</time>
      </trkpt>
      <trkpt lat="45.8526" lon="4.53014">
        <ele>366</ele>
        <time>2015-06-09T14:44:24Z</time>
      </trkpt>
      <trkpt lat="45.85266" lon="4.53025">
        <ele>365</ele>
        <time>2015-06-09T14:44:25Z</time>
      </trkpt>
      <trkpt lat="45.85272" lon="4.53036">
        <ele>365</ele>
        <time>2015-06-09T14:44:26Z</time>
      </trkpt>
      <trkpt lat="45.85278" lon="4.53047">
        <ele>364</ele>
        <time>2015-06-09T14:44:27Z</time>
      </trkpt>
      <trkpt lat="45.85284" lon="4.53058">
        <ele>363</ele>
        <time>2015-06-09T14:44:28Z</time>
      </trkpt>
      <trkpt lat="45.8529" lon="4.53069">
        <ele>363</ele>
        <time>2015-06-09T14:44:29Z</time>
      </trkpt>
      <trkpt lat="45.85296" lon="4.5308">
        <ele>362</ele>
        <time>2015-06-09T14:44:30Z</time>
      </trkpt>
      <trkpt lat="45.85301" lon="4.5309">
        <ele>362</ele>
        <time>2015-06-09T14:44:31Z</time>
      </trkpt>
      <trkpt lat="45.85307" lon="4.531">
        <ele>361</ele>
        <time>2015-06-09T14:44:32Z</time>
      </trkpt>
      <trkpt lat="45.85318" lon="4.5312">
        <ele>360</ele>
        <time>2015-06-09T14:44:34Z</time>
      </trkpt>
      <trkpt lat="45.85324" lon="4.5313">
        <ele>359</ele>
        <time>2015-06-09T14:44:35Z</time>
      </trkpt>
      <trkpt lat="45.85329" lon="4.5314">
        <ele>358</ele>
        <time>2015-06-09T14:44:36Z</time>
      </trkpt>
      <trkpt lat="45.85335" lon="4.5315">
        <ele>358</ele>
        <time>2015-06-09T14:44:37Z</time>
      </trkpt>
      <trkpt lat="45.85341" lon="4.5316">
        <ele>357</ele>
        <time>2015-06-09T14:44:38Z</time>
      </trkpt>
      <trkpt lat="45.85347" lon="4.53171">
        <ele>356</ele>
        <time>2015-06-09T14:44:39Z</time>
      </trkpt>
      <trkpt lat="45.85352" lon="4.53181">
        <ele>355</ele>
        <time>2015-06-09T14:44:40Z</time>
      </trkpt>
      <trkpt lat="45.85358" lon="4.53191">
        <ele>354</ele>
        <time>2015-06-09T14:44:41Z</time>
      </trkpt>
      <trkpt lat="45.85363" lon="4.53201">
        <ele>354</ele>
        <time>2015-06-09T14:44:42Z</time>
      </trkpt>
      <trkpt lat="45.85369" lon="4.53211">
        <ele>354</ele>
        <time>2015-06-09T14:44:43Z</time>
      </trkpt>
      <trkpt lat="45.85375" lon="4.53221">
        <ele>353</ele>
        <time>2015-06-09T14:44:44Z</time>
      </trkpt>
      <trkpt lat="45.85381" lon="4.53231">
        <ele>353</ele>
        <time>2015-06-09T14:44:45Z</time>
      </trkpt>
      <trkpt lat="45.85386" lon="4.53242">
        <ele>352</ele>
        <time>2015-06-09T14:44:46Z</time>
      </trkpt>
      <trkpt lat="45.85392" lon="4.53252">
        <ele>351</ele>
        <time>2015-06-09T14:44:47Z</time>
      </trkpt>
      <trkpt lat="45.85397" lon="4.53262">
        <ele>351</ele>
        <time>2015-06-09T14:44:48Z</time>
      </trkpt>
      <trkpt lat="45.85403" lon="4.53272">
        <ele>350</ele>
        <time>2015-06-09T14:44:49Z</time>
      </trkpt>
      <trkpt lat="45.85409" lon="4.53282">
        <ele>349</ele>
        <time>2015-06-09T14:44:50Z</time>
      </trkpt>
      <trkpt lat="45.85415" lon="4.53292">
        <ele>348</ele>
        <time>2015-06-09T14:44:51Z</time>
      </trkpt>
      <trkpt lat="45.85422" lon="4.53301">
        <ele>348</ele>
        <time>2015-06-09T14:44:52Z</time>
      </trkpt>
      <trkpt lat="45.8543" lon="4.53308">
        <ele>348</ele>
        <time>2015-06-09T14:44:53Z</time>
      </trkpt>
      <trkpt lat="45.85437" lon="4.53315">
        <ele>347</ele>
        <time>2015-06-09T14:44:54Z</time>
      </trkpt>
      <trkpt lat="45.85446" lon="4.5332">
        <ele>347</ele>
        <time>2015-06-09T14:44:55Z</time>
      </trkpt>
      <trkpt lat="45.85454" lon="4.53326">
        <ele>347</ele>
        <time>2015-06-09T14:44:56Z</time>
      </trkpt>
      <trkpt lat="45.85463" lon="4.53331">
        <ele>347</ele>
        <time>2015-06-09T14:44:57Z</time>
      </trkpt>
      <trkpt lat="45.85472" lon="4.53336">
        <ele>347</ele>
        <time>2015-06-09T14:44:58Z</time>
      </trkpt>
      <trkpt lat="45.85481" lon="4.53342">
        <ele>346</ele>
        <time>2015-06-09T14:44:59Z</time>
      </trkpt>
      <trkpt lat="45.85489" lon="4.53347">
        <ele>346</ele>
        <time>2015-06-09T14:45:00Z</time>
      </trkpt>
      <trkpt lat="45.85497" lon="4.53353">
        <ele>345</ele>
        <time>2015-06-09T14:45:01Z</time>
      </trkpt>
      <trkpt lat="45.85506" lon="4.53359">
        <ele>345</ele>
        <time>2015-06-09T14:45:02Z</time>
      </trkpt>
      <trkpt lat="45.85515" lon="4.53364">
        <ele>344</ele>
        <time>2015-06-09T14:45:03Z</time>
      </trkpt>
      <trkpt lat="45.85523" lon="4.53369">
        <ele>344</ele>
        <time>2015-06-09T14:45:04Z</time>
      </trkpt>
      <trkpt lat="45.85532" lon="4.53375">
        <ele>343</ele>
        <time>2015-06-09T14:45:05Z</time>
      </trkpt>
      <trkpt lat="45.8554" lon="4.5338">
        <ele>343</ele>
        <time>2015-06-09T14:45:06Z</time>
      </trkpt>
      <trkpt lat="45.85548" lon="4.53385">
        <ele>342</ele>
        <time>2015-06-09T14:45:07Z</time>
      </trkpt>
      <trkpt lat="45.85557" lon="4.53391">
        <ele>342</ele>
        <time>2015-06-09T14:45:08Z</time>
      </trkpt>
      <trkpt lat="45.85566" lon="4.53396">
        <ele>341</ele>
        <time>2015-06-09T14:45:09Z</time>
      </trkpt>
      <trkpt lat="45.85574" lon="4.53402">
        <ele>340</ele>
        <time>2015-06-09T14:45:10Z</time>
      </trkpt>
      <trkpt lat="45.85583" lon="4.53407">
        <ele>340</ele>
        <time>2015-06-09T14:45:11Z</time>
      </trkpt>
      <trkpt lat="45.85591" lon="4.53413">
        <ele>339</ele>
        <time>2015-06-09T14:45:12Z</time>
      </trkpt>
      <trkpt lat="45.85599" lon="4.53418">
        <ele>339</ele>
        <time>2015-06-09T14:45:13Z</time>
      </trkpt>
      <trkpt lat="45.85608" lon="4.53424">
        <ele>338</ele>
        <time>2015-06-09T14:45:14Z</time>
      </trkpt>
      <trkpt lat="45.85617" lon="4.53429">
        <ele>338</ele>
        <time>2015-06-09T14:45:15Z</time>
      </trkpt>
      <trkpt lat="45.85626" lon="4.53434">
        <ele>337</ele>
        <time>2015-06-09T14:45:16Z</time>
      </trkpt>
      <trkpt lat="45.85634" lon="4.5344">
        <ele>337</ele>
        <time>2015-06-09T14:45:17Z</time>
      </trkpt>
      <trkpt lat="45.85643" lon="4.53445">
        <ele>336</ele>
        <time>2015-06-09T14:45:18Z</time>
      </trkpt>
      <trkpt lat="45.85651" lon="4.53449">
        <ele>335</ele>
        <time>2015-06-09T14:45:19Z</time>
      </trkpt>
      <trkpt lat="45.85659" lon="4.53453">
        <ele>335</ele>
        <time>2015-06-09T14:45:20Z</time>
      </trkpt>
      <trkpt lat="45.85667" lon="4.53456">
        <ele>334</ele>
        <time>2015-06-09T14:45:21Z</time>
      </trkpt>
      <trkpt lat="45.85677" lon="4.53457">
        <ele>334</ele>
        <time>2015-06-09T14:45:22Z</time>
      </trkpt>
      <trkpt lat="45.85685" lon="4.53457">
        <ele>333</ele>
        <time>2015-06-09T14:45:23Z</time>
      </trkpt>
      <trkpt lat="45.85694" lon="4.53457">
        <ele>333</ele>
        <time>2015-06-09T14:45:24Z</time>
      </trkpt>
      <trkpt lat="45.85704" lon="4.53457">
        <ele>332</ele>
        <time>2015-06-09T14:45:25Z</time>
      </trkpt>
      <trkpt lat="45.85713" lon="4.53456">
        <ele>331</ele>
        <time>2015-06-09T14:45:26Z</time>
      </trkpt>
      <trkpt lat="45.85722" lon="4.53456">
        <ele>331</ele>
        <time>2015-06-09T14:45:27Z</time>
      </trkpt>
      <trkpt lat="45.85732" lon="4.53455">
        <ele>330</ele>
        <time>2015-06-09T14:45:28Z</time>
      </trkpt>
      <trkpt lat="45.85741" lon="4.53455">
        <ele>330</ele>
        <time>2015-06-09T14:45:29Z</time>
      </trkpt>
      <trkpt lat="45.85751" lon="4.53455">
        <ele>329</ele>
        <time>2015-06-09T14:45:30Z</time>
      </trkpt>
      <trkpt lat="45.85761" lon="4.53455">
        <ele>329</ele>
        <time>2015-06-09T14:45:31Z</time>
      </trkpt>
      <trkpt lat="45.8577" lon="4.53455">
        <ele>328</ele>
        <time>2015-06-09T14:45:32Z</time>
      </trkpt>
      <trkpt lat="45.8578" lon="4.53455">
        <ele>328</ele>
        <time>2015-06-09T14:45:33Z</time>
      </trkpt>
      <trkpt lat="45.8579" lon="4.53456">
        <ele>328</ele>
        <time>2015-06-09T14:45:34Z</time>
      </trkpt>
      <trkpt lat="45.85799" lon="4.53456">
        <ele>328</ele>
        <time>2015-06-09T14:45:35Z</time>
      </trkpt>
      <trkpt lat="45.85809" lon="4.53458">
        <ele>328</ele>
        <time>2015-06-09T14:45:36Z</time>
      </trkpt>
      <trkpt lat="45.85817" lon="4.53463">
        <ele>328</ele>
        <time>2015-06-09T14:45:37Z</time>
      </trkpt>
      <trkpt lat="45.85825" lon="4.53469">
        <ele>327</ele>
        <time>2015-06-09T14:45:38Z</time>
      </trkpt>
      <trkpt lat="45.85833" lon="4.53477">
        <ele>327</ele>
        <time>2015-06-09T14:45:39Z</time>
      </trkpt>
      <trkpt lat="45.8584" lon="4.53485">
        <ele>328</ele>
        <time>2015-06-09T14:45:40Z</time>
      </trkpt>
      <trkpt lat="45.85843" lon="4.53493">
        <ele>328</ele>
        <time>2015-06-09T14:45:41Z</time>
      </trkpt>
      <trkpt lat="45.85846" lon="4.53501">
        <ele>328</ele>
        <time>2015-06-09T14:45:42Z</time>
      </trkpt>
      <trkpt lat="45.85851" lon="4.53507">
        <ele>328</ele>
        <time>2015-06-09T14:45:43Z</time>
      </trkpt>
      <trkpt lat="45.85855" lon="4.53513">
        <ele>328</ele>
        <time>2015-06-09T14:45:44Z</time>
      </trkpt>
      <trkpt lat="45.85859" lon="4.53519">
        <ele>328</ele>
        <time>2015-06-09T14:45:45Z</time>
      </trkpt>
      <trkpt lat="45.85866" lon="4.53529">
        <ele>329</ele>
        <time>2015-06-09T14:45:47Z</time>
      </trkpt>
      <trkpt lat="45.8587" lon="4.53534">
        <ele>329</ele>
        <time>2015-06-09T14:45:48Z</time>
      </trkpt>
      <trkpt lat="45.85875" lon="4.5354">
        <ele>329</ele>
        <time>2015-06-09T14:45:49Z</time>
      </trkpt>
      <trkpt lat="45.85878" lon="4.53544">
        <ele>329</ele>
        <time>2015-06-09T14:45:50Z</time>
      </trkpt>
      <trkpt lat="45.85882" lon="4.5355">
        <ele>329</ele>
        <time>2015-06-09T14:45:51Z</time>
      </trkpt>
      <trkpt lat="45.85887" lon="4.53556">
        <ele>330</ele>
        <time>2015-06-09T14:45:52Z</time>
      </trkpt>
      <trkpt lat="45.85891" lon="4.5356">
        <ele>330</ele>
        <time>2015-06-09T14:45:53Z</time>
      </trkpt>
      <trkpt lat="45.85896" lon="4.53566">
        <ele>330</ele>
        <time>2015-06-09T14:45:54Z</time>
      </trkpt>
      <trkpt lat="45.859" lon="4.53571">
        <ele>330</ele>
        <time>2015-06-09T14:45:55Z</time>
      </trkpt>
      <trkpt lat="45.85905" lon="4.53575">
        <ele>330</ele>
        <time>2015-06-09T14:45:56Z</time>
      </trkpt>
      <trkpt lat="45.85909" lon="4.5358">
        <ele>330</ele>
        <time>2015-06-09T14:45:57Z</time>
      </trkpt>
      <trkpt lat="45.85915" lon="4.53588">
        <ele>331</ele>
        <time>2015-06-09T14:45:59Z</time>
      </trkpt>
      <trkpt lat="45.85922" lon="4.53595">
        <ele>331</ele>
        <time>2015-06-09T14:46:01Z</time>
      </trkpt>
      <trkpt lat="45.85926" lon="4.536">
        <ele>331</ele>
        <time>2015-06-09T14:46:02Z</time>
      </trkpt>
      <trkpt lat="45.85933" lon="4.53607">
        <ele>332</ele>
        <time>2015-06-09T14:46:04Z</time>
      </trkpt>
      <trkpt lat="45.85939" lon="4.53614">
        <ele>332</ele>
        <time>2015-06-09T14:46:06Z</time>
      </trkpt>
      <trkpt lat="45.85945" lon="4.53621">
        <ele>333</ele>
        <time>2015-06-09T14:46:08Z</time>
      </trkpt>
      <trkpt lat="45.85951" lon="4.53628">
        <ele>333</ele>
        <time>2015-06-09T14:46:10Z</time>
      </trkpt>
      <trkpt lat="45.85957" lon="4.53635">
        <ele>334</ele>
        <time>2015-06-09T14:46:12Z</time>
      </trkpt>
      <trkpt lat="45.85962" lon="4.53642">
        <ele>334</ele>
        <time>2015-06-09T14:46:14Z</time>
      </trkpt>
      <trkpt lat="45.85967" lon="4.53649">
        <ele>334</ele>
        <time>2015-06-09T14:46:16Z</time>
      </trkpt>
      <trkpt lat="45.85971" lon="4.53656">
        <ele>335</ele>
        <time>2015-06-09T14:46:18Z</time>
      </trkpt>
      <trkpt lat="45.85974" lon="4.53665">
        <ele>335</ele>
        <time>2015-06-09T14:46:20Z</time>
      </trkpt>
      <trkpt lat="45.85976" lon="4.53674">
        <ele>335</ele>
        <time>2015-06-09T14:46:22Z</time>
      </trkpt>
      <trkpt lat="45.85979" lon="4.53683">
        <ele>335</ele>
        <time>2015-06-09T14:46:24Z</time>
      </trkpt>
      <trkpt lat="45.85981" lon="4.53693">
        <ele>335</ele>
        <time>2015-06-09T14:46:26Z</time>
      </trkpt>
      <trkpt lat="45.85983" lon="4.53706">
        <ele>334</ele>
        <time>2015-06-09T14:46:28Z</time>
      </trkpt>
      <trkpt lat="45.85984" lon="4.53714">
        <ele>334</ele>
        <time>2015-06-09T14:46:29Z</time>
      </trkpt>
      <trkpt lat="45.85986" lon="4.53721">
        <ele>334</ele>
        <time>2015-06-09T14:46:30Z</time>
      </trkpt>
      <trkpt lat="45.85988" lon="4.53728">
        <ele>334</ele>
        <time>2015-06-09T14:46:31Z</time>
      </trkpt>
      <trkpt lat="45.85989" lon="4.53735">
        <ele>334</ele>
        <time>2015-06-09T14:46:32Z</time>
      </trkpt>
      <trkpt lat="45.85991" lon="4.53742">
        <ele>334</ele>
        <time>2015-06-09T14:46:33Z</time>
      </trkpt>
      <trkpt lat="45.85992" lon="4.53749">
        <ele>334</ele>
        <time>2015-06-09T14:46:34Z</time>
      </trkpt>
      <trkpt lat="45.85994" lon="4.53756">
        <ele>334</ele>
        <time>2015-06-09T14:46:35Z</time>
      </trkpt>
      <trkpt lat="45.85995" lon="4.53762">
        <ele>334</ele>
        <time>2015-06-09T14:46:36Z</time>
      </trkpt>
      <trkpt lat="45.85996" lon="4.5377">
        <ele>334</ele>
        <time>2015-06-09T14:46:37Z</time>
      </trkpt>
      <trkpt lat="45.85998" lon="4.53778">
        <ele>334</ele>
        <time>2015-06-09T14:46:38Z</time>
      </trkpt>
      <trkpt lat="45.85999" lon="4.53785">
        <ele>334</ele>
        <time>2015-06-09T14:46:39Z</time>
      </trkpt>
      <trkpt lat="45.86001" lon="4.53793">
        <ele>334</ele>
        <time>2015-06-09T14:46:40Z</time>
      </trkpt>
      <trkpt lat="45.86003" lon="4.538">
        <ele>334</ele>
        <time>2015-06-09T14:46:41Z</time>
      </trkpt>
      <trkpt lat="45.86004" lon="4.53808">
        <ele>334</ele>
        <time>2015-06-09T14:46:42Z</time>
      </trkpt>
      <trkpt lat="45.86005" lon="4.53816">
        <ele>334</ele>
        <time>2015-06-09T14:46:43Z</time>
      </trkpt>
      <trkpt lat="45.86007" lon="4.53824">
        <ele>334</ele>
        <time>2015-06-09T14:46:44Z</time>
      </trkpt>
      <trkpt lat="45.8601" lon="4.5384">
        <ele>334</ele>
        <time>2015-06-09T14:46:46Z</time>
      </trkpt>
      <trkpt lat="45.86012" lon="4.53848">
        <ele>334</ele>
        <time>2015-06-09T14:46:47Z</time>
      </trkpt>
      <trkpt lat="45.86013" lon="4.53856">
        <ele>334</ele>
        <time>2015-06-09T14:46:48Z</time>
      </trkpt>
      <trkpt lat="45.86015" lon="4.53864">
        <ele>334</ele>
        <time>2015-06-09T14:46:49Z</time>
      </trkpt>
      <trkpt lat="45.86017" lon="4.53873">
        <ele>334</ele>
        <time>2015-06-09T14:46:50Z</time>
      </trkpt>
      <trkpt lat="45.86018" lon="4.53881">
        <ele>334</ele>
        <time>2015-06-09T14:46:51Z</time>
      </trkpt>
      <trkpt lat="45.86019" lon="4.53889">
        <ele>334</ele>
        <time>2015-06-09T14:46:52Z</time>
      </trkpt>
      <trkpt lat="45.86021" lon="4.53897">
        <ele>334</ele>
        <time>2015-06-09T14:46:53Z</time>
      </trkpt>
      <trkpt lat="45.86024" lon="4.53905">
        <ele>335</ele>
        <time>2015-06-09T14:46:54Z</time>
      </trkpt>
      <trkpt lat="45.86026" lon="4.53913">
        <ele>335</ele>
        <time>2015-06-09T14:46:55Z</time>
      </trkpt>
      <trkpt lat="45.86029" lon="4.53921">
        <ele>335</ele>
        <time>2015-06-09T14:46:56Z</time>
      </trkpt>
      <trkpt lat="45.86032" lon="4.53928">
        <ele>335</ele>
        <time>2015-06-09T14:46:57Z</time>
      </trkpt>
      <trkpt lat="45.86035" lon="4.53937">
        <ele>335</ele>
        <time>2015-06-09T14:46:58Z</time>
      </trkpt>
      <trkpt lat="45.86038" lon="4.53945">
        <ele>335</ele>
        <time>2015-06-09T14:46:59Z</time>
      </trkpt>
      <trkpt lat="45.86041" lon="4.53954">
        <ele>335</ele>
        <time>2015-06-09T14:47:00Z</time>
      </trkpt>
      <trkpt lat="45.86044" lon="4.53962">
        <ele>335</ele>
        <time>2015-06-09T14:47:01Z</time>
      </trkpt>
      <trkpt lat="45.86046" lon="4.53971">
        <ele>334</ele>
        <time>2015-06-09T14:47:02Z</time>
      </trkpt>
      <trkpt lat="45.86049" lon="4.53981">
        <ele>334</ele>
        <time>2015-06-09T14:47:03Z</time>
      </trkpt>
      <trkpt lat="45.86051" lon="4.5399">
        <ele>333</ele>
        <time>2015-06-09T14:47:04Z</time>
      </trkpt>
      <trkpt lat="45.86054" lon="4.54">
        <ele>333</ele>
        <time>2015-06-09T14:47:05Z</time>
      </trkpt>
      <trkpt lat="45.86056" lon="4.5401">
        <ele>333</ele>
        <time>2015-06-09T14:47:06Z</time>
      </trkpt>
      <trkpt lat="45.86061" lon="4.54029">
        <ele>332</ele>
        <time>2015-06-09T14:47:08Z</time>
      </trkpt>
      <trkpt lat="45.86064" lon="4.54038">
        <ele>332</ele>
        <time>2015-06-09T14:47:09Z</time>
      </trkpt>
      <trkpt lat="45.86068" lon="4.54048">
        <ele>331</ele>
        <time>2015-06-09T14:47:10Z</time>
      </trkpt>
      <trkpt lat="45.86071" lon="4.54057">
        <ele>331</ele>
        <time>2015-06-09T14:47:11Z</time>
      </trkpt>
      <trkpt lat="45.86074" lon="4.5407">
        <ele>330</ele>
        <time>2015-06-09T14:47:12Z</time>
      </trkpt>
      <trkpt lat="45.86076" lon="4.5408">
        <ele>330</ele>
        <time>2015-06-09T14:47:13Z</time>
      </trkpt>
      <trkpt lat="45.86078" lon="4.54089">
        <ele>329</ele>
        <time>2015-06-09T14:47:14Z</time>
      </trkpt>
      <trkpt lat="45.86081" lon="4.541">
        <ele>329</ele>
        <time>2015-06-09T14:47:15Z</time>
      </trkpt>
      <trkpt lat="45.86085" lon="4.54112">
        <ele>328</ele>
        <time>2015-06-09T14:47:16Z</time>
      </trkpt>
      <trkpt lat="45.86086" lon="4.54121">
        <ele>328</ele>
        <time>2015-06-09T14:47:17Z</time>
      </trkpt>
      <trkpt lat="45.86088" lon="4.54131">
        <ele>327</ele>
        <time>2015-06-09T14:47:18Z</time>
      </trkpt>
      <trkpt lat="45.86091" lon="4.54142">
        <ele>327</ele>
        <time>2015-06-09T14:47:19Z</time>
      </trkpt>
      <trkpt lat="45.86094" lon="4.54153">
        <ele>326</ele>
        <time>2015-06-09T14:47:20Z</time>
      </trkpt>
      <trkpt lat="45.86097" lon="4.54164">
        <ele>325</ele>
        <time>2015-06-09T14:47:21Z</time>
      </trkpt>
      <trkpt lat="45.86099" lon="4.54177">
        <ele>325</ele>
        <time>2015-06-09T14:47:22Z</time>
      </trkpt>
      <trkpt lat="45.861" lon="4.5419">
        <ele>324</ele>
        <time>2015-06-09T14:47:23Z</time>
      </trkpt>
      <trkpt lat="45.861" lon="4.54205">
        <ele>323</ele>
        <time>2015-06-09T14:47:24Z</time>
      </trkpt>
      <trkpt lat="45.86098" lon="4.54218">
        <ele>322</ele>
        <time>2015-06-09T14:47:25Z</time>
      </trkpt>
      <trkpt lat="45.86097" lon="4.54231">
        <ele>321</ele>
        <time>2015-06-09T14:47:26Z</time>
      </trkpt>
      <trkpt lat="45.86097" lon="4.54244">
        <ele>321</ele>
        <time>2015-06-09T14:47:27Z</time>
      </trkpt>
      <trkpt lat="45.861" lon="4.54257">
        <ele>320</ele>
        <time>2015-06-09T14:47:28Z</time>
      </trkpt>
      <trkpt lat="45.86104" lon="4.54269">
        <ele>319</ele>
        <time>2015-06-09T14:47:29Z</time>
      </trkpt>
      <trkpt lat="45.86111" lon="4.54279">
        <ele>318</ele>
        <time>2015-06-09T14:47:30Z</time>
      </trkpt>
      <trkpt lat="45.86118" lon="4.54287">
        <ele>318</ele>
        <time>2015-06-09T14:47:31Z</time>
      </trkpt>
      <trkpt lat="45.86126" lon="4.54295">
        <ele>317</ele>
        <time>2015-06-09T14:47:32Z</time>
      </trkpt>
      <trkpt lat="45.86133" lon="4.54303">
        <ele>316</ele>
        <time>2015-06-09T14:47:33Z</time>
      </trkpt>
      <trkpt lat="45.86139" lon="4.54311">
        <ele>315</ele>
        <time>2015-06-09T14:47:34Z</time>
      </trkpt>
      <trkpt lat="45.86146" lon="4.54319">
        <ele>315</ele>
        <time>2015-06-09T14:47:35Z</time>
      </trkpt>
      <trkpt lat="45.86152" lon="4.54326">
        <ele>314</ele>
        <time>2015-06-09T14:47:36Z</time>
      </trkpt>
      <trkpt lat="45.8616" lon="4.54334">
        <ele>314</ele>
        <time>2015-06-09T14:47:37Z</time>
      </trkpt>
      <trkpt lat="45.86167" lon="4.54341">
        <ele>314</ele>
        <time>2015-06-09T14:47:38Z</time>
      </trkpt>
      <trkpt lat="45.86182" lon="4.54357">
        <ele>313</ele>
        <time>2015-06-09T14:47:40Z</time>
      </trkpt>
      <trkpt lat="45.8619" lon="4.54364">
        <ele>312</ele>
        <time>2015-06-09T14:47:41Z</time>
      </trkpt>
      <trkpt lat="45.86198" lon="4.5437">
        <ele>311</ele>
        <time>2015-06-09T14:47:42Z</time>
      </trkpt>
      <trkpt lat="45.86207" lon="4.54377">
        <ele>310</ele>
        <time>2015-06-09T14:47:43Z</time>
      </trkpt>
      <trkpt lat="45.86215" lon="4.54385">
        <ele>309</ele>
        <time>2015-06-09T14:47:44Z</time>
      </trkpt>
      <trkpt lat="45.86224" lon="4.54391">
        <ele>308</ele>
        <time>2015-06-09T14:47:45Z</time>
      </trkpt>
      <trkpt lat="45.86233" lon="4.54398">
        <ele>308</ele>
        <time>2015-06-09T14:47:46Z</time>
      </trkpt>
      <trkpt lat="45.86242" lon="4.54404">
        <ele>307</ele>
        <time>2015-06-09T14:47:47Z</time>
      </trkpt>
      <trkpt lat="45.86252" lon="4.54409">
        <ele>305</ele>
        <time>2015-06-09T14:47:48Z</time>
      </trkpt>
      <trkpt lat="45.86261" lon="4.54415">
        <ele>304</ele>
        <time>2015-06-09T14:47:49Z</time>
      </trkpt>
      <trkpt lat="45.86282" lon="4.54426">
        <ele>301</ele>
        <time>2015-06-09T14:47:51Z</time>
      </trkpt>
      <trkpt lat="45.86292" lon="4.54431">
        <ele>300</ele>
        <time>2015-06-09T14:47:52Z</time>
      </trkpt>
      <trkpt lat="45.86303" lon="4.54435">
        <ele>299</ele>
        <time>2015-06-09T14:47:53Z</time>
      </trkpt>
      <trkpt lat="45.86313" lon="4.54439">
        <ele>298</ele>
        <time>2015-06-09T14:47:54Z</time>
      </trkpt>
      <trkpt lat="45.86324" lon="4.54443">
        <ele>297</ele>
        <time>2015-06-09T14:47:55Z</time>
      </trkpt>
      <trkpt lat="45.86335" lon="4.54448">
        <ele>297</ele>
        <time>2015-06-09T14:47:56Z</time>
      </trkpt>
      <trkpt lat="45.86346" lon="4.54451">
        <ele>296</ele>
        <time>2015-06-09T14:47:57Z</time>
      </trkpt>
      <trkpt lat="45.86358" lon="4.54454">
        <ele>295</ele>
        <time>2015-06-09T14:47:58Z</time>
      </trkpt>
      <trkpt lat="45.86369" lon="4.54457">
        <ele>294</ele>
        <time>2015-06-09T14:47:59Z</time>
      </trkpt>
      <trkpt lat="45.8638" lon="4.5446">
        <ele>294</ele>
        <time>2015-06-09T14:48:00Z</time>
      </trkpt>
      <trkpt lat="45.86391" lon="4.54462">
        <ele>294</ele>
        <time>2015-06-09T14:48:01Z</time>
      </trkpt>
      <trkpt lat="45.86401" lon="4.54463">
        <ele>294</ele>
        <time>2015-06-09T14:48:02Z</time>
      </trkpt>
      <trkpt lat="45.86411" lon="4.54465">
        <ele>294</ele>
        <time>2015-06-09T14:48:03Z</time>
      </trkpt>
      <trkpt lat="45.8642" lon="4.54466">
        <ele>294</ele>
        <time>2015-06-09T14:48:04Z</time>
      </trkpt>
      <trkpt lat="45.86428" lon="4.54467">
        <ele>294</ele>
        <time>2015-06-09T14:48:05Z</time>
      </trkpt>
      <trkpt lat="45.86436" lon="4.54467">
        <ele>294</ele>
        <time>2015-06-09T14:48:06Z</time>
      </trkpt>
      <trkpt lat="45.86443" lon="4.54468">
        <ele>294</ele>
        <time>2015-06-09T14:48:07Z</time>
      </trkpt>
      <trkpt lat="45.8645" lon="4.54469">
        <ele>294</ele>
        <time>2015-06-09T14:48:08Z</time>
      </trkpt>
      <trkpt lat="45.86455" lon="4.5447">
        <ele>295</ele>
        <time>2015-06-09T14:48:09Z</time>
      </trkpt>
      <trkpt lat="45.8646" lon="4.54471">
        <ele>295</ele>
        <time>2015-06-09T14:48:10Z</time>
      </trkpt>
      <trkpt lat="45.86464" lon="4.54473">
        <ele>295</ele>
        <time>2015-06-09T14:48:11Z</time>
      </trkpt>
      <trkpt lat="45.86472" lon="4.54476">
        <ele>296</ele>
        <time>2015-06-09T14:48:13Z</time>
      </trkpt>
      <trkpt lat="45.86478" lon="4.54478">
        <ele>297</ele>
        <time>2015-06-09T14:48:15Z</time>
      </trkpt>
      <trkpt lat="45.86485" lon="4.54479">
        <ele>298</ele>
        <time>2015-06-09T14:48:17Z</time>
      </trkpt>
      <trkpt lat="45.86491" lon="4.54481">
        <ele>298</ele>
        <time>2015-06-09T14:48:19Z</time>
      </trkpt>
      <trkpt lat="45.86498" lon="4.54484">
        <ele>299</ele>
        <time>2015-06-09T14:48:21Z</time>
      </trkpt>
      <trkpt lat="45.86504" lon="4.54486">
        <ele>300</ele>
        <time>2015-06-09T14:48:23Z</time>
      </trkpt>
      <trkpt lat="45.86511" lon="4.54489">
        <ele>301</ele>
        <time>2015-06-09T14:48:25Z</time>
      </trkpt>
      <trkpt lat="45.86518" lon="4.54491">
        <ele>302</ele>
        <time>2015-06-09T14:48:27Z</time>
      </trkpt>
      <trkpt lat="45.86524" lon="4.54494">
        <ele>302</ele>
        <time>2015-06-09T14:48:29Z</time>
      </trkpt>
      <trkpt lat="45.8653" lon="4.54497">
        <ele>303</ele>
        <time>2015-06-09T14:48:31Z</time>
      </trkpt>
      <trkpt lat="45.86536" lon="4.545">
        <ele>303</ele>
        <time>2015-06-09T14:48:33Z</time>
      </trkpt>
      <trkpt lat="45.86541" lon="4.54503">
        <ele>304</ele>
        <time>2015-06-09T14:48:35Z</time>
      </trkpt>
      <trkpt lat="45.86547" lon="4.54506">
        <ele>304</ele>
        <time>2015-06-09T14:48:37Z</time>
      </trkpt>
      <trkpt lat="45.86552" lon="4.54509">
        <ele>305</ele>
        <time>2015-06-09T14:48:39Z</time>
      </trkpt>
      <trkpt lat="45.86557" lon="4.54512">
        <ele>305</ele>
        <time>2015-06-09T14:48:41Z</time>
      </trkpt>
      <trkpt lat="45.86562" lon="4.54515">
        <ele>305</ele>
        <time>2015-06-09T14:48:43Z</time>
      </trkpt>
      <trkpt lat="45.86567" lon="4.54519">
        <ele>306</ele>
        <time>2015-06-09T14:48:45Z</time>
      </trkpt>
      <trkpt lat="45.86572" lon="4.54522">
        <ele>306</ele>
        <time>2015-06-09T14:48:47Z</time>
      </trkpt>
      <trkpt lat="45.86578" lon="4.54526">
        <ele>307</ele>
        <time>2015-06-09T14:48:49Z</time>
      </trkpt>
      <trkpt lat="45.86583" lon="4.54529">
        <ele>307</ele>
        <time>2015-06-09T14:48:51Z</time>
      </trkpt>
      <trkpt lat="45.86588" lon="4.54533">
        <ele>307</ele>
        <time>2015-06-09T14:48:53Z</time>
      </trkpt>
      <trkpt lat="45.86594" lon="4.54537">
        <ele>308</ele>
        <time>2015-06-09T14:48:55Z</time>
      </trkpt>
      <trkpt lat="45.86599" lon="4.54541">
        <ele>308</ele>
        <time>2015-06-09T14:48:57Z</time>
      </trkpt>
      <trkpt lat="45.86604" lon="4.54545">
        <ele>308</ele>
        <time>2015-06-09T14:48:59Z</time>
      </trkpt>
      <trkpt lat="45.86608" lon="4.54549">
        <ele>308</ele>
        <time>2015-06-09T14:49:01Z</time>
      </trkpt>
      <trkpt lat="45.86614" lon="4.54553">
        <ele>309</ele>
        <time>2015-06-09T14:49:04Z</time>
      </trkpt>
      <trkpt lat="45.86618" lon="4.54557">
        <ele>309</ele>
        <time>2015-06-09T14:49:08Z</time>
      </trkpt>
      <trkpt lat="45.86623" lon="4.5456">
        <ele>309</ele>
        <time>2015-06-09T14:49:11Z</time>
      </trkpt>
      <trkpt lat="45.86628" lon="4.54564">
        <ele>310</ele>
        <time>2015-06-09T14:49:14Z</time>
      </trkpt>
      <trkpt lat="45.86634" lon="4.54569">
        <ele>310</ele>
        <time>2015-06-09T14:49:17Z</time>
      </trkpt>
      <trkpt lat="45.86638" lon="4.54573">
        <ele>310</ele>
        <time>2015-06-09T14:49:19Z</time>
      </trkpt>
      <trkpt lat="45.86643" lon="4.54577">
        <ele>310</ele>
        <time>2015-06-09T14:49:21Z</time>
      </trkpt>
      <trkpt lat="45.86647" lon="4.54581">
        <ele>311</ele>
        <time>2015-06-09T14:49:23Z</time>
      </trkpt>
      <trkpt lat="45.86652" lon="4.54585">
        <ele>311</ele>
        <time>2015-06-09T14:49:25Z</time>
      </trkpt>
      <trkpt lat="45.86656" lon="4.54588">
        <ele>311</ele>
        <time>2015-06-09T14:49:27Z</time>
      </trkpt>
      <trkpt lat="45.8666" lon="4.54592">
        <ele>311</ele>
        <time>2015-06-09T14:49:29Z</time>
      </trkpt>
      <trkpt lat="45.86664" lon="4.54596">
        <ele>311</ele>
        <time>2015-06-09T14:49:31Z</time>
      </trkpt>
      <trkpt lat="45.86669" lon="4.54599">
        <ele>312</ele>
        <time>2015-06-09T14:49:33Z</time>
      </trkpt>
      <trkpt lat="45.86673" lon="4.54603">
        <ele>312</ele>
        <time>2015-06-09T14:49:35Z</time>
      </trkpt>
      <trkpt lat="45.86677" lon="4.54606">
        <ele>312</ele>
        <time>2015-06-09T14:49:37Z</time>
      </trkpt>
      <trkpt lat="45.86681" lon="4.5461">
        <ele>312</ele>
        <time>2015-06-09T14:49:39Z</time>
      </trkpt>
      <trkpt lat="45.86686" lon="4.54613">
        <ele>312</ele>
        <time>2015-06-09T14:49:41Z</time>
      </trkpt>
      <trkpt lat="45.86689" lon="4.54617">
        <ele>312</ele>
        <time>2015-06-09T14:49:43Z</time>
      </trkpt>
      <trkpt lat="45.86694" lon="4.54623">
        <ele>312</ele>
        <time>2015-06-09T14:49:46Z</time>
      </trkpt>
      <trkpt lat="45.86696" lon="4.54631">
        <ele>312</ele>
        <time>2015-06-09T14:49:54Z</time>
      </trkpt>
      <trkpt lat="45.867" lon="4.54637">
        <ele>312</ele>
        <time>2015-06-09T14:49:56Z</time>
      </trkpt>
      <trkpt lat="45.86707" lon="4.54642">
        <ele>313</ele>
        <time>2015-06-09T14:49:58Z</time>
      </trkpt>
      <trkpt lat="45.86714" lon="4.54648">
        <ele>313</ele>
        <time>2015-06-09T14:50:00Z</time>
      </trkpt>
      <trkpt lat="45.86722" lon="4.54653">
        <ele>313</ele>
        <time>2015-06-09T14:50:02Z</time>
      </trkpt>
      <trkpt lat="45.86729" lon="4.54659">
        <ele>314</ele>
        <time>2015-06-09T14:50:04Z</time>
      </trkpt>
      <trkpt lat="45.86735" lon="4.54666">
        <ele>314</ele>
        <time>2015-06-09T14:50:06Z</time>
      </trkpt>
      <trkpt lat="45.86741" lon="4.54673">
        <ele>314</ele>
        <time>2015-06-09T14:50:08Z</time>
      </trkpt>
      <trkpt lat="45.86747" lon="4.54681">
        <ele>314</ele>
        <time>2015-06-09T14:50:10Z</time>
      </trkpt>
      <trkpt lat="45.86754" lon="4.54689">
        <ele>314</ele>
        <time>2015-06-09T14:50:12Z</time>
      </trkpt>
      <trkpt lat="45.8676" lon="4.54697">
        <ele>315</ele>
        <time>2015-06-09T14:50:14Z</time>
      </trkpt>
      <trkpt lat="45.86767" lon="4.54705">
        <ele>315</ele>
        <time>2015-06-09T14:50:16Z</time>
      </trkpt>
      <trkpt lat="45.86773" lon="4.54714">
        <ele>315</ele>
        <time>2015-06-09T14:50:18Z</time>
      </trkpt>
      <trkpt lat="45.8678" lon="4.54722">
        <ele>315</ele>
        <time>2015-06-09T14:50:20Z</time>
      </trkpt>
      <trkpt lat="45.86787" lon="4.5473">
        <ele>315</ele>
        <time>2015-06-09T14:50:22Z</time>
      </trkpt>
      <trkpt lat="45.86794" lon="4.54738">
        <ele>316</ele>
        <time>2015-06-09T14:50:24Z</time>
      </trkpt>
      <trkpt lat="45.868" lon="4.54747">
        <ele>316</ele>
        <time>2015-06-09T14:50:26Z</time>
      </trkpt>
      <trkpt lat="45.86807" lon="4.54755">
        <ele>316</ele>
        <time>2015-06-09T14:50:28Z</time>
      </trkpt>
      <trkpt lat="45.86813" lon="4.54763">
        <ele>316</ele>
        <time>2015-06-09T14:50:30Z</time>
      </trkpt>
      <trkpt lat="45.8682" lon="4.54771">
        <ele>316</ele>
        <time>2015-06-09T14:50:32Z</time>
      </trkpt>
      <trkpt lat="45.86826" lon="4.54778">
        <ele>316</ele>
        <time>2015-06-09T14:50:34Z</time>
      </trkpt>
      <trkpt lat="45.86833" lon="4.54786">
        <ele>316</ele>
        <time>2015-06-09T14:50:36Z</time>
      </trkpt>
      <trkpt lat="45.8684" lon="4.54794">
        <ele>316</ele>
        <time>2015-06-09T14:50:38Z</time>
      </trkpt>
      <trkpt lat="45.86845" lon="4.54802">
        <ele>316</ele>
        <time>2015-06-09T14:50:40Z</time>
      </trkpt>
      <trkpt lat="45.86852" lon="4.54811">
        <ele>316</ele>
        <time>2015-06-09T14:50:42Z</time>
      </trkpt>
      <trkpt lat="45.86858" lon="4.54818">
        <ele>316</ele>
        <time>2015-06-09T14:50:44Z</time>
      </trkpt>
      <trkpt lat="45.86863" lon="4.54824">
        <ele>317</ele>
        <time>2015-06-09T14:50:46Z</time>
      </trkpt>
      <trkpt lat="45.86868" lon="4.5483">
        <ele>317</ele>
        <time>2015-06-09T14:50:48Z</time>
      </trkpt>
      <trkpt lat="45.86873" lon="4.54836">
        <ele>317</ele>
        <time>2015-06-09T14:50:50Z</time>
      </trkpt>
      <trkpt lat="45.86879" lon="4.54843">
        <ele>317</ele>
        <time>2015-06-09T14:50:52Z</time>
      </trkpt>
      <trkpt lat="45.86884" lon="4.54849">
        <ele>318</ele>
        <time>2015-06-09T14:50:54Z</time>
      </trkpt>
      <trkpt lat="45.8689" lon="4.54856">
        <ele>318</ele>
        <time>2015-06-09T14:50:56Z</time>
      </trkpt>
      <trkpt lat="45.86895" lon="4.54862">
        <ele>318</ele>
        <time>2015-06-09T14:50:58Z</time>
      </trkpt>
      <trkpt lat="45.869" lon="4.54869">
        <ele>318</ele>
        <time>2015-06-09T14:51:00Z</time>
      </trkpt>
      <trkpt lat="45.86906" lon="4.54875">
        <ele>319</ele>
        <time>2015-06-09T14:51:02Z</time>
      </trkpt>
      <trkpt lat="45.86911" lon="4.54882">
        <ele>319</ele>
        <time>2015-06-09T14:51:04Z</time>
      </trkpt>
      <trkpt lat="45.86917" lon="4.54889">
        <ele>319</ele>
        <time>2015-06-09T14:51:06Z</time>
      </trkpt>
      <trkpt lat="45.86923" lon="4.54896">
        <ele>319</ele>
        <time>2015-06-09T14:51:08Z</time>
      </trkpt>
      <trkpt lat="45.86928" lon="4.54902">
        <ele>319</ele>
        <time>2015-06-09T14:51:10Z</time>
      </trkpt>
      <trkpt lat="45.86933" lon="4.54909">
        <ele>320</ele>
        <time>2015-06-09T14:51:12Z</time>
      </trkpt>
      <trkpt lat="45.86939" lon="4.54916">
        <ele>320</ele>
        <time>2015-06-09T14:51:14Z</time>
      </trkpt>
      <trkpt lat="45.86945" lon="4.54922">
        <ele>321</ele>
        <time>2015-06-09T14:51:16Z</time>
      </trkpt>
      <trkpt lat="45.8695" lon="4.54929">
        <ele>321</ele>
        <time>2015-06-09T14:51:18Z</time>
      </trkpt>
      <trkpt lat="45.86956" lon="4.54936">
        <ele>321</ele>
        <time>2015-06-09T14:51:20Z</time>
      </trkpt>
      <trkpt lat="45.86962" lon="4.54944">
        <ele>321</ele>
        <time>2015-06-09T14:51:22Z</time>
      </trkpt>
      <trkpt lat="45.86968" lon="4.54951">
        <ele>322</ele>
        <time>2015-06-09T14:51:24Z</time>
      </trkpt>
      <trkpt lat="45.86974" lon="4.54959">
        <ele>322</ele>
        <time>2015-06-09T14:51:26Z</time>
      </trkpt>
      <trkpt lat="45.8698" lon="4.54966">
        <ele>322</ele>
        <time>2015-06-09T14:51:28Z</time>
      </trkpt>
      <trkpt lat="45.86986" lon="4.54974">
        <ele>322</ele>
        <time>2015-06-09T14:51:30Z</time>
      </trkpt>
      <trkpt lat="45.86992" lon="4.54982">
        <ele>322</ele>
        <time>2015-06-09T14:51:32Z</time>
      </trkpt>
      <trkpt lat="45.86999" lon="4.54989">
        <ele>323</ele>
        <time>2015-06-09T14:51:34Z</time>
      </trkpt>
      <trkpt lat="45.87005" lon="4.54997">
        <ele>323</ele>
        <time>2015-06-09T14:51:36Z</time>
      </trkpt>
      <trkpt lat="45.87012" lon="4.55005">
        <ele>323</ele>
        <time>2015-06-09T14:51:38Z</time>
      </trkpt>
      <trkpt lat="45.87018" lon="4.55013">
        <ele>324</ele>
        <time>2015-06-09T14:51:40Z</time>
      </trkpt>
      <trkpt lat="45.87024" lon="4.5502">
        <ele>324</ele>
        <time>2015-06-09T14:51:42Z</time>
      </trkpt>
      <trkpt lat="45.87031" lon="4.55028">
        <ele>324</ele>
        <time>2015-06-09T14:51:44Z</time>
      </trkpt>
      <trkpt lat="45.87037" lon="4.55035">
        <ele>325</ele>
        <time>2015-06-09T14:51:46Z</time>
      </trkpt>
      <trkpt lat="45.87044" lon="4.55043">
        <ele>325</ele>
        <time>2015-06-09T14:51:48Z</time>
      </trkpt>
      <trkpt lat="45.8705" lon="4.5505">
        <ele>325</ele>
        <time>2015-06-09T14:51:50Z</time>
      </trkpt>
      <trkpt lat="45.87056" lon="4.55058">
        <ele>326</ele>
        <time>2015-06-09T14:51:52Z</time>
      </trkpt>
      <trkpt lat="45.87062" lon="4.55065">
        <ele>326</ele>
        <time>2015-06-09T14:51:54Z</time>
      </trkpt>
      <trkpt lat="45.87068" lon="4.55072">
        <ele>326</ele>
        <time>2015-06-09T14:51:56Z</time>
      </trkpt>
      <trkpt lat="45.87074" lon="4.55079">
        <ele>327</ele>
        <time>2015-06-09T14:51:58Z</time>
      </trkpt>
      <trkpt lat="45.8708" lon="4.55086">
        <ele>327</ele>
        <time>2015-06-09T14:52:00Z</time>
      </trkpt>
      <trkpt lat="45.87086" lon="4.55093">
        <ele>328</ele>
        <time>2015-06-09T14:52:02Z</time>
      </trkpt>
      <trkpt lat="45.87092" lon="4.551">
        <ele>328</ele>
        <time>2015-06-09T14:52:04Z</time>
      </trkpt>
      <trkpt lat="45.87099" lon="4.55107">
        <ele>328</ele>
        <time>2015-06-09T14:52:06Z</time>
      </trkpt>
      <trkpt lat="45.87104" lon="4.55115">
        <ele>329</ele>
        <time>2015-06-09T14:52:08Z</time>
      </trkpt>
      <trkpt lat="45.8711" lon="4.55123">
        <ele>330</ele>
        <time>2015-06-09T14:52:10Z</time>
      </trkpt>
      <trkpt lat="45.87116" lon="4.55131">
        <ele>330</ele>
        <time>2015-06-09T14:52:12Z</time>
      </trkpt>
      <trkpt lat="45.87122" lon="4.55139">
        <ele>331</ele>
        <time>2015-06-09T14:52:14Z</time>
      </trkpt>
      <trkpt lat="45.87128" lon="4.55146">
        <ele>332</ele>
        <time>2015-06-09T14:52:16Z</time>
      </trkpt>
      <trkpt lat="45.87134" lon="4.55154">
        <ele>332</ele>
        <time>2015-06-09T14:52:18Z</time>
      </trkpt>
      <trkpt lat="45.8714" lon="4.5516">
        <ele>332</ele>
        <time>2015-06-09T14:52:20Z</time>
      </trkpt>
      <trkpt lat="45.87146" lon="4.55168">
        <ele>333</ele>
        <time>2015-06-09T14:52:22Z</time>
      </trkpt>
      <trkpt lat="45.87151" lon="4.55176">
        <ele>333</ele>
        <time>2015-06-09T14:52:24Z</time>
      </trkpt>
      <trkpt lat="45.87157" lon="4.55182">
        <ele>333</ele>
        <time>2015-06-09T14:52:26Z</time>
      </trkpt>
      <trkpt lat="45.87166" lon="4.55186">
        <ele>333</ele>
        <time>2015-06-09T14:52:28Z</time>
      </trkpt>
      <trkpt lat="45.87171" lon="4.55194">
        <ele>333</ele>
        <time>2015-06-09T14:52:30Z</time>
      </trkpt>
      <trkpt lat="45.87177" lon="4.55203">
        <ele>333</ele>
        <time>2015-06-09T14:52:32Z</time>
      </trkpt>
      <trkpt lat="45.87183" lon="4.55211">
        <ele>333</ele>
        <time>2015-06-09T14:52:34Z</time>
      </trkpt>
      <trkpt lat="45.8719" lon="4.55219">
        <ele>333</ele>
        <time>2015-06-09T14:52:36Z</time>
      </trkpt>
      <trkpt lat="45.87196" lon="4.55227">
        <ele>333</ele>
        <time>2015-06-09T14:52:38Z</time>
      </trkpt>
      <trkpt lat="45.87203" lon="4.55234">
        <ele>333</ele>
        <time>2015-06-09T14:52:40Z</time>
      </trkpt>
      <trkpt lat="45.8721" lon="4.55241">
        <ele>333</ele>
        <time>2015-06-09T14:52:42Z</time>
      </trkpt>
      <trkpt lat="45.87217" lon="4.55246">
        <ele>334</ele>
        <time>2015-06-09T14:52:44Z</time>
      </trkpt>
      <trkpt lat="45.87224" lon="4.55251">
        <ele>334</ele>
        <time>2015-06-09T14:52:46Z</time>
      </trkpt>
      <trkpt lat="45.87231" lon="4.55256">
        <ele>334</ele>
        <time>2015-06-09T14:52:48Z</time>
      </trkpt>
      <trkpt lat="45.87238" lon="4.55261">
        <ele>334</ele>
        <time>2015-06-09T14:52:50Z</time>
      </trkpt>
      <trkpt lat="45.87246" lon="4.55266">
        <ele>334</ele>
        <time>2015-06-09T14:52:52Z</time>
      </trkpt>
      <trkpt lat="45.87253" lon="4.55271">
        <ele>335</ele>
        <time>2015-06-09T14:52:54Z</time>
      </trkpt>
      <trkpt lat="45.8726" lon="4.55275">
        <ele>335</ele>
        <time>2015-06-09T14:52:56Z</time>
      </trkpt>
      <trkpt lat="45.87267" lon="4.5528">
        <ele>335</ele>
        <time>2015-06-09T14:52:58Z</time>
      </trkpt>
      <trkpt lat="45.87275" lon="4.55285">
        <ele>335</ele>
        <time>2015-06-09T14:53:00Z</time>
      </trkpt>
      <trkpt lat="45.87282" lon="4.55291">
        <ele>335</ele>
        <time>2015-06-09T14:53:02Z</time>
      </trkpt>
      <trkpt lat="45.87289" lon="4.55296">
        <ele>336</ele>
        <time>2015-06-09T14:53:04Z</time>
      </trkpt>
      <trkpt lat="45.87296" lon="4.553">
        <ele>336</ele>
        <time>2015-06-09T14:53:06Z</time>
      </trkpt>
      <trkpt lat="45.87302" lon="4.55305">
        <ele>336</ele>
        <time>2015-06-09T14:53:08Z</time>
      </trkpt>
      <trkpt lat="45.87309" lon="4.5531">
        <ele>337</ele>
        <time>2015-06-09T14:53:10Z</time>
      </trkpt>
      <trkpt lat="45.87315" lon="4.55314">
        <ele>337</ele>
        <time>2015-06-09T14:53:12Z</time>
      </trkpt>
      <trkpt lat="45.87322" lon="4.55319">
        <ele>337</ele>
        <time>2015-06-09T14:53:14Z</time>
      </trkpt>
      <trkpt lat="45.87329" lon="4.55324">
        <ele>337</ele>
        <time>2015-06-09T14:53:16Z</time>
      </trkpt>
      <trkpt lat="45.87336" lon="4.55329">
        <ele>338</ele>
        <time>2015-06-09T14:53:18Z</time>
      </trkpt>
      <trkpt lat="45.87343" lon="4.55333">
        <ele>338</ele>
        <time>2015-06-09T14:53:20Z</time>
      </trkpt>
      <trkpt lat="45.8735" lon="4.55338">
        <ele>338</ele>
        <time>2015-06-09T14:53:22Z</time>
      </trkpt>
      <trkpt lat="45.87356" lon="4.55343">
        <ele>338</ele>
        <time>2015-06-09T14:53:24Z</time>
      </trkpt>
      <trkpt lat="45.87363" lon="4.55348">
        <ele>339</ele>
        <time>2015-06-09T14:53:26Z</time>
      </trkpt>
      <trkpt lat="45.8737" lon="4.55353">
        <ele>339</ele>
        <time>2015-06-09T14:53:28Z</time>
      </trkpt>
      <trkpt lat="45.87378" lon="4.55358">
        <ele>339</ele>
        <time>2015-06-09T14:53:30Z</time>
      </trkpt>
      <trkpt lat="45.87384" lon="4.55363">
        <ele>339</ele>
        <time>2015-06-09T14:53:32Z</time>
      </trkpt>
      <trkpt lat="45.87391" lon="4.55368">
        <ele>339</ele>
        <time>2015-06-09T14:53:34Z</time>
      </trkpt>
      <trkpt lat="45.87398" lon="4.55373">
        <ele>339</ele>
        <time>2015-06-09T14:53:36Z</time>
      </trkpt>
      <trkpt lat="45.87405" lon="4.55378">
        <ele>339</ele>
        <time>2015-06-09T14:53:38Z</time>
      </trkpt>
      <trkpt lat="45.87412" lon="4.55383">
        <ele>340</ele>
        <time>2015-06-09T14:53:40Z</time>
      </trkpt>
      <trkpt lat="45.87419" lon="4.55388">
        <ele>340</ele>
        <time>2015-06-09T14:53:42Z</time>
      </trkpt>
      <trkpt lat="45.87426" lon="4.55393">
        <ele>340</ele>
        <time>2015-06-09T14:53:44Z</time>
      </trkpt>
      <trkpt lat="45.87433" lon="4.55398">
        <ele>340</ele>
        <time>2015-06-09T14:53:46Z</time>
      </trkpt>
      <trkpt lat="45.8744" lon="4.55404">
        <ele>341</ele>
        <time>2015-06-09T14:53:48Z</time>
      </trkpt>
      <trkpt lat="45.87447" lon="4.55409">
        <ele>341</ele>
        <time>2015-06-09T14:53:50Z</time>
      </trkpt>
      <trkpt lat="45.87454" lon="4.55414">
        <ele>341</ele>
        <time>2015-06-09T14:53:52Z</time>
      </trkpt>
      <trkpt lat="45.87461" lon="4.55419">
        <ele>341</ele>
        <time>2015-06-09T14:53:54Z</time>
      </trkpt>
      <trkpt lat="45.87468" lon="4.55424">
        <ele>341</ele>
        <time>2015-06-09T14:53:56Z</time>
      </trkpt>
      <trkpt lat="45.87474" lon="4.55429">
        <ele>341</ele>
        <time>2015-06-09T14:53:58Z</time>
      </trkpt>
      <trkpt lat="45.87481" lon="4.55434">
        <ele>342</ele>
        <time>2015-06-09T14:54:00Z</time>
      </trkpt>
      <trkpt lat="45.87488" lon="4.55439">
        <ele>342</ele>
        <time>2015-06-09T14:54:02Z</time>
      </trkpt>
      <trkpt lat="45.87495" lon="4.55443">
        <ele>342</ele>
        <time>2015-06-09T14:54:04Z</time>
      </trkpt>
      <trkpt lat="45.87501" lon="4.55448">
        <ele>343</ele>
        <time>2015-06-09T14:54:06Z</time>
      </trkpt>
      <trkpt lat="45.87508" lon="4.55453">
        <ele>343</ele>
        <time>2015-06-09T14:54:08Z</time>
      </trkpt>
      <trkpt lat="45.87515" lon="4.55457">
        <ele>344</ele>
        <time>2015-06-09T14:54:10Z</time>
      </trkpt>
      <trkpt lat="45.87521" lon="4.55462">
        <ele>344</ele>
        <time>2015-06-09T14:54:12Z</time>
      </trkpt>
      <trkpt lat="45.87528" lon="4.55466">
        <ele>345</ele>
        <time>2015-06-09T14:54:14Z</time>
      </trkpt>
      <trkpt lat="45.87534" lon="4.55471">
        <ele>345</ele>
        <time>2015-06-09T14:54:16Z</time>
      </trkpt>
      <trkpt lat="45.87541" lon="4.55475">
        <ele>345</ele>
        <time>2015-06-09T14:54:18Z</time>
      </trkpt>
      <trkpt lat="45.87547" lon="4.5548">
        <ele>346</ele>
        <time>2015-06-09T14:54:20Z</time>
      </trkpt>
      <trkpt lat="45.87554" lon="4.55484">
        <ele>346</ele>
        <time>2015-06-09T14:54:22Z</time>
      </trkpt>
      <trkpt lat="45.8756" lon="4.55488">
        <ele>346</ele>
        <time>2015-06-09T14:54:24Z</time>
      </trkpt>
      <trkpt lat="45.87567" lon="4.55493">
        <ele>347</ele>
        <time>2015-06-09T14:54:26Z</time>
      </trkpt>
      <trkpt lat="45.87573" lon="4.55498">
        <ele>347</ele>
        <time>2015-06-09T14:54:28Z</time>
      </trkpt>
      <trkpt lat="45.8758" lon="4.55503">
        <ele>347</ele>
        <time>2015-06-09T14:54:30Z</time>
      </trkpt>
      <trkpt lat="45.87587" lon="4.55507">
        <ele>348</ele>
        <time>2015-06-09T14:54:32Z</time>
      </trkpt>
      <trkpt lat="45.87593" lon="4.55512">
        <ele>348</ele>
        <time>2015-06-09T14:54:34Z</time>
      </trkpt>
      <trkpt lat="45.876" lon="4.55517">
        <ele>348</ele>
        <time>2015-06-09T14:54:36Z</time>
      </trkpt>
      <trkpt lat="45.87606" lon="4.55522">
        <ele>348</ele>
        <time>2015-06-09T14:54:38Z</time>
      </trkpt>
      <trkpt lat="45.87612" lon="4.55526">
        <ele>348</ele>
        <time>2015-06-09T14:54:40Z</time>
      </trkpt>
      <trkpt lat="45.87618" lon="4.55531">
        <ele>349</ele>
        <time>2015-06-09T14:54:42Z</time>
      </trkpt>
      <trkpt lat="45.87624" lon="4.55534">
        <ele>349</ele>
        <time>2015-06-09T14:54:44Z</time>
      </trkpt>
      <trkpt lat="45.8763" lon="4.55538">
        <ele>349</ele>
        <time>2015-06-09T14:54:46Z</time>
      </trkpt>
      <trkpt lat="45.87635" lon="4.55542">
        <ele>349</ele>
        <time>2015-06-09T14:54:48Z</time>
      </trkpt>
      <trkpt lat="45.87641" lon="4.55546">
        <ele>350</ele>
        <time>2015-06-09T14:54:50Z</time>
      </trkpt>
      <trkpt lat="45.87647" lon="4.5555">
        <ele>350</ele>
        <time>2015-06-09T14:54:52Z</time>
      </trkpt>
      <trkpt lat="45.87653" lon="4.55555">
        <ele>350</ele>
        <time>2015-06-09T14:54:54Z</time>
      </trkpt>
      <trkpt lat="45.87658" lon="4.55559">
        <ele>350</ele>
        <time>2015-06-09T14:54:56Z</time>
      </trkpt>
      <trkpt lat="45.87664" lon="4.55564">
        <ele>351</ele>
        <time>2015-06-09T14:54:58Z</time>
      </trkpt>
      <trkpt lat="45.8767" lon="4.55567">
        <ele>351</ele>
        <time>2015-06-09T14:55:00Z</time>
      </trkpt>
      <trkpt lat="45.87676" lon="4.55571">
        <ele>351</ele>
        <time>2015-06-09T14:55:02Z</time>
      </trkpt>
      <trkpt lat="45.87681" lon="4.55575">
        <ele>351</ele>
        <time>2015-06-09T14:55:04Z</time>
      </trkpt>
      <trkpt lat="45.87687" lon="4.55579">
        <ele>351</ele>
        <time>2015-06-09T14:55:06Z</time>
      </trkpt>
      <trkpt lat="45.87692" lon="4.55584">
        <ele>352</ele>
        <time>2015-06-09T14:55:08Z</time>
      </trkpt>
      <trkpt lat="45.87698" lon="4.55588">
        <ele>352</ele>
        <time>2015-06-09T14:55:10Z</time>
      </trkpt>
      <trkpt lat="45.87703" lon="4.55591">
        <ele>352</ele>
        <time>2015-06-09T14:55:12Z</time>
      </trkpt>
      <trkpt lat="45.87709" lon="4.55595">
        <ele>353</ele>
        <time>2015-06-09T14:55:14Z</time>
      </trkpt>
      <trkpt lat="45.87715" lon="4.55599">
        <ele>353</ele>
        <time>2015-06-09T14:55:16Z</time>
      </trkpt>
      <trkpt lat="45.8772" lon="4.55605">
        <ele>353</ele>
        <time>2015-06-09T14:55:18Z</time>
      </trkpt>
      <trkpt lat="45.87726" lon="4.55609">
        <ele>353</ele>
        <time>2015-06-09T14:55:20Z</time>
      </trkpt>
      <trkpt lat="45.87732" lon="4.55613">
        <ele>354</ele>
        <time>2015-06-09T14:55:22Z</time>
      </trkpt>
      <trkpt lat="45.87738" lon="4.55616">
        <ele>354</ele>
        <time>2015-06-09T14:55:24Z</time>
      </trkpt>
      <trkpt lat="45.87743" lon="4.5562">
        <ele>354</ele>
        <time>2015-06-09T14:55:26Z</time>
      </trkpt>
      <trkpt lat="45.87749" lon="4.55624">
        <ele>354</ele>
        <time>2015-06-09T14:55:28Z</time>
      </trkpt>
      <trkpt lat="45.87754" lon="4.55627">
        <ele>355</ele>
        <time>2015-06-09T14:55:31Z</time>
      </trkpt>
      <trkpt lat="45.87758" lon="4.5563">
        <ele>355</ele>
        <time>2015-06-09T14:55:33Z</time>
      </trkpt>
      <trkpt lat="45.87763" lon="4.55632">
        <ele>355</ele>
        <time>2015-06-09T14:55:35Z</time>
      </trkpt>
      <trkpt lat="45.87769" lon="4.55636">
        <ele>355</ele>
        <time>2015-06-09T14:55:37Z</time>
      </trkpt>
      <trkpt lat="45.87774" lon="4.5564">
        <ele>355</ele>
        <time>2015-06-09T14:55:39Z</time>
      </trkpt>
      <trkpt lat="45.8778" lon="4.55644">
        <ele>356</ele>
        <time>2015-06-09T14:55:41Z</time>
      </trkpt>
      <trkpt lat="45.87785" lon="4.55647">
        <ele>356</ele>
        <time>2015-06-09T14:55:43Z</time>
      </trkpt>
      <trkpt lat="45.8779" lon="4.55651">
        <ele>356</ele>
        <time>2015-06-09T14:55:45Z</time>
      </trkpt>
      <trkpt lat="45.87796" lon="4.55655">
        <ele>356</ele>
        <time>2015-06-09T14:55:47Z</time>
      </trkpt>
      <trkpt lat="45.87801" lon="4.55659">
        <ele>357</ele>
        <time>2015-06-09T14:55:49Z</time>
      </trkpt>
      <trkpt lat="45.87807" lon="4.55664">
        <ele>357</ele>
        <time>2015-06-09T14:55:51Z</time>
      </trkpt>
      <trkpt lat="45.87812" lon="4.55669">
        <ele>357</ele>
        <time>2015-06-09T14:55:53Z</time>
      </trkpt>
      <trkpt lat="45.87818" lon="4.55673">
        <ele>358</ele>
        <time>2015-06-09T14:55:55Z</time>
      </trkpt>
      <trkpt lat="45.87824" lon="4.55678">
        <ele>358</ele>
        <time>2015-06-09T14:55:57Z</time>
      </trkpt>
      <trkpt lat="45.87829" lon="4.55682">
        <ele>358</ele>
        <time>2015-06-09T14:55:59Z</time>
      </trkpt>
      <trkpt lat="45.87835" lon="4.55686">
        <ele>358</ele>
        <time>2015-06-09T14:56:01Z</time>
      </trkpt>
      <trkpt lat="45.87841" lon="4.5569">
        <ele>358</ele>
        <time>2015-06-09T14:56:03Z</time>
      </trkpt>
      <trkpt lat="45.87846" lon="4.55694">
        <ele>358</ele>
        <time>2015-06-09T14:56:05Z</time>
      </trkpt>
      <trkpt lat="45.87852" lon="4.55698">
        <ele>358</ele>
        <time>2015-06-09T14:56:07Z</time>
      </trkpt>
      <trkpt lat="45.87857" lon="4.55702">
        <ele>358</ele>
        <time>2015-06-09T14:56:09Z</time>
      </trkpt>
      <trkpt lat="45.87858" lon="4.55711">
        <ele>358</ele>
        <time>2015-06-09T14:56:11Z</time>
      </trkpt>
      <trkpt lat="45.87858" lon="4.5572">
        <ele>358</ele>
        <time>2015-06-09T14:56:13Z</time>
      </trkpt>
      <trkpt lat="45.87858" lon="4.55729">
        <ele>358</ele>
        <time>2015-06-09T14:56:15Z</time>
      </trkpt>
      <trkpt lat="45.87858" lon="4.55737">
        <ele>358</ele>
        <time>2015-06-09T14:56:17Z</time>
      </trkpt>
      <trkpt lat="45.87858" lon="4.55745">
        <ele>358</ele>
        <time>2015-06-09T14:56:19Z</time>
      </trkpt>
      <trkpt lat="45.87859" lon="4.55753">
        <ele>359</ele>
        <time>2015-06-09T14:56:21Z</time>
      </trkpt>
      <trkpt lat="45.8786" lon="4.55762">
        <ele>359</ele>
        <time>2015-06-09T14:56:23Z</time>
      </trkpt>
      <trkpt lat="45.87861" lon="4.55771">
        <ele>359</ele>
        <time>2015-06-09T14:56:25Z</time>
      </trkpt>
      <trkpt lat="45.87861" lon="4.5578">
        <ele>359</ele>
        <time>2015-06-09T14:56:27Z</time>
      </trkpt>
      <trkpt lat="45.87862" lon="4.55789">
        <ele>359</ele>
        <time>2015-06-09T14:56:29Z</time>
      </trkpt>
      <trkpt lat="45.87862" lon="4.55798">
        <ele>359</ele>
        <time>2015-06-09T14:56:31Z</time>
      </trkpt>
      <trkpt lat="45.87864" lon="4.55808">
        <ele>360</ele>
        <time>2015-06-09T14:56:33Z</time>
      </trkpt>
      <trkpt lat="45.87864" lon="4.55817">
        <ele>360</ele>
        <time>2015-06-09T14:56:35Z</time>
      </trkpt>
      <trkpt lat="45.87865" lon="4.55827">
        <ele>360</ele>
        <time>2015-06-09T14:56:37Z</time>
      </trkpt>
      <trkpt lat="45.87865" lon="4.55836">
        <ele>361</ele>
        <time>2015-06-09T14:56:39Z</time>
      </trkpt>
      <trkpt lat="45.87865" lon="4.55846">
        <ele>361</ele>
        <time>2015-06-09T14:56:41Z</time>
      </trkpt>
      <trkpt lat="45.87867" lon="4.55855">
        <ele>361</ele>
        <time>2015-06-09T14:56:43Z</time>
      </trkpt>
      <trkpt lat="45.87867" lon="4.55864">
        <ele>362</ele>
        <time>2015-06-09T14:56:45Z</time>
      </trkpt>
      <trkpt lat="45.87868" lon="4.55873">
        <ele>362</ele>
        <time>2015-06-09T14:56:47Z</time>
      </trkpt>
      <trkpt lat="45.8787" lon="4.55882">
        <ele>362</ele>
        <time>2015-06-09T14:56:49Z</time>
      </trkpt>
      <trkpt lat="45.87871" lon="4.5589">
        <ele>363</ele>
        <time>2015-06-09T14:56:51Z</time>
      </trkpt>
      <trkpt lat="45.87877" lon="4.55892">
        <ele>363</ele>
        <time>2015-06-09T14:56:55Z</time>
      </trkpt>
      <trkpt lat="45.87882" lon="4.55894">
        <ele>363</ele>
        <time>2015-06-09T14:56:58Z</time>
      </trkpt>
      <trkpt lat="45.87888" lon="4.55896">
        <ele>362</ele>
        <time>2015-06-09T14:57:01Z</time>
      </trkpt>
      <trkpt lat="45.87893" lon="4.55897">
        <ele>362</ele>
        <time>2015-06-09T14:57:03Z</time>
      </trkpt>
      <trkpt lat="45.87899" lon="4.55899">
        <ele>362</ele>
        <time>2015-06-09T14:57:05Z</time>
      </trkpt>
      <trkpt lat="45.87904" lon="4.55905">
        <ele>362</ele>
        <time>2015-06-09T14:57:07Z</time>
      </trkpt>
      <trkpt lat="45.87908" lon="4.55912">
        <ele>362</ele>
        <time>2015-06-09T14:57:09Z</time>
      </trkpt>
      <trkpt lat="45.87912" lon="4.55919">
        <ele>363</ele>
        <time>2015-06-09T14:57:11Z</time>
      </trkpt>
      <trkpt lat="45.87916" lon="4.55925">
        <ele>363</ele>
        <time>2015-06-09T14:57:13Z</time>
      </trkpt>
      <trkpt lat="45.8792" lon="4.55931">
        <ele>363</ele>
        <time>2015-06-09T14:57:15Z</time>
      </trkpt>
      <trkpt lat="45.87925" lon="4.55936">
        <ele>363</ele>
        <time>2015-06-09T14:57:17Z</time>
      </trkpt>
      <trkpt lat="45.87928" lon="4.5594">
        <ele>363</ele>
        <time>2015-06-09T14:57:19Z</time>
      </trkpt>
      <trkpt lat="45.87928" lon="4.55947">
        <ele>364</ele>
        <time>2015-06-09T14:57:38Z</time>
      </trkpt>
      <trkpt lat="45.87927" lon="4.55955">
        <ele>364</ele>
        <time>2015-06-09T14:57:42Z</time>
      </trkpt>
      <trkpt lat="45.87928" lon="4.55962">
        <ele>365</ele>
        <time>2015-06-09T14:57:46Z</time>
      </trkpt>
      <trkpt lat="45.87929" lon="4.5596">
        <ele>365</ele>
        <time>2015-06-09T14:58:14Z</time>
      </trkpt>
      <trkpt lat="45.87929" lon="4.5596">
        <ele>365</ele>
        <time>2015-06-09T14:58:29Z</time>
      </trkpt>
    </trkseg>
  </trk>
</gpx>